<?xml version="1.0" encoding="UTF-8" standalone="no" ?>
<gpx xmlns="http://www.topografix.com/GPX/1/1" xmlns:xsi="http://www.w3.org/2001/XMLSchema-instance" xsi:schemaLocation="http://www.topografix.com/GPX/1/1 http://www.topografix.com/GPX/1/1/gpx.xsd" version="1.1" creator="VisuGPX - https://www.visugpx.com">
  <metadata>
    <name>Bruniquel 2011</name>
    <desc><![CDATA[Circuit officiel.
Dernière descente supprimée suite à accident.
Donc 7 kms d\'asphalte pour retour Penne-Bruniquel.]]></desc>
  </metadata>
  <trk>
    <name><![CDATA[Track 003]]></name>
    <desc><![CDATA[27 mars 2011 8:27 am]]></desc>
    <trkseg>
      <trkpt lat="44.05426" lon="1.66182">
        <ele>136</ele>
        <time>2011-03-27T06:27:54Z</time>
      </trkpt>
      <trkpt lat="44.05426" lon="1.66182">
        <ele>136</ele>
        <time>2011-03-27T06:27:55Z</time>
      </trkpt>
      <trkpt lat="44.05407" lon="1.66178">
        <ele>135</ele>
        <time>2011-03-27T06:29:10Z</time>
      </trkpt>
      <trkpt lat="44.05398" lon="1.66184">
        <ele>136</ele>
        <time>2011-03-27T06:29:13Z</time>
      </trkpt>
      <trkpt lat="44.05389" lon="1.66193">
        <ele>136</ele>
        <time>2011-03-27T06:29:17Z</time>
      </trkpt>
      <trkpt lat="44.05383" lon="1.66206">
        <ele>137</ele>
        <time>2011-03-27T06:29:21Z</time>
      </trkpt>
      <trkpt lat="44.05378" lon="1.66221">
        <ele>137</ele>
        <time>2011-03-27T06:29:25Z</time>
      </trkpt>
      <trkpt lat="44.05374" lon="1.66234">
        <ele>137</ele>
        <time>2011-03-27T06:29:28Z</time>
      </trkpt>
      <trkpt lat="44.05371" lon="1.6625">
        <ele>137</ele>
        <time>2011-03-27T06:29:32Z</time>
      </trkpt>
      <trkpt lat="44.05368" lon="1.66263">
        <ele>137</ele>
        <time>2011-03-27T06:29:36Z</time>
      </trkpt>
      <trkpt lat="44.05365" lon="1.66276">
        <ele>137</ele>
        <time>2011-03-27T06:29:40Z</time>
      </trkpt>
      <trkpt lat="44.05361" lon="1.6629">
        <ele>137</ele>
        <time>2011-03-27T06:29:44Z</time>
      </trkpt>
      <trkpt lat="44.05358" lon="1.66303">
        <ele>137</ele>
        <time>2011-03-27T06:29:47Z</time>
      </trkpt>
      <trkpt lat="44.05352" lon="1.66314">
        <ele>138</ele>
        <time>2011-03-27T06:29:50Z</time>
      </trkpt>
      <trkpt lat="44.05351" lon="1.66329">
        <ele>138</ele>
        <time>2011-03-27T06:29:53Z</time>
      </trkpt>
      <trkpt lat="44.05354" lon="1.66345">
        <ele>139</ele>
        <time>2011-03-27T06:29:56Z</time>
      </trkpt>
      <trkpt lat="44.05359" lon="1.66361">
        <ele>139</ele>
        <time>2011-03-27T06:29:59Z</time>
      </trkpt>
      <trkpt lat="44.05363" lon="1.66373">
        <ele>139</ele>
        <time>2011-03-27T06:30:02Z</time>
      </trkpt>
      <trkpt lat="44.05366" lon="1.66386">
        <ele>139</ele>
        <time>2011-03-27T06:30:05Z</time>
      </trkpt>
      <trkpt lat="44.05367" lon="1.664">
        <ele>139</ele>
        <time>2011-03-27T06:30:08Z</time>
      </trkpt>
      <trkpt lat="44.0537" lon="1.66414">
        <ele>139</ele>
        <time>2011-03-27T06:30:11Z</time>
      </trkpt>
      <trkpt lat="44.05372" lon="1.66428">
        <ele>140</ele>
        <time>2011-03-27T06:30:14Z</time>
      </trkpt>
      <trkpt lat="44.05373" lon="1.66441">
        <ele>140</ele>
        <time>2011-03-27T06:30:17Z</time>
      </trkpt>
      <trkpt lat="44.05374" lon="1.66454">
        <ele>140</ele>
        <time>2011-03-27T06:30:20Z</time>
      </trkpt>
      <trkpt lat="44.05376" lon="1.66467">
        <ele>140</ele>
        <time>2011-03-27T06:30:23Z</time>
      </trkpt>
      <trkpt lat="44.0538" lon="1.66482">
        <ele>140</ele>
        <time>2011-03-27T06:30:26Z</time>
      </trkpt>
      <trkpt lat="44.05383" lon="1.66495">
        <ele>140</ele>
        <time>2011-03-27T06:30:28Z</time>
      </trkpt>
      <trkpt lat="44.05388" lon="1.66514">
        <ele>141</ele>
        <time>2011-03-27T06:30:31Z</time>
      </trkpt>
      <trkpt lat="44.05392" lon="1.66531">
        <ele>142</ele>
        <time>2011-03-27T06:30:34Z</time>
      </trkpt>
      <trkpt lat="44.05396" lon="1.66547">
        <ele>142</ele>
        <time>2011-03-27T06:30:37Z</time>
      </trkpt>
      <trkpt lat="44.05396" lon="1.66568">
        <ele>142</ele>
        <time>2011-03-27T06:30:40Z</time>
      </trkpt>
      <trkpt lat="44.05397" lon="1.66589">
        <ele>142</ele>
        <time>2011-03-27T06:30:42Z</time>
      </trkpt>
      <trkpt lat="44.05397" lon="1.66622">
        <ele>142</ele>
        <time>2011-03-27T06:30:45Z</time>
      </trkpt>
      <trkpt lat="44.05396" lon="1.66661">
        <ele>141</ele>
        <time>2011-03-27T06:30:48Z</time>
      </trkpt>
      <trkpt lat="44.05398" lon="1.66702">
        <ele>140</ele>
        <time>2011-03-27T06:30:51Z</time>
      </trkpt>
      <trkpt lat="44.05402" lon="1.66726">
        <ele>138</ele>
        <time>2011-03-27T06:30:53Z</time>
      </trkpt>
      <trkpt lat="44.0541" lon="1.66754">
        <ele>132</ele>
        <time>2011-03-27T06:30:56Z</time>
      </trkpt>
      <trkpt lat="44.05415" lon="1.66766">
        <ele>133</ele>
        <time>2011-03-27T06:30:58Z</time>
      </trkpt>
      <trkpt lat="44.05426" lon="1.66782">
        <ele>128</ele>
        <time>2011-03-27T06:31:01Z</time>
      </trkpt>
      <trkpt lat="44.05435" lon="1.66795">
        <ele>126</ele>
        <time>2011-03-27T06:31:04Z</time>
      </trkpt>
      <trkpt lat="44.05451" lon="1.66813">
        <ele>125</ele>
        <time>2011-03-27T06:31:07Z</time>
      </trkpt>
      <trkpt lat="44.05463" lon="1.66829">
        <ele>123</ele>
        <time>2011-03-27T06:31:09Z</time>
      </trkpt>
      <trkpt lat="44.0548" lon="1.66858">
        <ele>112</ele>
        <time>2011-03-27T06:31:12Z</time>
      </trkpt>
      <trkpt lat="44.05493" lon="1.6688">
        <ele>110</ele>
        <time>2011-03-27T06:31:14Z</time>
      </trkpt>
      <trkpt lat="44.05508" lon="1.669">
        <ele>106</ele>
        <time>2011-03-27T06:31:16Z</time>
      </trkpt>
      <trkpt lat="44.05526" lon="1.66923">
        <ele>104</ele>
        <time>2011-03-27T06:31:19Z</time>
      </trkpt>
      <trkpt lat="44.05535" lon="1.66935">
        <ele>104</ele>
        <time>2011-03-27T06:31:21Z</time>
      </trkpt>
      <trkpt lat="44.05542" lon="1.66944">
        <ele>104</ele>
        <time>2011-03-27T06:31:23Z</time>
      </trkpt>
      <trkpt lat="44.05547" lon="1.66956">
        <ele>104</ele>
        <time>2011-03-27T06:31:26Z</time>
      </trkpt>
      <trkpt lat="44.05548" lon="1.66969">
        <ele>104</ele>
        <time>2011-03-27T06:31:29Z</time>
      </trkpt>
      <trkpt lat="44.05549" lon="1.66984">
        <ele>104</ele>
        <time>2011-03-27T06:31:32Z</time>
      </trkpt>
      <trkpt lat="44.0555" lon="1.66999">
        <ele>104</ele>
        <time>2011-03-27T06:31:35Z</time>
      </trkpt>
      <trkpt lat="44.05554" lon="1.67014">
        <ele>104</ele>
        <time>2011-03-27T06:31:38Z</time>
      </trkpt>
      <trkpt lat="44.05565" lon="1.67024">
        <ele>104</ele>
        <time>2011-03-27T06:31:41Z</time>
      </trkpt>
      <trkpt lat="44.05582" lon="1.67035">
        <ele>105</ele>
        <time>2011-03-27T06:31:44Z</time>
      </trkpt>
      <trkpt lat="44.05596" lon="1.67043">
        <ele>106</ele>
        <time>2011-03-27T06:31:47Z</time>
      </trkpt>
      <trkpt lat="44.05604" lon="1.67051">
        <ele>106</ele>
        <time>2011-03-27T06:31:50Z</time>
      </trkpt>
      <trkpt lat="44.05609" lon="1.67064">
        <ele>106</ele>
        <time>2011-03-27T06:31:53Z</time>
      </trkpt>
      <trkpt lat="44.05612" lon="1.67077">
        <ele>106</ele>
        <time>2011-03-27T06:31:56Z</time>
      </trkpt>
      <trkpt lat="44.056" lon="1.67077">
        <ele>106</ele>
        <time>2011-03-27T06:31:59Z</time>
      </trkpt>
      <trkpt lat="44.05589" lon="1.67078">
        <ele>107</ele>
        <time>2011-03-27T06:32:02Z</time>
      </trkpt>
      <trkpt lat="44.0558" lon="1.67081">
        <ele>107</ele>
        <time>2011-03-27T06:32:05Z</time>
      </trkpt>
      <trkpt lat="44.05571" lon="1.67086">
        <ele>110</ele>
        <time>2011-03-27T06:32:09Z</time>
      </trkpt>
      <trkpt lat="44.05571" lon="1.67086">
        <ele>110</ele>
        <time>2011-03-27T06:32:13Z</time>
      </trkpt>
      <trkpt lat="44.05585" lon="1.67095">
        <ele>111</ele>
        <time>2011-03-27T06:32:18Z</time>
      </trkpt>
      <trkpt lat="44.05597" lon="1.67091">
        <ele>112</ele>
        <time>2011-03-27T06:32:21Z</time>
      </trkpt>
      <trkpt lat="44.0561" lon="1.67087">
        <ele>113</ele>
        <time>2011-03-27T06:32:24Z</time>
      </trkpt>
      <trkpt lat="44.0562" lon="1.67085">
        <ele>113</ele>
        <time>2011-03-27T06:32:27Z</time>
      </trkpt>
      <trkpt lat="44.05632" lon="1.67081">
        <ele>106</ele>
        <time>2011-03-27T06:32:31Z</time>
      </trkpt>
      <trkpt lat="44.05637" lon="1.6707">
        <ele>106</ele>
        <time>2011-03-27T06:32:34Z</time>
      </trkpt>
      <trkpt lat="44.05637" lon="1.67054">
        <ele>106</ele>
        <time>2011-03-27T06:32:37Z</time>
      </trkpt>
      <trkpt lat="44.05635" lon="1.67036">
        <ele>105</ele>
        <time>2011-03-27T06:32:40Z</time>
      </trkpt>
      <trkpt lat="44.05633" lon="1.67018">
        <ele>105</ele>
        <time>2011-03-27T06:32:43Z</time>
      </trkpt>
      <trkpt lat="44.05632" lon="1.67001">
        <ele>105</ele>
        <time>2011-03-27T06:32:46Z</time>
      </trkpt>
      <trkpt lat="44.05632" lon="1.66984">
        <ele>103</ele>
        <time>2011-03-27T06:32:49Z</time>
      </trkpt>
      <trkpt lat="44.05634" lon="1.66966">
        <ele>103</ele>
        <time>2011-03-27T06:32:52Z</time>
      </trkpt>
      <trkpt lat="44.05646" lon="1.66957">
        <ele>103</ele>
        <time>2011-03-27T06:32:55Z</time>
      </trkpt>
      <trkpt lat="44.05658" lon="1.66956">
        <ele>103</ele>
        <time>2011-03-27T06:32:58Z</time>
      </trkpt>
      <trkpt lat="44.05671" lon="1.66956">
        <ele>105</ele>
        <time>2011-03-27T06:33:01Z</time>
      </trkpt>
      <trkpt lat="44.05685" lon="1.66958">
        <ele>106</ele>
        <time>2011-03-27T06:33:04Z</time>
      </trkpt>
      <trkpt lat="44.057" lon="1.6696">
        <ele>106</ele>
        <time>2011-03-27T06:33:07Z</time>
      </trkpt>
      <trkpt lat="44.0571" lon="1.66959">
        <ele>107</ele>
        <time>2011-03-27T06:33:09Z</time>
      </trkpt>
      <trkpt lat="44.05719" lon="1.66953">
        <ele>107</ele>
        <time>2011-03-27T06:33:11Z</time>
      </trkpt>
      <trkpt lat="44.0573" lon="1.66941">
        <ele>108</ele>
        <time>2011-03-27T06:33:14Z</time>
      </trkpt>
      <trkpt lat="44.05739" lon="1.66926">
        <ele>109</ele>
        <time>2011-03-27T06:33:17Z</time>
      </trkpt>
      <trkpt lat="44.05746" lon="1.66908">
        <ele>110</ele>
        <time>2011-03-27T06:33:20Z</time>
      </trkpt>
      <trkpt lat="44.0575" lon="1.66896">
        <ele>109</ele>
        <time>2011-03-27T06:33:22Z</time>
      </trkpt>
      <trkpt lat="44.05756" lon="1.66877">
        <ele>112</ele>
        <time>2011-03-27T06:33:25Z</time>
      </trkpt>
      <trkpt lat="44.05764" lon="1.6686">
        <ele>112</ele>
        <time>2011-03-27T06:33:28Z</time>
      </trkpt>
      <trkpt lat="44.05771" lon="1.66851">
        <ele>112</ele>
        <time>2011-03-27T06:33:30Z</time>
      </trkpt>
      <trkpt lat="44.0578" lon="1.66835">
        <ele>112</ele>
        <time>2011-03-27T06:33:33Z</time>
      </trkpt>
      <trkpt lat="44.05788" lon="1.66826">
        <ele>109</ele>
        <time>2011-03-27T06:33:35Z</time>
      </trkpt>
      <trkpt lat="44.05796" lon="1.66816">
        <ele>109</ele>
        <time>2011-03-27T06:33:37Z</time>
      </trkpt>
      <trkpt lat="44.05805" lon="1.66809">
        <ele>109</ele>
        <time>2011-03-27T06:33:39Z</time>
      </trkpt>
      <trkpt lat="44.05821" lon="1.66805">
        <ele>109</ele>
        <time>2011-03-27T06:33:42Z</time>
      </trkpt>
      <trkpt lat="44.05831" lon="1.66805">
        <ele>109</ele>
        <time>2011-03-27T06:33:44Z</time>
      </trkpt>
      <trkpt lat="44.05848" lon="1.66808">
        <ele>111</ele>
        <time>2011-03-27T06:33:47Z</time>
      </trkpt>
      <trkpt lat="44.05865" lon="1.6681">
        <ele>110</ele>
        <time>2011-03-27T06:33:50Z</time>
      </trkpt>
      <trkpt lat="44.0588" lon="1.6681">
        <ele>111</ele>
        <time>2011-03-27T06:33:53Z</time>
      </trkpt>
      <trkpt lat="44.0589" lon="1.66811">
        <ele>111</ele>
        <time>2011-03-27T06:33:55Z</time>
      </trkpt>
      <trkpt lat="44.05906" lon="1.6681">
        <ele>112</ele>
        <time>2011-03-27T06:33:58Z</time>
      </trkpt>
      <trkpt lat="44.05917" lon="1.66809">
        <ele>112</ele>
        <time>2011-03-27T06:34:00Z</time>
      </trkpt>
      <trkpt lat="44.05932" lon="1.66808">
        <ele>113</ele>
        <time>2011-03-27T06:34:03Z</time>
      </trkpt>
      <trkpt lat="44.05942" lon="1.66807">
        <ele>113</ele>
        <time>2011-03-27T06:34:05Z</time>
      </trkpt>
      <trkpt lat="44.05957" lon="1.66803">
        <ele>113</ele>
        <time>2011-03-27T06:34:08Z</time>
      </trkpt>
      <trkpt lat="44.05973" lon="1.66798">
        <ele>113</ele>
        <time>2011-03-27T06:34:11Z</time>
      </trkpt>
      <trkpt lat="44.0599" lon="1.66792">
        <ele>113</ele>
        <time>2011-03-27T06:34:14Z</time>
      </trkpt>
      <trkpt lat="44.06002" lon="1.66786">
        <ele>118</ele>
        <time>2011-03-27T06:34:16Z</time>
      </trkpt>
      <trkpt lat="44.06019" lon="1.66777">
        <ele>117</ele>
        <time>2011-03-27T06:34:19Z</time>
      </trkpt>
      <trkpt lat="44.06035" lon="1.66769">
        <ele>118</ele>
        <time>2011-03-27T06:34:22Z</time>
      </trkpt>
      <trkpt lat="44.06049" lon="1.6676">
        <ele>118</ele>
        <time>2011-03-27T06:34:25Z</time>
      </trkpt>
      <trkpt lat="44.06059" lon="1.66756">
        <ele>118</ele>
        <time>2011-03-27T06:34:27Z</time>
      </trkpt>
      <trkpt lat="44.06072" lon="1.66748">
        <ele>112</ele>
        <time>2011-03-27T06:34:30Z</time>
      </trkpt>
      <trkpt lat="44.06081" lon="1.66742">
        <ele>113</ele>
        <time>2011-03-27T06:34:32Z</time>
      </trkpt>
      <trkpt lat="44.06091" lon="1.66736">
        <ele>116</ele>
        <time>2011-03-27T06:34:34Z</time>
      </trkpt>
      <trkpt lat="44.06105" lon="1.66725">
        <ele>116</ele>
        <time>2011-03-27T06:34:37Z</time>
      </trkpt>
      <trkpt lat="44.06114" lon="1.66717">
        <ele>116</ele>
        <time>2011-03-27T06:34:39Z</time>
      </trkpt>
      <trkpt lat="44.06123" lon="1.66708">
        <ele>116</ele>
        <time>2011-03-27T06:34:41Z</time>
      </trkpt>
      <trkpt lat="44.06132" lon="1.66699">
        <ele>115</ele>
        <time>2011-03-27T06:34:43Z</time>
      </trkpt>
      <trkpt lat="44.06147" lon="1.66685">
        <ele>115</ele>
        <time>2011-03-27T06:34:46Z</time>
      </trkpt>
      <trkpt lat="44.06163" lon="1.66672">
        <ele>112</ele>
        <time>2011-03-27T06:34:49Z</time>
      </trkpt>
      <trkpt lat="44.06178" lon="1.66661">
        <ele>112</ele>
        <time>2011-03-27T06:34:52Z</time>
      </trkpt>
      <trkpt lat="44.06188" lon="1.66654">
        <ele>112</ele>
        <time>2011-03-27T06:34:54Z</time>
      </trkpt>
      <trkpt lat="44.06197" lon="1.66647">
        <ele>113</ele>
        <time>2011-03-27T06:34:56Z</time>
      </trkpt>
      <trkpt lat="44.06211" lon="1.66638">
        <ele>114</ele>
        <time>2011-03-27T06:34:59Z</time>
      </trkpt>
      <trkpt lat="44.06221" lon="1.66632">
        <ele>114</ele>
        <time>2011-03-27T06:35:01Z</time>
      </trkpt>
      <trkpt lat="44.06235" lon="1.66622">
        <ele>113</ele>
        <time>2011-03-27T06:35:04Z</time>
      </trkpt>
      <trkpt lat="44.06245" lon="1.66616">
        <ele>112</ele>
        <time>2011-03-27T06:35:06Z</time>
      </trkpt>
      <trkpt lat="44.06256" lon="1.66609">
        <ele>121</ele>
        <time>2011-03-27T06:35:08Z</time>
      </trkpt>
      <trkpt lat="44.06271" lon="1.666">
        <ele>122</ele>
        <time>2011-03-27T06:35:11Z</time>
      </trkpt>
      <trkpt lat="44.0628" lon="1.66593">
        <ele>123</ele>
        <time>2011-03-27T06:35:13Z</time>
      </trkpt>
      <trkpt lat="44.06293" lon="1.66583">
        <ele>113</ele>
        <time>2011-03-27T06:35:16Z</time>
      </trkpt>
      <trkpt lat="44.06302" lon="1.66574">
        <ele>115</ele>
        <time>2011-03-27T06:35:18Z</time>
      </trkpt>
      <trkpt lat="44.06311" lon="1.66567">
        <ele>116</ele>
        <time>2011-03-27T06:35:20Z</time>
      </trkpt>
      <trkpt lat="44.06325" lon="1.66555">
        <ele>116</ele>
        <time>2011-03-27T06:35:23Z</time>
      </trkpt>
      <trkpt lat="44.06339" lon="1.66543">
        <ele>130</ele>
        <time>2011-03-27T06:35:26Z</time>
      </trkpt>
      <trkpt lat="44.06353" lon="1.66528">
        <ele>129</ele>
        <time>2011-03-27T06:35:29Z</time>
      </trkpt>
      <trkpt lat="44.06365" lon="1.66513">
        <ele>129</ele>
        <time>2011-03-27T06:35:32Z</time>
      </trkpt>
      <trkpt lat="44.06376" lon="1.66496">
        <ele>120</ele>
        <time>2011-03-27T06:35:35Z</time>
      </trkpt>
      <trkpt lat="44.06383" lon="1.66484">
        <ele>121</ele>
        <time>2011-03-27T06:35:37Z</time>
      </trkpt>
      <trkpt lat="44.06393" lon="1.66465">
        <ele>120</ele>
        <time>2011-03-27T06:35:40Z</time>
      </trkpt>
      <trkpt lat="44.06404" lon="1.66444">
        <ele>119</ele>
        <time>2011-03-27T06:35:43Z</time>
      </trkpt>
      <trkpt lat="44.06411" lon="1.6643">
        <ele>118</ele>
        <time>2011-03-27T06:35:45Z</time>
      </trkpt>
      <trkpt lat="44.06417" lon="1.66416">
        <ele>117</ele>
        <time>2011-03-27T06:35:47Z</time>
      </trkpt>
      <trkpt lat="44.06428" lon="1.66396">
        <ele>121</ele>
        <time>2011-03-27T06:35:50Z</time>
      </trkpt>
      <trkpt lat="44.06439" lon="1.66377">
        <ele>122</ele>
        <time>2011-03-27T06:35:53Z</time>
      </trkpt>
      <trkpt lat="44.06449" lon="1.66357">
        <ele>121</ele>
        <time>2011-03-27T06:35:56Z</time>
      </trkpt>
      <trkpt lat="44.06457" lon="1.66345">
        <ele>121</ele>
        <time>2011-03-27T06:35:58Z</time>
      </trkpt>
      <trkpt lat="44.06468" lon="1.66326">
        <ele>111</ele>
        <time>2011-03-27T06:36:01Z</time>
      </trkpt>
      <trkpt lat="44.06478" lon="1.66306">
        <ele>111</ele>
        <time>2011-03-27T06:36:04Z</time>
      </trkpt>
      <trkpt lat="44.06489" lon="1.66288">
        <ele>109</ele>
        <time>2011-03-27T06:36:07Z</time>
      </trkpt>
      <trkpt lat="44.06497" lon="1.66277">
        <ele>108</ele>
        <time>2011-03-27T06:36:09Z</time>
      </trkpt>
      <trkpt lat="44.06511" lon="1.66263">
        <ele>115</ele>
        <time>2011-03-27T06:36:12Z</time>
      </trkpt>
      <trkpt lat="44.06525" lon="1.66251">
        <ele>118</ele>
        <time>2011-03-27T06:36:15Z</time>
      </trkpt>
      <trkpt lat="44.06537" lon="1.66237">
        <ele>110</ele>
        <time>2011-03-27T06:36:18Z</time>
      </trkpt>
      <trkpt lat="44.0655" lon="1.66222">
        <ele>111</ele>
        <time>2011-03-27T06:36:21Z</time>
      </trkpt>
      <trkpt lat="44.0656" lon="1.66202">
        <ele>110</ele>
        <time>2011-03-27T06:36:24Z</time>
      </trkpt>
      <trkpt lat="44.06565" lon="1.66187">
        <ele>109</ele>
        <time>2011-03-27T06:36:26Z</time>
      </trkpt>
      <trkpt lat="44.06574" lon="1.66166">
        <ele>106</ele>
        <time>2011-03-27T06:36:29Z</time>
      </trkpt>
      <trkpt lat="44.06585" lon="1.66147">
        <ele>111</ele>
        <time>2011-03-27T06:36:32Z</time>
      </trkpt>
      <trkpt lat="44.06597" lon="1.66131">
        <ele>112</ele>
        <time>2011-03-27T06:36:35Z</time>
      </trkpt>
      <trkpt lat="44.0661" lon="1.66115">
        <ele>112</ele>
        <time>2011-03-27T06:36:38Z</time>
      </trkpt>
      <trkpt lat="44.06623" lon="1.66101">
        <ele>112</ele>
        <time>2011-03-27T06:36:41Z</time>
      </trkpt>
      <trkpt lat="44.0663" lon="1.66089">
        <ele>112</ele>
        <time>2011-03-27T06:36:43Z</time>
      </trkpt>
      <trkpt lat="44.06644" lon="1.66076">
        <ele>108</ele>
        <time>2011-03-27T06:36:46Z</time>
      </trkpt>
      <trkpt lat="44.0666" lon="1.66065">
        <ele>108</ele>
        <time>2011-03-27T06:36:49Z</time>
      </trkpt>
      <trkpt lat="44.06669" lon="1.66055">
        <ele>115</ele>
        <time>2011-03-27T06:36:51Z</time>
      </trkpt>
      <trkpt lat="44.06683" lon="1.66042">
        <ele>115</ele>
        <time>2011-03-27T06:36:54Z</time>
      </trkpt>
      <trkpt lat="44.06692" lon="1.66033">
        <ele>115</ele>
        <time>2011-03-27T06:36:56Z</time>
      </trkpt>
      <trkpt lat="44.06705" lon="1.66019">
        <ele>115</ele>
        <time>2011-03-27T06:36:59Z</time>
      </trkpt>
      <trkpt lat="44.06714" lon="1.6601">
        <ele>116</ele>
        <time>2011-03-27T06:37:01Z</time>
      </trkpt>
      <trkpt lat="44.06726" lon="1.65994">
        <ele>110</ele>
        <time>2011-03-27T06:37:04Z</time>
      </trkpt>
      <trkpt lat="44.06738" lon="1.65977">
        <ele>110</ele>
        <time>2011-03-27T06:37:07Z</time>
      </trkpt>
      <trkpt lat="44.06746" lon="1.65966">
        <ele>109</ele>
        <time>2011-03-27T06:37:09Z</time>
      </trkpt>
      <trkpt lat="44.06759" lon="1.65951">
        <ele>115</ele>
        <time>2011-03-27T06:37:12Z</time>
      </trkpt>
      <trkpt lat="44.06773" lon="1.65937">
        <ele>114</ele>
        <time>2011-03-27T06:37:15Z</time>
      </trkpt>
      <trkpt lat="44.06782" lon="1.65927">
        <ele>114</ele>
        <time>2011-03-27T06:37:17Z</time>
      </trkpt>
      <trkpt lat="44.06796" lon="1.65914">
        <ele>108</ele>
        <time>2011-03-27T06:37:20Z</time>
      </trkpt>
      <trkpt lat="44.06805" lon="1.65905">
        <ele>109</ele>
        <time>2011-03-27T06:37:22Z</time>
      </trkpt>
      <trkpt lat="44.06816" lon="1.65897">
        <ele>110</ele>
        <time>2011-03-27T06:37:24Z</time>
      </trkpt>
      <trkpt lat="44.06829" lon="1.65883">
        <ele>110</ele>
        <time>2011-03-27T06:37:27Z</time>
      </trkpt>
      <trkpt lat="44.06838" lon="1.65874">
        <ele>115</ele>
        <time>2011-03-27T06:37:30Z</time>
      </trkpt>
      <trkpt lat="44.06849" lon="1.65874">
        <ele>115</ele>
        <time>2011-03-27T06:37:35Z</time>
      </trkpt>
      <trkpt lat="44.06859" lon="1.65876">
        <ele>115</ele>
        <time>2011-03-27T06:37:41Z</time>
      </trkpt>
      <trkpt lat="44.06867" lon="1.65884">
        <ele>116</ele>
        <time>2011-03-27T06:37:46Z</time>
      </trkpt>
      <trkpt lat="44.06875" lon="1.65891">
        <ele>116</ele>
        <time>2011-03-27T06:37:50Z</time>
      </trkpt>
      <trkpt lat="44.06883" lon="1.65901">
        <ele>116</ele>
        <time>2011-03-27T06:37:54Z</time>
      </trkpt>
      <trkpt lat="44.0689" lon="1.6591">
        <ele>116</ele>
        <time>2011-03-27T06:37:57Z</time>
      </trkpt>
      <trkpt lat="44.06899" lon="1.65919">
        <ele>120</ele>
        <time>2011-03-27T06:38:01Z</time>
      </trkpt>
      <trkpt lat="44.06899" lon="1.65919">
        <ele>120</ele>
        <time>2011-03-27T06:38:05Z</time>
      </trkpt>
      <trkpt lat="44.06899" lon="1.65919">
        <ele>120</ele>
        <time>2011-03-27T06:38:44Z</time>
      </trkpt>
      <trkpt lat="44.06929" lon="1.65945">
        <ele>121</ele>
        <time>2011-03-27T06:39:14Z</time>
      </trkpt>
      <trkpt lat="44.06939" lon="1.6595">
        <ele>122</ele>
        <time>2011-03-27T06:39:18Z</time>
      </trkpt>
      <trkpt lat="44.06949" lon="1.65954">
        <ele>122</ele>
        <time>2011-03-27T06:39:21Z</time>
      </trkpt>
      <trkpt lat="44.06958" lon="1.65958">
        <ele>123</ele>
        <time>2011-03-27T06:39:23Z</time>
      </trkpt>
      <trkpt lat="44.06966" lon="1.65961">
        <ele>123</ele>
        <time>2011-03-27T06:39:28Z</time>
      </trkpt>
      <trkpt lat="44.06974" lon="1.65968">
        <ele>123</ele>
        <time>2011-03-27T06:39:32Z</time>
      </trkpt>
      <trkpt lat="44.06983" lon="1.65973">
        <ele>122</ele>
        <time>2011-03-27T06:39:35Z</time>
      </trkpt>
      <trkpt lat="44.06991" lon="1.65984">
        <ele>122</ele>
        <time>2011-03-27T06:39:40Z</time>
      </trkpt>
      <trkpt lat="44.06998" lon="1.65994">
        <ele>121</ele>
        <time>2011-03-27T06:39:44Z</time>
      </trkpt>
      <trkpt lat="44.07009" lon="1.65997">
        <ele>125</ele>
        <time>2011-03-27T06:39:48Z</time>
      </trkpt>
      <trkpt lat="44.07019" lon="1.66001">
        <ele>126</ele>
        <time>2011-03-27T06:39:52Z</time>
      </trkpt>
      <trkpt lat="44.07028" lon="1.66006">
        <ele>128</ele>
        <time>2011-03-27T06:39:58Z</time>
      </trkpt>
      <trkpt lat="44.07037" lon="1.6601">
        <ele>129</ele>
        <time>2011-03-27T06:40:04Z</time>
      </trkpt>
      <trkpt lat="44.07045" lon="1.66016">
        <ele>130</ele>
        <time>2011-03-27T06:40:09Z</time>
      </trkpt>
      <trkpt lat="44.07051" lon="1.66027">
        <ele>130</ele>
        <time>2011-03-27T06:40:14Z</time>
      </trkpt>
      <trkpt lat="44.07059" lon="1.66037">
        <ele>130</ele>
        <time>2011-03-27T06:40:18Z</time>
      </trkpt>
      <trkpt lat="44.07068" lon="1.66045">
        <ele>131</ele>
        <time>2011-03-27T06:40:22Z</time>
      </trkpt>
      <trkpt lat="44.07078" lon="1.6605">
        <ele>131</ele>
        <time>2011-03-27T06:40:26Z</time>
      </trkpt>
      <trkpt lat="44.07086" lon="1.66056">
        <ele>136</ele>
        <time>2011-03-27T06:40:30Z</time>
      </trkpt>
      <trkpt lat="44.07095" lon="1.66062">
        <ele>136</ele>
        <time>2011-03-27T06:40:34Z</time>
      </trkpt>
      <trkpt lat="44.07103" lon="1.66069">
        <ele>136</ele>
        <time>2011-03-27T06:40:37Z</time>
      </trkpt>
      <trkpt lat="44.07112" lon="1.66078">
        <ele>136</ele>
        <time>2011-03-27T06:40:40Z</time>
      </trkpt>
      <trkpt lat="44.07119" lon="1.66088">
        <ele>136</ele>
        <time>2011-03-27T06:40:43Z</time>
      </trkpt>
      <trkpt lat="44.0713" lon="1.66101">
        <ele>137</ele>
        <time>2011-03-27T06:40:46Z</time>
      </trkpt>
      <trkpt lat="44.07136" lon="1.66115">
        <ele>137</ele>
        <time>2011-03-27T06:40:49Z</time>
      </trkpt>
      <trkpt lat="44.07141" lon="1.66128">
        <ele>137</ele>
        <time>2011-03-27T06:40:52Z</time>
      </trkpt>
      <trkpt lat="44.07146" lon="1.66143">
        <ele>137</ele>
        <time>2011-03-27T06:40:55Z</time>
      </trkpt>
      <trkpt lat="44.07152" lon="1.66157">
        <ele>136</ele>
        <time>2011-03-27T06:40:58Z</time>
      </trkpt>
      <trkpt lat="44.0716" lon="1.66168">
        <ele>138</ele>
        <time>2011-03-27T06:41:01Z</time>
      </trkpt>
      <trkpt lat="44.07168" lon="1.66178">
        <ele>137</ele>
        <time>2011-03-27T06:41:05Z</time>
      </trkpt>
      <trkpt lat="44.07175" lon="1.6619">
        <ele>139</ele>
        <time>2011-03-27T06:41:08Z</time>
      </trkpt>
      <trkpt lat="44.07182" lon="1.66201">
        <ele>140</ele>
        <time>2011-03-27T06:41:11Z</time>
      </trkpt>
      <trkpt lat="44.07192" lon="1.66212">
        <ele>141</ele>
        <time>2011-03-27T06:41:14Z</time>
      </trkpt>
      <trkpt lat="44.07199" lon="1.66221">
        <ele>141</ele>
        <time>2011-03-27T06:41:17Z</time>
      </trkpt>
      <trkpt lat="44.07207" lon="1.6623">
        <ele>141</ele>
        <time>2011-03-27T06:41:23Z</time>
      </trkpt>
      <trkpt lat="44.07216" lon="1.66234">
        <ele>140</ele>
        <time>2011-03-27T06:41:30Z</time>
      </trkpt>
      <trkpt lat="44.07226" lon="1.66238">
        <ele>140</ele>
        <time>2011-03-27T06:41:37Z</time>
      </trkpt>
      <trkpt lat="44.07236" lon="1.66242">
        <ele>138</ele>
        <time>2011-03-27T06:41:41Z</time>
      </trkpt>
      <trkpt lat="44.07246" lon="1.66245">
        <ele>137</ele>
        <time>2011-03-27T06:41:45Z</time>
      </trkpt>
      <trkpt lat="44.07258" lon="1.66246">
        <ele>139</ele>
        <time>2011-03-27T06:41:50Z</time>
      </trkpt>
      <trkpt lat="44.07268" lon="1.66248">
        <ele>142</ele>
        <time>2011-03-27T06:41:53Z</time>
      </trkpt>
      <trkpt lat="44.07277" lon="1.66249">
        <ele>144</ele>
        <time>2011-03-27T06:41:56Z</time>
      </trkpt>
      <trkpt lat="44.07289" lon="1.66253">
        <ele>141</ele>
        <time>2011-03-27T06:42:00Z</time>
      </trkpt>
      <trkpt lat="44.073" lon="1.66255">
        <ele>141</ele>
        <time>2011-03-27T06:42:04Z</time>
      </trkpt>
      <trkpt lat="44.07311" lon="1.66255">
        <ele>142</ele>
        <time>2011-03-27T06:42:07Z</time>
      </trkpt>
      <trkpt lat="44.07321" lon="1.66257">
        <ele>142</ele>
        <time>2011-03-27T06:42:10Z</time>
      </trkpt>
      <trkpt lat="44.07331" lon="1.66258">
        <ele>141</ele>
        <time>2011-03-27T06:42:13Z</time>
      </trkpt>
      <trkpt lat="44.07342" lon="1.66259">
        <ele>143</ele>
        <time>2011-03-27T06:42:16Z</time>
      </trkpt>
      <trkpt lat="44.07352" lon="1.66261">
        <ele>144</ele>
        <time>2011-03-27T06:42:19Z</time>
      </trkpt>
      <trkpt lat="44.07363" lon="1.66265">
        <ele>145</ele>
        <time>2011-03-27T06:42:22Z</time>
      </trkpt>
      <trkpt lat="44.07375" lon="1.66271">
        <ele>146</ele>
        <time>2011-03-27T06:42:25Z</time>
      </trkpt>
      <trkpt lat="44.07383" lon="1.66277">
        <ele>147</ele>
        <time>2011-03-27T06:42:28Z</time>
      </trkpt>
      <trkpt lat="44.0739" lon="1.66286">
        <ele>147</ele>
        <time>2011-03-27T06:42:31Z</time>
      </trkpt>
      <trkpt lat="44.07397" lon="1.66296">
        <ele>146</ele>
        <time>2011-03-27T06:42:34Z</time>
      </trkpt>
      <trkpt lat="44.07404" lon="1.66308">
        <ele>146</ele>
        <time>2011-03-27T06:42:38Z</time>
      </trkpt>
      <trkpt lat="44.07412" lon="1.6632">
        <ele>145</ele>
        <time>2011-03-27T06:42:42Z</time>
      </trkpt>
      <trkpt lat="44.07419" lon="1.66331">
        <ele>145</ele>
        <time>2011-03-27T06:42:45Z</time>
      </trkpt>
      <trkpt lat="44.07427" lon="1.66341">
        <ele>147</ele>
        <time>2011-03-27T06:42:48Z</time>
      </trkpt>
      <trkpt lat="44.07433" lon="1.6635">
        <ele>150</ele>
        <time>2011-03-27T06:42:51Z</time>
      </trkpt>
      <trkpt lat="44.07441" lon="1.66361">
        <ele>151</ele>
        <time>2011-03-27T06:42:55Z</time>
      </trkpt>
      <trkpt lat="44.07447" lon="1.66373">
        <ele>152</ele>
        <time>2011-03-27T06:42:59Z</time>
      </trkpt>
      <trkpt lat="44.07453" lon="1.66383">
        <ele>153</ele>
        <time>2011-03-27T06:43:02Z</time>
      </trkpt>
      <trkpt lat="44.07458" lon="1.66396">
        <ele>153</ele>
        <time>2011-03-27T06:43:06Z</time>
      </trkpt>
      <trkpt lat="44.07464" lon="1.66408">
        <ele>153</ele>
        <time>2011-03-27T06:43:10Z</time>
      </trkpt>
      <trkpt lat="44.07471" lon="1.66417">
        <ele>154</ele>
        <time>2011-03-27T06:43:13Z</time>
      </trkpt>
      <trkpt lat="44.07476" lon="1.66427">
        <ele>154</ele>
        <time>2011-03-27T06:43:17Z</time>
      </trkpt>
      <trkpt lat="44.07493" lon="1.66458">
        <ele>153</ele>
        <time>2011-03-27T06:43:54Z</time>
      </trkpt>
      <trkpt lat="44.07498" lon="1.66471">
        <ele>153</ele>
        <time>2011-03-27T06:43:58Z</time>
      </trkpt>
      <trkpt lat="44.07502" lon="1.66484">
        <ele>153</ele>
        <time>2011-03-27T06:44:02Z</time>
      </trkpt>
      <trkpt lat="44.07507" lon="1.66496">
        <ele>151</ele>
        <time>2011-03-27T06:44:05Z</time>
      </trkpt>
      <trkpt lat="44.07513" lon="1.66509">
        <ele>151</ele>
        <time>2011-03-27T06:44:08Z</time>
      </trkpt>
      <trkpt lat="44.07519" lon="1.66522">
        <ele>152</ele>
        <time>2011-03-27T06:44:11Z</time>
      </trkpt>
      <trkpt lat="44.07526" lon="1.66533">
        <ele>153</ele>
        <time>2011-03-27T06:44:15Z</time>
      </trkpt>
      <trkpt lat="44.07533" lon="1.66542">
        <ele>153</ele>
        <time>2011-03-27T06:44:18Z</time>
      </trkpt>
      <trkpt lat="44.0754" lon="1.66553">
        <ele>153</ele>
        <time>2011-03-27T06:44:21Z</time>
      </trkpt>
      <trkpt lat="44.07548" lon="1.6656">
        <ele>153</ele>
        <time>2011-03-27T06:44:24Z</time>
      </trkpt>
      <trkpt lat="44.07557" lon="1.66567">
        <ele>153</ele>
        <time>2011-03-27T06:44:27Z</time>
      </trkpt>
      <trkpt lat="44.07563" lon="1.66576">
        <ele>152</ele>
        <time>2011-03-27T06:44:30Z</time>
      </trkpt>
      <trkpt lat="44.07574" lon="1.66582">
        <ele>151</ele>
        <time>2011-03-27T06:44:34Z</time>
      </trkpt>
      <trkpt lat="44.07582" lon="1.66588">
        <ele>151</ele>
        <time>2011-03-27T06:44:37Z</time>
      </trkpt>
      <trkpt lat="44.07591" lon="1.66598">
        <ele>153</ele>
        <time>2011-03-27T06:44:40Z</time>
      </trkpt>
      <trkpt lat="44.07598" lon="1.66607">
        <ele>154</ele>
        <time>2011-03-27T06:44:43Z</time>
      </trkpt>
      <trkpt lat="44.07609" lon="1.66614">
        <ele>155</ele>
        <time>2011-03-27T06:44:48Z</time>
      </trkpt>
      <trkpt lat="44.07618" lon="1.66619">
        <ele>156</ele>
        <time>2011-03-27T06:44:52Z</time>
      </trkpt>
      <trkpt lat="44.07629" lon="1.66622">
        <ele>156</ele>
        <time>2011-03-27T06:44:56Z</time>
      </trkpt>
      <trkpt lat="44.07639" lon="1.66623">
        <ele>156</ele>
        <time>2011-03-27T06:45:00Z</time>
      </trkpt>
      <trkpt lat="44.0765" lon="1.66623">
        <ele>156</ele>
        <time>2011-03-27T06:45:04Z</time>
      </trkpt>
      <trkpt lat="44.07659" lon="1.66619">
        <ele>156</ele>
        <time>2011-03-27T06:45:07Z</time>
      </trkpt>
      <trkpt lat="44.07667" lon="1.66614">
        <ele>158</ele>
        <time>2011-03-27T06:45:10Z</time>
      </trkpt>
      <trkpt lat="44.07677" lon="1.66612">
        <ele>158</ele>
        <time>2011-03-27T06:45:14Z</time>
      </trkpt>
      <trkpt lat="44.07686" lon="1.66606">
        <ele>158</ele>
        <time>2011-03-27T06:45:18Z</time>
      </trkpt>
      <trkpt lat="44.07695" lon="1.66603">
        <ele>158</ele>
        <time>2011-03-27T06:45:21Z</time>
      </trkpt>
      <trkpt lat="44.07706" lon="1.66602">
        <ele>158</ele>
        <time>2011-03-27T06:45:25Z</time>
      </trkpt>
      <trkpt lat="44.07716" lon="1.66601">
        <ele>159</ele>
        <time>2011-03-27T06:45:29Z</time>
      </trkpt>
      <trkpt lat="44.07726" lon="1.66592">
        <ele>158</ele>
        <time>2011-03-27T06:45:33Z</time>
      </trkpt>
      <trkpt lat="44.07737" lon="1.66589">
        <ele>158</ele>
        <time>2011-03-27T06:45:36Z</time>
      </trkpt>
      <trkpt lat="44.07747" lon="1.66585">
        <ele>158</ele>
        <time>2011-03-27T06:45:39Z</time>
      </trkpt>
      <trkpt lat="44.07756" lon="1.66581">
        <ele>160</ele>
        <time>2011-03-27T06:45:43Z</time>
      </trkpt>
      <trkpt lat="44.07765" lon="1.6658">
        <ele>161</ele>
        <time>2011-03-27T06:45:50Z</time>
      </trkpt>
      <trkpt lat="44.07775" lon="1.6658">
        <ele>162</ele>
        <time>2011-03-27T06:45:56Z</time>
      </trkpt>
      <trkpt lat="44.07784" lon="1.66573">
        <ele>163</ele>
        <time>2011-03-27T06:46:01Z</time>
      </trkpt>
      <trkpt lat="44.07794" lon="1.66567">
        <ele>163</ele>
        <time>2011-03-27T06:46:06Z</time>
      </trkpt>
      <trkpt lat="44.07803" lon="1.66562">
        <ele>163</ele>
        <time>2011-03-27T06:46:10Z</time>
      </trkpt>
      <trkpt lat="44.07813" lon="1.6656">
        <ele>163</ele>
        <time>2011-03-27T06:46:15Z</time>
      </trkpt>
      <trkpt lat="44.07822" lon="1.66557">
        <ele>163</ele>
        <time>2011-03-27T06:46:19Z</time>
      </trkpt>
      <trkpt lat="44.07831" lon="1.66553">
        <ele>163</ele>
        <time>2011-03-27T06:46:24Z</time>
      </trkpt>
      <trkpt lat="44.07839" lon="1.66548">
        <ele>165</ele>
        <time>2011-03-27T06:46:28Z</time>
      </trkpt>
      <trkpt lat="44.07848" lon="1.66547">
        <ele>165</ele>
        <time>2011-03-27T06:46:33Z</time>
      </trkpt>
      <trkpt lat="44.07856" lon="1.66555">
        <ele>165</ele>
        <time>2011-03-27T06:46:39Z</time>
      </trkpt>
      <trkpt lat="44.07861" lon="1.66566">
        <ele>165</ele>
        <time>2011-03-27T06:46:45Z</time>
      </trkpt>
      <trkpt lat="44.07865" lon="1.66578">
        <ele>165</ele>
        <time>2011-03-27T06:46:51Z</time>
      </trkpt>
      <trkpt lat="44.07869" lon="1.66591">
        <ele>165</ele>
        <time>2011-03-27T06:46:58Z</time>
      </trkpt>
      <trkpt lat="44.07875" lon="1.66603">
        <ele>166</ele>
        <time>2011-03-27T06:47:12Z</time>
      </trkpt>
      <trkpt lat="44.07875" lon="1.66603">
        <ele>166</ele>
        <time>2011-03-27T06:47:19Z</time>
      </trkpt>
      <trkpt lat="44.07894" lon="1.66631">
        <ele>167</ele>
        <time>2011-03-27T06:47:43Z</time>
      </trkpt>
      <trkpt lat="44.07903" lon="1.66636">
        <ele>167</ele>
        <time>2011-03-27T06:47:47Z</time>
      </trkpt>
      <trkpt lat="44.07912" lon="1.66635">
        <ele>167</ele>
        <time>2011-03-27T06:47:51Z</time>
      </trkpt>
      <trkpt lat="44.07923" lon="1.66632">
        <ele>172</ele>
        <time>2011-03-27T06:47:55Z</time>
      </trkpt>
      <trkpt lat="44.07933" lon="1.66631">
        <ele>173</ele>
        <time>2011-03-27T06:48:00Z</time>
      </trkpt>
      <trkpt lat="44.07935" lon="1.66645">
        <ele>173</ele>
        <time>2011-03-27T06:48:07Z</time>
      </trkpt>
      <trkpt lat="44.07939" lon="1.66658">
        <ele>173</ele>
        <time>2011-03-27T06:48:11Z</time>
      </trkpt>
      <trkpt lat="44.07943" lon="1.66671">
        <ele>173</ele>
        <time>2011-03-27T06:48:15Z</time>
      </trkpt>
      <trkpt lat="44.07947" lon="1.66682">
        <ele>174</ele>
        <time>2011-03-27T06:48:18Z</time>
      </trkpt>
      <trkpt lat="44.07952" lon="1.66696">
        <ele>174</ele>
        <time>2011-03-27T06:48:21Z</time>
      </trkpt>
      <trkpt lat="44.07956" lon="1.66709">
        <ele>174</ele>
        <time>2011-03-27T06:48:24Z</time>
      </trkpt>
      <trkpt lat="44.07962" lon="1.66722">
        <ele>174</ele>
        <time>2011-03-27T06:48:27Z</time>
      </trkpt>
      <trkpt lat="44.07968" lon="1.66734">
        <ele>174</ele>
        <time>2011-03-27T06:48:30Z</time>
      </trkpt>
      <trkpt lat="44.07978" lon="1.66743">
        <ele>172</ele>
        <time>2011-03-27T06:48:33Z</time>
      </trkpt>
      <trkpt lat="44.07993" lon="1.66752">
        <ele>171</ele>
        <time>2011-03-27T06:48:36Z</time>
      </trkpt>
      <trkpt lat="44.08011" lon="1.6676">
        <ele>171</ele>
        <time>2011-03-27T06:48:39Z</time>
      </trkpt>
      <trkpt lat="44.08021" lon="1.66763">
        <ele>172</ele>
        <time>2011-03-27T06:48:41Z</time>
      </trkpt>
      <trkpt lat="44.08031" lon="1.66766">
        <ele>172</ele>
        <time>2011-03-27T06:48:43Z</time>
      </trkpt>
      <trkpt lat="44.08044" lon="1.66769">
        <ele>173</ele>
        <time>2011-03-27T06:48:46Z</time>
      </trkpt>
      <trkpt lat="44.08053" lon="1.66771">
        <ele>174</ele>
        <time>2011-03-27T06:48:49Z</time>
      </trkpt>
      <trkpt lat="44.08065" lon="1.66777">
        <ele>174</ele>
        <time>2011-03-27T06:48:53Z</time>
      </trkpt>
      <trkpt lat="44.08074" lon="1.66781">
        <ele>174</ele>
        <time>2011-03-27T06:48:56Z</time>
      </trkpt>
      <trkpt lat="44.08085" lon="1.66785">
        <ele>176</ele>
        <time>2011-03-27T06:48:59Z</time>
      </trkpt>
      <trkpt lat="44.08096" lon="1.66788">
        <ele>175</ele>
        <time>2011-03-27T06:49:02Z</time>
      </trkpt>
      <trkpt lat="44.08109" lon="1.66789">
        <ele>175</ele>
        <time>2011-03-27T06:49:05Z</time>
      </trkpt>
      <trkpt lat="44.0812" lon="1.66789">
        <ele>175</ele>
        <time>2011-03-27T06:49:08Z</time>
      </trkpt>
      <trkpt lat="44.08131" lon="1.6679">
        <ele>175</ele>
        <time>2011-03-27T06:49:11Z</time>
      </trkpt>
      <trkpt lat="44.08141" lon="1.6679">
        <ele>176</ele>
        <time>2011-03-27T06:49:14Z</time>
      </trkpt>
      <trkpt lat="44.08141" lon="1.6679">
        <ele>176</ele>
        <time>2011-03-27T06:49:17Z</time>
      </trkpt>
      <trkpt lat="44.08141" lon="1.6679">
        <ele>176</ele>
        <time>2011-03-27T06:50:11Z</time>
      </trkpt>
      <trkpt lat="44.0817" lon="1.66778">
        <ele>182</ele>
        <time>2011-03-27T06:52:06Z</time>
      </trkpt>
      <trkpt lat="44.08178" lon="1.66788">
        <ele>182</ele>
        <time>2011-03-27T06:52:14Z</time>
      </trkpt>
      <trkpt lat="44.08187" lon="1.66792">
        <ele>182</ele>
        <time>2011-03-27T06:52:22Z</time>
      </trkpt>
      <trkpt lat="44.08197" lon="1.66797">
        <ele>182</ele>
        <time>2011-03-27T06:52:27Z</time>
      </trkpt>
      <trkpt lat="44.08205" lon="1.66804">
        <ele>183</ele>
        <time>2011-03-27T06:52:32Z</time>
      </trkpt>
      <trkpt lat="44.08204" lon="1.66819">
        <ele>182</ele>
        <time>2011-03-27T06:52:38Z</time>
      </trkpt>
      <trkpt lat="44.08204" lon="1.66835">
        <ele>177</ele>
        <time>2011-03-27T06:52:40Z</time>
      </trkpt>
      <trkpt lat="44.08203" lon="1.66852">
        <ele>177</ele>
        <time>2011-03-27T06:52:42Z</time>
      </trkpt>
      <trkpt lat="44.08205" lon="1.66873">
        <ele>176</ele>
        <time>2011-03-27T06:52:45Z</time>
      </trkpt>
      <trkpt lat="44.08211" lon="1.66886">
        <ele>176</ele>
        <time>2011-03-27T06:52:48Z</time>
      </trkpt>
      <trkpt lat="44.08217" lon="1.66897">
        <ele>176</ele>
        <time>2011-03-27T06:52:52Z</time>
      </trkpt>
      <trkpt lat="44.08227" lon="1.66905">
        <ele>176</ele>
        <time>2011-03-27T06:52:56Z</time>
      </trkpt>
      <trkpt lat="44.08236" lon="1.66916">
        <ele>176</ele>
        <time>2011-03-27T06:52:59Z</time>
      </trkpt>
      <trkpt lat="44.08249" lon="1.66923">
        <ele>175</ele>
        <time>2011-03-27T06:53:02Z</time>
      </trkpt>
      <trkpt lat="44.08259" lon="1.6693">
        <ele>176</ele>
        <time>2011-03-27T06:53:05Z</time>
      </trkpt>
      <trkpt lat="44.08269" lon="1.66935">
        <ele>177</ele>
        <time>2011-03-27T06:53:09Z</time>
      </trkpt>
      <trkpt lat="44.0828" lon="1.66939">
        <ele>177</ele>
        <time>2011-03-27T06:53:13Z</time>
      </trkpt>
      <trkpt lat="44.08289" lon="1.66936">
        <ele>178</ele>
        <time>2011-03-27T06:53:15Z</time>
      </trkpt>
      <trkpt lat="44.08302" lon="1.66925">
        <ele>179</ele>
        <time>2011-03-27T06:53:18Z</time>
      </trkpt>
      <trkpt lat="44.08313" lon="1.66916">
        <ele>182</ele>
        <time>2011-03-27T06:53:21Z</time>
      </trkpt>
      <trkpt lat="44.08322" lon="1.6691">
        <ele>182</ele>
        <time>2011-03-27T06:53:24Z</time>
      </trkpt>
      <trkpt lat="44.08332" lon="1.66903">
        <ele>183</ele>
        <time>2011-03-27T06:53:28Z</time>
      </trkpt>
      <trkpt lat="44.08341" lon="1.66897">
        <ele>185</ele>
        <time>2011-03-27T06:53:31Z</time>
      </trkpt>
      <trkpt lat="44.0835" lon="1.66893">
        <ele>186</ele>
        <time>2011-03-27T06:53:34Z</time>
      </trkpt>
      <trkpt lat="44.08361" lon="1.66889">
        <ele>187</ele>
        <time>2011-03-27T06:53:38Z</time>
      </trkpt>
      <trkpt lat="44.0837" lon="1.66886">
        <ele>187</ele>
        <time>2011-03-27T06:53:42Z</time>
      </trkpt>
      <trkpt lat="44.08379" lon="1.66888">
        <ele>187</ele>
        <time>2011-03-27T06:53:46Z</time>
      </trkpt>
      <trkpt lat="44.08389" lon="1.66891">
        <ele>187</ele>
        <time>2011-03-27T06:53:49Z</time>
      </trkpt>
      <trkpt lat="44.084" lon="1.66895">
        <ele>186</ele>
        <time>2011-03-27T06:53:52Z</time>
      </trkpt>
      <trkpt lat="44.08409" lon="1.66899">
        <ele>185</ele>
        <time>2011-03-27T06:53:55Z</time>
      </trkpt>
      <trkpt lat="44.08419" lon="1.66903">
        <ele>184</ele>
        <time>2011-03-27T06:53:58Z</time>
      </trkpt>
      <trkpt lat="44.08428" lon="1.66907">
        <ele>185</ele>
        <time>2011-03-27T06:54:01Z</time>
      </trkpt>
      <trkpt lat="44.08437" lon="1.66911">
        <ele>185</ele>
        <time>2011-03-27T06:54:04Z</time>
      </trkpt>
      <trkpt lat="44.08446" lon="1.66914">
        <ele>186</ele>
        <time>2011-03-27T06:54:07Z</time>
      </trkpt>
      <trkpt lat="44.08455" lon="1.66916">
        <ele>186</ele>
        <time>2011-03-27T06:54:10Z</time>
      </trkpt>
      <trkpt lat="44.08467" lon="1.66914">
        <ele>187</ele>
        <time>2011-03-27T06:54:14Z</time>
      </trkpt>
      <trkpt lat="44.08476" lon="1.66911">
        <ele>187</ele>
        <time>2011-03-27T06:54:18Z</time>
      </trkpt>
      <trkpt lat="44.08486" lon="1.66914">
        <ele>186</ele>
        <time>2011-03-27T06:54:24Z</time>
      </trkpt>
      <trkpt lat="44.08477" lon="1.66919">
        <ele>185</ele>
        <time>2011-03-27T06:54:36Z</time>
      </trkpt>
      <trkpt lat="44.08466" lon="1.66924">
        <ele>185</ele>
        <time>2011-03-27T06:54:41Z</time>
      </trkpt>
      <trkpt lat="44.08459" lon="1.66934">
        <ele>186</ele>
        <time>2011-03-27T06:54:45Z</time>
      </trkpt>
      <trkpt lat="44.08455" lon="1.66948">
        <ele>186</ele>
        <time>2011-03-27T06:54:49Z</time>
      </trkpt>
      <trkpt lat="44.08452" lon="1.66961">
        <ele>187</ele>
        <time>2011-03-27T06:54:53Z</time>
      </trkpt>
      <trkpt lat="44.08445" lon="1.66974">
        <ele>187</ele>
        <time>2011-03-27T06:54:58Z</time>
      </trkpt>
      <trkpt lat="44.0844" lon="1.66986">
        <ele>188</ele>
        <time>2011-03-27T06:55:02Z</time>
      </trkpt>
      <trkpt lat="44.08437" lon="1.67001">
        <ele>193</ele>
        <time>2011-03-27T06:55:06Z</time>
      </trkpt>
      <trkpt lat="44.08436" lon="1.67014">
        <ele>194</ele>
        <time>2011-03-27T06:55:09Z</time>
      </trkpt>
      <trkpt lat="44.08437" lon="1.67029">
        <ele>196</ele>
        <time>2011-03-27T06:55:12Z</time>
      </trkpt>
      <trkpt lat="44.08437" lon="1.67043">
        <ele>197</ele>
        <time>2011-03-27T06:55:15Z</time>
      </trkpt>
      <trkpt lat="44.08438" lon="1.67057">
        <ele>198</ele>
        <time>2011-03-27T06:55:19Z</time>
      </trkpt>
      <trkpt lat="44.08438" lon="1.6707">
        <ele>199</ele>
        <time>2011-03-27T06:55:25Z</time>
      </trkpt>
      <trkpt lat="44.08438" lon="1.6707">
        <ele>199</ele>
        <time>2011-03-27T06:55:36Z</time>
      </trkpt>
      <trkpt lat="44.08464" lon="1.67073">
        <ele>200</ele>
        <time>2011-03-27T06:56:18Z</time>
      </trkpt>
      <trkpt lat="44.0847" lon="1.67062">
        <ele>200</ele>
        <time>2011-03-27T06:56:24Z</time>
      </trkpt>
      <trkpt lat="44.0847" lon="1.67047">
        <ele>198</ele>
        <time>2011-03-27T06:56:29Z</time>
      </trkpt>
      <trkpt lat="44.08468" lon="1.67034">
        <ele>197</ele>
        <time>2011-03-27T06:56:32Z</time>
      </trkpt>
      <trkpt lat="44.08477" lon="1.6703">
        <ele>197</ele>
        <time>2011-03-27T06:56:46Z</time>
      </trkpt>
      <trkpt lat="44.08483" lon="1.6704">
        <ele>198</ele>
        <time>2011-03-27T06:56:56Z</time>
      </trkpt>
      <trkpt lat="44.08483" lon="1.67053">
        <ele>200</ele>
        <time>2011-03-27T06:57:05Z</time>
      </trkpt>
      <trkpt lat="44.08483" lon="1.67053">
        <ele>200</ele>
        <time>2011-03-27T06:57:19Z</time>
      </trkpt>
      <trkpt lat="44.08475" lon="1.67098">
        <ele>210</ele>
        <time>2011-03-27T06:57:58Z</time>
      </trkpt>
      <trkpt lat="44.08469" lon="1.67109">
        <ele>211</ele>
        <time>2011-03-27T06:58:07Z</time>
      </trkpt>
      <trkpt lat="44.08463" lon="1.6712">
        <ele>211</ele>
        <time>2011-03-27T06:58:14Z</time>
      </trkpt>
      <trkpt lat="44.08458" lon="1.6713">
        <ele>212</ele>
        <time>2011-03-27T06:58:21Z</time>
      </trkpt>
      <trkpt lat="44.08453" lon="1.67141">
        <ele>213</ele>
        <time>2011-03-27T06:58:29Z</time>
      </trkpt>
      <trkpt lat="44.08449" lon="1.67153">
        <ele>214</ele>
        <time>2011-03-27T06:58:38Z</time>
      </trkpt>
      <trkpt lat="44.08444" lon="1.67165">
        <ele>214</ele>
        <time>2011-03-27T06:58:46Z</time>
      </trkpt>
      <trkpt lat="44.0844" lon="1.67177">
        <ele>222</ele>
        <time>2011-03-27T06:58:57Z</time>
      </trkpt>
      <trkpt lat="44.08437" lon="1.6719">
        <ele>223</ele>
        <time>2011-03-27T06:59:05Z</time>
      </trkpt>
      <trkpt lat="44.08435" lon="1.67203">
        <ele>224</ele>
        <time>2011-03-27T06:59:17Z</time>
      </trkpt>
      <trkpt lat="44.08436" lon="1.67216">
        <ele>225</ele>
        <time>2011-03-27T06:59:23Z</time>
      </trkpt>
      <trkpt lat="44.08441" lon="1.67228">
        <ele>226</ele>
        <time>2011-03-27T06:59:30Z</time>
      </trkpt>
      <trkpt lat="44.08449" lon="1.67231">
        <ele>226</ele>
        <time>2011-03-27T06:59:37Z</time>
      </trkpt>
      <trkpt lat="44.08458" lon="1.67239">
        <ele>227</ele>
        <time>2011-03-27T06:59:44Z</time>
      </trkpt>
      <trkpt lat="44.08458" lon="1.67239">
        <ele>227</ele>
        <time>2011-03-27T06:59:57Z</time>
      </trkpt>
      <trkpt lat="44.08458" lon="1.67239">
        <ele>227</ele>
        <time>2011-03-27T07:00:54Z</time>
      </trkpt>
      <trkpt lat="44.08471" lon="1.67277">
        <ele>233</ele>
        <time>2011-03-27T07:01:17Z</time>
      </trkpt>
      <trkpt lat="44.08469" lon="1.67293">
        <ele>233</ele>
        <time>2011-03-27T07:01:22Z</time>
      </trkpt>
      <trkpt lat="44.08466" lon="1.67305">
        <ele>234</ele>
        <time>2011-03-27T07:01:26Z</time>
      </trkpt>
      <trkpt lat="44.08465" lon="1.67319">
        <ele>234</ele>
        <time>2011-03-27T07:01:31Z</time>
      </trkpt>
      <trkpt lat="44.08462" lon="1.67332">
        <ele>234</ele>
        <time>2011-03-27T07:01:36Z</time>
      </trkpt>
      <trkpt lat="44.0846" lon="1.67345">
        <ele>236</ele>
        <time>2011-03-27T07:01:42Z</time>
      </trkpt>
      <trkpt lat="44.08457" lon="1.67357">
        <ele>236</ele>
        <time>2011-03-27T07:01:47Z</time>
      </trkpt>
      <trkpt lat="44.08453" lon="1.67371">
        <ele>237</ele>
        <time>2011-03-27T07:01:52Z</time>
      </trkpt>
      <trkpt lat="44.0845" lon="1.67383">
        <ele>237</ele>
        <time>2011-03-27T07:01:56Z</time>
      </trkpt>
      <trkpt lat="44.08447" lon="1.67397">
        <ele>237</ele>
        <time>2011-03-27T07:02:01Z</time>
      </trkpt>
      <trkpt lat="44.08444" lon="1.67413">
        <ele>237</ele>
        <time>2011-03-27T07:02:05Z</time>
      </trkpt>
      <trkpt lat="44.08441" lon="1.67426">
        <ele>239</ele>
        <time>2011-03-27T07:02:09Z</time>
      </trkpt>
      <trkpt lat="44.08439" lon="1.67439">
        <ele>239</ele>
        <time>2011-03-27T07:02:13Z</time>
      </trkpt>
      <trkpt lat="44.08436" lon="1.67453">
        <ele>239</ele>
        <time>2011-03-27T07:02:17Z</time>
      </trkpt>
      <trkpt lat="44.08432" lon="1.67466">
        <ele>240</ele>
        <time>2011-03-27T07:02:21Z</time>
      </trkpt>
      <trkpt lat="44.08427" lon="1.67479">
        <ele>240</ele>
        <time>2011-03-27T07:02:25Z</time>
      </trkpt>
      <trkpt lat="44.08422" lon="1.6749">
        <ele>240</ele>
        <time>2011-03-27T07:02:28Z</time>
      </trkpt>
      <trkpt lat="44.08414" lon="1.67502">
        <ele>240</ele>
        <time>2011-03-27T07:02:32Z</time>
      </trkpt>
      <trkpt lat="44.08407" lon="1.67515">
        <ele>239</ele>
        <time>2011-03-27T07:02:36Z</time>
      </trkpt>
      <trkpt lat="44.08399" lon="1.67526">
        <ele>239</ele>
        <time>2011-03-27T07:02:39Z</time>
      </trkpt>
      <trkpt lat="44.08392" lon="1.67534">
        <ele>239</ele>
        <time>2011-03-27T07:02:42Z</time>
      </trkpt>
      <trkpt lat="44.08383" lon="1.67544">
        <ele>239</ele>
        <time>2011-03-27T07:02:46Z</time>
      </trkpt>
      <trkpt lat="44.08376" lon="1.67555">
        <ele>239</ele>
        <time>2011-03-27T07:02:49Z</time>
      </trkpt>
      <trkpt lat="44.08369" lon="1.67568">
        <ele>239</ele>
        <time>2011-03-27T07:02:53Z</time>
      </trkpt>
      <trkpt lat="44.08361" lon="1.67579">
        <ele>239</ele>
        <time>2011-03-27T07:02:56Z</time>
      </trkpt>
      <trkpt lat="44.08354" lon="1.6759">
        <ele>241</ele>
        <time>2011-03-27T07:03:00Z</time>
      </trkpt>
      <trkpt lat="44.08345" lon="1.67605">
        <ele>241</ele>
        <time>2011-03-27T07:03:03Z</time>
      </trkpt>
      <trkpt lat="44.08337" lon="1.67618">
        <ele>241</ele>
        <time>2011-03-27T07:03:06Z</time>
      </trkpt>
      <trkpt lat="44.08332" lon="1.67632">
        <ele>239</ele>
        <time>2011-03-27T07:03:09Z</time>
      </trkpt>
      <trkpt lat="44.08328" lon="1.67648">
        <ele>239</ele>
        <time>2011-03-27T07:03:13Z</time>
      </trkpt>
      <trkpt lat="44.08322" lon="1.67664">
        <ele>240</ele>
        <time>2011-03-27T07:03:16Z</time>
      </trkpt>
      <trkpt lat="44.08318" lon="1.67676">
        <ele>241</ele>
        <time>2011-03-27T07:03:18Z</time>
      </trkpt>
      <trkpt lat="44.08314" lon="1.67692">
        <ele>241</ele>
        <time>2011-03-27T07:03:21Z</time>
      </trkpt>
      <trkpt lat="44.0831" lon="1.67706">
        <ele>241</ele>
        <time>2011-03-27T07:03:24Z</time>
      </trkpt>
      <trkpt lat="44.08305" lon="1.6772">
        <ele>241</ele>
        <time>2011-03-27T07:03:27Z</time>
      </trkpt>
      <trkpt lat="44.08304" lon="1.67732">
        <ele>242</ele>
        <time>2011-03-27T07:03:29Z</time>
      </trkpt>
      <trkpt lat="44.08303" lon="1.67747">
        <ele>242</ele>
        <time>2011-03-27T07:03:31Z</time>
      </trkpt>
      <trkpt lat="44.08304" lon="1.6776">
        <ele>243</ele>
        <time>2011-03-27T07:03:33Z</time>
      </trkpt>
      <trkpt lat="44.08304" lon="1.67776">
        <ele>244</ele>
        <time>2011-03-27T07:03:36Z</time>
      </trkpt>
      <trkpt lat="44.08305" lon="1.6779">
        <ele>244</ele>
        <time>2011-03-27T07:03:39Z</time>
      </trkpt>
      <trkpt lat="44.08305" lon="1.67804">
        <ele>244</ele>
        <time>2011-03-27T07:03:42Z</time>
      </trkpt>
      <trkpt lat="44.08303" lon="1.67817">
        <ele>244</ele>
        <time>2011-03-27T07:03:45Z</time>
      </trkpt>
      <trkpt lat="44.08302" lon="1.67831">
        <ele>244</ele>
        <time>2011-03-27T07:03:48Z</time>
      </trkpt>
      <trkpt lat="44.08302" lon="1.67845">
        <ele>246</ele>
        <time>2011-03-27T07:03:51Z</time>
      </trkpt>
      <trkpt lat="44.08301" lon="1.67858">
        <ele>246</ele>
        <time>2011-03-27T07:03:54Z</time>
      </trkpt>
      <trkpt lat="44.08301" lon="1.67872">
        <ele>246</ele>
        <time>2011-03-27T07:03:57Z</time>
      </trkpt>
      <trkpt lat="44.083" lon="1.67889">
        <ele>247</ele>
        <time>2011-03-27T07:04:00Z</time>
      </trkpt>
      <trkpt lat="44.08301" lon="1.67905">
        <ele>247</ele>
        <time>2011-03-27T07:04:03Z</time>
      </trkpt>
      <trkpt lat="44.08303" lon="1.6792">
        <ele>248</ele>
        <time>2011-03-27T07:04:06Z</time>
      </trkpt>
      <trkpt lat="44.08304" lon="1.67935">
        <ele>249</ele>
        <time>2011-03-27T07:04:09Z</time>
      </trkpt>
      <trkpt lat="44.08306" lon="1.67948">
        <ele>249</ele>
        <time>2011-03-27T07:04:12Z</time>
      </trkpt>
      <trkpt lat="44.08309" lon="1.67963">
        <ele>249</ele>
        <time>2011-03-27T07:04:16Z</time>
      </trkpt>
      <trkpt lat="44.08314" lon="1.67977">
        <ele>249</ele>
        <time>2011-03-27T07:04:20Z</time>
      </trkpt>
      <trkpt lat="44.08317" lon="1.67989">
        <ele>249</ele>
        <time>2011-03-27T07:04:23Z</time>
      </trkpt>
      <trkpt lat="44.08323" lon="1.68002">
        <ele>250</ele>
        <time>2011-03-27T07:04:26Z</time>
      </trkpt>
      <trkpt lat="44.08332" lon="1.68011">
        <ele>249</ele>
        <time>2011-03-27T07:04:29Z</time>
      </trkpt>
      <trkpt lat="44.08343" lon="1.68018">
        <ele>250</ele>
        <time>2011-03-27T07:04:32Z</time>
      </trkpt>
      <trkpt lat="44.08355" lon="1.68023">
        <ele>250</ele>
        <time>2011-03-27T07:04:35Z</time>
      </trkpt>
      <trkpt lat="44.08365" lon="1.68029">
        <ele>250</ele>
        <time>2011-03-27T07:04:38Z</time>
      </trkpt>
      <trkpt lat="44.08375" lon="1.68037">
        <ele>250</ele>
        <time>2011-03-27T07:04:41Z</time>
      </trkpt>
      <trkpt lat="44.08385" lon="1.68043">
        <ele>250</ele>
        <time>2011-03-27T07:04:44Z</time>
      </trkpt>
      <trkpt lat="44.08395" lon="1.6805">
        <ele>250</ele>
        <time>2011-03-27T07:04:47Z</time>
      </trkpt>
      <trkpt lat="44.08405" lon="1.68056">
        <ele>250</ele>
        <time>2011-03-27T07:04:50Z</time>
      </trkpt>
      <trkpt lat="44.08415" lon="1.68061">
        <ele>250</ele>
        <time>2011-03-27T07:04:53Z</time>
      </trkpt>
      <trkpt lat="44.08424" lon="1.68067">
        <ele>250</ele>
        <time>2011-03-27T07:04:56Z</time>
      </trkpt>
      <trkpt lat="44.08432" lon="1.68075">
        <ele>250</ele>
        <time>2011-03-27T07:04:59Z</time>
      </trkpt>
      <trkpt lat="44.08437" lon="1.68088">
        <ele>250</ele>
        <time>2011-03-27T07:05:02Z</time>
      </trkpt>
      <trkpt lat="44.08442" lon="1.68105">
        <ele>250</ele>
        <time>2011-03-27T07:05:05Z</time>
      </trkpt>
      <trkpt lat="44.08449" lon="1.68113">
        <ele>250</ele>
        <time>2011-03-27T07:05:07Z</time>
      </trkpt>
      <trkpt lat="44.08459" lon="1.68119">
        <ele>250</ele>
        <time>2011-03-27T07:05:09Z</time>
      </trkpt>
      <trkpt lat="44.08472" lon="1.68125">
        <ele>250</ele>
        <time>2011-03-27T07:05:12Z</time>
      </trkpt>
      <trkpt lat="44.08483" lon="1.68132">
        <ele>250</ele>
        <time>2011-03-27T07:05:15Z</time>
      </trkpt>
      <trkpt lat="44.08495" lon="1.68139">
        <ele>250</ele>
        <time>2011-03-27T07:05:18Z</time>
      </trkpt>
      <trkpt lat="44.08507" lon="1.68145">
        <ele>250</ele>
        <time>2011-03-27T07:05:21Z</time>
      </trkpt>
      <trkpt lat="44.08516" lon="1.6815">
        <ele>250</ele>
        <time>2011-03-27T07:05:24Z</time>
      </trkpt>
      <trkpt lat="44.08527" lon="1.68156">
        <ele>250</ele>
        <time>2011-03-27T07:05:27Z</time>
      </trkpt>
      <trkpt lat="44.08536" lon="1.68161">
        <ele>250</ele>
        <time>2011-03-27T07:05:29Z</time>
      </trkpt>
      <trkpt lat="44.08546" lon="1.68166">
        <ele>250</ele>
        <time>2011-03-27T07:05:31Z</time>
      </trkpt>
      <trkpt lat="44.08555" lon="1.68172">
        <ele>251</ele>
        <time>2011-03-27T07:05:33Z</time>
      </trkpt>
      <trkpt lat="44.08569" lon="1.68181">
        <ele>251</ele>
        <time>2011-03-27T07:05:36Z</time>
      </trkpt>
      <trkpt lat="44.08578" lon="1.68185">
        <ele>251</ele>
        <time>2011-03-27T07:05:38Z</time>
      </trkpt>
      <trkpt lat="44.08591" lon="1.68194">
        <ele>252</ele>
        <time>2011-03-27T07:05:41Z</time>
      </trkpt>
      <trkpt lat="44.08603" lon="1.68203">
        <ele>253</ele>
        <time>2011-03-27T07:05:44Z</time>
      </trkpt>
      <trkpt lat="44.08616" lon="1.68212">
        <ele>253</ele>
        <time>2011-03-27T07:05:47Z</time>
      </trkpt>
      <trkpt lat="44.08632" lon="1.68218">
        <ele>253</ele>
        <time>2011-03-27T07:05:50Z</time>
      </trkpt>
      <trkpt lat="44.08651" lon="1.68222">
        <ele>253</ele>
        <time>2011-03-27T07:05:53Z</time>
      </trkpt>
      <trkpt lat="44.08668" lon="1.68222">
        <ele>255</ele>
        <time>2011-03-27T07:05:56Z</time>
      </trkpt>
      <trkpt lat="44.08677" lon="1.68222">
        <ele>255</ele>
        <time>2011-03-27T07:05:58Z</time>
      </trkpt>
      <trkpt lat="44.08687" lon="1.68222">
        <ele>255</ele>
        <time>2011-03-27T07:06:00Z</time>
      </trkpt>
      <trkpt lat="44.087" lon="1.68221">
        <ele>255</ele>
        <time>2011-03-27T07:06:03Z</time>
      </trkpt>
      <trkpt lat="44.08714" lon="1.68221">
        <ele>255</ele>
        <time>2011-03-27T07:06:06Z</time>
      </trkpt>
      <trkpt lat="44.08728" lon="1.68222">
        <ele>255</ele>
        <time>2011-03-27T07:06:09Z</time>
      </trkpt>
      <trkpt lat="44.08742" lon="1.68222">
        <ele>255</ele>
        <time>2011-03-27T07:06:12Z</time>
      </trkpt>
      <trkpt lat="44.08757" lon="1.68223">
        <ele>256</ele>
        <time>2011-03-27T07:06:15Z</time>
      </trkpt>
      <trkpt lat="44.08767" lon="1.68223">
        <ele>256</ele>
        <time>2011-03-27T07:06:17Z</time>
      </trkpt>
      <trkpt lat="44.08787" lon="1.68225">
        <ele>255</ele>
        <time>2011-03-27T07:06:20Z</time>
      </trkpt>
      <trkpt lat="44.08809" lon="1.68225">
        <ele>255</ele>
        <time>2011-03-27T07:06:23Z</time>
      </trkpt>
      <trkpt lat="44.08829" lon="1.68223">
        <ele>255</ele>
        <time>2011-03-27T07:06:26Z</time>
      </trkpt>
      <trkpt lat="44.0885" lon="1.68221">
        <ele>254</ele>
        <time>2011-03-27T07:06:29Z</time>
      </trkpt>
      <trkpt lat="44.08869" lon="1.68216">
        <ele>253</ele>
        <time>2011-03-27T07:06:32Z</time>
      </trkpt>
      <trkpt lat="44.0889" lon="1.68212">
        <ele>253</ele>
        <time>2011-03-27T07:06:35Z</time>
      </trkpt>
      <trkpt lat="44.08903" lon="1.68209">
        <ele>253</ele>
        <time>2011-03-27T07:06:37Z</time>
      </trkpt>
      <trkpt lat="44.08925" lon="1.68204">
        <ele>250</ele>
        <time>2011-03-27T07:06:40Z</time>
      </trkpt>
      <trkpt lat="44.08945" lon="1.682">
        <ele>250</ele>
        <time>2011-03-27T07:06:43Z</time>
      </trkpt>
      <trkpt lat="44.08967" lon="1.68195">
        <ele>249</ele>
        <time>2011-03-27T07:06:46Z</time>
      </trkpt>
      <trkpt lat="44.08989" lon="1.68189">
        <ele>249</ele>
        <time>2011-03-27T07:06:49Z</time>
      </trkpt>
      <trkpt lat="44.09009" lon="1.68182">
        <ele>246</ele>
        <time>2011-03-27T07:06:52Z</time>
      </trkpt>
      <trkpt lat="44.09024" lon="1.68179">
        <ele>245</ele>
        <time>2011-03-27T07:06:55Z</time>
      </trkpt>
      <trkpt lat="44.09036" lon="1.68194">
        <ele>245</ele>
        <time>2011-03-27T07:06:58Z</time>
      </trkpt>
      <trkpt lat="44.09044" lon="1.68215">
        <ele>244</ele>
        <time>2011-03-27T07:07:01Z</time>
      </trkpt>
      <trkpt lat="44.09052" lon="1.68223">
        <ele>244</ele>
        <time>2011-03-27T07:07:03Z</time>
      </trkpt>
      <trkpt lat="44.09064" lon="1.68229">
        <ele>244</ele>
        <time>2011-03-27T07:07:06Z</time>
      </trkpt>
      <trkpt lat="44.09075" lon="1.68238">
        <ele>243</ele>
        <time>2011-03-27T07:07:09Z</time>
      </trkpt>
      <trkpt lat="44.09089" lon="1.68245">
        <ele>242</ele>
        <time>2011-03-27T07:07:12Z</time>
      </trkpt>
      <trkpt lat="44.09099" lon="1.68254">
        <ele>242</ele>
        <time>2011-03-27T07:07:14Z</time>
      </trkpt>
      <trkpt lat="44.09115" lon="1.68269">
        <ele>243</ele>
        <time>2011-03-27T07:07:17Z</time>
      </trkpt>
      <trkpt lat="44.09133" lon="1.68277">
        <ele>243</ele>
        <time>2011-03-27T07:07:20Z</time>
      </trkpt>
      <trkpt lat="44.0915" lon="1.68278">
        <ele>243</ele>
        <time>2011-03-27T07:07:23Z</time>
      </trkpt>
      <trkpt lat="44.0916" lon="1.68278">
        <ele>243</ele>
        <time>2011-03-27T07:07:25Z</time>
      </trkpt>
      <trkpt lat="44.09175" lon="1.68271">
        <ele>245</ele>
        <time>2011-03-27T07:07:28Z</time>
      </trkpt>
      <trkpt lat="44.09182" lon="1.68262">
        <ele>245</ele>
        <time>2011-03-27T07:07:30Z</time>
      </trkpt>
      <trkpt lat="44.0919" lon="1.68255">
        <ele>245</ele>
        <time>2011-03-27T07:07:33Z</time>
      </trkpt>
      <trkpt lat="44.092" lon="1.68254">
        <ele>246</ele>
        <time>2011-03-27T07:07:36Z</time>
      </trkpt>
      <trkpt lat="44.0921" lon="1.68258">
        <ele>247</ele>
        <time>2011-03-27T07:07:39Z</time>
      </trkpt>
      <trkpt lat="44.0922" lon="1.68261">
        <ele>247</ele>
        <time>2011-03-27T07:07:43Z</time>
      </trkpt>
      <trkpt lat="44.0923" lon="1.68268">
        <ele>248</ele>
        <time>2011-03-27T07:07:48Z</time>
      </trkpt>
      <trkpt lat="44.09241" lon="1.68273">
        <ele>248</ele>
        <time>2011-03-27T07:07:52Z</time>
      </trkpt>
      <trkpt lat="44.09251" lon="1.68281">
        <ele>251</ele>
        <time>2011-03-27T07:07:56Z</time>
      </trkpt>
      <trkpt lat="44.09261" lon="1.68286">
        <ele>251</ele>
        <time>2011-03-27T07:08:00Z</time>
      </trkpt>
      <trkpt lat="44.0927" lon="1.68286">
        <ele>252</ele>
        <time>2011-03-27T07:08:04Z</time>
      </trkpt>
      <trkpt lat="44.09281" lon="1.68287">
        <ele>252</ele>
        <time>2011-03-27T07:08:08Z</time>
      </trkpt>
      <trkpt lat="44.09292" lon="1.6829">
        <ele>252</ele>
        <time>2011-03-27T07:08:12Z</time>
      </trkpt>
      <trkpt lat="44.09302" lon="1.6829">
        <ele>253</ele>
        <time>2011-03-27T07:08:16Z</time>
      </trkpt>
      <trkpt lat="44.09312" lon="1.68288">
        <ele>253</ele>
        <time>2011-03-27T07:08:20Z</time>
      </trkpt>
      <trkpt lat="44.09322" lon="1.68285">
        <ele>253</ele>
        <time>2011-03-27T07:08:24Z</time>
      </trkpt>
      <trkpt lat="44.09333" lon="1.68284">
        <ele>253</ele>
        <time>2011-03-27T07:08:29Z</time>
      </trkpt>
      <trkpt lat="44.09345" lon="1.68286">
        <ele>257</ele>
        <time>2011-03-27T07:08:33Z</time>
      </trkpt>
      <trkpt lat="44.09355" lon="1.6829">
        <ele>257</ele>
        <time>2011-03-27T07:08:36Z</time>
      </trkpt>
      <trkpt lat="44.09367" lon="1.68293">
        <ele>257</ele>
        <time>2011-03-27T07:08:40Z</time>
      </trkpt>
      <trkpt lat="44.09376" lon="1.68294">
        <ele>258</ele>
        <time>2011-03-27T07:08:44Z</time>
      </trkpt>
      <trkpt lat="44.09387" lon="1.68296">
        <ele>258</ele>
        <time>2011-03-27T07:08:48Z</time>
      </trkpt>
      <trkpt lat="44.09398" lon="1.68299">
        <ele>259</ele>
        <time>2011-03-27T07:08:53Z</time>
      </trkpt>
      <trkpt lat="44.09408" lon="1.68299">
        <ele>259</ele>
        <time>2011-03-27T07:08:57Z</time>
      </trkpt>
      <trkpt lat="44.0942" lon="1.683">
        <ele>262</ele>
        <time>2011-03-27T07:09:01Z</time>
      </trkpt>
      <trkpt lat="44.09429" lon="1.68302">
        <ele>262</ele>
        <time>2011-03-27T07:09:04Z</time>
      </trkpt>
      <trkpt lat="44.09439" lon="1.68304">
        <ele>262</ele>
        <time>2011-03-27T07:09:08Z</time>
      </trkpt>
      <trkpt lat="44.09448" lon="1.68306">
        <ele>262</ele>
        <time>2011-03-27T07:09:12Z</time>
      </trkpt>
      <trkpt lat="44.09457" lon="1.68306">
        <ele>262</ele>
        <time>2011-03-27T07:09:16Z</time>
      </trkpt>
      <trkpt lat="44.09467" lon="1.68308">
        <ele>262</ele>
        <time>2011-03-27T07:09:20Z</time>
      </trkpt>
      <trkpt lat="44.09478" lon="1.68312">
        <ele>263</ele>
        <time>2011-03-27T07:09:24Z</time>
      </trkpt>
      <trkpt lat="44.0949" lon="1.68314">
        <ele>263</ele>
        <time>2011-03-27T07:09:28Z</time>
      </trkpt>
      <trkpt lat="44.095" lon="1.68314">
        <ele>264</ele>
        <time>2011-03-27T07:09:31Z</time>
      </trkpt>
      <trkpt lat="44.09511" lon="1.68314">
        <ele>264</ele>
        <time>2011-03-27T07:09:34Z</time>
      </trkpt>
      <trkpt lat="44.09523" lon="1.68316">
        <ele>263</ele>
        <time>2011-03-27T07:09:37Z</time>
      </trkpt>
      <trkpt lat="44.09535" lon="1.6832">
        <ele>263</ele>
        <time>2011-03-27T07:09:40Z</time>
      </trkpt>
      <trkpt lat="44.09544" lon="1.68322">
        <ele>263</ele>
        <time>2011-03-27T07:09:42Z</time>
      </trkpt>
      <trkpt lat="44.09557" lon="1.68327">
        <ele>263</ele>
        <time>2011-03-27T07:09:45Z</time>
      </trkpt>
      <trkpt lat="44.0957" lon="1.68335">
        <ele>264</ele>
        <time>2011-03-27T07:09:48Z</time>
      </trkpt>
      <trkpt lat="44.09586" lon="1.68344">
        <ele>263</ele>
        <time>2011-03-27T07:09:51Z</time>
      </trkpt>
      <trkpt lat="44.09599" lon="1.68352">
        <ele>263</ele>
        <time>2011-03-27T07:09:54Z</time>
      </trkpt>
      <trkpt lat="44.09607" lon="1.6836">
        <ele>263</ele>
        <time>2011-03-27T07:09:56Z</time>
      </trkpt>
      <trkpt lat="44.09619" lon="1.6837">
        <ele>263</ele>
        <time>2011-03-27T07:09:59Z</time>
      </trkpt>
      <trkpt lat="44.09627" lon="1.68376">
        <ele>262</ele>
        <time>2011-03-27T07:10:01Z</time>
      </trkpt>
      <trkpt lat="44.09636" lon="1.68383">
        <ele>262</ele>
        <time>2011-03-27T07:10:03Z</time>
      </trkpt>
      <trkpt lat="44.09649" lon="1.68394">
        <ele>263</ele>
        <time>2011-03-27T07:10:06Z</time>
      </trkpt>
      <trkpt lat="44.09657" lon="1.68401">
        <ele>263</ele>
        <time>2011-03-27T07:10:08Z</time>
      </trkpt>
      <trkpt lat="44.09666" lon="1.68409">
        <ele>263</ele>
        <time>2011-03-27T07:10:10Z</time>
      </trkpt>
      <trkpt lat="44.0968" lon="1.68419">
        <ele>262</ele>
        <time>2011-03-27T07:10:13Z</time>
      </trkpt>
      <trkpt lat="44.09694" lon="1.6843">
        <ele>261</ele>
        <time>2011-03-27T07:10:16Z</time>
      </trkpt>
      <trkpt lat="44.09704" lon="1.68438">
        <ele>261</ele>
        <time>2011-03-27T07:10:18Z</time>
      </trkpt>
      <trkpt lat="44.09717" lon="1.6845">
        <ele>260</ele>
        <time>2011-03-27T07:10:21Z</time>
      </trkpt>
      <trkpt lat="44.0973" lon="1.6846">
        <ele>260</ele>
        <time>2011-03-27T07:10:24Z</time>
      </trkpt>
      <trkpt lat="44.09743" lon="1.68471">
        <ele>260</ele>
        <time>2011-03-27T07:10:27Z</time>
      </trkpt>
      <trkpt lat="44.09754" lon="1.68478">
        <ele>257</ele>
        <time>2011-03-27T07:10:29Z</time>
      </trkpt>
      <trkpt lat="44.0977" lon="1.68488">
        <ele>257</ele>
        <time>2011-03-27T07:10:32Z</time>
      </trkpt>
      <trkpt lat="44.09786" lon="1.68497">
        <ele>256</ele>
        <time>2011-03-27T07:10:35Z</time>
      </trkpt>
      <trkpt lat="44.09798" lon="1.68503">
        <ele>257</ele>
        <time>2011-03-27T07:10:38Z</time>
      </trkpt>
      <trkpt lat="44.09809" lon="1.68508">
        <ele>256</ele>
        <time>2011-03-27T07:10:40Z</time>
      </trkpt>
      <trkpt lat="44.09823" lon="1.68518">
        <ele>256</ele>
        <time>2011-03-27T07:10:43Z</time>
      </trkpt>
      <trkpt lat="44.09832" lon="1.68527">
        <ele>256</ele>
        <time>2011-03-27T07:10:45Z</time>
      </trkpt>
      <trkpt lat="44.09847" lon="1.68539">
        <ele>255</ele>
        <time>2011-03-27T07:10:48Z</time>
      </trkpt>
      <trkpt lat="44.09855" lon="1.68548">
        <ele>255</ele>
        <time>2011-03-27T07:10:50Z</time>
      </trkpt>
      <trkpt lat="44.09865" lon="1.68557">
        <ele>255</ele>
        <time>2011-03-27T07:10:52Z</time>
      </trkpt>
      <trkpt lat="44.09879" lon="1.6857">
        <ele>255</ele>
        <time>2011-03-27T07:10:55Z</time>
      </trkpt>
      <trkpt lat="44.09895" lon="1.68585">
        <ele>256</ele>
        <time>2011-03-27T07:10:58Z</time>
      </trkpt>
      <trkpt lat="44.09905" lon="1.68596">
        <ele>255</ele>
        <time>2011-03-27T07:11:00Z</time>
      </trkpt>
      <trkpt lat="44.09916" lon="1.68608">
        <ele>255</ele>
        <time>2011-03-27T07:11:02Z</time>
      </trkpt>
      <trkpt lat="44.09933" lon="1.68622">
        <ele>254</ele>
        <time>2011-03-27T07:11:05Z</time>
      </trkpt>
      <trkpt lat="44.09944" lon="1.68631">
        <ele>254</ele>
        <time>2011-03-27T07:11:07Z</time>
      </trkpt>
      <trkpt lat="44.0996" lon="1.68643">
        <ele>253</ele>
        <time>2011-03-27T07:11:10Z</time>
      </trkpt>
      <trkpt lat="44.09971" lon="1.68649">
        <ele>253</ele>
        <time>2011-03-27T07:11:12Z</time>
      </trkpt>
      <trkpt lat="44.09985" lon="1.68662">
        <ele>253</ele>
        <time>2011-03-27T07:11:15Z</time>
      </trkpt>
      <trkpt lat="44.09997" lon="1.68671">
        <ele>253</ele>
        <time>2011-03-27T07:11:18Z</time>
      </trkpt>
      <trkpt lat="44.10008" lon="1.68678">
        <ele>255</ele>
        <time>2011-03-27T07:11:21Z</time>
      </trkpt>
      <trkpt lat="44.10018" lon="1.68686">
        <ele>256</ele>
        <time>2011-03-27T07:11:23Z</time>
      </trkpt>
      <trkpt lat="44.1003" lon="1.68697">
        <ele>257</ele>
        <time>2011-03-27T07:11:26Z</time>
      </trkpt>
      <trkpt lat="44.10039" lon="1.68707">
        <ele>257</ele>
        <time>2011-03-27T07:11:29Z</time>
      </trkpt>
      <trkpt lat="44.10045" lon="1.68716">
        <ele>257</ele>
        <time>2011-03-27T07:11:32Z</time>
      </trkpt>
      <trkpt lat="44.10052" lon="1.68726">
        <ele>258</ele>
        <time>2011-03-27T07:11:37Z</time>
      </trkpt>
      <trkpt lat="44.10063" lon="1.68731">
        <ele>258</ele>
        <time>2011-03-27T07:11:41Z</time>
      </trkpt>
      <trkpt lat="44.10074" lon="1.6873">
        <ele>259</ele>
        <time>2011-03-27T07:11:44Z</time>
      </trkpt>
      <trkpt lat="44.10083" lon="1.68722">
        <ele>259</ele>
        <time>2011-03-27T07:11:48Z</time>
      </trkpt>
      <trkpt lat="44.10091" lon="1.68711">
        <ele>263</ele>
        <time>2011-03-27T07:11:52Z</time>
      </trkpt>
      <trkpt lat="44.10098" lon="1.68698">
        <ele>263</ele>
        <time>2011-03-27T07:11:56Z</time>
      </trkpt>
      <trkpt lat="44.10104" lon="1.68684">
        <ele>263</ele>
        <time>2011-03-27T07:12:00Z</time>
      </trkpt>
      <trkpt lat="44.10111" lon="1.68671">
        <ele>263</ele>
        <time>2011-03-27T07:12:04Z</time>
      </trkpt>
      <trkpt lat="44.10117" lon="1.68659">
        <ele>262</ele>
        <time>2011-03-27T07:12:08Z</time>
      </trkpt>
      <trkpt lat="44.10123" lon="1.68648">
        <ele>262</ele>
        <time>2011-03-27T07:12:11Z</time>
      </trkpt>
      <trkpt lat="44.10129" lon="1.68635">
        <ele>262</ele>
        <time>2011-03-27T07:12:14Z</time>
      </trkpt>
      <trkpt lat="44.10135" lon="1.68624">
        <ele>262</ele>
        <time>2011-03-27T07:12:17Z</time>
      </trkpt>
      <trkpt lat="44.10139" lon="1.68613">
        <ele>262</ele>
        <time>2011-03-27T07:12:20Z</time>
      </trkpt>
      <trkpt lat="44.10144" lon="1.686">
        <ele>263</ele>
        <time>2011-03-27T07:12:23Z</time>
      </trkpt>
      <trkpt lat="44.10154" lon="1.68598">
        <ele>263</ele>
        <time>2011-03-27T07:12:27Z</time>
      </trkpt>
      <trkpt lat="44.10161" lon="1.68608">
        <ele>263</ele>
        <time>2011-03-27T07:12:33Z</time>
      </trkpt>
      <trkpt lat="44.10162" lon="1.6862">
        <ele>263</ele>
        <time>2011-03-27T07:12:37Z</time>
      </trkpt>
      <trkpt lat="44.10163" lon="1.68636">
        <ele>264</ele>
        <time>2011-03-27T07:12:41Z</time>
      </trkpt>
      <trkpt lat="44.10165" lon="1.68651">
        <ele>265</ele>
        <time>2011-03-27T07:12:45Z</time>
      </trkpt>
      <trkpt lat="44.10167" lon="1.68666">
        <ele>267</ele>
        <time>2011-03-27T07:12:49Z</time>
      </trkpt>
      <trkpt lat="44.10168" lon="1.68679">
        <ele>269</ele>
        <time>2011-03-27T07:12:52Z</time>
      </trkpt>
      <trkpt lat="44.1017" lon="1.68692">
        <ele>271</ele>
        <time>2011-03-27T07:12:55Z</time>
      </trkpt>
      <trkpt lat="44.10172" lon="1.68707">
        <ele>271</ele>
        <time>2011-03-27T07:12:59Z</time>
      </trkpt>
      <trkpt lat="44.10176" lon="1.68722">
        <ele>271</ele>
        <time>2011-03-27T07:13:03Z</time>
      </trkpt>
      <trkpt lat="44.10179" lon="1.68737">
        <ele>271</ele>
        <time>2011-03-27T07:13:07Z</time>
      </trkpt>
      <trkpt lat="44.10181" lon="1.68749">
        <ele>271</ele>
        <time>2011-03-27T07:13:10Z</time>
      </trkpt>
      <trkpt lat="44.10184" lon="1.68761">
        <ele>272</ele>
        <time>2011-03-27T07:13:13Z</time>
      </trkpt>
      <trkpt lat="44.10186" lon="1.68776">
        <ele>273</ele>
        <time>2011-03-27T07:13:17Z</time>
      </trkpt>
      <trkpt lat="44.10189" lon="1.68789">
        <ele>273</ele>
        <time>2011-03-27T07:13:21Z</time>
      </trkpt>
      <trkpt lat="44.10195" lon="1.68803">
        <ele>274</ele>
        <time>2011-03-27T07:13:25Z</time>
      </trkpt>
      <trkpt lat="44.10202" lon="1.68817">
        <ele>274</ele>
        <time>2011-03-27T07:13:29Z</time>
      </trkpt>
      <trkpt lat="44.10208" lon="1.68828">
        <ele>275</ele>
        <time>2011-03-27T07:13:33Z</time>
      </trkpt>
      <trkpt lat="44.10214" lon="1.68837">
        <ele>275</ele>
        <time>2011-03-27T07:13:37Z</time>
      </trkpt>
      <trkpt lat="44.10221" lon="1.68848">
        <ele>276</ele>
        <time>2011-03-27T07:13:41Z</time>
      </trkpt>
      <trkpt lat="44.10228" lon="1.68859">
        <ele>276</ele>
        <time>2011-03-27T07:13:45Z</time>
      </trkpt>
      <trkpt lat="44.10234" lon="1.68871">
        <ele>276</ele>
        <time>2011-03-27T07:13:49Z</time>
      </trkpt>
      <trkpt lat="44.1024" lon="1.68882">
        <ele>276</ele>
        <time>2011-03-27T07:13:53Z</time>
      </trkpt>
      <trkpt lat="44.10245" lon="1.68893">
        <ele>277</ele>
        <time>2011-03-27T07:13:57Z</time>
      </trkpt>
      <trkpt lat="44.10251" lon="1.68904">
        <ele>280</ele>
        <time>2011-03-27T07:14:01Z</time>
      </trkpt>
      <trkpt lat="44.10257" lon="1.68917">
        <ele>280</ele>
        <time>2011-03-27T07:14:05Z</time>
      </trkpt>
      <trkpt lat="44.10264" lon="1.68929">
        <ele>280</ele>
        <time>2011-03-27T07:14:09Z</time>
      </trkpt>
      <trkpt lat="44.10269" lon="1.68942">
        <ele>281</ele>
        <time>2011-03-27T07:14:13Z</time>
      </trkpt>
      <trkpt lat="44.10275" lon="1.68953">
        <ele>281</ele>
        <time>2011-03-27T07:14:17Z</time>
      </trkpt>
      <trkpt lat="44.10281" lon="1.68965">
        <ele>281</ele>
        <time>2011-03-27T07:14:21Z</time>
      </trkpt>
      <trkpt lat="44.10287" lon="1.68978">
        <ele>282</ele>
        <time>2011-03-27T07:14:25Z</time>
      </trkpt>
      <trkpt lat="44.10293" lon="1.68992">
        <ele>282</ele>
        <time>2011-03-27T07:14:29Z</time>
      </trkpt>
      <trkpt lat="44.10298" lon="1.69004">
        <ele>282</ele>
        <time>2011-03-27T07:14:33Z</time>
      </trkpt>
      <trkpt lat="44.10303" lon="1.69016">
        <ele>282</ele>
        <time>2011-03-27T07:14:37Z</time>
      </trkpt>
      <trkpt lat="44.10309" lon="1.69028">
        <ele>282</ele>
        <time>2011-03-27T07:14:41Z</time>
      </trkpt>
      <trkpt lat="44.10316" lon="1.69039">
        <ele>282</ele>
        <time>2011-03-27T07:14:45Z</time>
      </trkpt>
      <trkpt lat="44.10322" lon="1.69051">
        <ele>283</ele>
        <time>2011-03-27T07:14:49Z</time>
      </trkpt>
      <trkpt lat="44.10329" lon="1.69063">
        <ele>283</ele>
        <time>2011-03-27T07:14:53Z</time>
      </trkpt>
      <trkpt lat="44.10336" lon="1.69075">
        <ele>285</ele>
        <time>2011-03-27T07:14:57Z</time>
      </trkpt>
      <trkpt lat="44.10343" lon="1.69086">
        <ele>286</ele>
        <time>2011-03-27T07:15:01Z</time>
      </trkpt>
      <trkpt lat="44.1035" lon="1.69097">
        <ele>286</ele>
        <time>2011-03-27T07:15:05Z</time>
      </trkpt>
      <trkpt lat="44.10358" lon="1.69108">
        <ele>286</ele>
        <time>2011-03-27T07:15:09Z</time>
      </trkpt>
      <trkpt lat="44.10365" lon="1.69119">
        <ele>286</ele>
        <time>2011-03-27T07:15:13Z</time>
      </trkpt>
      <trkpt lat="44.10371" lon="1.69131">
        <ele>287</ele>
        <time>2011-03-27T07:15:17Z</time>
      </trkpt>
      <trkpt lat="44.1038" lon="1.69142">
        <ele>287</ele>
        <time>2011-03-27T07:15:21Z</time>
      </trkpt>
      <trkpt lat="44.10387" lon="1.69154">
        <ele>287</ele>
        <time>2011-03-27T07:15:25Z</time>
      </trkpt>
      <trkpt lat="44.10393" lon="1.69167">
        <ele>289</ele>
        <time>2011-03-27T07:15:29Z</time>
      </trkpt>
      <trkpt lat="44.10398" lon="1.69179">
        <ele>289</ele>
        <time>2011-03-27T07:15:33Z</time>
      </trkpt>
      <trkpt lat="44.10404" lon="1.69191">
        <ele>289</ele>
        <time>2011-03-27T07:15:37Z</time>
      </trkpt>
      <trkpt lat="44.10411" lon="1.69205">
        <ele>289</ele>
        <time>2011-03-27T07:15:41Z</time>
      </trkpt>
      <trkpt lat="44.10417" lon="1.69217">
        <ele>293</ele>
        <time>2011-03-27T07:15:45Z</time>
      </trkpt>
      <trkpt lat="44.10423" lon="1.69229">
        <ele>293</ele>
        <time>2011-03-27T07:15:49Z</time>
      </trkpt>
      <trkpt lat="44.10428" lon="1.6924">
        <ele>293</ele>
        <time>2011-03-27T07:15:53Z</time>
      </trkpt>
      <trkpt lat="44.10434" lon="1.69251">
        <ele>295</ele>
        <time>2011-03-27T07:15:57Z</time>
      </trkpt>
      <trkpt lat="44.1044" lon="1.69261">
        <ele>295</ele>
        <time>2011-03-27T07:16:01Z</time>
      </trkpt>
      <trkpt lat="44.10446" lon="1.69273">
        <ele>296</ele>
        <time>2011-03-27T07:16:05Z</time>
      </trkpt>
      <trkpt lat="44.10452" lon="1.69285">
        <ele>296</ele>
        <time>2011-03-27T07:16:09Z</time>
      </trkpt>
      <trkpt lat="44.10458" lon="1.69296">
        <ele>297</ele>
        <time>2011-03-27T07:16:13Z</time>
      </trkpt>
      <trkpt lat="44.10463" lon="1.69307">
        <ele>297</ele>
        <time>2011-03-27T07:16:17Z</time>
      </trkpt>
      <trkpt lat="44.1047" lon="1.69317">
        <ele>297</ele>
        <time>2011-03-27T07:16:21Z</time>
      </trkpt>
      <trkpt lat="44.10476" lon="1.69327">
        <ele>298</ele>
        <time>2011-03-27T07:16:25Z</time>
      </trkpt>
      <trkpt lat="44.10483" lon="1.69338">
        <ele>299</ele>
        <time>2011-03-27T07:16:29Z</time>
      </trkpt>
      <trkpt lat="44.10489" lon="1.69349">
        <ele>299</ele>
        <time>2011-03-27T07:16:34Z</time>
      </trkpt>
      <trkpt lat="44.10495" lon="1.6936">
        <ele>299</ele>
        <time>2011-03-27T07:16:38Z</time>
      </trkpt>
      <trkpt lat="44.10499" lon="1.69373">
        <ele>299</ele>
        <time>2011-03-27T07:16:42Z</time>
      </trkpt>
      <trkpt lat="44.10503" lon="1.69386">
        <ele>300</ele>
        <time>2011-03-27T07:16:46Z</time>
      </trkpt>
      <trkpt lat="44.10506" lon="1.69399">
        <ele>300</ele>
        <time>2011-03-27T07:16:50Z</time>
      </trkpt>
      <trkpt lat="44.10511" lon="1.69413">
        <ele>300</ele>
        <time>2011-03-27T07:16:54Z</time>
      </trkpt>
      <trkpt lat="44.10517" lon="1.69424">
        <ele>300</ele>
        <time>2011-03-27T07:16:57Z</time>
      </trkpt>
      <trkpt lat="44.10526" lon="1.69434">
        <ele>299</ele>
        <time>2011-03-27T07:17:00Z</time>
      </trkpt>
      <trkpt lat="44.10538" lon="1.69445">
        <ele>299</ele>
        <time>2011-03-27T07:17:03Z</time>
      </trkpt>
      <trkpt lat="44.10554" lon="1.69458">
        <ele>299</ele>
        <time>2011-03-27T07:17:06Z</time>
      </trkpt>
      <trkpt lat="44.1058" lon="1.69477">
        <ele>298</ele>
        <time>2011-03-27T07:17:09Z</time>
      </trkpt>
      <trkpt lat="44.10599" lon="1.69491">
        <ele>297</ele>
        <time>2011-03-27T07:17:12Z</time>
      </trkpt>
      <trkpt lat="44.10616" lon="1.69504">
        <ele>296</ele>
        <time>2011-03-27T07:17:15Z</time>
      </trkpt>
      <trkpt lat="44.10626" lon="1.69513">
        <ele>295</ele>
        <time>2011-03-27T07:17:17Z</time>
      </trkpt>
      <trkpt lat="44.10635" lon="1.6953">
        <ele>295</ele>
        <time>2011-03-27T07:17:20Z</time>
      </trkpt>
      <trkpt lat="44.1064" lon="1.69542">
        <ele>295</ele>
        <time>2011-03-27T07:17:22Z</time>
      </trkpt>
      <trkpt lat="44.10645" lon="1.69553">
        <ele>295</ele>
        <time>2011-03-27T07:17:24Z</time>
      </trkpt>
      <trkpt lat="44.10655" lon="1.69567">
        <ele>295</ele>
        <time>2011-03-27T07:17:27Z</time>
      </trkpt>
      <trkpt lat="44.10667" lon="1.6958">
        <ele>295</ele>
        <time>2011-03-27T07:17:30Z</time>
      </trkpt>
      <trkpt lat="44.10679" lon="1.69593">
        <ele>295</ele>
        <time>2011-03-27T07:17:33Z</time>
      </trkpt>
      <trkpt lat="44.10687" lon="1.69601">
        <ele>295</ele>
        <time>2011-03-27T07:17:35Z</time>
      </trkpt>
      <trkpt lat="44.107" lon="1.69614">
        <ele>295</ele>
        <time>2011-03-27T07:17:38Z</time>
      </trkpt>
      <trkpt lat="44.1071" lon="1.69622">
        <ele>295</ele>
        <time>2011-03-27T07:17:40Z</time>
      </trkpt>
      <trkpt lat="44.10723" lon="1.69636">
        <ele>294</ele>
        <time>2011-03-27T07:17:43Z</time>
      </trkpt>
      <trkpt lat="44.10735" lon="1.69652">
        <ele>294</ele>
        <time>2011-03-27T07:17:46Z</time>
      </trkpt>
      <trkpt lat="44.10745" lon="1.6967">
        <ele>294</ele>
        <time>2011-03-27T07:17:49Z</time>
      </trkpt>
      <trkpt lat="44.10753" lon="1.69682">
        <ele>293</ele>
        <time>2011-03-27T07:17:51Z</time>
      </trkpt>
      <trkpt lat="44.10765" lon="1.69698">
        <ele>292</ele>
        <time>2011-03-27T07:17:54Z</time>
      </trkpt>
      <trkpt lat="44.10774" lon="1.69709">
        <ele>292</ele>
        <time>2011-03-27T07:17:56Z</time>
      </trkpt>
      <trkpt lat="44.10784" lon="1.69718">
        <ele>291</ele>
        <time>2011-03-27T07:17:58Z</time>
      </trkpt>
      <trkpt lat="44.10794" lon="1.69728">
        <ele>291</ele>
        <time>2011-03-27T07:18:00Z</time>
      </trkpt>
      <trkpt lat="44.10804" lon="1.6974">
        <ele>291</ele>
        <time>2011-03-27T07:18:02Z</time>
      </trkpt>
      <trkpt lat="44.10819" lon="1.6976">
        <ele>288</ele>
        <time>2011-03-27T07:18:05Z</time>
      </trkpt>
      <trkpt lat="44.1083" lon="1.69774">
        <ele>288</ele>
        <time>2011-03-27T07:18:07Z</time>
      </trkpt>
      <trkpt lat="44.10847" lon="1.69794">
        <ele>286</ele>
        <time>2011-03-27T07:18:10Z</time>
      </trkpt>
      <trkpt lat="44.1086" lon="1.69807">
        <ele>286</ele>
        <time>2011-03-27T07:18:12Z</time>
      </trkpt>
      <trkpt lat="44.10877" lon="1.69823">
        <ele>286</ele>
        <time>2011-03-27T07:18:15Z</time>
      </trkpt>
      <trkpt lat="44.10896" lon="1.69835">
        <ele>284</ele>
        <time>2011-03-27T07:18:18Z</time>
      </trkpt>
      <trkpt lat="44.10915" lon="1.69841">
        <ele>285</ele>
        <time>2011-03-27T07:18:21Z</time>
      </trkpt>
      <trkpt lat="44.10933" lon="1.69848">
        <ele>285</ele>
        <time>2011-03-27T07:18:24Z</time>
      </trkpt>
      <trkpt lat="44.10952" lon="1.69858">
        <ele>285</ele>
        <time>2011-03-27T07:18:27Z</time>
      </trkpt>
      <trkpt lat="44.10969" lon="1.69871">
        <ele>285</ele>
        <time>2011-03-27T07:18:30Z</time>
      </trkpt>
      <trkpt lat="44.1098" lon="1.6988">
        <ele>285</ele>
        <time>2011-03-27T07:18:32Z</time>
      </trkpt>
      <trkpt lat="44.10991" lon="1.69889">
        <ele>285</ele>
        <time>2011-03-27T07:18:34Z</time>
      </trkpt>
      <trkpt lat="44.11005" lon="1.69897">
        <ele>285</ele>
        <time>2011-03-27T07:18:37Z</time>
      </trkpt>
      <trkpt lat="44.11021" lon="1.69903">
        <ele>285</ele>
        <time>2011-03-27T07:18:40Z</time>
      </trkpt>
      <trkpt lat="44.11037" lon="1.69912">
        <ele>285</ele>
        <time>2011-03-27T07:18:43Z</time>
      </trkpt>
      <trkpt lat="44.11052" lon="1.69917">
        <ele>285</ele>
        <time>2011-03-27T07:18:46Z</time>
      </trkpt>
      <trkpt lat="44.11067" lon="1.6992">
        <ele>285</ele>
        <time>2011-03-27T07:18:49Z</time>
      </trkpt>
      <trkpt lat="44.11082" lon="1.69923">
        <ele>285</ele>
        <time>2011-03-27T07:18:52Z</time>
      </trkpt>
      <trkpt lat="44.11095" lon="1.69925">
        <ele>287</ele>
        <time>2011-03-27T07:18:55Z</time>
      </trkpt>
      <trkpt lat="44.11104" lon="1.69926">
        <ele>287</ele>
        <time>2011-03-27T07:18:58Z</time>
      </trkpt>
      <trkpt lat="44.11113" lon="1.69928">
        <ele>288</ele>
        <time>2011-03-27T07:19:01Z</time>
      </trkpt>
      <trkpt lat="44.11123" lon="1.69931">
        <ele>288</ele>
        <time>2011-03-27T07:19:04Z</time>
      </trkpt>
      <trkpt lat="44.11131" lon="1.69936">
        <ele>289</ele>
        <time>2011-03-27T07:19:07Z</time>
      </trkpt>
      <trkpt lat="44.1114" lon="1.69946">
        <ele>289</ele>
        <time>2011-03-27T07:19:11Z</time>
      </trkpt>
      <trkpt lat="44.11149" lon="1.69956">
        <ele>290</ele>
        <time>2011-03-27T07:19:15Z</time>
      </trkpt>
      <trkpt lat="44.11158" lon="1.69963">
        <ele>290</ele>
        <time>2011-03-27T07:19:18Z</time>
      </trkpt>
      <trkpt lat="44.11167" lon="1.6997">
        <ele>292</ele>
        <time>2011-03-27T07:19:21Z</time>
      </trkpt>
      <trkpt lat="44.11175" lon="1.69975">
        <ele>292</ele>
        <time>2011-03-27T07:19:24Z</time>
      </trkpt>
      <trkpt lat="44.11186" lon="1.69982">
        <ele>292</ele>
        <time>2011-03-27T07:19:28Z</time>
      </trkpt>
      <trkpt lat="44.11197" lon="1.69987">
        <ele>292</ele>
        <time>2011-03-27T07:19:32Z</time>
      </trkpt>
      <trkpt lat="44.11207" lon="1.69993">
        <ele>292</ele>
        <time>2011-03-27T07:19:36Z</time>
      </trkpt>
      <trkpt lat="44.11216" lon="1.69998">
        <ele>292</ele>
        <time>2011-03-27T07:19:40Z</time>
      </trkpt>
      <trkpt lat="44.11225" lon="1.70001">
        <ele>293</ele>
        <time>2011-03-27T07:19:43Z</time>
      </trkpt>
      <trkpt lat="44.11235" lon="1.70003">
        <ele>293</ele>
        <time>2011-03-27T07:19:46Z</time>
      </trkpt>
      <trkpt lat="44.11247" lon="1.70004">
        <ele>293</ele>
        <time>2011-03-27T07:19:49Z</time>
      </trkpt>
      <trkpt lat="44.1126" lon="1.70008">
        <ele>294</ele>
        <time>2011-03-27T07:19:52Z</time>
      </trkpt>
      <trkpt lat="44.11271" lon="1.70012">
        <ele>294</ele>
        <time>2011-03-27T07:19:55Z</time>
      </trkpt>
      <trkpt lat="44.11283" lon="1.70015">
        <ele>295</ele>
        <time>2011-03-27T07:19:58Z</time>
      </trkpt>
      <trkpt lat="44.11295" lon="1.70018">
        <ele>295</ele>
        <time>2011-03-27T07:20:01Z</time>
      </trkpt>
      <trkpt lat="44.11308" lon="1.70019">
        <ele>296</ele>
        <time>2011-03-27T07:20:04Z</time>
      </trkpt>
      <trkpt lat="44.11321" lon="1.7002">
        <ele>296</ele>
        <time>2011-03-27T07:20:07Z</time>
      </trkpt>
      <trkpt lat="44.11333" lon="1.70018">
        <ele>297</ele>
        <time>2011-03-27T07:20:10Z</time>
      </trkpt>
      <trkpt lat="44.11345" lon="1.70014">
        <ele>298</ele>
        <time>2011-03-27T07:20:13Z</time>
      </trkpt>
      <trkpt lat="44.11358" lon="1.70011">
        <ele>298</ele>
        <time>2011-03-27T07:20:16Z</time>
      </trkpt>
      <trkpt lat="44.11371" lon="1.70007">
        <ele>298</ele>
        <time>2011-03-27T07:20:19Z</time>
      </trkpt>
      <trkpt lat="44.1138" lon="1.70005">
        <ele>298</ele>
        <time>2011-03-27T07:20:21Z</time>
      </trkpt>
      <trkpt lat="44.11395" lon="1.70002">
        <ele>298</ele>
        <time>2011-03-27T07:20:24Z</time>
      </trkpt>
      <trkpt lat="44.11411" lon="1.69999">
        <ele>298</ele>
        <time>2011-03-27T07:20:27Z</time>
      </trkpt>
      <trkpt lat="44.11427" lon="1.69997">
        <ele>297</ele>
        <time>2011-03-27T07:20:30Z</time>
      </trkpt>
      <trkpt lat="44.11443" lon="1.69996">
        <ele>297</ele>
        <time>2011-03-27T07:20:33Z</time>
      </trkpt>
      <trkpt lat="44.1146" lon="1.69996">
        <ele>297</ele>
        <time>2011-03-27T07:20:36Z</time>
      </trkpt>
      <trkpt lat="44.11475" lon="1.69997">
        <ele>297</ele>
        <time>2011-03-27T07:20:39Z</time>
      </trkpt>
      <trkpt lat="44.1149" lon="1.69999">
        <ele>297</ele>
        <time>2011-03-27T07:20:42Z</time>
      </trkpt>
      <trkpt lat="44.11505" lon="1.70002">
        <ele>299</ele>
        <time>2011-03-27T07:20:45Z</time>
      </trkpt>
      <trkpt lat="44.11518" lon="1.70006">
        <ele>300</ele>
        <time>2011-03-27T07:20:48Z</time>
      </trkpt>
      <trkpt lat="44.11529" lon="1.70011">
        <ele>300</ele>
        <time>2011-03-27T07:20:51Z</time>
      </trkpt>
      <trkpt lat="44.11539" lon="1.70016">
        <ele>301</ele>
        <time>2011-03-27T07:20:54Z</time>
      </trkpt>
      <trkpt lat="44.1155" lon="1.70022">
        <ele>301</ele>
        <time>2011-03-27T07:20:57Z</time>
      </trkpt>
      <trkpt lat="44.11561" lon="1.70027">
        <ele>301</ele>
        <time>2011-03-27T07:21:00Z</time>
      </trkpt>
      <trkpt lat="44.11571" lon="1.7003">
        <ele>302</ele>
        <time>2011-03-27T07:21:03Z</time>
      </trkpt>
      <trkpt lat="44.11582" lon="1.70033">
        <ele>302</ele>
        <time>2011-03-27T07:21:07Z</time>
      </trkpt>
      <trkpt lat="44.11594" lon="1.70033">
        <ele>304</ele>
        <time>2011-03-27T07:21:11Z</time>
      </trkpt>
      <trkpt lat="44.11604" lon="1.70032">
        <ele>304</ele>
        <time>2011-03-27T07:21:14Z</time>
      </trkpt>
      <trkpt lat="44.11613" lon="1.70028">
        <ele>305</ele>
        <time>2011-03-27T07:21:17Z</time>
      </trkpt>
      <trkpt lat="44.11621" lon="1.70024">
        <ele>305</ele>
        <time>2011-03-27T07:21:20Z</time>
      </trkpt>
      <trkpt lat="44.11633" lon="1.70019">
        <ele>305</ele>
        <time>2011-03-27T07:21:24Z</time>
      </trkpt>
      <trkpt lat="44.11644" lon="1.70013">
        <ele>305</ele>
        <time>2011-03-27T07:21:27Z</time>
      </trkpt>
      <trkpt lat="44.11653" lon="1.7001">
        <ele>305</ele>
        <time>2011-03-27T07:21:29Z</time>
      </trkpt>
      <trkpt lat="44.11667" lon="1.70005">
        <ele>306</ele>
        <time>2011-03-27T07:21:32Z</time>
      </trkpt>
      <trkpt lat="44.11677" lon="1.70002">
        <ele>306</ele>
        <time>2011-03-27T07:21:34Z</time>
      </trkpt>
      <trkpt lat="44.11693" lon="1.69998">
        <ele>304</ele>
        <time>2011-03-27T07:21:37Z</time>
      </trkpt>
      <trkpt lat="44.11709" lon="1.69996">
        <ele>304</ele>
        <time>2011-03-27T07:21:40Z</time>
      </trkpt>
      <trkpt lat="44.11724" lon="1.69993">
        <ele>304</ele>
        <time>2011-03-27T07:21:43Z</time>
      </trkpt>
      <trkpt lat="44.11739" lon="1.69992">
        <ele>305</ele>
        <time>2011-03-27T07:21:46Z</time>
      </trkpt>
      <trkpt lat="44.11753" lon="1.69988">
        <ele>306</ele>
        <time>2011-03-27T07:21:49Z</time>
      </trkpt>
      <trkpt lat="44.11767" lon="1.69984">
        <ele>306</ele>
        <time>2011-03-27T07:21:52Z</time>
      </trkpt>
      <trkpt lat="44.11781" lon="1.6998">
        <ele>306</ele>
        <time>2011-03-27T07:21:55Z</time>
      </trkpt>
      <trkpt lat="44.11795" lon="1.69975">
        <ele>306</ele>
        <time>2011-03-27T07:21:58Z</time>
      </trkpt>
      <trkpt lat="44.11808" lon="1.69971">
        <ele>306</ele>
        <time>2011-03-27T07:22:01Z</time>
      </trkpt>
      <trkpt lat="44.1182" lon="1.69966">
        <ele>306</ele>
        <time>2011-03-27T07:22:04Z</time>
      </trkpt>
      <trkpt lat="44.11833" lon="1.69963">
        <ele>306</ele>
        <time>2011-03-27T07:22:07Z</time>
      </trkpt>
      <trkpt lat="44.11845" lon="1.69956">
        <ele>309</ele>
        <time>2011-03-27T07:22:10Z</time>
      </trkpt>
      <trkpt lat="44.11853" lon="1.69953">
        <ele>309</ele>
        <time>2011-03-27T07:22:12Z</time>
      </trkpt>
      <trkpt lat="44.11866" lon="1.69949">
        <ele>309</ele>
        <time>2011-03-27T07:22:15Z</time>
      </trkpt>
      <trkpt lat="44.11879" lon="1.69949">
        <ele>309</ele>
        <time>2011-03-27T07:22:18Z</time>
      </trkpt>
      <trkpt lat="44.11893" lon="1.69947">
        <ele>309</ele>
        <time>2011-03-27T07:22:21Z</time>
      </trkpt>
      <trkpt lat="44.11902" lon="1.69947">
        <ele>309</ele>
        <time>2011-03-27T07:22:23Z</time>
      </trkpt>
      <trkpt lat="44.11912" lon="1.69947">
        <ele>309</ele>
        <time>2011-03-27T07:22:25Z</time>
      </trkpt>
      <trkpt lat="44.11926" lon="1.69947">
        <ele>310</ele>
        <time>2011-03-27T07:22:28Z</time>
      </trkpt>
      <trkpt lat="44.11936" lon="1.69946">
        <ele>310</ele>
        <time>2011-03-27T07:22:30Z</time>
      </trkpt>
      <trkpt lat="44.11945" lon="1.69944">
        <ele>310</ele>
        <time>2011-03-27T07:22:32Z</time>
      </trkpt>
      <trkpt lat="44.1196" lon="1.69941">
        <ele>309</ele>
        <time>2011-03-27T07:22:35Z</time>
      </trkpt>
      <trkpt lat="44.1197" lon="1.6994">
        <ele>309</ele>
        <time>2011-03-27T07:22:37Z</time>
      </trkpt>
      <trkpt lat="44.11986" lon="1.6994">
        <ele>309</ele>
        <time>2011-03-27T07:22:40Z</time>
      </trkpt>
      <trkpt lat="44.11998" lon="1.6994">
        <ele>309</ele>
        <time>2011-03-27T07:22:42Z</time>
      </trkpt>
      <trkpt lat="44.1201" lon="1.69941">
        <ele>307</ele>
        <time>2011-03-27T07:22:44Z</time>
      </trkpt>
      <trkpt lat="44.12023" lon="1.69943">
        <ele>307</ele>
        <time>2011-03-27T07:22:46Z</time>
      </trkpt>
      <trkpt lat="44.12044" lon="1.69949">
        <ele>306</ele>
        <time>2011-03-27T07:22:49Z</time>
      </trkpt>
      <trkpt lat="44.12058" lon="1.69953">
        <ele>306</ele>
        <time>2011-03-27T07:22:51Z</time>
      </trkpt>
      <trkpt lat="44.12082" lon="1.69959">
        <ele>305</ele>
        <time>2011-03-27T07:22:54Z</time>
      </trkpt>
      <trkpt lat="44.12106" lon="1.69963">
        <ele>302</ele>
        <time>2011-03-27T07:22:57Z</time>
      </trkpt>
      <trkpt lat="44.12123" lon="1.69965">
        <ele>302</ele>
        <time>2011-03-27T07:22:59Z</time>
      </trkpt>
      <trkpt lat="44.12148" lon="1.69969">
        <ele>301</ele>
        <time>2011-03-27T07:23:02Z</time>
      </trkpt>
      <trkpt lat="44.12169" lon="1.69974">
        <ele>301</ele>
        <time>2011-03-27T07:23:05Z</time>
      </trkpt>
      <trkpt lat="44.12182" lon="1.6998">
        <ele>301</ele>
        <time>2011-03-27T07:23:07Z</time>
      </trkpt>
      <trkpt lat="44.12198" lon="1.69992">
        <ele>301</ele>
        <time>2011-03-27T07:23:10Z</time>
      </trkpt>
      <trkpt lat="44.12208" lon="1.70003">
        <ele>296</ele>
        <time>2011-03-27T07:23:13Z</time>
      </trkpt>
      <trkpt lat="44.12208" lon="1.70003">
        <ele>296</ele>
        <time>2011-03-27T07:23:17Z</time>
      </trkpt>
      <trkpt lat="44.12203" lon="1.70025">
        <ele>295</ele>
        <time>2011-03-27T07:23:22Z</time>
      </trkpt>
      <trkpt lat="44.12194" lon="1.70024">
        <ele>295</ele>
        <time>2011-03-27T07:23:24Z</time>
      </trkpt>
      <trkpt lat="44.12194" lon="1.70024">
        <ele>295</ele>
        <time>2011-03-27T07:23:27Z</time>
      </trkpt>
      <trkpt lat="44.12199" lon="1.70041">
        <ele>293</ele>
        <time>2011-03-27T07:23:31Z</time>
      </trkpt>
      <trkpt lat="44.12209" lon="1.7005">
        <ele>293</ele>
        <time>2011-03-27T07:23:33Z</time>
      </trkpt>
      <trkpt lat="44.12218" lon="1.70063">
        <ele>292</ele>
        <time>2011-03-27T07:23:36Z</time>
      </trkpt>
      <trkpt lat="44.12225" lon="1.70077">
        <ele>292</ele>
        <time>2011-03-27T07:23:39Z</time>
      </trkpt>
      <trkpt lat="44.12225" lon="1.70077">
        <ele>292</ele>
        <time>2011-03-27T07:23:41Z</time>
      </trkpt>
      <trkpt lat="44.12209" lon="1.70081">
        <ele>291</ele>
        <time>2011-03-27T07:23:47Z</time>
      </trkpt>
      <trkpt lat="44.12199" lon="1.7008">
        <ele>290</ele>
        <time>2011-03-27T07:23:49Z</time>
      </trkpt>
      <trkpt lat="44.12181" lon="1.70086">
        <ele>281</ele>
        <time>2011-03-27T07:23:52Z</time>
      </trkpt>
      <trkpt lat="44.12172" lon="1.70093">
        <ele>281</ele>
        <time>2011-03-27T07:23:54Z</time>
      </trkpt>
      <trkpt lat="44.12163" lon="1.70101">
        <ele>279</ele>
        <time>2011-03-27T07:23:56Z</time>
      </trkpt>
      <trkpt lat="44.12152" lon="1.70114">
        <ele>276</ele>
        <time>2011-03-27T07:23:59Z</time>
      </trkpt>
      <trkpt lat="44.1214" lon="1.70125">
        <ele>275</ele>
        <time>2011-03-27T07:24:02Z</time>
      </trkpt>
      <trkpt lat="44.12132" lon="1.70132">
        <ele>274</ele>
        <time>2011-03-27T07:24:04Z</time>
      </trkpt>
      <trkpt lat="44.12121" lon="1.7014">
        <ele>274</ele>
        <time>2011-03-27T07:24:07Z</time>
      </trkpt>
      <trkpt lat="44.12106" lon="1.70147">
        <ele>274</ele>
        <time>2011-03-27T07:24:10Z</time>
      </trkpt>
      <trkpt lat="44.12089" lon="1.70161">
        <ele>272</ele>
        <time>2011-03-27T07:24:13Z</time>
      </trkpt>
      <trkpt lat="44.12077" lon="1.70174">
        <ele>274</ele>
        <time>2011-03-27T07:24:15Z</time>
      </trkpt>
      <trkpt lat="44.12066" lon="1.70186">
        <ele>278</ele>
        <time>2011-03-27T07:24:17Z</time>
      </trkpt>
      <trkpt lat="44.12064" lon="1.70199">
        <ele>278</ele>
        <time>2011-03-27T07:24:19Z</time>
      </trkpt>
      <trkpt lat="44.12073" lon="1.70209">
        <ele>276</ele>
        <time>2011-03-27T07:24:21Z</time>
      </trkpt>
      <trkpt lat="44.12095" lon="1.70219">
        <ele>258</ele>
        <time>2011-03-27T07:24:24Z</time>
      </trkpt>
      <trkpt lat="44.12116" lon="1.70231">
        <ele>256</ele>
        <time>2011-03-27T07:24:27Z</time>
      </trkpt>
      <trkpt lat="44.12131" lon="1.70248">
        <ele>253</ele>
        <time>2011-03-27T07:24:30Z</time>
      </trkpt>
      <trkpt lat="44.12139" lon="1.70265">
        <ele>246</ele>
        <time>2011-03-27T07:24:32Z</time>
      </trkpt>
      <trkpt lat="44.12151" lon="1.70289">
        <ele>245</ele>
        <time>2011-03-27T07:24:35Z</time>
      </trkpt>
      <trkpt lat="44.12164" lon="1.70309">
        <ele>241</ele>
        <time>2011-03-27T07:24:38Z</time>
      </trkpt>
      <trkpt lat="44.12171" lon="1.70324">
        <ele>235</ele>
        <time>2011-03-27T07:24:41Z</time>
      </trkpt>
      <trkpt lat="44.12178" lon="1.7034">
        <ele>231</ele>
        <time>2011-03-27T07:24:44Z</time>
      </trkpt>
      <trkpt lat="44.12182" lon="1.70355">
        <ele>232</ele>
        <time>2011-03-27T07:24:46Z</time>
      </trkpt>
      <trkpt lat="44.12185" lon="1.7038">
        <ele>231</ele>
        <time>2011-03-27T07:24:49Z</time>
      </trkpt>
      <trkpt lat="44.12186" lon="1.70406">
        <ele>230</ele>
        <time>2011-03-27T07:24:52Z</time>
      </trkpt>
      <trkpt lat="44.12185" lon="1.70422">
        <ele>224</ele>
        <time>2011-03-27T07:24:54Z</time>
      </trkpt>
      <trkpt lat="44.12187" lon="1.7044">
        <ele>223</ele>
        <time>2011-03-27T07:24:56Z</time>
      </trkpt>
      <trkpt lat="44.1219" lon="1.70462">
        <ele>222</ele>
        <time>2011-03-27T07:24:58Z</time>
      </trkpt>
      <trkpt lat="44.12195" lon="1.70493">
        <ele>220</ele>
        <time>2011-03-27T07:25:01Z</time>
      </trkpt>
      <trkpt lat="44.12204" lon="1.70526">
        <ele>213</ele>
        <time>2011-03-27T07:25:04Z</time>
      </trkpt>
      <trkpt lat="44.12215" lon="1.70547">
        <ele>211</ele>
        <time>2011-03-27T07:25:06Z</time>
      </trkpt>
      <trkpt lat="44.12229" lon="1.70572">
        <ele>207</ele>
        <time>2011-03-27T07:25:09Z</time>
      </trkpt>
      <trkpt lat="44.12237" lon="1.70588">
        <ele>201</ele>
        <time>2011-03-27T07:25:11Z</time>
      </trkpt>
      <trkpt lat="44.12243" lon="1.70606">
        <ele>201</ele>
        <time>2011-03-27T07:25:13Z</time>
      </trkpt>
      <trkpt lat="44.1225" lon="1.70628">
        <ele>199</ele>
        <time>2011-03-27T07:25:16Z</time>
      </trkpt>
      <trkpt lat="44.12255" lon="1.70648">
        <ele>196</ele>
        <time>2011-03-27T07:25:19Z</time>
      </trkpt>
      <trkpt lat="44.12255" lon="1.7067">
        <ele>190</ele>
        <time>2011-03-27T07:25:22Z</time>
      </trkpt>
      <trkpt lat="44.12256" lon="1.70694">
        <ele>188</ele>
        <time>2011-03-27T07:25:25Z</time>
      </trkpt>
      <trkpt lat="44.12253" lon="1.7072">
        <ele>185</ele>
        <time>2011-03-27T07:25:28Z</time>
      </trkpt>
      <trkpt lat="44.1225" lon="1.70737">
        <ele>183</ele>
        <time>2011-03-27T07:25:30Z</time>
      </trkpt>
      <trkpt lat="44.12242" lon="1.7077">
        <ele>176</ele>
        <time>2011-03-27T07:25:33Z</time>
      </trkpt>
      <trkpt lat="44.12235" lon="1.70813">
        <ele>172</ele>
        <time>2011-03-27T07:25:36Z</time>
      </trkpt>
      <trkpt lat="44.12229" lon="1.70857">
        <ele>164</ele>
        <time>2011-03-27T07:25:39Z</time>
      </trkpt>
      <trkpt lat="44.12226" lon="1.70902">
        <ele>162</ele>
        <time>2011-03-27T07:25:42Z</time>
      </trkpt>
      <trkpt lat="44.12225" lon="1.70947">
        <ele>158</ele>
        <time>2011-03-27T07:25:45Z</time>
      </trkpt>
      <trkpt lat="44.12225" lon="1.70992">
        <ele>157</ele>
        <time>2011-03-27T07:25:48Z</time>
      </trkpt>
      <trkpt lat="44.12228" lon="1.71034">
        <ele>154</ele>
        <time>2011-03-27T07:25:51Z</time>
      </trkpt>
      <trkpt lat="44.12231" lon="1.71062">
        <ele>153</ele>
        <time>2011-03-27T07:25:53Z</time>
      </trkpt>
      <trkpt lat="44.12234" lon="1.71089">
        <ele>151</ele>
        <time>2011-03-27T07:25:55Z</time>
      </trkpt>
      <trkpt lat="44.12237" lon="1.71129">
        <ele>150</ele>
        <time>2011-03-27T07:25:58Z</time>
      </trkpt>
      <trkpt lat="44.1224" lon="1.71167">
        <ele>148</ele>
        <time>2011-03-27T07:26:01Z</time>
      </trkpt>
      <trkpt lat="44.12242" lon="1.71206">
        <ele>147</ele>
        <time>2011-03-27T07:26:04Z</time>
      </trkpt>
      <trkpt lat="44.12244" lon="1.71244">
        <ele>146</ele>
        <time>2011-03-27T07:26:07Z</time>
      </trkpt>
      <trkpt lat="44.12247" lon="1.71281">
        <ele>144</ele>
        <time>2011-03-27T07:26:10Z</time>
      </trkpt>
      <trkpt lat="44.12248" lon="1.71318">
        <ele>143</ele>
        <time>2011-03-27T07:26:13Z</time>
      </trkpt>
      <trkpt lat="44.12249" lon="1.71352">
        <ele>141</ele>
        <time>2011-03-27T07:26:16Z</time>
      </trkpt>
      <trkpt lat="44.12249" lon="1.71386">
        <ele>140</ele>
        <time>2011-03-27T07:26:19Z</time>
      </trkpt>
      <trkpt lat="44.12245" lon="1.71419">
        <ele>139</ele>
        <time>2011-03-27T07:26:22Z</time>
      </trkpt>
      <trkpt lat="44.1224" lon="1.71452">
        <ele>138</ele>
        <time>2011-03-27T07:26:25Z</time>
      </trkpt>
      <trkpt lat="44.12233" lon="1.71483">
        <ele>137</ele>
        <time>2011-03-27T07:26:28Z</time>
      </trkpt>
      <trkpt lat="44.12223" lon="1.71513">
        <ele>138</ele>
        <time>2011-03-27T07:26:31Z</time>
      </trkpt>
      <trkpt lat="44.12216" lon="1.7153">
        <ele>138</ele>
        <time>2011-03-27T07:26:33Z</time>
      </trkpt>
      <trkpt lat="44.12205" lon="1.71557">
        <ele>138</ele>
        <time>2011-03-27T07:26:36Z</time>
      </trkpt>
      <trkpt lat="44.12198" lon="1.71573">
        <ele>138</ele>
        <time>2011-03-27T07:26:38Z</time>
      </trkpt>
      <trkpt lat="44.12196" lon="1.71592">
        <ele>139</ele>
        <time>2011-03-27T07:26:41Z</time>
      </trkpt>
      <trkpt lat="44.12206" lon="1.71603">
        <ele>139</ele>
        <time>2011-03-27T07:26:44Z</time>
      </trkpt>
      <trkpt lat="44.12216" lon="1.71611">
        <ele>139</ele>
        <time>2011-03-27T07:26:47Z</time>
      </trkpt>
      <trkpt lat="44.12225" lon="1.71617">
        <ele>139</ele>
        <time>2011-03-27T07:26:50Z</time>
      </trkpt>
      <trkpt lat="44.12235" lon="1.71624">
        <ele>139</ele>
        <time>2011-03-27T07:26:53Z</time>
      </trkpt>
      <trkpt lat="44.12243" lon="1.71629">
        <ele>139</ele>
        <time>2011-03-27T07:26:56Z</time>
      </trkpt>
      <trkpt lat="44.12243" lon="1.71629">
        <ele>139</ele>
        <time>2011-03-27T07:26:59Z</time>
      </trkpt>
      <trkpt lat="44.12243" lon="1.71629">
        <ele>139</ele>
        <time>2011-03-27T07:27:46Z</time>
      </trkpt>
      <trkpt lat="44.12269" lon="1.71653">
        <ele>139</ele>
        <time>2011-03-27T07:33:42Z</time>
      </trkpt>
      <trkpt lat="44.12269" lon="1.71653">
        <ele>139</ele>
        <time>2011-03-27T07:33:55Z</time>
      </trkpt>
      <trkpt lat="44.12269" lon="1.71653">
        <ele>139</ele>
        <time>2011-03-27T07:34:01Z</time>
      </trkpt>
      <trkpt lat="44.12297" lon="1.71658">
        <ele>139</ele>
        <time>2011-03-27T07:36:15Z</time>
      </trkpt>
      <trkpt lat="44.1231" lon="1.71657">
        <ele>139</ele>
        <time>2011-03-27T07:36:18Z</time>
      </trkpt>
      <trkpt lat="44.12322" lon="1.71656">
        <ele>139</ele>
        <time>2011-03-27T07:36:21Z</time>
      </trkpt>
      <trkpt lat="44.12333" lon="1.71657">
        <ele>139</ele>
        <time>2011-03-27T07:36:24Z</time>
      </trkpt>
      <trkpt lat="44.12345" lon="1.71653">
        <ele>138</ele>
        <time>2011-03-27T07:36:27Z</time>
      </trkpt>
      <trkpt lat="44.12357" lon="1.71649">
        <ele>138</ele>
        <time>2011-03-27T07:36:30Z</time>
      </trkpt>
      <trkpt lat="44.12371" lon="1.71643">
        <ele>138</ele>
        <time>2011-03-27T07:36:33Z</time>
      </trkpt>
      <trkpt lat="44.1238" lon="1.71639">
        <ele>138</ele>
        <time>2011-03-27T07:36:35Z</time>
      </trkpt>
      <trkpt lat="44.12393" lon="1.71633">
        <ele>138</ele>
        <time>2011-03-27T07:36:38Z</time>
      </trkpt>
      <trkpt lat="44.12406" lon="1.71627">
        <ele>138</ele>
        <time>2011-03-27T07:36:41Z</time>
      </trkpt>
      <trkpt lat="44.12417" lon="1.7162">
        <ele>135</ele>
        <time>2011-03-27T07:36:44Z</time>
      </trkpt>
      <trkpt lat="44.12428" lon="1.71612">
        <ele>136</ele>
        <time>2011-03-27T07:36:47Z</time>
      </trkpt>
      <trkpt lat="44.12438" lon="1.71603">
        <ele>136</ele>
        <time>2011-03-27T07:36:50Z</time>
      </trkpt>
      <trkpt lat="44.12445" lon="1.71591">
        <ele>136</ele>
        <time>2011-03-27T07:36:53Z</time>
      </trkpt>
      <trkpt lat="44.1245" lon="1.7158">
        <ele>142</ele>
        <time>2011-03-27T07:36:56Z</time>
      </trkpt>
      <trkpt lat="44.12454" lon="1.71568">
        <ele>142</ele>
        <time>2011-03-27T07:36:59Z</time>
      </trkpt>
      <trkpt lat="44.1246" lon="1.71555">
        <ele>142</ele>
        <time>2011-03-27T07:37:03Z</time>
      </trkpt>
      <trkpt lat="44.12465" lon="1.71543">
        <ele>142</ele>
        <time>2011-03-27T07:37:07Z</time>
      </trkpt>
      <trkpt lat="44.12468" lon="1.71529">
        <ele>143</ele>
        <time>2011-03-27T07:37:11Z</time>
      </trkpt>
      <trkpt lat="44.12471" lon="1.71515">
        <ele>144</ele>
        <time>2011-03-27T07:37:15Z</time>
      </trkpt>
      <trkpt lat="44.1247" lon="1.71501">
        <ele>144</ele>
        <time>2011-03-27T07:37:20Z</time>
      </trkpt>
      <trkpt lat="44.12471" lon="1.71485">
        <ele>147</ele>
        <time>2011-03-27T07:37:25Z</time>
      </trkpt>
      <trkpt lat="44.12474" lon="1.71471">
        <ele>147</ele>
        <time>2011-03-27T07:37:29Z</time>
      </trkpt>
      <trkpt lat="44.12479" lon="1.71458">
        <ele>148</ele>
        <time>2011-03-27T07:37:34Z</time>
      </trkpt>
      <trkpt lat="44.12486" lon="1.71448">
        <ele>148</ele>
        <time>2011-03-27T07:37:38Z</time>
      </trkpt>
      <trkpt lat="44.12492" lon="1.71436">
        <ele>149</ele>
        <time>2011-03-27T07:37:43Z</time>
      </trkpt>
      <trkpt lat="44.12497" lon="1.71424">
        <ele>151</ele>
        <time>2011-03-27T07:37:47Z</time>
      </trkpt>
      <trkpt lat="44.125" lon="1.7141">
        <ele>151</ele>
        <time>2011-03-27T07:37:51Z</time>
      </trkpt>
      <trkpt lat="44.12504" lon="1.71395">
        <ele>150</ele>
        <time>2011-03-27T07:37:55Z</time>
      </trkpt>
      <trkpt lat="44.12508" lon="1.71381">
        <ele>150</ele>
        <time>2011-03-27T07:37:58Z</time>
      </trkpt>
      <trkpt lat="44.12511" lon="1.71368">
        <ele>151</ele>
        <time>2011-03-27T07:38:01Z</time>
      </trkpt>
      <trkpt lat="44.12513" lon="1.71355">
        <ele>151</ele>
        <time>2011-03-27T07:38:04Z</time>
      </trkpt>
      <trkpt lat="44.12513" lon="1.71341">
        <ele>152</ele>
        <time>2011-03-27T07:38:07Z</time>
      </trkpt>
      <trkpt lat="44.12515" lon="1.71326">
        <ele>154</ele>
        <time>2011-03-27T07:38:10Z</time>
      </trkpt>
      <trkpt lat="44.12518" lon="1.71312">
        <ele>154</ele>
        <time>2011-03-27T07:38:13Z</time>
      </trkpt>
      <trkpt lat="44.12521" lon="1.71298">
        <ele>154</ele>
        <time>2011-03-27T07:38:16Z</time>
      </trkpt>
      <trkpt lat="44.12526" lon="1.71286">
        <ele>154</ele>
        <time>2011-03-27T07:38:19Z</time>
      </trkpt>
      <trkpt lat="44.12531" lon="1.71275">
        <ele>154</ele>
        <time>2011-03-27T07:38:22Z</time>
      </trkpt>
      <trkpt lat="44.12537" lon="1.71264">
        <ele>154</ele>
        <time>2011-03-27T07:38:26Z</time>
      </trkpt>
      <trkpt lat="44.12545" lon="1.71251">
        <ele>154</ele>
        <time>2011-03-27T07:38:29Z</time>
      </trkpt>
      <trkpt lat="44.12553" lon="1.71238">
        <ele>156</ele>
        <time>2011-03-27T07:38:32Z</time>
      </trkpt>
      <trkpt lat="44.12559" lon="1.71228">
        <ele>156</ele>
        <time>2011-03-27T07:38:35Z</time>
      </trkpt>
      <trkpt lat="44.12565" lon="1.71218">
        <ele>156</ele>
        <time>2011-03-27T07:38:38Z</time>
      </trkpt>
      <trkpt lat="44.1257" lon="1.71207">
        <ele>157</ele>
        <time>2011-03-27T07:38:48Z</time>
      </trkpt>
      <trkpt lat="44.12576" lon="1.71196">
        <ele>157</ele>
        <time>2011-03-27T07:38:53Z</time>
      </trkpt>
      <trkpt lat="44.12584" lon="1.71186">
        <ele>155</ele>
        <time>2011-03-27T07:38:57Z</time>
      </trkpt>
      <trkpt lat="44.12591" lon="1.71176">
        <ele>157</ele>
        <time>2011-03-27T07:39:00Z</time>
      </trkpt>
      <trkpt lat="44.12602" lon="1.71162">
        <ele>160</ele>
        <time>2011-03-27T07:39:03Z</time>
      </trkpt>
      <trkpt lat="44.1261" lon="1.7115">
        <ele>160</ele>
        <time>2011-03-27T07:39:06Z</time>
      </trkpt>
      <trkpt lat="44.12616" lon="1.71138">
        <ele>160</ele>
        <time>2011-03-27T07:39:10Z</time>
      </trkpt>
      <trkpt lat="44.1262" lon="1.71126">
        <ele>161</ele>
        <time>2011-03-27T07:39:15Z</time>
      </trkpt>
      <trkpt lat="44.12624" lon="1.71113">
        <ele>161</ele>
        <time>2011-03-27T07:39:21Z</time>
      </trkpt>
      <trkpt lat="44.12629" lon="1.71101">
        <ele>162</ele>
        <time>2011-03-27T07:39:27Z</time>
      </trkpt>
      <trkpt lat="44.12634" lon="1.71091">
        <ele>162</ele>
        <time>2011-03-27T07:39:32Z</time>
      </trkpt>
      <trkpt lat="44.12639" lon="1.71078">
        <ele>168</ele>
        <time>2011-03-27T07:39:39Z</time>
      </trkpt>
      <trkpt lat="44.12644" lon="1.71067">
        <ele>169</ele>
        <time>2011-03-27T07:39:44Z</time>
      </trkpt>
      <trkpt lat="44.12648" lon="1.71055">
        <ele>169</ele>
        <time>2011-03-27T07:39:50Z</time>
      </trkpt>
      <trkpt lat="44.12653" lon="1.71042">
        <ele>171</ele>
        <time>2011-03-27T07:39:56Z</time>
      </trkpt>
      <trkpt lat="44.12658" lon="1.71031">
        <ele>172</ele>
        <time>2011-03-27T07:40:02Z</time>
      </trkpt>
      <trkpt lat="44.12661" lon="1.71018">
        <ele>173</ele>
        <time>2011-03-27T07:40:08Z</time>
      </trkpt>
      <trkpt lat="44.12664" lon="1.71005">
        <ele>174</ele>
        <time>2011-03-27T07:40:13Z</time>
      </trkpt>
      <trkpt lat="44.12666" lon="1.70993">
        <ele>177</ele>
        <time>2011-03-27T07:40:19Z</time>
      </trkpt>
      <trkpt lat="44.12669" lon="1.7098">
        <ele>173</ele>
        <time>2011-03-27T07:40:25Z</time>
      </trkpt>
      <trkpt lat="44.12673" lon="1.70966">
        <ele>174</ele>
        <time>2011-03-27T07:40:32Z</time>
      </trkpt>
      <trkpt lat="44.12677" lon="1.70953">
        <ele>175</ele>
        <time>2011-03-27T07:40:38Z</time>
      </trkpt>
      <trkpt lat="44.12679" lon="1.7094">
        <ele>177</ele>
        <time>2011-03-27T07:40:45Z</time>
      </trkpt>
      <trkpt lat="44.12681" lon="1.70927">
        <ele>180</ele>
        <time>2011-03-27T07:40:52Z</time>
      </trkpt>
      <trkpt lat="44.12681" lon="1.70927">
        <ele>180</ele>
        <time>2011-03-27T07:41:05Z</time>
      </trkpt>
      <trkpt lat="44.12681" lon="1.70927">
        <ele>180</ele>
        <time>2011-03-27T07:41:25Z</time>
      </trkpt>
      <trkpt lat="44.12708" lon="1.70913">
        <ele>185</ele>
        <time>2011-03-27T07:42:59Z</time>
      </trkpt>
      <trkpt lat="44.12716" lon="1.70907">
        <ele>183</ele>
        <time>2011-03-27T07:43:05Z</time>
      </trkpt>
      <trkpt lat="44.12719" lon="1.70919">
        <ele>171</ele>
        <time>2011-03-27T07:43:20Z</time>
      </trkpt>
      <trkpt lat="44.12715" lon="1.70932">
        <ele>171</ele>
        <time>2011-03-27T07:43:23Z</time>
      </trkpt>
      <trkpt lat="44.12711" lon="1.70944">
        <ele>171</ele>
        <time>2011-03-27T07:43:26Z</time>
      </trkpt>
      <trkpt lat="44.12705" lon="1.70957">
        <ele>171</ele>
        <time>2011-03-27T07:43:30Z</time>
      </trkpt>
      <trkpt lat="44.12709" lon="1.70971">
        <ele>169</ele>
        <time>2011-03-27T07:43:34Z</time>
      </trkpt>
      <trkpt lat="44.12715" lon="1.70983">
        <ele>167</ele>
        <time>2011-03-27T07:43:37Z</time>
      </trkpt>
      <trkpt lat="44.12719" lon="1.70995">
        <ele>165</ele>
        <time>2011-03-27T07:43:41Z</time>
      </trkpt>
      <trkpt lat="44.12719" lon="1.70995">
        <ele>165</ele>
        <time>2011-03-27T07:43:44Z</time>
      </trkpt>
      <trkpt lat="44.12719" lon="1.70995">
        <ele>165</ele>
        <time>2011-03-27T07:44:14Z</time>
      </trkpt>
      <trkpt lat="44.12744" lon="1.70973">
        <ele>163</ele>
        <time>2011-03-27T07:46:21Z</time>
      </trkpt>
      <trkpt lat="44.12744" lon="1.70973">
        <ele>163</ele>
        <time>2011-03-27T07:46:25Z</time>
      </trkpt>
      <trkpt lat="44.12744" lon="1.70973">
        <ele>163</ele>
        <time>2011-03-27T07:47:41Z</time>
      </trkpt>
      <trkpt lat="44.12721" lon="1.7099">
        <ele>164</ele>
        <time>2011-03-27T07:51:37Z</time>
      </trkpt>
      <trkpt lat="44.12721" lon="1.7099">
        <ele>164</ele>
        <time>2011-03-27T07:51:44Z</time>
      </trkpt>
      <trkpt lat="44.12721" lon="1.7099">
        <ele>164</ele>
        <time>2011-03-27T07:52:08Z</time>
      </trkpt>
      <trkpt lat="44.12744" lon="1.71009">
        <ele>151</ele>
        <time>2011-03-27T07:58:41Z</time>
      </trkpt>
      <trkpt lat="44.12754" lon="1.71008">
        <ele>145</ele>
        <time>2011-03-27T07:58:51Z</time>
      </trkpt>
      <trkpt lat="44.12762" lon="1.70999">
        <ele>149</ele>
        <time>2011-03-27T07:58:55Z</time>
      </trkpt>
      <trkpt lat="44.12769" lon="1.70991">
        <ele>149</ele>
        <time>2011-03-27T07:58:58Z</time>
      </trkpt>
      <trkpt lat="44.12778" lon="1.7098">
        <ele>148</ele>
        <time>2011-03-27T07:59:01Z</time>
      </trkpt>
      <trkpt lat="44.12787" lon="1.70969">
        <ele>148</ele>
        <time>2011-03-27T07:59:04Z</time>
      </trkpt>
      <trkpt lat="44.12796" lon="1.7096">
        <ele>148</ele>
        <time>2011-03-27T07:59:07Z</time>
      </trkpt>
      <trkpt lat="44.12806" lon="1.70951">
        <ele>148</ele>
        <time>2011-03-27T07:59:10Z</time>
      </trkpt>
      <trkpt lat="44.12815" lon="1.70939">
        <ele>147</ele>
        <time>2011-03-27T07:59:13Z</time>
      </trkpt>
      <trkpt lat="44.12824" lon="1.70926">
        <ele>146</ele>
        <time>2011-03-27T07:59:16Z</time>
      </trkpt>
      <trkpt lat="44.12833" lon="1.70914">
        <ele>146</ele>
        <time>2011-03-27T07:59:19Z</time>
      </trkpt>
      <trkpt lat="44.12841" lon="1.70901">
        <ele>141</ele>
        <time>2011-03-27T07:59:23Z</time>
      </trkpt>
      <trkpt lat="44.1285" lon="1.70885">
        <ele>140</ele>
        <time>2011-03-27T07:59:26Z</time>
      </trkpt>
      <trkpt lat="44.12859" lon="1.70872">
        <ele>140</ele>
        <time>2011-03-27T07:59:28Z</time>
      </trkpt>
      <trkpt lat="44.12866" lon="1.70861">
        <ele>140</ele>
        <time>2011-03-27T07:59:31Z</time>
      </trkpt>
      <trkpt lat="44.12873" lon="1.70847">
        <ele>139</ele>
        <time>2011-03-27T07:59:34Z</time>
      </trkpt>
      <trkpt lat="44.12873" lon="1.70847">
        <ele>139</ele>
        <time>2011-03-27T07:59:37Z</time>
      </trkpt>
      <trkpt lat="44.12873" lon="1.70847">
        <ele>139</ele>
        <time>2011-03-27T08:00:07Z</time>
      </trkpt>
      <trkpt lat="44.12888" lon="1.70807">
        <ele>144</ele>
        <time>2011-03-27T08:00:53Z</time>
      </trkpt>
      <trkpt lat="44.1289" lon="1.70794">
        <ele>145</ele>
        <time>2011-03-27T08:00:58Z</time>
      </trkpt>
      <trkpt lat="44.12896" lon="1.7078">
        <ele>145</ele>
        <time>2011-03-27T08:01:02Z</time>
      </trkpt>
      <trkpt lat="44.12901" lon="1.70767">
        <ele>143</ele>
        <time>2011-03-27T08:01:04Z</time>
      </trkpt>
      <trkpt lat="44.12911" lon="1.70742">
        <ele>144</ele>
        <time>2011-03-27T08:01:07Z</time>
      </trkpt>
      <trkpt lat="44.12916" lon="1.70721">
        <ele>153</ele>
        <time>2011-03-27T08:01:10Z</time>
      </trkpt>
      <trkpt lat="44.12922" lon="1.70706">
        <ele>133</ele>
        <time>2011-03-27T08:01:12Z</time>
      </trkpt>
      <trkpt lat="44.1293" lon="1.70693">
        <ele>135</ele>
        <time>2011-03-27T08:01:15Z</time>
      </trkpt>
      <trkpt lat="44.12932" lon="1.7068">
        <ele>137</ele>
        <time>2011-03-27T08:01:18Z</time>
      </trkpt>
      <trkpt lat="44.12934" lon="1.70667">
        <ele>138</ele>
        <time>2011-03-27T08:01:24Z</time>
      </trkpt>
      <trkpt lat="44.12941" lon="1.7066">
        <ele>144</ele>
        <time>2011-03-27T08:01:27Z</time>
      </trkpt>
      <trkpt lat="44.12952" lon="1.70652">
        <ele>143</ele>
        <time>2011-03-27T08:01:30Z</time>
      </trkpt>
      <trkpt lat="44.12962" lon="1.70646">
        <ele>142</ele>
        <time>2011-03-27T08:01:34Z</time>
      </trkpt>
      <trkpt lat="44.12969" lon="1.70635">
        <ele>142</ele>
        <time>2011-03-27T08:01:38Z</time>
      </trkpt>
      <trkpt lat="44.12975" lon="1.70624">
        <ele>143</ele>
        <time>2011-03-27T08:01:41Z</time>
      </trkpt>
      <trkpt lat="44.12984" lon="1.70618">
        <ele>142</ele>
        <time>2011-03-27T08:01:47Z</time>
      </trkpt>
      <trkpt lat="44.12993" lon="1.7062">
        <ele>141</ele>
        <time>2011-03-27T08:01:52Z</time>
      </trkpt>
      <trkpt lat="44.13001" lon="1.70612">
        <ele>132</ele>
        <time>2011-03-27T08:01:58Z</time>
      </trkpt>
      <trkpt lat="44.13009" lon="1.70604">
        <ele>133</ele>
        <time>2011-03-27T08:02:02Z</time>
      </trkpt>
      <trkpt lat="44.13019" lon="1.70597">
        <ele>133</ele>
        <time>2011-03-27T08:02:06Z</time>
      </trkpt>
      <trkpt lat="44.13028" lon="1.70596">
        <ele>131</ele>
        <time>2011-03-27T08:02:09Z</time>
      </trkpt>
      <trkpt lat="44.13037" lon="1.70593">
        <ele>130</ele>
        <time>2011-03-27T08:02:12Z</time>
      </trkpt>
      <trkpt lat="44.13045" lon="1.70584">
        <ele>129</ele>
        <time>2011-03-27T08:02:16Z</time>
      </trkpt>
      <trkpt lat="44.13054" lon="1.70578">
        <ele>142</ele>
        <time>2011-03-27T08:02:21Z</time>
      </trkpt>
      <trkpt lat="44.13066" lon="1.70571">
        <ele>139</ele>
        <time>2011-03-27T08:02:25Z</time>
      </trkpt>
      <trkpt lat="44.13078" lon="1.70565">
        <ele>138</ele>
        <time>2011-03-27T08:02:28Z</time>
      </trkpt>
      <trkpt lat="44.13086" lon="1.70558">
        <ele>132</ele>
        <time>2011-03-27T08:02:30Z</time>
      </trkpt>
      <trkpt lat="44.13096" lon="1.7055">
        <ele>133</ele>
        <time>2011-03-27T08:02:33Z</time>
      </trkpt>
      <trkpt lat="44.13105" lon="1.70545">
        <ele>134</ele>
        <time>2011-03-27T08:02:38Z</time>
      </trkpt>
      <trkpt lat="44.13115" lon="1.70541">
        <ele>134</ele>
        <time>2011-03-27T08:02:43Z</time>
      </trkpt>
      <trkpt lat="44.13125" lon="1.70533">
        <ele>134</ele>
        <time>2011-03-27T08:02:47Z</time>
      </trkpt>
      <trkpt lat="44.13133" lon="1.70525">
        <ele>134</ele>
        <time>2011-03-27T08:02:50Z</time>
      </trkpt>
      <trkpt lat="44.13142" lon="1.70521">
        <ele>134</ele>
        <time>2011-03-27T08:02:54Z</time>
      </trkpt>
      <trkpt lat="44.13152" lon="1.70513">
        <ele>133</ele>
        <time>2011-03-27T08:02:59Z</time>
      </trkpt>
      <trkpt lat="44.13162" lon="1.70508">
        <ele>133</ele>
        <time>2011-03-27T08:03:04Z</time>
      </trkpt>
      <trkpt lat="44.13171" lon="1.70501">
        <ele>131</ele>
        <time>2011-03-27T08:03:09Z</time>
      </trkpt>
      <trkpt lat="44.13182" lon="1.70497">
        <ele>138</ele>
        <time>2011-03-27T08:03:13Z</time>
      </trkpt>
      <trkpt lat="44.13193" lon="1.70491">
        <ele>140</ele>
        <time>2011-03-27T08:03:16Z</time>
      </trkpt>
      <trkpt lat="44.13203" lon="1.70484">
        <ele>140</ele>
        <time>2011-03-27T08:03:19Z</time>
      </trkpt>
      <trkpt lat="44.13213" lon="1.70478">
        <ele>140</ele>
        <time>2011-03-27T08:03:22Z</time>
      </trkpt>
      <trkpt lat="44.13222" lon="1.70473">
        <ele>139</ele>
        <time>2011-03-27T08:03:25Z</time>
      </trkpt>
      <trkpt lat="44.13231" lon="1.70476">
        <ele>136</ele>
        <time>2011-03-27T08:03:29Z</time>
      </trkpt>
      <trkpt lat="44.13241" lon="1.70476">
        <ele>135</ele>
        <time>2011-03-27T08:03:32Z</time>
      </trkpt>
      <trkpt lat="44.13249" lon="1.7047">
        <ele>136</ele>
        <time>2011-03-27T08:03:35Z</time>
      </trkpt>
      <trkpt lat="44.13256" lon="1.70458">
        <ele>130</ele>
        <time>2011-03-27T08:03:38Z</time>
      </trkpt>
      <trkpt lat="44.13262" lon="1.70447">
        <ele>132</ele>
        <time>2011-03-27T08:03:42Z</time>
      </trkpt>
      <trkpt lat="44.13272" lon="1.7044">
        <ele>133</ele>
        <time>2011-03-27T08:03:48Z</time>
      </trkpt>
      <trkpt lat="44.13281" lon="1.70435">
        <ele>133</ele>
        <time>2011-03-27T08:03:53Z</time>
      </trkpt>
      <trkpt lat="44.13292" lon="1.70433">
        <ele>133</ele>
        <time>2011-03-27T08:03:58Z</time>
      </trkpt>
      <trkpt lat="44.13301" lon="1.70431">
        <ele>133</ele>
        <time>2011-03-27T08:04:02Z</time>
      </trkpt>
      <trkpt lat="44.1331" lon="1.70428">
        <ele>133</ele>
        <time>2011-03-27T08:04:05Z</time>
      </trkpt>
      <trkpt lat="44.1332" lon="1.70418">
        <ele>135</ele>
        <time>2011-03-27T08:04:08Z</time>
      </trkpt>
      <trkpt lat="44.1333" lon="1.70411">
        <ele>146</ele>
        <time>2011-03-27T08:04:12Z</time>
      </trkpt>
      <trkpt lat="44.1334" lon="1.70415">
        <ele>146</ele>
        <time>2011-03-27T08:04:17Z</time>
      </trkpt>
      <trkpt lat="44.13349" lon="1.70422">
        <ele>138</ele>
        <time>2011-03-27T08:04:24Z</time>
      </trkpt>
      <trkpt lat="44.13358" lon="1.70428">
        <ele>137</ele>
        <time>2011-03-27T08:04:29Z</time>
      </trkpt>
      <trkpt lat="44.13367" lon="1.70434">
        <ele>137</ele>
        <time>2011-03-27T08:04:33Z</time>
      </trkpt>
      <trkpt lat="44.13376" lon="1.7044">
        <ele>138</ele>
        <time>2011-03-27T08:04:36Z</time>
      </trkpt>
      <trkpt lat="44.13385" lon="1.70448">
        <ele>137</ele>
        <time>2011-03-27T08:04:40Z</time>
      </trkpt>
      <trkpt lat="44.13392" lon="1.70456">
        <ele>136</ele>
        <time>2011-03-27T08:04:43Z</time>
      </trkpt>
      <trkpt lat="44.13392" lon="1.70456">
        <ele>136</ele>
        <time>2011-03-27T08:04:47Z</time>
      </trkpt>
      <trkpt lat="44.13409" lon="1.70477">
        <ele>133</ele>
        <time>2011-03-27T08:05:04Z</time>
      </trkpt>
      <trkpt lat="44.13418" lon="1.70485">
        <ele>142</ele>
        <time>2011-03-27T08:05:08Z</time>
      </trkpt>
      <trkpt lat="44.13427" lon="1.70494">
        <ele>140</ele>
        <time>2011-03-27T08:05:12Z</time>
      </trkpt>
      <trkpt lat="44.13435" lon="1.70504">
        <ele>131</ele>
        <time>2011-03-27T08:05:16Z</time>
      </trkpt>
      <trkpt lat="44.13442" lon="1.70513">
        <ele>133</ele>
        <time>2011-03-27T08:05:19Z</time>
      </trkpt>
      <trkpt lat="44.1345" lon="1.70523">
        <ele>134</ele>
        <time>2011-03-27T08:05:22Z</time>
      </trkpt>
      <trkpt lat="44.13456" lon="1.70534">
        <ele>134</ele>
        <time>2011-03-27T08:05:26Z</time>
      </trkpt>
      <trkpt lat="44.13463" lon="1.70548">
        <ele>133</ele>
        <time>2011-03-27T08:05:30Z</time>
      </trkpt>
      <trkpt lat="44.13467" lon="1.7056">
        <ele>133</ele>
        <time>2011-03-27T08:05:33Z</time>
      </trkpt>
      <trkpt lat="44.1347" lon="1.70573">
        <ele>132</ele>
        <time>2011-03-27T08:05:36Z</time>
      </trkpt>
      <trkpt lat="44.13474" lon="1.70588">
        <ele>127</ele>
        <time>2011-03-27T08:05:39Z</time>
      </trkpt>
      <trkpt lat="44.13475" lon="1.70602">
        <ele>126</ele>
        <time>2011-03-27T08:05:42Z</time>
      </trkpt>
      <trkpt lat="44.13478" lon="1.70614">
        <ele>126</ele>
        <time>2011-03-27T08:05:45Z</time>
      </trkpt>
      <trkpt lat="44.1348" lon="1.70629">
        <ele>126</ele>
        <time>2011-03-27T08:05:48Z</time>
      </trkpt>
      <trkpt lat="44.13478" lon="1.70643">
        <ele>126</ele>
        <time>2011-03-27T08:05:51Z</time>
      </trkpt>
      <trkpt lat="44.13476" lon="1.7066">
        <ele>126</ele>
        <time>2011-03-27T08:05:54Z</time>
      </trkpt>
      <trkpt lat="44.13475" lon="1.70675">
        <ele>127</ele>
        <time>2011-03-27T08:05:57Z</time>
      </trkpt>
      <trkpt lat="44.13473" lon="1.7069">
        <ele>126</ele>
        <time>2011-03-27T08:06:00Z</time>
      </trkpt>
      <trkpt lat="44.13468" lon="1.70708">
        <ele>126</ele>
        <time>2011-03-27T08:06:03Z</time>
      </trkpt>
      <trkpt lat="44.13465" lon="1.70723">
        <ele>126</ele>
        <time>2011-03-27T08:06:06Z</time>
      </trkpt>
      <trkpt lat="44.13462" lon="1.7074">
        <ele>126</ele>
        <time>2011-03-27T08:06:09Z</time>
      </trkpt>
      <trkpt lat="44.13459" lon="1.70755">
        <ele>128</ele>
        <time>2011-03-27T08:06:12Z</time>
      </trkpt>
      <trkpt lat="44.13454" lon="1.70767">
        <ele>128</ele>
        <time>2011-03-27T08:06:15Z</time>
      </trkpt>
      <trkpt lat="44.13451" lon="1.70781">
        <ele>128</ele>
        <time>2011-03-27T08:06:18Z</time>
      </trkpt>
      <trkpt lat="44.13448" lon="1.70797">
        <ele>128</ele>
        <time>2011-03-27T08:06:22Z</time>
      </trkpt>
      <trkpt lat="44.13443" lon="1.70814">
        <ele>127</ele>
        <time>2011-03-27T08:06:25Z</time>
      </trkpt>
      <trkpt lat="44.13442" lon="1.70826">
        <ele>127</ele>
        <time>2011-03-27T08:06:29Z</time>
      </trkpt>
      <trkpt lat="44.13446" lon="1.70839">
        <ele>129</ele>
        <time>2011-03-27T08:06:34Z</time>
      </trkpt>
      <trkpt lat="44.13453" lon="1.70849">
        <ele>131</ele>
        <time>2011-03-27T08:06:39Z</time>
      </trkpt>
      <trkpt lat="44.1346" lon="1.70859">
        <ele>132</ele>
        <time>2011-03-27T08:06:44Z</time>
      </trkpt>
      <trkpt lat="44.13465" lon="1.70871">
        <ele>133</ele>
        <time>2011-03-27T08:06:50Z</time>
      </trkpt>
      <trkpt lat="44.13467" lon="1.70884">
        <ele>133</ele>
        <time>2011-03-27T08:06:57Z</time>
      </trkpt>
      <trkpt lat="44.13473" lon="1.70894">
        <ele>134</ele>
        <time>2011-03-27T08:07:04Z</time>
      </trkpt>
      <trkpt lat="44.13479" lon="1.70904">
        <ele>135</ele>
        <time>2011-03-27T08:07:10Z</time>
      </trkpt>
      <trkpt lat="44.13484" lon="1.70917">
        <ele>136</ele>
        <time>2011-03-27T08:07:16Z</time>
      </trkpt>
      <trkpt lat="44.13485" lon="1.70932">
        <ele>135</ele>
        <time>2011-03-27T08:07:22Z</time>
      </trkpt>
      <trkpt lat="44.13485" lon="1.70944">
        <ele>134</ele>
        <time>2011-03-27T08:07:26Z</time>
      </trkpt>
      <trkpt lat="44.13484" lon="1.70962">
        <ele>134</ele>
        <time>2011-03-27T08:07:30Z</time>
      </trkpt>
      <trkpt lat="44.13485" lon="1.70976">
        <ele>134</ele>
        <time>2011-03-27T08:07:33Z</time>
      </trkpt>
      <trkpt lat="44.13487" lon="1.70991">
        <ele>135</ele>
        <time>2011-03-27T08:07:36Z</time>
      </trkpt>
      <trkpt lat="44.13491" lon="1.71004">
        <ele>136</ele>
        <time>2011-03-27T08:07:39Z</time>
      </trkpt>
      <trkpt lat="44.13495" lon="1.71015">
        <ele>135</ele>
        <time>2011-03-27T08:07:42Z</time>
      </trkpt>
      <trkpt lat="44.135" lon="1.71027">
        <ele>143</ele>
        <time>2011-03-27T08:07:47Z</time>
      </trkpt>
      <trkpt lat="44.1351" lon="1.71034">
        <ele>144</ele>
        <time>2011-03-27T08:07:52Z</time>
      </trkpt>
      <trkpt lat="44.13519" lon="1.71041">
        <ele>145</ele>
        <time>2011-03-27T08:07:57Z</time>
      </trkpt>
      <trkpt lat="44.13528" lon="1.7105">
        <ele>146</ele>
        <time>2011-03-27T08:08:02Z</time>
      </trkpt>
      <trkpt lat="44.13537" lon="1.71054">
        <ele>147</ele>
        <time>2011-03-27T08:08:07Z</time>
      </trkpt>
      <trkpt lat="44.13547" lon="1.71054">
        <ele>148</ele>
        <time>2011-03-27T08:08:13Z</time>
      </trkpt>
      <trkpt lat="44.13557" lon="1.71052">
        <ele>150</ele>
        <time>2011-03-27T08:08:20Z</time>
      </trkpt>
      <trkpt lat="44.13567" lon="1.71049">
        <ele>151</ele>
        <time>2011-03-27T08:08:26Z</time>
      </trkpt>
      <trkpt lat="44.13574" lon="1.7104">
        <ele>151</ele>
        <time>2011-03-27T08:08:34Z</time>
      </trkpt>
      <trkpt lat="44.13582" lon="1.71032">
        <ele>152</ele>
        <time>2011-03-27T08:08:40Z</time>
      </trkpt>
      <trkpt lat="44.1359" lon="1.71021">
        <ele>164</ele>
        <time>2011-03-27T08:08:54Z</time>
      </trkpt>
      <trkpt lat="44.1359" lon="1.71021">
        <ele>164</ele>
        <time>2011-03-27T08:09:03Z</time>
      </trkpt>
      <trkpt lat="44.1359" lon="1.71021">
        <ele>164</ele>
        <time>2011-03-27T08:09:13Z</time>
      </trkpt>
      <trkpt lat="44.13581" lon="1.71041">
        <ele>152</ele>
        <time>2011-03-27T08:09:29Z</time>
      </trkpt>
      <trkpt lat="44.13581" lon="1.71041">
        <ele>152</ele>
        <time>2011-03-27T08:09:30Z</time>
      </trkpt>
      <trkpt lat="44.13581" lon="1.71041">
        <ele>152</ele>
        <time>2011-03-27T08:09:30Z</time>
      </trkpt>
      <trkpt lat="44.13577" lon="1.71052">
        <ele>152</ele>
        <time>2011-03-27T08:09:32Z</time>
      </trkpt>
      <trkpt lat="44.13574" lon="1.71067">
        <ele>153</ele>
        <time>2011-03-27T08:09:35Z</time>
      </trkpt>
      <trkpt lat="44.13574" lon="1.71083">
        <ele>155</ele>
        <time>2011-03-27T08:09:38Z</time>
      </trkpt>
      <trkpt lat="44.13575" lon="1.71097">
        <ele>154</ele>
        <time>2011-03-27T08:09:41Z</time>
      </trkpt>
      <trkpt lat="44.13579" lon="1.71111">
        <ele>152</ele>
        <time>2011-03-27T08:09:45Z</time>
      </trkpt>
      <trkpt lat="44.13583" lon="1.71123">
        <ele>166</ele>
        <time>2011-03-27T08:09:49Z</time>
      </trkpt>
      <trkpt lat="44.13588" lon="1.71135">
        <ele>166</ele>
        <time>2011-03-27T08:09:53Z</time>
      </trkpt>
      <trkpt lat="44.13596" lon="1.71147">
        <ele>166</ele>
        <time>2011-03-27T08:09:58Z</time>
      </trkpt>
      <trkpt lat="44.13601" lon="1.71159">
        <ele>166</ele>
        <time>2011-03-27T08:10:03Z</time>
      </trkpt>
      <trkpt lat="44.13607" lon="1.71169">
        <ele>166</ele>
        <time>2011-03-27T08:10:09Z</time>
      </trkpt>
      <trkpt lat="44.13615" lon="1.7118">
        <ele>167</ele>
        <time>2011-03-27T08:10:16Z</time>
      </trkpt>
      <trkpt lat="44.13621" lon="1.71191">
        <ele>168</ele>
        <time>2011-03-27T08:10:22Z</time>
      </trkpt>
      <trkpt lat="44.13628" lon="1.71201">
        <ele>169</ele>
        <time>2011-03-27T08:10:29Z</time>
      </trkpt>
      <trkpt lat="44.13635" lon="1.71209">
        <ele>170</ele>
        <time>2011-03-27T08:10:35Z</time>
      </trkpt>
      <trkpt lat="44.13641" lon="1.71218">
        <ele>170</ele>
        <time>2011-03-27T08:10:42Z</time>
      </trkpt>
      <trkpt lat="44.13641" lon="1.71218">
        <ele>170</ele>
        <time>2011-03-27T08:10:56Z</time>
      </trkpt>
      <trkpt lat="44.13668" lon="1.71244">
        <ele>179</ele>
        <time>2011-03-27T08:11:25Z</time>
      </trkpt>
      <trkpt lat="44.13677" lon="1.7125">
        <ele>180</ele>
        <time>2011-03-27T08:11:32Z</time>
      </trkpt>
      <trkpt lat="44.13686" lon="1.71256">
        <ele>178</ele>
        <time>2011-03-27T08:11:39Z</time>
      </trkpt>
      <trkpt lat="44.13694" lon="1.71261">
        <ele>179</ele>
        <time>2011-03-27T08:11:47Z</time>
      </trkpt>
      <trkpt lat="44.13704" lon="1.71264">
        <ele>180</ele>
        <time>2011-03-27T08:11:55Z</time>
      </trkpt>
      <trkpt lat="44.13714" lon="1.71266">
        <ele>181</ele>
        <time>2011-03-27T08:12:03Z</time>
      </trkpt>
      <trkpt lat="44.13723" lon="1.71268">
        <ele>183</ele>
        <time>2011-03-27T08:12:10Z</time>
      </trkpt>
      <trkpt lat="44.13733" lon="1.71272">
        <ele>183</ele>
        <time>2011-03-27T08:12:17Z</time>
      </trkpt>
      <trkpt lat="44.13742" lon="1.71277">
        <ele>184</ele>
        <time>2011-03-27T08:12:26Z</time>
      </trkpt>
      <trkpt lat="44.1375" lon="1.71283">
        <ele>193</ele>
        <time>2011-03-27T08:12:34Z</time>
      </trkpt>
      <trkpt lat="44.1376" lon="1.71288">
        <ele>193</ele>
        <time>2011-03-27T08:12:42Z</time>
      </trkpt>
      <trkpt lat="44.13769" lon="1.71293">
        <ele>193</ele>
        <time>2011-03-27T08:12:59Z</time>
      </trkpt>
      <trkpt lat="44.13778" lon="1.71297">
        <ele>194</ele>
        <time>2011-03-27T08:13:08Z</time>
      </trkpt>
      <trkpt lat="44.13787" lon="1.713">
        <ele>194</ele>
        <time>2011-03-27T08:13:18Z</time>
      </trkpt>
      <trkpt lat="44.13796" lon="1.71305">
        <ele>195</ele>
        <time>2011-03-27T08:13:27Z</time>
      </trkpt>
      <trkpt lat="44.13805" lon="1.71307">
        <ele>196</ele>
        <time>2011-03-27T08:13:36Z</time>
      </trkpt>
      <trkpt lat="44.13814" lon="1.71306">
        <ele>196</ele>
        <time>2011-03-27T08:13:46Z</time>
      </trkpt>
      <trkpt lat="44.13824" lon="1.7131">
        <ele>197</ele>
        <time>2011-03-27T08:13:57Z</time>
      </trkpt>
      <trkpt lat="44.13833" lon="1.71315">
        <ele>197</ele>
        <time>2011-03-27T08:14:13Z</time>
      </trkpt>
      <trkpt lat="44.13842" lon="1.71317">
        <ele>204</ele>
        <time>2011-03-27T08:14:20Z</time>
      </trkpt>
      <trkpt lat="44.13851" lon="1.71321">
        <ele>204</ele>
        <time>2011-03-27T08:14:28Z</time>
      </trkpt>
      <trkpt lat="44.13858" lon="1.71313">
        <ele>206</ele>
        <time>2011-03-27T08:14:38Z</time>
      </trkpt>
      <trkpt lat="44.13852" lon="1.71301">
        <ele>207</ele>
        <time>2011-03-27T08:14:47Z</time>
      </trkpt>
      <trkpt lat="44.1385" lon="1.71287">
        <ele>209</ele>
        <time>2011-03-27T08:14:54Z</time>
      </trkpt>
      <trkpt lat="44.13847" lon="1.71273">
        <ele>210</ele>
        <time>2011-03-27T08:15:01Z</time>
      </trkpt>
      <trkpt lat="44.13843" lon="1.71262">
        <ele>210</ele>
        <time>2011-03-27T08:15:07Z</time>
      </trkpt>
      <trkpt lat="44.1384" lon="1.7125">
        <ele>214</ele>
        <time>2011-03-27T08:15:13Z</time>
      </trkpt>
      <trkpt lat="44.13838" lon="1.71236">
        <ele>217</ele>
        <time>2011-03-27T08:15:20Z</time>
      </trkpt>
      <trkpt lat="44.13835" lon="1.71223">
        <ele>220</ele>
        <time>2011-03-27T08:15:26Z</time>
      </trkpt>
      <trkpt lat="44.13833" lon="1.71209">
        <ele>210</ele>
        <time>2011-03-27T08:15:33Z</time>
      </trkpt>
      <trkpt lat="44.13832" lon="1.71196">
        <ele>212</ele>
        <time>2011-03-27T08:15:40Z</time>
      </trkpt>
      <trkpt lat="44.1383" lon="1.71183">
        <ele>215</ele>
        <time>2011-03-27T08:15:46Z</time>
      </trkpt>
      <trkpt lat="44.13829" lon="1.7117">
        <ele>219</ele>
        <time>2011-03-27T08:15:52Z</time>
      </trkpt>
      <trkpt lat="44.13826" lon="1.71157">
        <ele>220</ele>
        <time>2011-03-27T08:15:58Z</time>
      </trkpt>
      <trkpt lat="44.13822" lon="1.71143">
        <ele>219</ele>
        <time>2011-03-27T08:16:05Z</time>
      </trkpt>
      <trkpt lat="44.13816" lon="1.71133">
        <ele>219</ele>
        <time>2011-03-27T08:16:12Z</time>
      </trkpt>
      <trkpt lat="44.1381" lon="1.71123">
        <ele>219</ele>
        <time>2011-03-27T08:16:19Z</time>
      </trkpt>
      <trkpt lat="44.13804" lon="1.71114">
        <ele>219</ele>
        <time>2011-03-27T08:16:25Z</time>
      </trkpt>
      <trkpt lat="44.13798" lon="1.71102">
        <ele>219</ele>
        <time>2011-03-27T08:16:31Z</time>
      </trkpt>
      <trkpt lat="44.13795" lon="1.71089">
        <ele>219</ele>
        <time>2011-03-27T08:16:37Z</time>
      </trkpt>
      <trkpt lat="44.13793" lon="1.71077">
        <ele>220</ele>
        <time>2011-03-27T08:16:43Z</time>
      </trkpt>
      <trkpt lat="44.13795" lon="1.71063">
        <ele>220</ele>
        <time>2011-03-27T08:16:50Z</time>
      </trkpt>
      <trkpt lat="44.13804" lon="1.71068">
        <ele>222</ele>
        <time>2011-03-27T08:16:58Z</time>
      </trkpt>
      <trkpt lat="44.1381" lon="1.71079">
        <ele>224</ele>
        <time>2011-03-27T08:17:05Z</time>
      </trkpt>
      <trkpt lat="44.13819" lon="1.71086">
        <ele>226</ele>
        <time>2011-03-27T08:17:12Z</time>
      </trkpt>
      <trkpt lat="44.13827" lon="1.71091">
        <ele>228</ele>
        <time>2011-03-27T08:17:18Z</time>
      </trkpt>
      <trkpt lat="44.13837" lon="1.71096">
        <ele>236</ele>
        <time>2011-03-27T08:17:25Z</time>
      </trkpt>
      <trkpt lat="44.13847" lon="1.71101">
        <ele>237</ele>
        <time>2011-03-27T08:17:31Z</time>
      </trkpt>
      <trkpt lat="44.13856" lon="1.71106">
        <ele>238</ele>
        <time>2011-03-27T08:17:38Z</time>
      </trkpt>
      <trkpt lat="44.13864" lon="1.71114">
        <ele>239</ele>
        <time>2011-03-27T08:17:45Z</time>
      </trkpt>
      <trkpt lat="44.13872" lon="1.71122">
        <ele>240</ele>
        <time>2011-03-27T08:17:52Z</time>
      </trkpt>
      <trkpt lat="44.1388" lon="1.71131">
        <ele>241</ele>
        <time>2011-03-27T08:17:59Z</time>
      </trkpt>
      <trkpt lat="44.13887" lon="1.7114">
        <ele>241</ele>
        <time>2011-03-27T08:18:06Z</time>
      </trkpt>
      <trkpt lat="44.13895" lon="1.71148">
        <ele>242</ele>
        <time>2011-03-27T08:18:13Z</time>
      </trkpt>
      <trkpt lat="44.13904" lon="1.71156">
        <ele>243</ele>
        <time>2011-03-27T08:18:20Z</time>
      </trkpt>
      <trkpt lat="44.1391" lon="1.71166">
        <ele>245</ele>
        <time>2011-03-27T08:18:26Z</time>
      </trkpt>
      <trkpt lat="44.13917" lon="1.71177">
        <ele>246</ele>
        <time>2011-03-27T08:18:33Z</time>
      </trkpt>
      <trkpt lat="44.13925" lon="1.71172">
        <ele>246</ele>
        <time>2011-03-27T08:18:42Z</time>
      </trkpt>
      <trkpt lat="44.13921" lon="1.71161">
        <ele>251</ele>
        <time>2011-03-27T08:18:49Z</time>
      </trkpt>
      <trkpt lat="44.13918" lon="1.71147">
        <ele>256</ele>
        <time>2011-03-27T08:18:57Z</time>
      </trkpt>
      <trkpt lat="44.13915" lon="1.71134">
        <ele>244</ele>
        <time>2011-03-27T08:19:04Z</time>
      </trkpt>
      <trkpt lat="44.13912" lon="1.71122">
        <ele>245</ele>
        <time>2011-03-27T08:19:10Z</time>
      </trkpt>
      <trkpt lat="44.13908" lon="1.71109">
        <ele>247</ele>
        <time>2011-03-27T08:19:17Z</time>
      </trkpt>
      <trkpt lat="44.13907" lon="1.71095">
        <ele>251</ele>
        <time>2011-03-27T08:19:24Z</time>
      </trkpt>
      <trkpt lat="44.13904" lon="1.71083">
        <ele>255</ele>
        <time>2011-03-27T08:19:30Z</time>
      </trkpt>
      <trkpt lat="44.139" lon="1.7107">
        <ele>253</ele>
        <time>2011-03-27T08:19:37Z</time>
      </trkpt>
      <trkpt lat="44.13897" lon="1.71056">
        <ele>252</ele>
        <time>2011-03-27T08:19:44Z</time>
      </trkpt>
      <trkpt lat="44.13892" lon="1.71044">
        <ele>251</ele>
        <time>2011-03-27T08:19:51Z</time>
      </trkpt>
      <trkpt lat="44.1389" lon="1.71031">
        <ele>251</ele>
        <time>2011-03-27T08:19:58Z</time>
      </trkpt>
      <trkpt lat="44.13892" lon="1.71018">
        <ele>252</ele>
        <time>2011-03-27T08:20:10Z</time>
      </trkpt>
      <trkpt lat="44.13894" lon="1.71004">
        <ele>254</ele>
        <time>2011-03-27T08:20:19Z</time>
      </trkpt>
      <trkpt lat="44.13897" lon="1.7099">
        <ele>253</ele>
        <time>2011-03-27T08:20:25Z</time>
      </trkpt>
      <trkpt lat="44.13902" lon="1.70979">
        <ele>252</ele>
        <time>2011-03-27T08:20:32Z</time>
      </trkpt>
      <trkpt lat="44.13909" lon="1.70968">
        <ele>251</ele>
        <time>2011-03-27T08:20:40Z</time>
      </trkpt>
      <trkpt lat="44.13917" lon="1.70959">
        <ele>269</ele>
        <time>2011-03-27T08:20:47Z</time>
      </trkpt>
      <trkpt lat="44.13925" lon="1.70952">
        <ele>269</ele>
        <time>2011-03-27T08:20:54Z</time>
      </trkpt>
      <trkpt lat="44.13934" lon="1.70945">
        <ele>269</ele>
        <time>2011-03-27T08:21:01Z</time>
      </trkpt>
      <trkpt lat="44.13942" lon="1.70937">
        <ele>270</ele>
        <time>2011-03-27T08:21:08Z</time>
      </trkpt>
      <trkpt lat="44.1395" lon="1.70929">
        <ele>271</ele>
        <time>2011-03-27T08:21:14Z</time>
      </trkpt>
      <trkpt lat="44.13957" lon="1.70919">
        <ele>272</ele>
        <time>2011-03-27T08:21:21Z</time>
      </trkpt>
      <trkpt lat="44.13966" lon="1.7091">
        <ele>268</ele>
        <time>2011-03-27T08:21:28Z</time>
      </trkpt>
      <trkpt lat="44.13972" lon="1.70901">
        <ele>269</ele>
        <time>2011-03-27T08:21:34Z</time>
      </trkpt>
      <trkpt lat="44.13979" lon="1.70893">
        <ele>269</ele>
        <time>2011-03-27T08:21:40Z</time>
      </trkpt>
      <trkpt lat="44.13986" lon="1.70884">
        <ele>269</ele>
        <time>2011-03-27T08:21:46Z</time>
      </trkpt>
      <trkpt lat="44.13992" lon="1.70874">
        <ele>269</ele>
        <time>2011-03-27T08:21:52Z</time>
      </trkpt>
      <trkpt lat="44.13998" lon="1.70865">
        <ele>269</ele>
        <time>2011-03-27T08:21:58Z</time>
      </trkpt>
      <trkpt lat="44.14004" lon="1.70854">
        <ele>280</ele>
        <time>2011-03-27T08:22:04Z</time>
      </trkpt>
      <trkpt lat="44.1401" lon="1.70844">
        <ele>278</ele>
        <time>2011-03-27T08:22:11Z</time>
      </trkpt>
      <trkpt lat="44.14015" lon="1.70832">
        <ele>277</ele>
        <time>2011-03-27T08:22:17Z</time>
      </trkpt>
      <trkpt lat="44.14021" lon="1.70821">
        <ele>278</ele>
        <time>2011-03-27T08:22:23Z</time>
      </trkpt>
      <trkpt lat="44.14026" lon="1.70811">
        <ele>279</ele>
        <time>2011-03-27T08:22:29Z</time>
      </trkpt>
      <trkpt lat="44.14031" lon="1.708">
        <ele>280</ele>
        <time>2011-03-27T08:22:36Z</time>
      </trkpt>
      <trkpt lat="44.14037" lon="1.7079">
        <ele>280</ele>
        <time>2011-03-27T08:22:42Z</time>
      </trkpt>
      <trkpt lat="44.14044" lon="1.70779">
        <ele>281</ele>
        <time>2011-03-27T08:22:48Z</time>
      </trkpt>
      <trkpt lat="44.14051" lon="1.7077">
        <ele>282</ele>
        <time>2011-03-27T08:22:54Z</time>
      </trkpt>
      <trkpt lat="44.14058" lon="1.70761">
        <ele>283</ele>
        <time>2011-03-27T08:23:01Z</time>
      </trkpt>
      <trkpt lat="44.14062" lon="1.7075">
        <ele>286</ele>
        <time>2011-03-27T08:23:06Z</time>
      </trkpt>
      <trkpt lat="44.14068" lon="1.70737">
        <ele>286</ele>
        <time>2011-03-27T08:23:12Z</time>
      </trkpt>
      <trkpt lat="44.14075" lon="1.70727">
        <ele>286</ele>
        <time>2011-03-27T08:23:16Z</time>
      </trkpt>
      <trkpt lat="44.1408" lon="1.70717">
        <ele>287</ele>
        <time>2011-03-27T08:23:21Z</time>
      </trkpt>
      <trkpt lat="44.14085" lon="1.70703">
        <ele>289</ele>
        <time>2011-03-27T08:23:27Z</time>
      </trkpt>
      <trkpt lat="44.14088" lon="1.70691">
        <ele>290</ele>
        <time>2011-03-27T08:23:32Z</time>
      </trkpt>
      <trkpt lat="44.14091" lon="1.70678">
        <ele>291</ele>
        <time>2011-03-27T08:23:37Z</time>
      </trkpt>
      <trkpt lat="44.14098" lon="1.70668">
        <ele>291</ele>
        <time>2011-03-27T08:23:43Z</time>
      </trkpt>
      <trkpt lat="44.14106" lon="1.70661">
        <ele>293</ele>
        <time>2011-03-27T08:23:48Z</time>
      </trkpt>
      <trkpt lat="44.14115" lon="1.70655">
        <ele>293</ele>
        <time>2011-03-27T08:23:53Z</time>
      </trkpt>
      <trkpt lat="44.14124" lon="1.70651">
        <ele>293</ele>
        <time>2011-03-27T08:23:57Z</time>
      </trkpt>
      <trkpt lat="44.14133" lon="1.70647">
        <ele>293</ele>
        <time>2011-03-27T08:24:01Z</time>
      </trkpt>
      <trkpt lat="44.14142" lon="1.7064">
        <ele>293</ele>
        <time>2011-03-27T08:24:04Z</time>
      </trkpt>
      <trkpt lat="44.14151" lon="1.70632">
        <ele>293</ele>
        <time>2011-03-27T08:24:07Z</time>
      </trkpt>
      <trkpt lat="44.1416" lon="1.70622">
        <ele>294</ele>
        <time>2011-03-27T08:24:10Z</time>
      </trkpt>
      <trkpt lat="44.14168" lon="1.70611">
        <ele>291</ele>
        <time>2011-03-27T08:24:13Z</time>
      </trkpt>
      <trkpt lat="44.14178" lon="1.70601">
        <ele>292</ele>
        <time>2011-03-27T08:24:16Z</time>
      </trkpt>
      <trkpt lat="44.14189" lon="1.70591">
        <ele>292</ele>
        <time>2011-03-27T08:24:19Z</time>
      </trkpt>
      <trkpt lat="44.14199" lon="1.70581">
        <ele>297</ele>
        <time>2011-03-27T08:24:22Z</time>
      </trkpt>
      <trkpt lat="44.1421" lon="1.70573">
        <ele>297</ele>
        <time>2011-03-27T08:24:25Z</time>
      </trkpt>
      <trkpt lat="44.1422" lon="1.70567">
        <ele>296</ele>
        <time>2011-03-27T08:24:28Z</time>
      </trkpt>
      <trkpt lat="44.14231" lon="1.70561">
        <ele>296</ele>
        <time>2011-03-27T08:24:31Z</time>
      </trkpt>
      <trkpt lat="44.14242" lon="1.70553">
        <ele>296</ele>
        <time>2011-03-27T08:24:34Z</time>
      </trkpt>
      <trkpt lat="44.14253" lon="1.70539">
        <ele>293</ele>
        <time>2011-03-27T08:24:37Z</time>
      </trkpt>
      <trkpt lat="44.14263" lon="1.70525">
        <ele>295</ele>
        <time>2011-03-27T08:24:40Z</time>
      </trkpt>
      <trkpt lat="44.14272" lon="1.70512">
        <ele>295</ele>
        <time>2011-03-27T08:24:43Z</time>
      </trkpt>
      <trkpt lat="44.14279" lon="1.705">
        <ele>295</ele>
        <time>2011-03-27T08:24:46Z</time>
      </trkpt>
      <trkpt lat="44.14288" lon="1.70492">
        <ele>299</ele>
        <time>2011-03-27T08:24:49Z</time>
      </trkpt>
      <trkpt lat="44.14296" lon="1.70484">
        <ele>299</ele>
        <time>2011-03-27T08:24:52Z</time>
      </trkpt>
      <trkpt lat="44.14305" lon="1.70473">
        <ele>299</ele>
        <time>2011-03-27T08:24:55Z</time>
      </trkpt>
      <trkpt lat="44.14314" lon="1.70462">
        <ele>299</ele>
        <time>2011-03-27T08:24:58Z</time>
      </trkpt>
      <trkpt lat="44.14321" lon="1.70453">
        <ele>300</ele>
        <time>2011-03-27T08:25:00Z</time>
      </trkpt>
      <trkpt lat="44.1433" lon="1.70444">
        <ele>300</ele>
        <time>2011-03-27T08:25:02Z</time>
      </trkpt>
      <trkpt lat="44.14343" lon="1.70432">
        <ele>300</ele>
        <time>2011-03-27T08:25:05Z</time>
      </trkpt>
      <trkpt lat="44.14355" lon="1.70422">
        <ele>300</ele>
        <time>2011-03-27T08:25:08Z</time>
      </trkpt>
      <trkpt lat="44.14365" lon="1.70411">
        <ele>301</ele>
        <time>2011-03-27T08:25:11Z</time>
      </trkpt>
      <trkpt lat="44.14376" lon="1.70401">
        <ele>302</ele>
        <time>2011-03-27T08:25:14Z</time>
      </trkpt>
      <trkpt lat="44.14384" lon="1.70391">
        <ele>302</ele>
        <time>2011-03-27T08:25:17Z</time>
      </trkpt>
      <trkpt lat="44.14392" lon="1.70381">
        <ele>302</ele>
        <time>2011-03-27T08:25:20Z</time>
      </trkpt>
      <trkpt lat="44.14401" lon="1.70371">
        <ele>302</ele>
        <time>2011-03-27T08:25:23Z</time>
      </trkpt>
      <trkpt lat="44.1441" lon="1.70361">
        <ele>302</ele>
        <time>2011-03-27T08:25:26Z</time>
      </trkpt>
      <trkpt lat="44.1441" lon="1.70361">
        <ele>302</ele>
        <time>2011-03-27T08:25:29Z</time>
      </trkpt>
      <trkpt lat="44.14424" lon="1.70345">
        <ele>302</ele>
        <time>2011-03-27T08:25:50Z</time>
      </trkpt>
      <trkpt lat="44.14433" lon="1.70339">
        <ele>302</ele>
        <time>2011-03-27T08:25:53Z</time>
      </trkpt>
      <trkpt lat="44.14443" lon="1.70329">
        <ele>302</ele>
        <time>2011-03-27T08:25:56Z</time>
      </trkpt>
      <trkpt lat="44.14454" lon="1.70323">
        <ele>302</ele>
        <time>2011-03-27T08:25:59Z</time>
      </trkpt>
      <trkpt lat="44.14463" lon="1.70321">
        <ele>302</ele>
        <time>2011-03-27T08:26:01Z</time>
      </trkpt>
      <trkpt lat="44.14477" lon="1.70314">
        <ele>302</ele>
        <time>2011-03-27T08:26:04Z</time>
      </trkpt>
      <trkpt lat="44.14492" lon="1.70309">
        <ele>302</ele>
        <time>2011-03-27T08:26:07Z</time>
      </trkpt>
      <trkpt lat="44.14507" lon="1.70299">
        <ele>301</ele>
        <time>2011-03-27T08:26:10Z</time>
      </trkpt>
      <trkpt lat="44.14522" lon="1.70287">
        <ele>300</ele>
        <time>2011-03-27T08:26:13Z</time>
      </trkpt>
      <trkpt lat="44.14538" lon="1.70281">
        <ele>300</ele>
        <time>2011-03-27T08:26:16Z</time>
      </trkpt>
      <trkpt lat="44.14556" lon="1.70275">
        <ele>299</ele>
        <time>2011-03-27T08:26:19Z</time>
      </trkpt>
      <trkpt lat="44.14576" lon="1.70276">
        <ele>299</ele>
        <time>2011-03-27T08:26:22Z</time>
      </trkpt>
      <trkpt lat="44.14593" lon="1.70275">
        <ele>296</ele>
        <time>2011-03-27T08:26:25Z</time>
      </trkpt>
      <trkpt lat="44.14604" lon="1.70269">
        <ele>296</ele>
        <time>2011-03-27T08:26:27Z</time>
      </trkpt>
      <trkpt lat="44.14619" lon="1.70264">
        <ele>295</ele>
        <time>2011-03-27T08:26:30Z</time>
      </trkpt>
      <trkpt lat="44.14635" lon="1.70258">
        <ele>295</ele>
        <time>2011-03-27T08:26:33Z</time>
      </trkpt>
      <trkpt lat="44.14649" lon="1.70252">
        <ele>294</ele>
        <time>2011-03-27T08:26:36Z</time>
      </trkpt>
      <trkpt lat="44.14665" lon="1.70246">
        <ele>293</ele>
        <time>2011-03-27T08:26:39Z</time>
      </trkpt>
      <trkpt lat="44.1468" lon="1.70241">
        <ele>293</ele>
        <time>2011-03-27T08:26:42Z</time>
      </trkpt>
      <trkpt lat="44.14695" lon="1.70234">
        <ele>293</ele>
        <time>2011-03-27T08:26:45Z</time>
      </trkpt>
      <trkpt lat="44.14709" lon="1.70223">
        <ele>293</ele>
        <time>2011-03-27T08:26:48Z</time>
      </trkpt>
      <trkpt lat="44.14722" lon="1.70215">
        <ele>293</ele>
        <time>2011-03-27T08:26:51Z</time>
      </trkpt>
      <trkpt lat="44.14731" lon="1.70221">
        <ele>293</ele>
        <time>2011-03-27T08:26:54Z</time>
      </trkpt>
      <trkpt lat="44.14742" lon="1.70232">
        <ele>292</ele>
        <time>2011-03-27T08:26:57Z</time>
      </trkpt>
      <trkpt lat="44.14755" lon="1.70243">
        <ele>291</ele>
        <time>2011-03-27T08:27:00Z</time>
      </trkpt>
      <trkpt lat="44.1477" lon="1.7025">
        <ele>291</ele>
        <time>2011-03-27T08:27:03Z</time>
      </trkpt>
      <trkpt lat="44.14785" lon="1.70255">
        <ele>291</ele>
        <time>2011-03-27T08:27:06Z</time>
      </trkpt>
      <trkpt lat="44.14796" lon="1.70261">
        <ele>291</ele>
        <time>2011-03-27T08:27:08Z</time>
      </trkpt>
      <trkpt lat="44.14805" lon="1.70275">
        <ele>291</ele>
        <time>2011-03-27T08:27:11Z</time>
      </trkpt>
      <trkpt lat="44.14804" lon="1.7029">
        <ele>290</ele>
        <time>2011-03-27T08:27:14Z</time>
      </trkpt>
      <trkpt lat="44.14805" lon="1.70304">
        <ele>290</ele>
        <time>2011-03-27T08:27:17Z</time>
      </trkpt>
      <trkpt lat="44.14814" lon="1.70315">
        <ele>291</ele>
        <time>2011-03-27T08:27:21Z</time>
      </trkpt>
      <trkpt lat="44.14821" lon="1.70326">
        <ele>291</ele>
        <time>2011-03-27T08:27:25Z</time>
      </trkpt>
      <trkpt lat="44.14828" lon="1.70336">
        <ele>292</ele>
        <time>2011-03-27T08:27:30Z</time>
      </trkpt>
      <trkpt lat="44.14836" lon="1.70346">
        <ele>294</ele>
        <time>2011-03-27T08:27:36Z</time>
      </trkpt>
      <trkpt lat="44.14844" lon="1.70356">
        <ele>294</ele>
        <time>2011-03-27T08:27:41Z</time>
      </trkpt>
      <trkpt lat="44.14851" lon="1.70366">
        <ele>295</ele>
        <time>2011-03-27T08:27:46Z</time>
      </trkpt>
      <trkpt lat="44.14858" lon="1.70375">
        <ele>296</ele>
        <time>2011-03-27T08:27:51Z</time>
      </trkpt>
      <trkpt lat="44.14865" lon="1.70384">
        <ele>296</ele>
        <time>2011-03-27T08:27:56Z</time>
      </trkpt>
      <trkpt lat="44.14872" lon="1.70395">
        <ele>296</ele>
        <time>2011-03-27T08:28:01Z</time>
      </trkpt>
      <trkpt lat="44.14879" lon="1.70405">
        <ele>297</ele>
        <time>2011-03-27T08:28:06Z</time>
      </trkpt>
      <trkpt lat="44.14886" lon="1.70414">
        <ele>297</ele>
        <time>2011-03-27T08:28:11Z</time>
      </trkpt>
      <trkpt lat="44.14894" lon="1.70425">
        <ele>299</ele>
        <time>2011-03-27T08:28:16Z</time>
      </trkpt>
      <trkpt lat="44.14901" lon="1.70436">
        <ele>300</ele>
        <time>2011-03-27T08:28:21Z</time>
      </trkpt>
      <trkpt lat="44.14909" lon="1.70448">
        <ele>300</ele>
        <time>2011-03-27T08:28:26Z</time>
      </trkpt>
      <trkpt lat="44.14916" lon="1.70459">
        <ele>300</ele>
        <time>2011-03-27T08:28:31Z</time>
      </trkpt>
      <trkpt lat="44.14922" lon="1.70469">
        <ele>302</ele>
        <time>2011-03-27T08:28:35Z</time>
      </trkpt>
      <trkpt lat="44.14929" lon="1.70478">
        <ele>302</ele>
        <time>2011-03-27T08:28:39Z</time>
      </trkpt>
      <trkpt lat="44.14937" lon="1.70485">
        <ele>303</ele>
        <time>2011-03-27T08:28:43Z</time>
      </trkpt>
      <trkpt lat="44.14946" lon="1.70494">
        <ele>303</ele>
        <time>2011-03-27T08:28:47Z</time>
      </trkpt>
      <trkpt lat="44.14955" lon="1.70504">
        <ele>304</ele>
        <time>2011-03-27T08:28:50Z</time>
      </trkpt>
      <trkpt lat="44.14963" lon="1.70513">
        <ele>305</ele>
        <time>2011-03-27T08:28:53Z</time>
      </trkpt>
      <trkpt lat="44.14971" lon="1.70524">
        <ele>305</ele>
        <time>2011-03-27T08:28:56Z</time>
      </trkpt>
      <trkpt lat="44.14977" lon="1.70535">
        <ele>305</ele>
        <time>2011-03-27T08:28:59Z</time>
      </trkpt>
      <trkpt lat="44.14984" lon="1.70547">
        <ele>305</ele>
        <time>2011-03-27T08:29:02Z</time>
      </trkpt>
      <trkpt lat="44.14989" lon="1.7056">
        <ele>306</ele>
        <time>2011-03-27T08:29:05Z</time>
      </trkpt>
      <trkpt lat="44.14989" lon="1.70575">
        <ele>306</ele>
        <time>2011-03-27T08:29:08Z</time>
      </trkpt>
      <trkpt lat="44.14987" lon="1.7059">
        <ele>307</ele>
        <time>2011-03-27T08:29:11Z</time>
      </trkpt>
      <trkpt lat="44.14988" lon="1.70604">
        <ele>307</ele>
        <time>2011-03-27T08:29:14Z</time>
      </trkpt>
      <trkpt lat="44.14989" lon="1.70619">
        <ele>307</ele>
        <time>2011-03-27T08:29:17Z</time>
      </trkpt>
      <trkpt lat="44.1499" lon="1.70633">
        <ele>308</ele>
        <time>2011-03-27T08:29:20Z</time>
      </trkpt>
      <trkpt lat="44.14991" lon="1.70648">
        <ele>308</ele>
        <time>2011-03-27T08:29:23Z</time>
      </trkpt>
      <trkpt lat="44.14992" lon="1.70663">
        <ele>308</ele>
        <time>2011-03-27T08:29:26Z</time>
      </trkpt>
      <trkpt lat="44.14992" lon="1.70678">
        <ele>308</ele>
        <time>2011-03-27T08:29:29Z</time>
      </trkpt>
      <trkpt lat="44.14992" lon="1.70694">
        <ele>308</ele>
        <time>2011-03-27T08:29:32Z</time>
      </trkpt>
      <trkpt lat="44.1499" lon="1.7071">
        <ele>308</ele>
        <time>2011-03-27T08:29:35Z</time>
      </trkpt>
      <trkpt lat="44.14986" lon="1.70724">
        <ele>308</ele>
        <time>2011-03-27T08:29:38Z</time>
      </trkpt>
      <trkpt lat="44.14982" lon="1.7074">
        <ele>308</ele>
        <time>2011-03-27T08:29:41Z</time>
      </trkpt>
      <trkpt lat="44.1498" lon="1.70753">
        <ele>308</ele>
        <time>2011-03-27T08:29:43Z</time>
      </trkpt>
      <trkpt lat="44.14975" lon="1.70764">
        <ele>308</ele>
        <time>2011-03-27T08:29:45Z</time>
      </trkpt>
      <trkpt lat="44.14966" lon="1.70774">
        <ele>308</ele>
        <time>2011-03-27T08:29:48Z</time>
      </trkpt>
      <trkpt lat="44.14966" lon="1.70774">
        <ele>308</ele>
        <time>2011-03-27T08:29:52Z</time>
      </trkpt>
      <trkpt lat="44.14971" lon="1.70755">
        <ele>308</ele>
        <time>2011-03-27T08:30:07Z</time>
      </trkpt>
      <trkpt lat="44.14973" lon="1.70767">
        <ele>308</ele>
        <time>2011-03-27T08:30:16Z</time>
      </trkpt>
      <trkpt lat="44.14964" lon="1.70777">
        <ele>308</ele>
        <time>2011-03-27T08:30:18Z</time>
      </trkpt>
      <trkpt lat="44.14957" lon="1.70791">
        <ele>308</ele>
        <time>2011-03-27T08:30:22Z</time>
      </trkpt>
      <trkpt lat="44.14947" lon="1.70802">
        <ele>308</ele>
        <time>2011-03-27T08:30:24Z</time>
      </trkpt>
      <trkpt lat="44.14934" lon="1.70812">
        <ele>308</ele>
        <time>2011-03-27T08:30:27Z</time>
      </trkpt>
      <trkpt lat="44.14921" lon="1.70824">
        <ele>307</ele>
        <time>2011-03-27T08:30:30Z</time>
      </trkpt>
      <trkpt lat="44.14915" lon="1.70839">
        <ele>307</ele>
        <time>2011-03-27T08:30:33Z</time>
      </trkpt>
      <trkpt lat="44.14905" lon="1.70853">
        <ele>307</ele>
        <time>2011-03-27T08:30:37Z</time>
      </trkpt>
      <trkpt lat="44.14896" lon="1.70871">
        <ele>308</ele>
        <time>2011-03-27T08:30:39Z</time>
      </trkpt>
      <trkpt lat="44.14888" lon="1.70888">
        <ele>308</ele>
        <time>2011-03-27T08:30:42Z</time>
      </trkpt>
      <trkpt lat="44.14878" lon="1.70906">
        <ele>307</ele>
        <time>2011-03-27T08:30:45Z</time>
      </trkpt>
      <trkpt lat="44.14868" lon="1.70922">
        <ele>306</ele>
        <time>2011-03-27T08:30:48Z</time>
      </trkpt>
      <trkpt lat="44.14861" lon="1.70932">
        <ele>306</ele>
        <time>2011-03-27T08:30:51Z</time>
      </trkpt>
      <trkpt lat="44.1485" lon="1.70945">
        <ele>306</ele>
        <time>2011-03-27T08:30:53Z</time>
      </trkpt>
      <trkpt lat="44.14846" lon="1.70956">
        <ele>306</ele>
        <time>2011-03-27T08:30:56Z</time>
      </trkpt>
      <trkpt lat="44.14835" lon="1.70972">
        <ele>305</ele>
        <time>2011-03-27T08:30:58Z</time>
      </trkpt>
      <trkpt lat="44.1483" lon="1.70989">
        <ele>304</ele>
        <time>2011-03-27T08:31:01Z</time>
      </trkpt>
      <trkpt lat="44.14827" lon="1.71009">
        <ele>302</ele>
        <time>2011-03-27T08:31:04Z</time>
      </trkpt>
      <trkpt lat="44.14823" lon="1.71022">
        <ele>302</ele>
        <time>2011-03-27T08:31:07Z</time>
      </trkpt>
      <trkpt lat="44.14823" lon="1.71036">
        <ele>301</ele>
        <time>2011-03-27T08:31:12Z</time>
      </trkpt>
      <trkpt lat="44.1482" lon="1.71049">
        <ele>301</ele>
        <time>2011-03-27T08:31:17Z</time>
      </trkpt>
      <trkpt lat="44.14823" lon="1.71064">
        <ele>301</ele>
        <time>2011-03-27T08:31:23Z</time>
      </trkpt>
      <trkpt lat="44.14828" lon="1.71077">
        <ele>301</ele>
        <time>2011-03-27T08:31:29Z</time>
      </trkpt>
      <trkpt lat="44.14834" lon="1.71085">
        <ele>301</ele>
        <time>2011-03-27T08:31:35Z</time>
      </trkpt>
      <trkpt lat="44.1484" lon="1.71096">
        <ele>302</ele>
        <time>2011-03-27T08:31:46Z</time>
      </trkpt>
      <trkpt lat="44.14848" lon="1.71103">
        <ele>302</ele>
        <time>2011-03-27T08:31:59Z</time>
      </trkpt>
      <trkpt lat="44.14853" lon="1.71114">
        <ele>302</ele>
        <time>2011-03-27T08:32:16Z</time>
      </trkpt>
      <trkpt lat="44.14859" lon="1.71125">
        <ele>302</ele>
        <time>2011-03-27T08:32:24Z</time>
      </trkpt>
      <trkpt lat="44.14865" lon="1.71135">
        <ele>302</ele>
        <time>2011-03-27T08:32:31Z</time>
      </trkpt>
      <trkpt lat="44.14869" lon="1.71146">
        <ele>302</ele>
        <time>2011-03-27T08:32:38Z</time>
      </trkpt>
      <trkpt lat="44.14869" lon="1.71146">
        <ele>302</ele>
        <time>2011-03-27T08:32:48Z</time>
      </trkpt>
      <trkpt lat="44.14869" lon="1.71146">
        <ele>302</ele>
        <time>2011-03-27T08:33:08Z</time>
      </trkpt>
      <trkpt lat="44.14887" lon="1.71175">
        <ele>297</ele>
        <time>2011-03-27T08:33:29Z</time>
      </trkpt>
      <trkpt lat="44.14897" lon="1.71177">
        <ele>299</ele>
        <time>2011-03-27T08:33:39Z</time>
      </trkpt>
      <trkpt lat="44.14897" lon="1.71177">
        <ele>299</ele>
        <time>2011-03-27T08:33:56Z</time>
      </trkpt>
      <trkpt lat="44.14897" lon="1.71177">
        <ele>299</ele>
        <time>2011-03-27T08:34:20Z</time>
      </trkpt>
      <trkpt lat="44.1493" lon="1.71193">
        <ele>306</ele>
        <time>2011-03-27T08:35:05Z</time>
      </trkpt>
      <trkpt lat="44.1494" lon="1.71194">
        <ele>306</ele>
        <time>2011-03-27T08:35:17Z</time>
      </trkpt>
      <trkpt lat="44.1495" lon="1.71199">
        <ele>307</ele>
        <time>2011-03-27T08:35:24Z</time>
      </trkpt>
      <trkpt lat="44.14959" lon="1.71206">
        <ele>307</ele>
        <time>2011-03-27T08:35:29Z</time>
      </trkpt>
      <trkpt lat="44.14968" lon="1.71211">
        <ele>307</ele>
        <time>2011-03-27T08:35:35Z</time>
      </trkpt>
      <trkpt lat="44.14978" lon="1.71214">
        <ele>307</ele>
        <time>2011-03-27T08:35:42Z</time>
      </trkpt>
      <trkpt lat="44.14988" lon="1.71216">
        <ele>308</ele>
        <time>2011-03-27T08:35:49Z</time>
      </trkpt>
      <trkpt lat="44.14997" lon="1.71213">
        <ele>308</ele>
        <time>2011-03-27T08:35:56Z</time>
      </trkpt>
      <trkpt lat="44.14997" lon="1.71213">
        <ele>308</ele>
        <time>2011-03-27T08:36:04Z</time>
      </trkpt>
      <trkpt lat="44.14997" lon="1.71213">
        <ele>308</ele>
        <time>2011-03-27T08:36:27Z</time>
      </trkpt>
      <trkpt lat="44.15024" lon="1.71222">
        <ele>311</ele>
        <time>2011-03-27T08:37:14Z</time>
      </trkpt>
      <trkpt lat="44.15033" lon="1.71218">
        <ele>311</ele>
        <time>2011-03-27T08:37:20Z</time>
      </trkpt>
      <trkpt lat="44.15038" lon="1.7123">
        <ele>310</ele>
        <time>2011-03-27T08:37:28Z</time>
      </trkpt>
      <trkpt lat="44.15047" lon="1.71232">
        <ele>310</ele>
        <time>2011-03-27T08:37:35Z</time>
      </trkpt>
      <trkpt lat="44.15053" lon="1.71241">
        <ele>310</ele>
        <time>2011-03-27T08:37:40Z</time>
      </trkpt>
      <trkpt lat="44.15063" lon="1.71246">
        <ele>309</ele>
        <time>2011-03-27T08:37:49Z</time>
      </trkpt>
      <trkpt lat="44.1507" lon="1.71255">
        <ele>303</ele>
        <time>2011-03-27T08:37:55Z</time>
      </trkpt>
      <trkpt lat="44.15076" lon="1.71266">
        <ele>303</ele>
        <time>2011-03-27T08:38:01Z</time>
      </trkpt>
      <trkpt lat="44.15081" lon="1.71278">
        <ele>301</ele>
        <time>2011-03-27T08:38:08Z</time>
      </trkpt>
      <trkpt lat="44.15081" lon="1.71291">
        <ele>299</ele>
        <time>2011-03-27T08:38:14Z</time>
      </trkpt>
      <trkpt lat="44.15089" lon="1.71298">
        <ele>300</ele>
        <time>2011-03-27T08:38:19Z</time>
      </trkpt>
      <trkpt lat="44.15093" lon="1.71311">
        <ele>299</ele>
        <time>2011-03-27T08:38:24Z</time>
      </trkpt>
      <trkpt lat="44.15095" lon="1.71324">
        <ele>299</ele>
        <time>2011-03-27T08:38:30Z</time>
      </trkpt>
      <trkpt lat="44.15101" lon="1.71335">
        <ele>297</ele>
        <time>2011-03-27T08:38:36Z</time>
      </trkpt>
      <trkpt lat="44.15104" lon="1.71349">
        <ele>296</ele>
        <time>2011-03-27T08:38:41Z</time>
      </trkpt>
      <trkpt lat="44.15106" lon="1.71365">
        <ele>295</ele>
        <time>2011-03-27T08:38:45Z</time>
      </trkpt>
      <trkpt lat="44.15106" lon="1.7138">
        <ele>295</ele>
        <time>2011-03-27T08:38:49Z</time>
      </trkpt>
      <trkpt lat="44.15106" lon="1.7138">
        <ele>295</ele>
        <time>2011-03-27T08:38:52Z</time>
      </trkpt>
      <trkpt lat="44.15106" lon="1.7138">
        <ele>295</ele>
        <time>2011-03-27T08:39:20Z</time>
      </trkpt>
      <trkpt lat="44.15114" lon="1.71402">
        <ele>294</ele>
        <time>2011-03-27T08:39:31Z</time>
      </trkpt>
      <trkpt lat="44.15118" lon="1.71414">
        <ele>294</ele>
        <time>2011-03-27T08:39:34Z</time>
      </trkpt>
      <trkpt lat="44.15129" lon="1.71417">
        <ele>293</ele>
        <time>2011-03-27T08:39:38Z</time>
      </trkpt>
      <trkpt lat="44.15138" lon="1.71423">
        <ele>294</ele>
        <time>2011-03-27T08:39:43Z</time>
      </trkpt>
      <trkpt lat="44.15144" lon="1.71432">
        <ele>294</ele>
        <time>2011-03-27T08:39:48Z</time>
      </trkpt>
      <trkpt lat="44.15151" lon="1.71443">
        <ele>294</ele>
        <time>2011-03-27T08:39:55Z</time>
      </trkpt>
      <trkpt lat="44.15151" lon="1.71443">
        <ele>294</ele>
        <time>2011-03-27T08:39:58Z</time>
      </trkpt>
      <trkpt lat="44.15156" lon="1.71484">
        <ele>295</ele>
        <time>2011-03-27T08:40:22Z</time>
      </trkpt>
      <trkpt lat="44.15161" lon="1.71495">
        <ele>296</ele>
        <time>2011-03-27T08:40:29Z</time>
      </trkpt>
      <trkpt lat="44.15164" lon="1.71507">
        <ele>296</ele>
        <time>2011-03-27T08:40:41Z</time>
      </trkpt>
      <trkpt lat="44.15166" lon="1.71521">
        <ele>293</ele>
        <time>2011-03-27T08:40:47Z</time>
      </trkpt>
      <trkpt lat="44.15166" lon="1.71521">
        <ele>293</ele>
        <time>2011-03-27T08:41:00Z</time>
      </trkpt>
      <trkpt lat="44.15195" lon="1.7151">
        <ele>293</ele>
        <time>2011-03-27T08:41:23Z</time>
      </trkpt>
      <trkpt lat="44.15202" lon="1.71503">
        <ele>293</ele>
        <time>2011-03-27T08:41:28Z</time>
      </trkpt>
      <trkpt lat="44.1521" lon="1.71511">
        <ele>292</ele>
        <time>2011-03-27T08:41:36Z</time>
      </trkpt>
      <trkpt lat="44.1522" lon="1.71511">
        <ele>292</ele>
        <time>2011-03-27T08:41:42Z</time>
      </trkpt>
      <trkpt lat="44.15232" lon="1.71511">
        <ele>292</ele>
        <time>2011-03-27T08:41:47Z</time>
      </trkpt>
      <trkpt lat="44.15241" lon="1.7151">
        <ele>293</ele>
        <time>2011-03-27T08:41:51Z</time>
      </trkpt>
      <trkpt lat="44.15251" lon="1.71518">
        <ele>291</ele>
        <time>2011-03-27T08:41:55Z</time>
      </trkpt>
      <trkpt lat="44.15262" lon="1.71518">
        <ele>291</ele>
        <time>2011-03-27T08:41:59Z</time>
      </trkpt>
      <trkpt lat="44.15273" lon="1.71519">
        <ele>290</ele>
        <time>2011-03-27T08:42:02Z</time>
      </trkpt>
      <trkpt lat="44.15281" lon="1.71524">
        <ele>289</ele>
        <time>2011-03-27T08:42:05Z</time>
      </trkpt>
      <trkpt lat="44.15291" lon="1.71528">
        <ele>289</ele>
        <time>2011-03-27T08:42:12Z</time>
      </trkpt>
      <trkpt lat="44.15302" lon="1.71533">
        <ele>289</ele>
        <time>2011-03-27T08:42:17Z</time>
      </trkpt>
      <trkpt lat="44.15313" lon="1.71538">
        <ele>289</ele>
        <time>2011-03-27T08:42:21Z</time>
      </trkpt>
      <trkpt lat="44.15323" lon="1.71542">
        <ele>288</ele>
        <time>2011-03-27T08:42:24Z</time>
      </trkpt>
      <trkpt lat="44.15333" lon="1.71547">
        <ele>288</ele>
        <time>2011-03-27T08:42:26Z</time>
      </trkpt>
      <trkpt lat="44.15344" lon="1.71551">
        <ele>289</ele>
        <time>2011-03-27T08:42:30Z</time>
      </trkpt>
      <trkpt lat="44.15353" lon="1.71558">
        <ele>289</ele>
        <time>2011-03-27T08:42:32Z</time>
      </trkpt>
      <trkpt lat="44.15363" lon="1.71562">
        <ele>289</ele>
        <time>2011-03-27T08:42:35Z</time>
      </trkpt>
      <trkpt lat="44.15373" lon="1.71569">
        <ele>289</ele>
        <time>2011-03-27T08:42:39Z</time>
      </trkpt>
      <trkpt lat="44.15383" lon="1.71575">
        <ele>289</ele>
        <time>2011-03-27T08:42:42Z</time>
      </trkpt>
      <trkpt lat="44.15392" lon="1.71582">
        <ele>289</ele>
        <time>2011-03-27T08:42:45Z</time>
      </trkpt>
      <trkpt lat="44.15401" lon="1.71588">
        <ele>280</ele>
        <time>2011-03-27T08:42:48Z</time>
      </trkpt>
      <trkpt lat="44.15412" lon="1.71594">
        <ele>282</ele>
        <time>2011-03-27T08:42:52Z</time>
      </trkpt>
      <trkpt lat="44.15422" lon="1.71597">
        <ele>285</ele>
        <time>2011-03-27T08:42:55Z</time>
      </trkpt>
      <trkpt lat="44.15433" lon="1.71603">
        <ele>283</ele>
        <time>2011-03-27T08:42:58Z</time>
      </trkpt>
      <trkpt lat="44.15443" lon="1.71609">
        <ele>282</ele>
        <time>2011-03-27T08:43:01Z</time>
      </trkpt>
      <trkpt lat="44.15452" lon="1.71614">
        <ele>282</ele>
        <time>2011-03-27T08:43:04Z</time>
      </trkpt>
      <trkpt lat="44.15462" lon="1.71619">
        <ele>282</ele>
        <time>2011-03-27T08:43:07Z</time>
      </trkpt>
      <trkpt lat="44.15471" lon="1.71625">
        <ele>282</ele>
        <time>2011-03-27T08:43:11Z</time>
      </trkpt>
      <trkpt lat="44.15481" lon="1.71629">
        <ele>282</ele>
        <time>2011-03-27T08:43:17Z</time>
      </trkpt>
      <trkpt lat="44.1549" lon="1.71634">
        <ele>282</ele>
        <time>2011-03-27T08:43:22Z</time>
      </trkpt>
      <trkpt lat="44.155" lon="1.71637">
        <ele>282</ele>
        <time>2011-03-27T08:43:27Z</time>
      </trkpt>
      <trkpt lat="44.15508" lon="1.71643">
        <ele>286</ele>
        <time>2011-03-27T08:43:31Z</time>
      </trkpt>
      <trkpt lat="44.15518" lon="1.71646">
        <ele>287</ele>
        <time>2011-03-27T08:43:35Z</time>
      </trkpt>
      <trkpt lat="44.15529" lon="1.7165">
        <ele>288</ele>
        <time>2011-03-27T08:43:39Z</time>
      </trkpt>
      <trkpt lat="44.15542" lon="1.71653">
        <ele>289</ele>
        <time>2011-03-27T08:43:42Z</time>
      </trkpt>
      <trkpt lat="44.15552" lon="1.71654">
        <ele>290</ele>
        <time>2011-03-27T08:43:45Z</time>
      </trkpt>
      <trkpt lat="44.15566" lon="1.71661">
        <ele>291</ele>
        <time>2011-03-27T08:43:47Z</time>
      </trkpt>
      <trkpt lat="44.15576" lon="1.71671">
        <ele>288</ele>
        <time>2011-03-27T08:43:50Z</time>
      </trkpt>
      <trkpt lat="44.15584" lon="1.7168">
        <ele>292</ele>
        <time>2011-03-27T08:43:53Z</time>
      </trkpt>
      <trkpt lat="44.15593" lon="1.71693">
        <ele>291</ele>
        <time>2011-03-27T08:43:56Z</time>
      </trkpt>
      <trkpt lat="44.15604" lon="1.71704">
        <ele>291</ele>
        <time>2011-03-27T08:43:59Z</time>
      </trkpt>
      <trkpt lat="44.15615" lon="1.71714">
        <ele>291</ele>
        <time>2011-03-27T08:44:02Z</time>
      </trkpt>
      <trkpt lat="44.15625" lon="1.71724">
        <ele>291</ele>
        <time>2011-03-27T08:44:05Z</time>
      </trkpt>
      <trkpt lat="44.15633" lon="1.71732">
        <ele>292</ele>
        <time>2011-03-27T08:44:08Z</time>
      </trkpt>
      <trkpt lat="44.15641" lon="1.7174">
        <ele>293</ele>
        <time>2011-03-27T08:44:12Z</time>
      </trkpt>
      <trkpt lat="44.15645" lon="1.71751">
        <ele>287</ele>
        <time>2011-03-27T08:44:18Z</time>
      </trkpt>
      <trkpt lat="44.15643" lon="1.71766">
        <ele>286</ele>
        <time>2011-03-27T08:44:24Z</time>
      </trkpt>
      <trkpt lat="44.15648" lon="1.71779">
        <ele>285</ele>
        <time>2011-03-27T08:44:28Z</time>
      </trkpt>
      <trkpt lat="44.15654" lon="1.71791">
        <ele>284</ele>
        <time>2011-03-27T08:44:32Z</time>
      </trkpt>
      <trkpt lat="44.1565" lon="1.71803">
        <ele>283</ele>
        <time>2011-03-27T08:44:39Z</time>
      </trkpt>
      <trkpt lat="44.15655" lon="1.71814">
        <ele>284</ele>
        <time>2011-03-27T08:44:44Z</time>
      </trkpt>
      <trkpt lat="44.1566" lon="1.71825">
        <ele>285</ele>
        <time>2011-03-27T08:44:50Z</time>
      </trkpt>
      <trkpt lat="44.15668" lon="1.71836">
        <ele>288</ele>
        <time>2011-03-27T08:44:55Z</time>
      </trkpt>
      <trkpt lat="44.15672" lon="1.71849">
        <ele>288</ele>
        <time>2011-03-27T08:44:59Z</time>
      </trkpt>
      <trkpt lat="44.15674" lon="1.71867">
        <ele>287</ele>
        <time>2011-03-27T08:45:02Z</time>
      </trkpt>
      <trkpt lat="44.15678" lon="1.7188">
        <ele>286</ele>
        <time>2011-03-27T08:45:04Z</time>
      </trkpt>
      <trkpt lat="44.15683" lon="1.71903">
        <ele>283</ele>
        <time>2011-03-27T08:45:07Z</time>
      </trkpt>
      <trkpt lat="44.15686" lon="1.71927">
        <ele>279</ele>
        <time>2011-03-27T08:45:09Z</time>
      </trkpt>
      <trkpt lat="44.15686" lon="1.71943">
        <ele>279</ele>
        <time>2011-03-27T08:45:11Z</time>
      </trkpt>
      <trkpt lat="44.15686" lon="1.71962">
        <ele>278</ele>
        <time>2011-03-27T08:45:14Z</time>
      </trkpt>
      <trkpt lat="44.15686" lon="1.71976">
        <ele>277</ele>
        <time>2011-03-27T08:45:18Z</time>
      </trkpt>
      <trkpt lat="44.15679" lon="1.71968">
        <ele>277</ele>
        <time>2011-03-27T08:45:22Z</time>
      </trkpt>
      <trkpt lat="44.1567" lon="1.71954">
        <ele>277</ele>
        <time>2011-03-27T08:45:25Z</time>
      </trkpt>
      <trkpt lat="44.15662" lon="1.71944">
        <ele>259</ele>
        <time>2011-03-27T08:45:27Z</time>
      </trkpt>
      <trkpt lat="44.15654" lon="1.71934">
        <ele>260</ele>
        <time>2011-03-27T08:45:29Z</time>
      </trkpt>
      <trkpt lat="44.15642" lon="1.71918">
        <ele>258</ele>
        <time>2011-03-27T08:45:32Z</time>
      </trkpt>
      <trkpt lat="44.15628" lon="1.71896">
        <ele>263</ele>
        <time>2011-03-27T08:45:35Z</time>
      </trkpt>
      <trkpt lat="44.15619" lon="1.71881">
        <ele>262</ele>
        <time>2011-03-27T08:45:38Z</time>
      </trkpt>
      <trkpt lat="44.15607" lon="1.71867">
        <ele>262</ele>
        <time>2011-03-27T08:45:40Z</time>
      </trkpt>
      <trkpt lat="44.15599" lon="1.7186">
        <ele>261</ele>
        <time>2011-03-27T08:45:43Z</time>
      </trkpt>
      <trkpt lat="44.15599" lon="1.7186">
        <ele>261</ele>
        <time>2011-03-27T08:45:45Z</time>
      </trkpt>
      <trkpt lat="44.15608" lon="1.71874">
        <ele>261</ele>
        <time>2011-03-27T08:45:51Z</time>
      </trkpt>
      <trkpt lat="44.15614" lon="1.71891">
        <ele>260</ele>
        <time>2011-03-27T08:45:54Z</time>
      </trkpt>
      <trkpt lat="44.15618" lon="1.71903">
        <ele>260</ele>
        <time>2011-03-27T08:45:56Z</time>
      </trkpt>
      <trkpt lat="44.15622" lon="1.71916">
        <ele>260</ele>
        <time>2011-03-27T08:45:58Z</time>
      </trkpt>
      <trkpt lat="44.15626" lon="1.7193">
        <ele>252</ele>
        <time>2011-03-27T08:46:00Z</time>
      </trkpt>
      <trkpt lat="44.15629" lon="1.71942">
        <ele>252</ele>
        <time>2011-03-27T08:46:02Z</time>
      </trkpt>
      <trkpt lat="44.15629" lon="1.71942">
        <ele>252</ele>
        <time>2011-03-27T08:46:05Z</time>
      </trkpt>
      <trkpt lat="44.15617" lon="1.71939">
        <ele>249</ele>
        <time>2011-03-27T08:46:10Z</time>
      </trkpt>
      <trkpt lat="44.15606" lon="1.71922">
        <ele>246</ele>
        <time>2011-03-27T08:46:13Z</time>
      </trkpt>
      <trkpt lat="44.15591" lon="1.71902">
        <ele>251</ele>
        <time>2011-03-27T08:46:16Z</time>
      </trkpt>
      <trkpt lat="44.1558" lon="1.71887">
        <ele>236</ele>
        <time>2011-03-27T08:46:18Z</time>
      </trkpt>
      <trkpt lat="44.15564" lon="1.71867">
        <ele>237</ele>
        <time>2011-03-27T08:46:21Z</time>
      </trkpt>
      <trkpt lat="44.15549" lon="1.71848">
        <ele>237</ele>
        <time>2011-03-27T08:46:24Z</time>
      </trkpt>
      <trkpt lat="44.15549" lon="1.71848">
        <ele>237</ele>
        <time>2011-03-27T08:46:28Z</time>
      </trkpt>
      <trkpt lat="44.15549" lon="1.71866">
        <ele>235</ele>
        <time>2011-03-27T08:46:37Z</time>
      </trkpt>
      <trkpt lat="44.15558" lon="1.71888">
        <ele>234</ele>
        <time>2011-03-27T08:46:40Z</time>
      </trkpt>
      <trkpt lat="44.15558" lon="1.71888">
        <ele>234</ele>
        <time>2011-03-27T08:46:44Z</time>
      </trkpt>
      <trkpt lat="44.15548" lon="1.7189">
        <ele>232</ele>
        <time>2011-03-27T08:46:48Z</time>
      </trkpt>
      <trkpt lat="44.15539" lon="1.71881">
        <ele>231</ele>
        <time>2011-03-27T08:46:51Z</time>
      </trkpt>
      <trkpt lat="44.1553" lon="1.71875">
        <ele>230</ele>
        <time>2011-03-27T08:46:57Z</time>
      </trkpt>
      <trkpt lat="44.1553" lon="1.71875">
        <ele>230</ele>
        <time>2011-03-27T08:47:04Z</time>
      </trkpt>
      <trkpt lat="44.1551" lon="1.71857">
        <ele>230</ele>
        <time>2011-03-27T08:47:10Z</time>
      </trkpt>
      <trkpt lat="44.15501" lon="1.71852">
        <ele>230</ele>
        <time>2011-03-27T08:47:13Z</time>
      </trkpt>
      <trkpt lat="44.15486" lon="1.71842">
        <ele>215</ele>
        <time>2011-03-27T08:47:15Z</time>
      </trkpt>
      <trkpt lat="44.15475" lon="1.71832">
        <ele>226</ele>
        <time>2011-03-27T08:47:18Z</time>
      </trkpt>
      <trkpt lat="44.1546" lon="1.71818">
        <ele>224</ele>
        <time>2011-03-27T08:47:20Z</time>
      </trkpt>
      <trkpt lat="44.15452" lon="1.71808">
        <ele>223</ele>
        <time>2011-03-27T08:47:22Z</time>
      </trkpt>
      <trkpt lat="44.1544" lon="1.71791">
        <ele>224</ele>
        <time>2011-03-27T08:47:25Z</time>
      </trkpt>
      <trkpt lat="44.15428" lon="1.71776">
        <ele>225</ele>
        <time>2011-03-27T08:47:28Z</time>
      </trkpt>
      <trkpt lat="44.15414" lon="1.71763">
        <ele>212</ele>
        <time>2011-03-27T08:47:31Z</time>
      </trkpt>
      <trkpt lat="44.15398" lon="1.71756">
        <ele>208</ele>
        <time>2011-03-27T08:47:34Z</time>
      </trkpt>
      <trkpt lat="44.15389" lon="1.71751">
        <ele>204</ele>
        <time>2011-03-27T08:47:37Z</time>
      </trkpt>
      <trkpt lat="44.15377" lon="1.71747">
        <ele>223</ele>
        <time>2011-03-27T08:47:40Z</time>
      </trkpt>
      <trkpt lat="44.15366" lon="1.71746">
        <ele>220</ele>
        <time>2011-03-27T08:47:44Z</time>
      </trkpt>
      <trkpt lat="44.15366" lon="1.71746">
        <ele>220</ele>
        <time>2011-03-27T08:47:45Z</time>
      </trkpt>
      <trkpt lat="44.15374" lon="1.71764">
        <ele>197</ele>
        <time>2011-03-27T08:48:02Z</time>
      </trkpt>
      <trkpt lat="44.15383" lon="1.71774">
        <ele>198</ele>
        <time>2011-03-27T08:48:04Z</time>
      </trkpt>
      <trkpt lat="44.15392" lon="1.71784">
        <ele>198</ele>
        <time>2011-03-27T08:48:07Z</time>
      </trkpt>
      <trkpt lat="44.15401" lon="1.71793">
        <ele>198</ele>
        <time>2011-03-27T08:48:09Z</time>
      </trkpt>
      <trkpt lat="44.15408" lon="1.71802">
        <ele>197</ele>
        <time>2011-03-27T08:48:12Z</time>
      </trkpt>
      <trkpt lat="44.15415" lon="1.71811">
        <ele>197</ele>
        <time>2011-03-27T08:48:18Z</time>
      </trkpt>
      <trkpt lat="44.15415" lon="1.71811">
        <ele>197</ele>
        <time>2011-03-27T08:48:21Z</time>
      </trkpt>
      <trkpt lat="44.15438" lon="1.71838">
        <ele>200</ele>
        <time>2011-03-27T08:48:40Z</time>
      </trkpt>
      <trkpt lat="44.15445" lon="1.71849">
        <ele>201</ele>
        <time>2011-03-27T08:48:45Z</time>
      </trkpt>
      <trkpt lat="44.15445" lon="1.71849">
        <ele>201</ele>
        <time>2011-03-27T08:48:50Z</time>
      </trkpt>
      <trkpt lat="44.15469" lon="1.71884">
        <ele>201</ele>
        <time>2011-03-27T08:49:07Z</time>
      </trkpt>
      <trkpt lat="44.15479" lon="1.71896">
        <ele>201</ele>
        <time>2011-03-27T08:49:11Z</time>
      </trkpt>
      <trkpt lat="44.15488" lon="1.71909">
        <ele>203</ele>
        <time>2011-03-27T08:49:14Z</time>
      </trkpt>
      <trkpt lat="44.15496" lon="1.71918">
        <ele>201</ele>
        <time>2011-03-27T08:49:18Z</time>
      </trkpt>
      <trkpt lat="44.15501" lon="1.71929">
        <ele>208</ele>
        <time>2011-03-27T08:49:25Z</time>
      </trkpt>
      <trkpt lat="44.15508" lon="1.71938">
        <ele>208</ele>
        <time>2011-03-27T08:49:31Z</time>
      </trkpt>
      <trkpt lat="44.15515" lon="1.7195">
        <ele>208</ele>
        <time>2011-03-27T08:49:36Z</time>
      </trkpt>
      <trkpt lat="44.1552" lon="1.71961">
        <ele>208</ele>
        <time>2011-03-27T08:49:40Z</time>
      </trkpt>
      <trkpt lat="44.15524" lon="1.71972">
        <ele>206</ele>
        <time>2011-03-27T08:49:45Z</time>
      </trkpt>
      <trkpt lat="44.15529" lon="1.71983">
        <ele>206</ele>
        <time>2011-03-27T08:49:51Z</time>
      </trkpt>
      <trkpt lat="44.15535" lon="1.71994">
        <ele>206</ele>
        <time>2011-03-27T08:49:57Z</time>
      </trkpt>
      <trkpt lat="44.15539" lon="1.72008">
        <ele>199</ele>
        <time>2011-03-27T08:50:03Z</time>
      </trkpt>
      <trkpt lat="44.1554" lon="1.72023">
        <ele>199</ele>
        <time>2011-03-27T08:50:06Z</time>
      </trkpt>
      <trkpt lat="44.1554" lon="1.72039">
        <ele>198</ele>
        <time>2011-03-27T08:50:08Z</time>
      </trkpt>
      <trkpt lat="44.1554" lon="1.72059">
        <ele>197</ele>
        <time>2011-03-27T08:50:10Z</time>
      </trkpt>
      <trkpt lat="44.15542" lon="1.72082">
        <ele>196</ele>
        <time>2011-03-27T08:50:13Z</time>
      </trkpt>
      <trkpt lat="44.15545" lon="1.72112">
        <ele>191</ele>
        <time>2011-03-27T08:50:15Z</time>
      </trkpt>
      <trkpt lat="44.15549" lon="1.72138">
        <ele>191</ele>
        <time>2011-03-27T08:50:18Z</time>
      </trkpt>
      <trkpt lat="44.1555" lon="1.72163">
        <ele>192</ele>
        <time>2011-03-27T08:50:21Z</time>
      </trkpt>
      <trkpt lat="44.15552" lon="1.72189">
        <ele>188</ele>
        <time>2011-03-27T08:50:24Z</time>
      </trkpt>
      <trkpt lat="44.15552" lon="1.72206">
        <ele>187</ele>
        <time>2011-03-27T08:50:27Z</time>
      </trkpt>
      <trkpt lat="44.15552" lon="1.7222">
        <ele>187</ele>
        <time>2011-03-27T08:50:30Z</time>
      </trkpt>
      <trkpt lat="44.15549" lon="1.72234">
        <ele>186</ele>
        <time>2011-03-27T08:50:35Z</time>
      </trkpt>
      <trkpt lat="44.15546" lon="1.72247">
        <ele>185</ele>
        <time>2011-03-27T08:50:40Z</time>
      </trkpt>
      <trkpt lat="44.15546" lon="1.72247">
        <ele>185</ele>
        <time>2011-03-27T08:50:41Z</time>
      </trkpt>
      <trkpt lat="44.15542" lon="1.72274">
        <ele>182</ele>
        <time>2011-03-27T08:51:03Z</time>
      </trkpt>
      <trkpt lat="44.15537" lon="1.72288">
        <ele>181</ele>
        <time>2011-03-27T08:51:06Z</time>
      </trkpt>
      <trkpt lat="44.15532" lon="1.723">
        <ele>180</ele>
        <time>2011-03-27T08:51:08Z</time>
      </trkpt>
      <trkpt lat="44.15527" lon="1.72316">
        <ele>178</ele>
        <time>2011-03-27T08:51:10Z</time>
      </trkpt>
      <trkpt lat="44.15511" lon="1.72342">
        <ele>174</ele>
        <time>2011-03-27T08:51:13Z</time>
      </trkpt>
      <trkpt lat="44.155" lon="1.72357">
        <ele>161</ele>
        <time>2011-03-27T08:51:15Z</time>
      </trkpt>
      <trkpt lat="44.15487" lon="1.72378">
        <ele>160</ele>
        <time>2011-03-27T08:51:18Z</time>
      </trkpt>
      <trkpt lat="44.15486" lon="1.72401">
        <ele>162</ele>
        <time>2011-03-27T08:51:21Z</time>
      </trkpt>
      <trkpt lat="44.15485" lon="1.72414">
        <ele>164</ele>
        <time>2011-03-27T08:51:23Z</time>
      </trkpt>
      <trkpt lat="44.15485" lon="1.72428">
        <ele>164</ele>
        <time>2011-03-27T08:51:26Z</time>
      </trkpt>
      <trkpt lat="44.15485" lon="1.72442">
        <ele>163</ele>
        <time>2011-03-27T08:51:30Z</time>
      </trkpt>
      <trkpt lat="44.15485" lon="1.72455">
        <ele>162</ele>
        <time>2011-03-27T08:51:34Z</time>
      </trkpt>
      <trkpt lat="44.15485" lon="1.72469">
        <ele>163</ele>
        <time>2011-03-27T08:51:38Z</time>
      </trkpt>
      <trkpt lat="44.15483" lon="1.72482">
        <ele>165</ele>
        <time>2011-03-27T08:51:42Z</time>
      </trkpt>
      <trkpt lat="44.15481" lon="1.72497">
        <ele>166</ele>
        <time>2011-03-27T08:51:46Z</time>
      </trkpt>
      <trkpt lat="44.15479" lon="1.7251">
        <ele>166</ele>
        <time>2011-03-27T08:51:50Z</time>
      </trkpt>
      <trkpt lat="44.15478" lon="1.72525">
        <ele>165</ele>
        <time>2011-03-27T08:51:54Z</time>
      </trkpt>
      <trkpt lat="44.15478" lon="1.72539">
        <ele>164</ele>
        <time>2011-03-27T08:51:58Z</time>
      </trkpt>
      <trkpt lat="44.15477" lon="1.72553">
        <ele>164</ele>
        <time>2011-03-27T08:52:02Z</time>
      </trkpt>
      <trkpt lat="44.15477" lon="1.72553">
        <ele>164</ele>
        <time>2011-03-27T08:52:05Z</time>
      </trkpt>
      <trkpt lat="44.15474" lon="1.72578">
        <ele>166</ele>
        <time>2011-03-27T08:52:28Z</time>
      </trkpt>
      <trkpt lat="44.15474" lon="1.72592">
        <ele>169</ele>
        <time>2011-03-27T08:52:32Z</time>
      </trkpt>
      <trkpt lat="44.15472" lon="1.72607">
        <ele>169</ele>
        <time>2011-03-27T08:52:37Z</time>
      </trkpt>
      <trkpt lat="44.15468" lon="1.72621">
        <ele>168</ele>
        <time>2011-03-27T08:52:41Z</time>
      </trkpt>
      <trkpt lat="44.15461" lon="1.72637">
        <ele>168</ele>
        <time>2011-03-27T08:52:44Z</time>
      </trkpt>
      <trkpt lat="44.15456" lon="1.72649">
        <ele>167</ele>
        <time>2011-03-27T08:52:46Z</time>
      </trkpt>
      <trkpt lat="44.15445" lon="1.72669">
        <ele>171</ele>
        <time>2011-03-27T08:52:49Z</time>
      </trkpt>
      <trkpt lat="44.15436" lon="1.72684">
        <ele>169</ele>
        <time>2011-03-27T08:52:51Z</time>
      </trkpt>
      <trkpt lat="44.15426" lon="1.72699">
        <ele>170</ele>
        <time>2011-03-27T08:52:53Z</time>
      </trkpt>
      <trkpt lat="44.1541" lon="1.72722">
        <ele>153</ele>
        <time>2011-03-27T08:52:56Z</time>
      </trkpt>
      <trkpt lat="44.154" lon="1.72737">
        <ele>155</ele>
        <time>2011-03-27T08:52:58Z</time>
      </trkpt>
      <trkpt lat="44.15385" lon="1.72759">
        <ele>160</ele>
        <time>2011-03-27T08:53:01Z</time>
      </trkpt>
      <trkpt lat="44.15376" lon="1.7278">
        <ele>160</ele>
        <time>2011-03-27T08:53:04Z</time>
      </trkpt>
      <trkpt lat="44.15369" lon="1.72797">
        <ele>160</ele>
        <time>2011-03-27T08:53:07Z</time>
      </trkpt>
      <trkpt lat="44.15362" lon="1.72813">
        <ele>160</ele>
        <time>2011-03-27T08:53:10Z</time>
      </trkpt>
      <trkpt lat="44.15353" lon="1.72829">
        <ele>158</ele>
        <time>2011-03-27T08:53:13Z</time>
      </trkpt>
      <trkpt lat="44.15345" lon="1.72847">
        <ele>166</ele>
        <time>2011-03-27T08:53:16Z</time>
      </trkpt>
      <trkpt lat="44.15339" lon="1.7286">
        <ele>169</ele>
        <time>2011-03-27T08:53:18Z</time>
      </trkpt>
      <trkpt lat="44.15333" lon="1.72872">
        <ele>155</ele>
        <time>2011-03-27T08:53:20Z</time>
      </trkpt>
      <trkpt lat="44.15321" lon="1.72886">
        <ele>157</ele>
        <time>2011-03-27T08:53:24Z</time>
      </trkpt>
      <trkpt lat="44.15308" lon="1.72899">
        <ele>157</ele>
        <time>2011-03-27T08:53:26Z</time>
      </trkpt>
      <trkpt lat="44.153" lon="1.72908">
        <ele>156</ele>
        <time>2011-03-27T08:53:29Z</time>
      </trkpt>
      <trkpt lat="44.15287" lon="1.72921">
        <ele>167</ele>
        <time>2011-03-27T08:53:31Z</time>
      </trkpt>
      <trkpt lat="44.1528" lon="1.72929">
        <ele>166</ele>
        <time>2011-03-27T08:53:33Z</time>
      </trkpt>
      <trkpt lat="44.15272" lon="1.72938">
        <ele>165</ele>
        <time>2011-03-27T08:53:35Z</time>
      </trkpt>
      <trkpt lat="44.1526" lon="1.72951">
        <ele>167</ele>
        <time>2011-03-27T08:53:38Z</time>
      </trkpt>
      <trkpt lat="44.15249" lon="1.72965">
        <ele>156</ele>
        <time>2011-03-27T08:53:41Z</time>
      </trkpt>
      <trkpt lat="44.15243" lon="1.72975">
        <ele>158</ele>
        <time>2011-03-27T08:53:43Z</time>
      </trkpt>
      <trkpt lat="44.15233" lon="1.72988">
        <ele>160</ele>
        <time>2011-03-27T08:53:46Z</time>
      </trkpt>
      <trkpt lat="44.15222" lon="1.73001">
        <ele>171</ele>
        <time>2011-03-27T08:53:49Z</time>
      </trkpt>
      <trkpt lat="44.15212" lon="1.73014">
        <ele>170</ele>
        <time>2011-03-27T08:53:52Z</time>
      </trkpt>
      <trkpt lat="44.15204" lon="1.73027">
        <ele>170</ele>
        <time>2011-03-27T08:53:55Z</time>
      </trkpt>
      <trkpt lat="44.15194" lon="1.73039">
        <ele>170</ele>
        <time>2011-03-27T08:53:58Z</time>
      </trkpt>
      <trkpt lat="44.15186" lon="1.73047">
        <ele>170</ele>
        <time>2011-03-27T08:54:00Z</time>
      </trkpt>
      <trkpt lat="44.15186" lon="1.73047">
        <ele>170</ele>
        <time>2011-03-27T08:54:03Z</time>
      </trkpt>
      <trkpt lat="44.15172" lon="1.73069">
        <ele>171</ele>
        <time>2011-03-27T08:54:07Z</time>
      </trkpt>
      <trkpt lat="44.15165" lon="1.73079">
        <ele>167</ele>
        <time>2011-03-27T08:54:10Z</time>
      </trkpt>
      <trkpt lat="44.15159" lon="1.73088">
        <ele>171</ele>
        <time>2011-03-27T08:54:13Z</time>
      </trkpt>
      <trkpt lat="44.1515" lon="1.73099">
        <ele>171</ele>
        <time>2011-03-27T08:54:16Z</time>
      </trkpt>
      <trkpt lat="44.15142" lon="1.73108">
        <ele>171</ele>
        <time>2011-03-27T08:54:19Z</time>
      </trkpt>
      <trkpt lat="44.15135" lon="1.73117">
        <ele>171</ele>
        <time>2011-03-27T08:54:22Z</time>
      </trkpt>
      <trkpt lat="44.15129" lon="1.73126">
        <ele>172</ele>
        <time>2011-03-27T08:54:25Z</time>
      </trkpt>
      <trkpt lat="44.15123" lon="1.73135">
        <ele>172</ele>
        <time>2011-03-27T08:54:28Z</time>
      </trkpt>
      <trkpt lat="44.15116" lon="1.73145">
        <ele>173</ele>
        <time>2011-03-27T08:54:31Z</time>
      </trkpt>
      <trkpt lat="44.15108" lon="1.73154">
        <ele>172</ele>
        <time>2011-03-27T08:54:35Z</time>
      </trkpt>
      <trkpt lat="44.15108" lon="1.73154">
        <ele>172</ele>
        <time>2011-03-27T08:54:39Z</time>
      </trkpt>
      <trkpt lat="44.15123" lon="1.73155">
        <ele>175</ele>
        <time>2011-03-27T08:54:46Z</time>
      </trkpt>
      <trkpt lat="44.15133" lon="1.73151">
        <ele>176</ele>
        <time>2011-03-27T08:54:51Z</time>
      </trkpt>
      <trkpt lat="44.15143" lon="1.73146">
        <ele>178</ele>
        <time>2011-03-27T08:54:57Z</time>
      </trkpt>
      <trkpt lat="44.15153" lon="1.7314">
        <ele>178</ele>
        <time>2011-03-27T08:55:01Z</time>
      </trkpt>
      <trkpt lat="44.15162" lon="1.73134">
        <ele>178</ele>
        <time>2011-03-27T08:55:06Z</time>
      </trkpt>
      <trkpt lat="44.15171" lon="1.73129">
        <ele>191</ele>
        <time>2011-03-27T08:55:11Z</time>
      </trkpt>
      <trkpt lat="44.15181" lon="1.73123">
        <ele>191</ele>
        <time>2011-03-27T08:55:16Z</time>
      </trkpt>
      <trkpt lat="44.15191" lon="1.73118">
        <ele>191</ele>
        <time>2011-03-27T08:55:22Z</time>
      </trkpt>
      <trkpt lat="44.152" lon="1.73112">
        <ele>191</ele>
        <time>2011-03-27T08:55:27Z</time>
      </trkpt>
      <trkpt lat="44.15209" lon="1.73106">
        <ele>192</ele>
        <time>2011-03-27T08:55:32Z</time>
      </trkpt>
      <trkpt lat="44.15217" lon="1.731">
        <ele>192</ele>
        <time>2011-03-27T08:55:37Z</time>
      </trkpt>
      <trkpt lat="44.15226" lon="1.73094">
        <ele>193</ele>
        <time>2011-03-27T08:55:43Z</time>
      </trkpt>
      <trkpt lat="44.15234" lon="1.73088">
        <ele>194</ele>
        <time>2011-03-27T08:55:48Z</time>
      </trkpt>
      <trkpt lat="44.15243" lon="1.73084">
        <ele>195</ele>
        <time>2011-03-27T08:55:53Z</time>
      </trkpt>
      <trkpt lat="44.15253" lon="1.73079">
        <ele>194</ele>
        <time>2011-03-27T08:55:59Z</time>
      </trkpt>
      <trkpt lat="44.15261" lon="1.73073">
        <ele>194</ele>
        <time>2011-03-27T08:56:05Z</time>
      </trkpt>
      <trkpt lat="44.15271" lon="1.73067">
        <ele>193</ele>
        <time>2011-03-27T08:56:12Z</time>
      </trkpt>
      <trkpt lat="44.1528" lon="1.73061">
        <ele>194</ele>
        <time>2011-03-27T08:56:16Z</time>
      </trkpt>
      <trkpt lat="44.1529" lon="1.73055">
        <ele>194</ele>
        <time>2011-03-27T08:56:23Z</time>
      </trkpt>
      <trkpt lat="44.15298" lon="1.7305">
        <ele>194</ele>
        <time>2011-03-27T08:56:27Z</time>
      </trkpt>
      <trkpt lat="44.15308" lon="1.73045">
        <ele>194</ele>
        <time>2011-03-27T08:56:34Z</time>
      </trkpt>
      <trkpt lat="44.15317" lon="1.73039">
        <ele>194</ele>
        <time>2011-03-27T08:56:39Z</time>
      </trkpt>
      <trkpt lat="44.15325" lon="1.73032">
        <ele>194</ele>
        <time>2011-03-27T08:56:45Z</time>
      </trkpt>
      <trkpt lat="44.15333" lon="1.73026">
        <ele>203</ele>
        <time>2011-03-27T08:56:49Z</time>
      </trkpt>
      <trkpt lat="44.15343" lon="1.7302">
        <ele>203</ele>
        <time>2011-03-27T08:56:56Z</time>
      </trkpt>
      <trkpt lat="44.15352" lon="1.73015">
        <ele>203</ele>
        <time>2011-03-27T08:57:01Z</time>
      </trkpt>
      <trkpt lat="44.1536" lon="1.73007">
        <ele>204</ele>
        <time>2011-03-27T08:57:07Z</time>
      </trkpt>
      <trkpt lat="44.15369" lon="1.73001">
        <ele>206</ele>
        <time>2011-03-27T08:57:21Z</time>
      </trkpt>
      <trkpt lat="44.15377" lon="1.72994">
        <ele>198</ele>
        <time>2011-03-27T08:57:26Z</time>
      </trkpt>
      <trkpt lat="44.15387" lon="1.72988">
        <ele>200</ele>
        <time>2011-03-27T08:57:32Z</time>
      </trkpt>
      <trkpt lat="44.15396" lon="1.7298">
        <ele>201</ele>
        <time>2011-03-27T08:57:39Z</time>
      </trkpt>
      <trkpt lat="44.15404" lon="1.72971">
        <ele>201</ele>
        <time>2011-03-27T08:57:45Z</time>
      </trkpt>
      <trkpt lat="44.15413" lon="1.72964">
        <ele>200</ele>
        <time>2011-03-27T08:57:51Z</time>
      </trkpt>
      <trkpt lat="44.15422" lon="1.72957">
        <ele>214</ele>
        <time>2011-03-27T08:57:57Z</time>
      </trkpt>
      <trkpt lat="44.15431" lon="1.7295">
        <ele>214</ele>
        <time>2011-03-27T08:58:03Z</time>
      </trkpt>
      <trkpt lat="44.15439" lon="1.72941">
        <ele>214</ele>
        <time>2011-03-27T08:58:09Z</time>
      </trkpt>
      <trkpt lat="44.15447" lon="1.7293">
        <ele>214</ele>
        <time>2011-03-27T08:58:15Z</time>
      </trkpt>
      <trkpt lat="44.15453" lon="1.72921">
        <ele>215</ele>
        <time>2011-03-27T08:58:21Z</time>
      </trkpt>
      <trkpt lat="44.15459" lon="1.72911">
        <ele>209</ele>
        <time>2011-03-27T08:58:27Z</time>
      </trkpt>
      <trkpt lat="44.15459" lon="1.72924">
        <ele>217</ele>
        <time>2011-03-27T08:58:38Z</time>
      </trkpt>
      <trkpt lat="44.15454" lon="1.72935">
        <ele>216</ele>
        <time>2011-03-27T08:58:44Z</time>
      </trkpt>
      <trkpt lat="44.1545" lon="1.72949">
        <ele>216</ele>
        <time>2011-03-27T08:58:51Z</time>
      </trkpt>
      <trkpt lat="44.15446" lon="1.72963">
        <ele>217</ele>
        <time>2011-03-27T08:58:56Z</time>
      </trkpt>
      <trkpt lat="44.15443" lon="1.72976">
        <ele>217</ele>
        <time>2011-03-27T08:59:02Z</time>
      </trkpt>
      <trkpt lat="44.1544" lon="1.72989">
        <ele>217</ele>
        <time>2011-03-27T08:59:08Z</time>
      </trkpt>
      <trkpt lat="44.15438" lon="1.73002">
        <ele>220</ele>
        <time>2011-03-27T08:59:14Z</time>
      </trkpt>
      <trkpt lat="44.15434" lon="1.73015">
        <ele>221</ele>
        <time>2011-03-27T08:59:19Z</time>
      </trkpt>
      <trkpt lat="44.15432" lon="1.73027">
        <ele>222</ele>
        <time>2011-03-27T08:59:24Z</time>
      </trkpt>
      <trkpt lat="44.15429" lon="1.73039">
        <ele>223</ele>
        <time>2011-03-27T08:59:30Z</time>
      </trkpt>
      <trkpt lat="44.15426" lon="1.73054">
        <ele>223</ele>
        <time>2011-03-27T08:59:36Z</time>
      </trkpt>
      <trkpt lat="44.15423" lon="1.73066">
        <ele>223</ele>
        <time>2011-03-27T08:59:41Z</time>
      </trkpt>
      <trkpt lat="44.15423" lon="1.7308">
        <ele>223</ele>
        <time>2011-03-27T08:59:47Z</time>
      </trkpt>
      <trkpt lat="44.15425" lon="1.73094">
        <ele>226</ele>
        <time>2011-03-27T08:59:53Z</time>
      </trkpt>
      <trkpt lat="44.15427" lon="1.73108">
        <ele>227</ele>
        <time>2011-03-27T08:59:59Z</time>
      </trkpt>
      <trkpt lat="44.15436" lon="1.73114">
        <ele>228</ele>
        <time>2011-03-27T09:00:06Z</time>
      </trkpt>
      <trkpt lat="44.15443" lon="1.73106">
        <ele>228</ele>
        <time>2011-03-27T09:00:13Z</time>
      </trkpt>
      <trkpt lat="44.1545" lon="1.73097">
        <ele>229</ele>
        <time>2011-03-27T09:00:18Z</time>
      </trkpt>
      <trkpt lat="44.15455" lon="1.73086">
        <ele>229</ele>
        <time>2011-03-27T09:00:22Z</time>
      </trkpt>
      <trkpt lat="44.15461" lon="1.73074">
        <ele>227</ele>
        <time>2011-03-27T09:00:27Z</time>
      </trkpt>
      <trkpt lat="44.15468" lon="1.73066">
        <ele>227</ele>
        <time>2011-03-27T09:00:31Z</time>
      </trkpt>
      <trkpt lat="44.15476" lon="1.7306">
        <ele>228</ele>
        <time>2011-03-27T09:00:36Z</time>
      </trkpt>
      <trkpt lat="44.15486" lon="1.7306">
        <ele>229</ele>
        <time>2011-03-27T09:00:42Z</time>
      </trkpt>
      <trkpt lat="44.15495" lon="1.73059">
        <ele>229</ele>
        <time>2011-03-27T09:00:48Z</time>
      </trkpt>
      <trkpt lat="44.15504" lon="1.73059">
        <ele>237</ele>
        <time>2011-03-27T09:00:54Z</time>
      </trkpt>
      <trkpt lat="44.15514" lon="1.73061">
        <ele>238</ele>
        <time>2011-03-27T09:01:01Z</time>
      </trkpt>
      <trkpt lat="44.15524" lon="1.73057">
        <ele>239</ele>
        <time>2011-03-27T09:01:09Z</time>
      </trkpt>
      <trkpt lat="44.15534" lon="1.73055">
        <ele>240</ele>
        <time>2011-03-27T09:01:15Z</time>
      </trkpt>
      <trkpt lat="44.15543" lon="1.7305">
        <ele>240</ele>
        <time>2011-03-27T09:01:21Z</time>
      </trkpt>
      <trkpt lat="44.15552" lon="1.73045">
        <ele>241</ele>
        <time>2011-03-27T09:01:28Z</time>
      </trkpt>
      <trkpt lat="44.15562" lon="1.73044">
        <ele>242</ele>
        <time>2011-03-27T09:01:36Z</time>
      </trkpt>
      <trkpt lat="44.15571" lon="1.73046">
        <ele>242</ele>
        <time>2011-03-27T09:01:43Z</time>
      </trkpt>
      <trkpt lat="44.1558" lon="1.73044">
        <ele>243</ele>
        <time>2011-03-27T09:01:48Z</time>
      </trkpt>
      <trkpt lat="44.15582" lon="1.73031">
        <ele>243</ele>
        <time>2011-03-27T09:01:54Z</time>
      </trkpt>
      <trkpt lat="44.15576" lon="1.73022">
        <ele>244</ele>
        <time>2011-03-27T09:01:59Z</time>
      </trkpt>
      <trkpt lat="44.15569" lon="1.73012">
        <ele>244</ele>
        <time>2011-03-27T09:02:04Z</time>
      </trkpt>
      <trkpt lat="44.15563" lon="1.73001">
        <ele>244</ele>
        <time>2011-03-27T09:02:09Z</time>
      </trkpt>
      <trkpt lat="44.1556" lon="1.72989">
        <ele>243</ele>
        <time>2011-03-27T09:02:14Z</time>
      </trkpt>
      <trkpt lat="44.1556" lon="1.72974">
        <ele>242</ele>
        <time>2011-03-27T09:02:20Z</time>
      </trkpt>
      <trkpt lat="44.15563" lon="1.72962">
        <ele>242</ele>
        <time>2011-03-27T09:02:25Z</time>
      </trkpt>
      <trkpt lat="44.15566" lon="1.7295">
        <ele>242</ele>
        <time>2011-03-27T09:02:30Z</time>
      </trkpt>
      <trkpt lat="44.1557" lon="1.72938">
        <ele>243</ele>
        <time>2011-03-27T09:02:35Z</time>
      </trkpt>
      <trkpt lat="44.15575" lon="1.72925">
        <ele>246</ele>
        <time>2011-03-27T09:02:41Z</time>
      </trkpt>
      <trkpt lat="44.15576" lon="1.72939">
        <ele>244</ele>
        <time>2011-03-27T09:02:51Z</time>
      </trkpt>
      <trkpt lat="44.15573" lon="1.72951">
        <ele>243</ele>
        <time>2011-03-27T09:02:56Z</time>
      </trkpt>
      <trkpt lat="44.15569" lon="1.72966">
        <ele>243</ele>
        <time>2011-03-27T09:03:01Z</time>
      </trkpt>
      <trkpt lat="44.15572" lon="1.72978">
        <ele>244</ele>
        <time>2011-03-27T09:03:06Z</time>
      </trkpt>
      <trkpt lat="44.15582" lon="1.7298">
        <ele>244</ele>
        <time>2011-03-27T09:03:14Z</time>
      </trkpt>
      <trkpt lat="44.15591" lon="1.72975">
        <ele>252</ele>
        <time>2011-03-27T09:03:20Z</time>
      </trkpt>
      <trkpt lat="44.156" lon="1.72969">
        <ele>253</ele>
        <time>2011-03-27T09:03:27Z</time>
      </trkpt>
      <trkpt lat="44.1561" lon="1.72965">
        <ele>254</ele>
        <time>2011-03-27T09:03:34Z</time>
      </trkpt>
      <trkpt lat="44.15618" lon="1.72958">
        <ele>254</ele>
        <time>2011-03-27T09:03:43Z</time>
      </trkpt>
      <trkpt lat="44.15627" lon="1.72952">
        <ele>255</ele>
        <time>2011-03-27T09:03:49Z</time>
      </trkpt>
      <trkpt lat="44.15634" lon="1.72944">
        <ele>256</ele>
        <time>2011-03-27T09:03:55Z</time>
      </trkpt>
      <trkpt lat="44.15642" lon="1.72937">
        <ele>257</ele>
        <time>2011-03-27T09:04:02Z</time>
      </trkpt>
      <trkpt lat="44.15648" lon="1.72927">
        <ele>258</ele>
        <time>2011-03-27T09:04:09Z</time>
      </trkpt>
      <trkpt lat="44.15653" lon="1.72916">
        <ele>261</ele>
        <time>2011-03-27T09:04:15Z</time>
      </trkpt>
      <trkpt lat="44.15658" lon="1.72904">
        <ele>261</ele>
        <time>2011-03-27T09:04:23Z</time>
      </trkpt>
      <trkpt lat="44.15664" lon="1.72891">
        <ele>260</ele>
        <time>2011-03-27T09:04:29Z</time>
      </trkpt>
      <trkpt lat="44.1567" lon="1.72881">
        <ele>271</ele>
        <time>2011-03-27T09:04:35Z</time>
      </trkpt>
      <trkpt lat="44.15676" lon="1.7287">
        <ele>272</ele>
        <time>2011-03-27T09:04:42Z</time>
      </trkpt>
      <trkpt lat="44.15684" lon="1.72864">
        <ele>272</ele>
        <time>2011-03-27T09:04:49Z</time>
      </trkpt>
      <trkpt lat="44.15692" lon="1.72855">
        <ele>273</ele>
        <time>2011-03-27T09:04:57Z</time>
      </trkpt>
      <trkpt lat="44.15699" lon="1.72847">
        <ele>274</ele>
        <time>2011-03-27T09:05:04Z</time>
      </trkpt>
      <trkpt lat="44.15709" lon="1.72842">
        <ele>275</ele>
        <time>2011-03-27T09:05:11Z</time>
      </trkpt>
      <trkpt lat="44.15717" lon="1.72836">
        <ele>276</ele>
        <time>2011-03-27T09:05:19Z</time>
      </trkpt>
      <trkpt lat="44.15726" lon="1.72831">
        <ele>279</ele>
        <time>2011-03-27T09:05:24Z</time>
      </trkpt>
      <trkpt lat="44.15734" lon="1.72825">
        <ele>280</ele>
        <time>2011-03-27T09:05:29Z</time>
      </trkpt>
      <trkpt lat="44.15743" lon="1.7282">
        <ele>281</ele>
        <time>2011-03-27T09:05:35Z</time>
      </trkpt>
      <trkpt lat="44.15752" lon="1.72813">
        <ele>287</ele>
        <time>2011-03-27T09:05:43Z</time>
      </trkpt>
      <trkpt lat="44.15761" lon="1.72808">
        <ele>288</ele>
        <time>2011-03-27T09:05:48Z</time>
      </trkpt>
      <trkpt lat="44.1577" lon="1.72803">
        <ele>289</ele>
        <time>2011-03-27T09:05:55Z</time>
      </trkpt>
      <trkpt lat="44.1578" lon="1.72799">
        <ele>289</ele>
        <time>2011-03-27T09:06:02Z</time>
      </trkpt>
      <trkpt lat="44.15788" lon="1.72808">
        <ele>290</ele>
        <time>2011-03-27T09:06:10Z</time>
      </trkpt>
      <trkpt lat="44.15796" lon="1.72814">
        <ele>290</ele>
        <time>2011-03-27T09:06:17Z</time>
      </trkpt>
      <trkpt lat="44.15805" lon="1.72809">
        <ele>291</ele>
        <time>2011-03-27T09:06:23Z</time>
      </trkpt>
      <trkpt lat="44.15814" lon="1.72804">
        <ele>291</ele>
        <time>2011-03-27T09:06:29Z</time>
      </trkpt>
      <trkpt lat="44.15823" lon="1.72797">
        <ele>291</ele>
        <time>2011-03-27T09:06:35Z</time>
      </trkpt>
      <trkpt lat="44.15832" lon="1.72791">
        <ele>292</ele>
        <time>2011-03-27T09:06:41Z</time>
      </trkpt>
      <trkpt lat="44.15841" lon="1.72786">
        <ele>295</ele>
        <time>2011-03-27T09:06:46Z</time>
      </trkpt>
      <trkpt lat="44.15852" lon="1.72784">
        <ele>295</ele>
        <time>2011-03-27T09:06:52Z</time>
      </trkpt>
      <trkpt lat="44.15861" lon="1.72784">
        <ele>295</ele>
        <time>2011-03-27T09:06:55Z</time>
      </trkpt>
      <trkpt lat="44.15872" lon="1.72779">
        <ele>296</ele>
        <time>2011-03-27T09:07:00Z</time>
      </trkpt>
      <trkpt lat="44.15882" lon="1.72776">
        <ele>296</ele>
        <time>2011-03-27T09:07:04Z</time>
      </trkpt>
      <trkpt lat="44.15892" lon="1.72774">
        <ele>296</ele>
        <time>2011-03-27T09:07:09Z</time>
      </trkpt>
      <trkpt lat="44.15902" lon="1.72775">
        <ele>296</ele>
        <time>2011-03-27T09:07:13Z</time>
      </trkpt>
      <trkpt lat="44.15911" lon="1.72775">
        <ele>296</ele>
        <time>2011-03-27T09:07:16Z</time>
      </trkpt>
      <trkpt lat="44.15922" lon="1.72773">
        <ele>297</ele>
        <time>2011-03-27T09:07:22Z</time>
      </trkpt>
      <trkpt lat="44.15932" lon="1.72773">
        <ele>298</ele>
        <time>2011-03-27T09:07:26Z</time>
      </trkpt>
      <trkpt lat="44.15943" lon="1.72773">
        <ele>298</ele>
        <time>2011-03-27T09:07:31Z</time>
      </trkpt>
      <trkpt lat="44.15953" lon="1.7277">
        <ele>298</ele>
        <time>2011-03-27T09:07:34Z</time>
      </trkpt>
      <trkpt lat="44.15963" lon="1.72769">
        <ele>298</ele>
        <time>2011-03-27T09:07:37Z</time>
      </trkpt>
      <trkpt lat="44.15974" lon="1.72769">
        <ele>298</ele>
        <time>2011-03-27T09:07:42Z</time>
      </trkpt>
      <trkpt lat="44.15984" lon="1.72765">
        <ele>298</ele>
        <time>2011-03-27T09:07:46Z</time>
      </trkpt>
      <trkpt lat="44.15992" lon="1.72756">
        <ele>299</ele>
        <time>2011-03-27T09:07:49Z</time>
      </trkpt>
      <trkpt lat="44.16004" lon="1.72754">
        <ele>299</ele>
        <time>2011-03-27T09:07:54Z</time>
      </trkpt>
      <trkpt lat="44.16014" lon="1.72754">
        <ele>299</ele>
        <time>2011-03-27T09:07:59Z</time>
      </trkpt>
      <trkpt lat="44.16026" lon="1.72753">
        <ele>299</ele>
        <time>2011-03-27T09:08:03Z</time>
      </trkpt>
      <trkpt lat="44.16036" lon="1.72751">
        <ele>299</ele>
        <time>2011-03-27T09:08:05Z</time>
      </trkpt>
      <trkpt lat="44.16048" lon="1.7275">
        <ele>299</ele>
        <time>2011-03-27T09:08:09Z</time>
      </trkpt>
      <trkpt lat="44.1606" lon="1.72749">
        <ele>300</ele>
        <time>2011-03-27T09:08:12Z</time>
      </trkpt>
      <trkpt lat="44.16073" lon="1.72747">
        <ele>300</ele>
        <time>2011-03-27T09:08:15Z</time>
      </trkpt>
      <trkpt lat="44.16085" lon="1.72744">
        <ele>300</ele>
        <time>2011-03-27T09:08:17Z</time>
      </trkpt>
      <trkpt lat="44.16096" lon="1.72744">
        <ele>300</ele>
        <time>2011-03-27T09:08:22Z</time>
      </trkpt>
      <trkpt lat="44.16107" lon="1.72741">
        <ele>300</ele>
        <time>2011-03-27T09:08:25Z</time>
      </trkpt>
      <trkpt lat="44.16121" lon="1.72737">
        <ele>299</ele>
        <time>2011-03-27T09:08:28Z</time>
      </trkpt>
      <trkpt lat="44.16131" lon="1.72735">
        <ele>299</ele>
        <time>2011-03-27T09:08:30Z</time>
      </trkpt>
      <trkpt lat="44.16145" lon="1.72731">
        <ele>299</ele>
        <time>2011-03-27T09:08:32Z</time>
      </trkpt>
      <trkpt lat="44.16154" lon="1.72729">
        <ele>299</ele>
        <time>2011-03-27T09:08:35Z</time>
      </trkpt>
      <trkpt lat="44.16168" lon="1.72729">
        <ele>298</ele>
        <time>2011-03-27T09:08:38Z</time>
      </trkpt>
      <trkpt lat="44.16182" lon="1.72728">
        <ele>298</ele>
        <time>2011-03-27T09:08:41Z</time>
      </trkpt>
      <trkpt lat="44.16197" lon="1.7273">
        <ele>298</ele>
        <time>2011-03-27T09:08:44Z</time>
      </trkpt>
      <trkpt lat="44.16213" lon="1.7273">
        <ele>298</ele>
        <time>2011-03-27T09:08:46Z</time>
      </trkpt>
      <trkpt lat="44.16232" lon="1.72732">
        <ele>298</ele>
        <time>2011-03-27T09:08:49Z</time>
      </trkpt>
      <trkpt lat="44.16243" lon="1.72734">
        <ele>297</ele>
        <time>2011-03-27T09:08:51Z</time>
      </trkpt>
      <trkpt lat="44.16253" lon="1.72736">
        <ele>297</ele>
        <time>2011-03-27T09:08:54Z</time>
      </trkpt>
      <trkpt lat="44.16267" lon="1.72743">
        <ele>297</ele>
        <time>2011-03-27T09:08:57Z</time>
      </trkpt>
      <trkpt lat="44.1628" lon="1.72751">
        <ele>296</ele>
        <time>2011-03-27T09:09:00Z</time>
      </trkpt>
      <trkpt lat="44.16293" lon="1.72758">
        <ele>296</ele>
        <time>2011-03-27T09:09:02Z</time>
      </trkpt>
      <trkpt lat="44.16307" lon="1.72765">
        <ele>296</ele>
        <time>2011-03-27T09:09:05Z</time>
      </trkpt>
      <trkpt lat="44.16316" lon="1.72768">
        <ele>296</ele>
        <time>2011-03-27T09:09:08Z</time>
      </trkpt>
      <trkpt lat="44.16331" lon="1.72769">
        <ele>296</ele>
        <time>2011-03-27T09:09:11Z</time>
      </trkpt>
      <trkpt lat="44.16346" lon="1.72768">
        <ele>296</ele>
        <time>2011-03-27T09:09:13Z</time>
      </trkpt>
      <trkpt lat="44.16357" lon="1.72769">
        <ele>296</ele>
        <time>2011-03-27T09:09:15Z</time>
      </trkpt>
      <trkpt lat="44.16368" lon="1.72768">
        <ele>295</ele>
        <time>2011-03-27T09:09:18Z</time>
      </trkpt>
      <trkpt lat="44.16385" lon="1.72767">
        <ele>295</ele>
        <time>2011-03-27T09:09:21Z</time>
      </trkpt>
      <trkpt lat="44.16401" lon="1.72761">
        <ele>295</ele>
        <time>2011-03-27T09:09:23Z</time>
      </trkpt>
      <trkpt lat="44.16411" lon="1.72746">
        <ele>296</ele>
        <time>2011-03-27T09:09:26Z</time>
      </trkpt>
      <trkpt lat="44.1642" lon="1.72731">
        <ele>295</ele>
        <time>2011-03-27T09:09:29Z</time>
      </trkpt>
      <trkpt lat="44.16426" lon="1.72721">
        <ele>294</ele>
        <time>2011-03-27T09:09:31Z</time>
      </trkpt>
      <trkpt lat="44.16434" lon="1.72706">
        <ele>294</ele>
        <time>2011-03-27T09:09:34Z</time>
      </trkpt>
      <trkpt lat="44.16443" lon="1.72689">
        <ele>294</ele>
        <time>2011-03-27T09:09:37Z</time>
      </trkpt>
      <trkpt lat="44.16448" lon="1.72678">
        <ele>294</ele>
        <time>2011-03-27T09:09:39Z</time>
      </trkpt>
      <trkpt lat="44.16458" lon="1.72658">
        <ele>295</ele>
        <time>2011-03-27T09:09:42Z</time>
      </trkpt>
      <trkpt lat="44.16465" lon="1.72646">
        <ele>294</ele>
        <time>2011-03-27T09:09:44Z</time>
      </trkpt>
      <trkpt lat="44.16472" lon="1.72633">
        <ele>294</ele>
        <time>2011-03-27T09:09:47Z</time>
      </trkpt>
      <trkpt lat="44.16481" lon="1.7261">
        <ele>294</ele>
        <time>2011-03-27T09:09:50Z</time>
      </trkpt>
      <trkpt lat="44.16489" lon="1.72586">
        <ele>292</ele>
        <time>2011-03-27T09:09:53Z</time>
      </trkpt>
      <trkpt lat="44.16495" lon="1.72564">
        <ele>292</ele>
        <time>2011-03-27T09:09:56Z</time>
      </trkpt>
      <trkpt lat="44.16504" lon="1.72539">
        <ele>289</ele>
        <time>2011-03-27T09:09:59Z</time>
      </trkpt>
      <trkpt lat="44.1651" lon="1.72518">
        <ele>289</ele>
        <time>2011-03-27T09:10:02Z</time>
      </trkpt>
      <trkpt lat="44.16518" lon="1.72498">
        <ele>288</ele>
        <time>2011-03-27T09:10:05Z</time>
      </trkpt>
      <trkpt lat="44.16526" lon="1.72478">
        <ele>288</ele>
        <time>2011-03-27T09:10:07Z</time>
      </trkpt>
      <trkpt lat="44.16535" lon="1.72458">
        <ele>288</ele>
        <time>2011-03-27T09:10:10Z</time>
      </trkpt>
      <trkpt lat="44.16542" lon="1.72436">
        <ele>288</ele>
        <time>2011-03-27T09:10:14Z</time>
      </trkpt>
      <trkpt lat="44.16546" lon="1.72423">
        <ele>288</ele>
        <time>2011-03-27T09:10:16Z</time>
      </trkpt>
      <trkpt lat="44.16554" lon="1.72404">
        <ele>288</ele>
        <time>2011-03-27T09:10:19Z</time>
      </trkpt>
      <trkpt lat="44.16561" lon="1.72386">
        <ele>289</ele>
        <time>2011-03-27T09:10:22Z</time>
      </trkpt>
      <trkpt lat="44.16568" lon="1.72366">
        <ele>289</ele>
        <time>2011-03-27T09:10:25Z</time>
      </trkpt>
      <trkpt lat="44.16576" lon="1.72347">
        <ele>289</ele>
        <time>2011-03-27T09:10:28Z</time>
      </trkpt>
      <trkpt lat="44.16584" lon="1.72329">
        <ele>289</ele>
        <time>2011-03-27T09:10:31Z</time>
      </trkpt>
      <trkpt lat="44.1659" lon="1.72313">
        <ele>289</ele>
        <time>2011-03-27T09:10:34Z</time>
      </trkpt>
      <trkpt lat="44.16599" lon="1.72296">
        <ele>289</ele>
        <time>2011-03-27T09:10:37Z</time>
      </trkpt>
      <trkpt lat="44.16609" lon="1.72277">
        <ele>289</ele>
        <time>2011-03-27T09:10:40Z</time>
      </trkpt>
      <trkpt lat="44.16618" lon="1.72262">
        <ele>289</ele>
        <time>2011-03-27T09:10:43Z</time>
      </trkpt>
      <trkpt lat="44.16626" lon="1.72245">
        <ele>289</ele>
        <time>2011-03-27T09:10:46Z</time>
      </trkpt>
      <trkpt lat="44.16634" lon="1.72229">
        <ele>289</ele>
        <time>2011-03-27T09:10:49Z</time>
      </trkpt>
      <trkpt lat="44.16642" lon="1.72211">
        <ele>289</ele>
        <time>2011-03-27T09:10:52Z</time>
      </trkpt>
      <trkpt lat="44.1665" lon="1.72194">
        <ele>289</ele>
        <time>2011-03-27T09:10:54Z</time>
      </trkpt>
      <trkpt lat="44.16658" lon="1.72177">
        <ele>290</ele>
        <time>2011-03-27T09:10:57Z</time>
      </trkpt>
      <trkpt lat="44.16663" lon="1.72164">
        <ele>290</ele>
        <time>2011-03-27T09:11:00Z</time>
      </trkpt>
      <trkpt lat="44.16668" lon="1.72149">
        <ele>289</ele>
        <time>2011-03-27T09:11:03Z</time>
      </trkpt>
      <trkpt lat="44.16668" lon="1.72149">
        <ele>289</ele>
        <time>2011-03-27T09:11:03Z</time>
      </trkpt>
      <trkpt lat="44.16676" lon="1.72128">
        <ele>289</ele>
        <time>2011-03-27T09:11:31Z</time>
      </trkpt>
      <trkpt lat="44.16681" lon="1.72114">
        <ele>289</ele>
        <time>2011-03-27T09:11:34Z</time>
      </trkpt>
      <trkpt lat="44.16684" lon="1.72101">
        <ele>289</ele>
        <time>2011-03-27T09:11:37Z</time>
      </trkpt>
      <trkpt lat="44.16687" lon="1.72083">
        <ele>289</ele>
        <time>2011-03-27T09:11:40Z</time>
      </trkpt>
      <trkpt lat="44.16689" lon="1.72065">
        <ele>289</ele>
        <time>2011-03-27T09:11:43Z</time>
      </trkpt>
      <trkpt lat="44.16693" lon="1.72043">
        <ele>289</ele>
        <time>2011-03-27T09:11:46Z</time>
      </trkpt>
      <trkpt lat="44.16698" lon="1.72021">
        <ele>288</ele>
        <time>2011-03-27T09:11:49Z</time>
      </trkpt>
      <trkpt lat="44.16704" lon="1.72001">
        <ele>288</ele>
        <time>2011-03-27T09:11:52Z</time>
      </trkpt>
      <trkpt lat="44.1671" lon="1.7198">
        <ele>289</ele>
        <time>2011-03-27T09:11:55Z</time>
      </trkpt>
      <trkpt lat="44.16716" lon="1.7196">
        <ele>289</ele>
        <time>2011-03-27T09:11:58Z</time>
      </trkpt>
      <trkpt lat="44.16721" lon="1.71942">
        <ele>290</ele>
        <time>2011-03-27T09:12:00Z</time>
      </trkpt>
      <trkpt lat="44.16725" lon="1.7193">
        <ele>290</ele>
        <time>2011-03-27T09:12:03Z</time>
      </trkpt>
      <trkpt lat="44.16727" lon="1.71908">
        <ele>290</ele>
        <time>2011-03-27T09:12:06Z</time>
      </trkpt>
      <trkpt lat="44.16725" lon="1.71887">
        <ele>290</ele>
        <time>2011-03-27T09:12:08Z</time>
      </trkpt>
      <trkpt lat="44.16726" lon="1.71871">
        <ele>290</ele>
        <time>2011-03-27T09:12:11Z</time>
      </trkpt>
      <trkpt lat="44.16726" lon="1.71847">
        <ele>291</ele>
        <time>2011-03-27T09:12:14Z</time>
      </trkpt>
      <trkpt lat="44.16725" lon="1.71826">
        <ele>291</ele>
        <time>2011-03-27T09:12:16Z</time>
      </trkpt>
      <trkpt lat="44.16724" lon="1.71807">
        <ele>291</ele>
        <time>2011-03-27T09:12:20Z</time>
      </trkpt>
      <trkpt lat="44.16725" lon="1.71789">
        <ele>291</ele>
        <time>2011-03-27T09:12:23Z</time>
      </trkpt>
      <trkpt lat="44.16726" lon="1.71773">
        <ele>291</ele>
        <time>2011-03-27T09:12:25Z</time>
      </trkpt>
      <trkpt lat="44.16727" lon="1.71754">
        <ele>291</ele>
        <time>2011-03-27T09:12:28Z</time>
      </trkpt>
      <trkpt lat="44.16729" lon="1.7174">
        <ele>291</ele>
        <time>2011-03-27T09:12:31Z</time>
      </trkpt>
      <trkpt lat="44.1673" lon="1.7172">
        <ele>291</ele>
        <time>2011-03-27T09:12:34Z</time>
      </trkpt>
      <trkpt lat="44.16732" lon="1.717">
        <ele>291</ele>
        <time>2011-03-27T09:12:37Z</time>
      </trkpt>
      <trkpt lat="44.16733" lon="1.7168">
        <ele>291</ele>
        <time>2011-03-27T09:12:40Z</time>
      </trkpt>
      <trkpt lat="44.16734" lon="1.71659">
        <ele>291</ele>
        <time>2011-03-27T09:12:43Z</time>
      </trkpt>
      <trkpt lat="44.16735" lon="1.7164">
        <ele>291</ele>
        <time>2011-03-27T09:12:46Z</time>
      </trkpt>
      <trkpt lat="44.16736" lon="1.71622">
        <ele>292</ele>
        <time>2011-03-27T09:12:49Z</time>
      </trkpt>
      <trkpt lat="44.16737" lon="1.71604">
        <ele>292</ele>
        <time>2011-03-27T09:12:52Z</time>
      </trkpt>
      <trkpt lat="44.1674" lon="1.71587">
        <ele>292</ele>
        <time>2011-03-27T09:12:55Z</time>
      </trkpt>
      <trkpt lat="44.16743" lon="1.7157">
        <ele>292</ele>
        <time>2011-03-27T09:12:58Z</time>
      </trkpt>
      <trkpt lat="44.16746" lon="1.71553">
        <ele>292</ele>
        <time>2011-03-27T09:13:01Z</time>
      </trkpt>
      <trkpt lat="44.1675" lon="1.71534">
        <ele>293</ele>
        <time>2011-03-27T09:13:04Z</time>
      </trkpt>
      <trkpt lat="44.16754" lon="1.71515">
        <ele>294</ele>
        <time>2011-03-27T09:13:06Z</time>
      </trkpt>
      <trkpt lat="44.16756" lon="1.71502">
        <ele>294</ele>
        <time>2011-03-27T09:13:09Z</time>
      </trkpt>
      <trkpt lat="44.16759" lon="1.71483">
        <ele>294</ele>
        <time>2011-03-27T09:13:12Z</time>
      </trkpt>
      <trkpt lat="44.16762" lon="1.71464">
        <ele>293</ele>
        <time>2011-03-27T09:13:15Z</time>
      </trkpt>
      <trkpt lat="44.16766" lon="1.71444">
        <ele>293</ele>
        <time>2011-03-27T09:13:18Z</time>
      </trkpt>
      <trkpt lat="44.1677" lon="1.71425">
        <ele>293</ele>
        <time>2011-03-27T09:13:21Z</time>
      </trkpt>
      <trkpt lat="44.16776" lon="1.71406">
        <ele>293</ele>
        <time>2011-03-27T09:13:24Z</time>
      </trkpt>
      <trkpt lat="44.16782" lon="1.71388">
        <ele>293</ele>
        <time>2011-03-27T09:13:26Z</time>
      </trkpt>
      <trkpt lat="44.16786" lon="1.71377">
        <ele>293</ele>
        <time>2011-03-27T09:13:29Z</time>
      </trkpt>
      <trkpt lat="44.1679" lon="1.71364">
        <ele>293</ele>
        <time>2011-03-27T09:13:31Z</time>
      </trkpt>
      <trkpt lat="44.16797" lon="1.71347">
        <ele>294</ele>
        <time>2011-03-27T09:13:34Z</time>
      </trkpt>
      <trkpt lat="44.16802" lon="1.71329">
        <ele>295</ele>
        <time>2011-03-27T09:13:37Z</time>
      </trkpt>
      <trkpt lat="44.16807" lon="1.71312">
        <ele>295</ele>
        <time>2011-03-27T09:13:40Z</time>
      </trkpt>
      <trkpt lat="44.16814" lon="1.71296">
        <ele>295</ele>
        <time>2011-03-27T09:13:43Z</time>
      </trkpt>
      <trkpt lat="44.1682" lon="1.7128">
        <ele>295</ele>
        <time>2011-03-27T09:13:46Z</time>
      </trkpt>
      <trkpt lat="44.16828" lon="1.71263">
        <ele>296</ele>
        <time>2011-03-27T09:13:49Z</time>
      </trkpt>
      <trkpt lat="44.16835" lon="1.71243">
        <ele>296</ele>
        <time>2011-03-27T09:13:52Z</time>
      </trkpt>
      <trkpt lat="44.16842" lon="1.71225">
        <ele>296</ele>
        <time>2011-03-27T09:13:55Z</time>
      </trkpt>
      <trkpt lat="44.1685" lon="1.71207">
        <ele>296</ele>
        <time>2011-03-27T09:13:57Z</time>
      </trkpt>
      <trkpt lat="44.16855" lon="1.71195">
        <ele>296</ele>
        <time>2011-03-27T09:13:59Z</time>
      </trkpt>
      <trkpt lat="44.1686" lon="1.71183">
        <ele>296</ele>
        <time>2011-03-27T09:14:02Z</time>
      </trkpt>
      <trkpt lat="44.16865" lon="1.71167">
        <ele>296</ele>
        <time>2011-03-27T09:14:04Z</time>
      </trkpt>
      <trkpt lat="44.16869" lon="1.71154">
        <ele>295</ele>
        <time>2011-03-27T09:14:06Z</time>
      </trkpt>
      <trkpt lat="44.16874" lon="1.71132">
        <ele>295</ele>
        <time>2011-03-27T09:14:09Z</time>
      </trkpt>
      <trkpt lat="44.16878" lon="1.71115">
        <ele>295</ele>
        <time>2011-03-27T09:14:12Z</time>
      </trkpt>
      <trkpt lat="44.16882" lon="1.71103">
        <ele>295</ele>
        <time>2011-03-27T09:14:15Z</time>
      </trkpt>
      <trkpt lat="44.16889" lon="1.71085">
        <ele>295</ele>
        <time>2011-03-27T09:14:18Z</time>
      </trkpt>
      <trkpt lat="44.16896" lon="1.71067">
        <ele>294</ele>
        <time>2011-03-27T09:14:21Z</time>
      </trkpt>
      <trkpt lat="44.16899" lon="1.71047">
        <ele>294</ele>
        <time>2011-03-27T09:14:24Z</time>
      </trkpt>
      <trkpt lat="44.16903" lon="1.71029">
        <ele>294</ele>
        <time>2011-03-27T09:14:27Z</time>
      </trkpt>
      <trkpt lat="44.16907" lon="1.7101">
        <ele>294</ele>
        <time>2011-03-27T09:14:30Z</time>
      </trkpt>
      <trkpt lat="44.1691" lon="1.70992">
        <ele>293</ele>
        <time>2011-03-27T09:14:33Z</time>
      </trkpt>
      <trkpt lat="44.16912" lon="1.70974">
        <ele>293</ele>
        <time>2011-03-27T09:14:36Z</time>
      </trkpt>
      <trkpt lat="44.16915" lon="1.70962">
        <ele>293</ele>
        <time>2011-03-27T09:14:38Z</time>
      </trkpt>
      <trkpt lat="44.1692" lon="1.70945">
        <ele>294</ele>
        <time>2011-03-27T09:14:40Z</time>
      </trkpt>
      <trkpt lat="44.1693" lon="1.70932">
        <ele>294</ele>
        <time>2011-03-27T09:14:44Z</time>
      </trkpt>
      <trkpt lat="44.1694" lon="1.70921">
        <ele>294</ele>
        <time>2011-03-27T09:14:46Z</time>
      </trkpt>
      <trkpt lat="44.16947" lon="1.70913">
        <ele>294</ele>
        <time>2011-03-27T09:14:49Z</time>
      </trkpt>
      <trkpt lat="44.16958" lon="1.70901">
        <ele>294</ele>
        <time>2011-03-27T09:14:52Z</time>
      </trkpt>
      <trkpt lat="44.16966" lon="1.70887">
        <ele>294</ele>
        <time>2011-03-27T09:14:55Z</time>
      </trkpt>
      <trkpt lat="44.16972" lon="1.70869">
        <ele>294</ele>
        <time>2011-03-27T09:14:58Z</time>
      </trkpt>
      <trkpt lat="44.16979" lon="1.70851">
        <ele>294</ele>
        <time>2011-03-27T09:15:01Z</time>
      </trkpt>
      <trkpt lat="44.16985" lon="1.70832">
        <ele>294</ele>
        <time>2011-03-27T09:15:04Z</time>
      </trkpt>
      <trkpt lat="44.16991" lon="1.70813">
        <ele>294</ele>
        <time>2011-03-27T09:15:07Z</time>
      </trkpt>
      <trkpt lat="44.16997" lon="1.70796">
        <ele>294</ele>
        <time>2011-03-27T09:15:10Z</time>
      </trkpt>
      <trkpt lat="44.17002" lon="1.70779">
        <ele>295</ele>
        <time>2011-03-27T09:15:13Z</time>
      </trkpt>
      <trkpt lat="44.17007" lon="1.70764">
        <ele>295</ele>
        <time>2011-03-27T09:15:15Z</time>
      </trkpt>
      <trkpt lat="44.17011" lon="1.70753">
        <ele>294</ele>
        <time>2011-03-27T09:15:18Z</time>
      </trkpt>
      <trkpt lat="44.17016" lon="1.70736">
        <ele>294</ele>
        <time>2011-03-27T09:15:20Z</time>
      </trkpt>
      <trkpt lat="44.17021" lon="1.70722">
        <ele>294</ele>
        <time>2011-03-27T09:15:23Z</time>
      </trkpt>
      <trkpt lat="44.17022" lon="1.7071">
        <ele>294</ele>
        <time>2011-03-27T09:15:26Z</time>
      </trkpt>
      <trkpt lat="44.17022" lon="1.70696">
        <ele>295</ele>
        <time>2011-03-27T09:15:30Z</time>
      </trkpt>
      <trkpt lat="44.17022" lon="1.70684">
        <ele>295</ele>
        <time>2011-03-27T09:15:32Z</time>
      </trkpt>
      <trkpt lat="44.17023" lon="1.70667">
        <ele>295</ele>
        <time>2011-03-27T09:15:37Z</time>
      </trkpt>
      <trkpt lat="44.17023" lon="1.70651">
        <ele>295</ele>
        <time>2011-03-27T09:15:40Z</time>
      </trkpt>
      <trkpt lat="44.17025" lon="1.70635">
        <ele>295</ele>
        <time>2011-03-27T09:15:45Z</time>
      </trkpt>
      <trkpt lat="44.17027" lon="1.70619">
        <ele>295</ele>
        <time>2011-03-27T09:15:49Z</time>
      </trkpt>
      <trkpt lat="44.1703" lon="1.70603">
        <ele>295</ele>
        <time>2011-03-27T09:15:52Z</time>
      </trkpt>
      <trkpt lat="44.17032" lon="1.70589">
        <ele>295</ele>
        <time>2011-03-27T09:15:55Z</time>
      </trkpt>
      <trkpt lat="44.17034" lon="1.70576">
        <ele>295</ele>
        <time>2011-03-27T09:15:58Z</time>
      </trkpt>
      <trkpt lat="44.17038" lon="1.70561">
        <ele>295</ele>
        <time>2011-03-27T09:16:03Z</time>
      </trkpt>
      <trkpt lat="44.1704" lon="1.70549">
        <ele>295</ele>
        <time>2011-03-27T09:16:05Z</time>
      </trkpt>
      <trkpt lat="44.17043" lon="1.70534">
        <ele>295</ele>
        <time>2011-03-27T09:16:10Z</time>
      </trkpt>
      <trkpt lat="44.17047" lon="1.70518">
        <ele>295</ele>
        <time>2011-03-27T09:16:14Z</time>
      </trkpt>
      <trkpt lat="44.17049" lon="1.70504">
        <ele>295</ele>
        <time>2011-03-27T09:16:16Z</time>
      </trkpt>
      <trkpt lat="44.17052" lon="1.70491">
        <ele>296</ele>
        <time>2011-03-27T09:16:20Z</time>
      </trkpt>
      <trkpt lat="44.17057" lon="1.70476">
        <ele>296</ele>
        <time>2011-03-27T09:16:24Z</time>
      </trkpt>
      <trkpt lat="44.17061" lon="1.70464">
        <ele>296</ele>
        <time>2011-03-27T09:16:27Z</time>
      </trkpt>
      <trkpt lat="44.17066" lon="1.70452">
        <ele>296</ele>
        <time>2011-03-27T09:16:30Z</time>
      </trkpt>
      <trkpt lat="44.1707" lon="1.70439">
        <ele>297</ele>
        <time>2011-03-27T09:16:33Z</time>
      </trkpt>
      <trkpt lat="44.17077" lon="1.70426">
        <ele>297</ele>
        <time>2011-03-27T09:16:36Z</time>
      </trkpt>
      <trkpt lat="44.17086" lon="1.70414">
        <ele>297</ele>
        <time>2011-03-27T09:16:39Z</time>
      </trkpt>
      <trkpt lat="44.17095" lon="1.70403">
        <ele>297</ele>
        <time>2011-03-27T09:16:41Z</time>
      </trkpt>
      <trkpt lat="44.17103" lon="1.70388">
        <ele>297</ele>
        <time>2011-03-27T09:16:44Z</time>
      </trkpt>
      <trkpt lat="44.17112" lon="1.70375">
        <ele>298</ele>
        <time>2011-03-27T09:16:47Z</time>
      </trkpt>
      <trkpt lat="44.17121" lon="1.70361">
        <ele>298</ele>
        <time>2011-03-27T09:16:50Z</time>
      </trkpt>
      <trkpt lat="44.17127" lon="1.70351">
        <ele>298</ele>
        <time>2011-03-27T09:16:53Z</time>
      </trkpt>
      <trkpt lat="44.17132" lon="1.70333">
        <ele>298</ele>
        <time>2011-03-27T09:16:56Z</time>
      </trkpt>
      <trkpt lat="44.17134" lon="1.70315">
        <ele>299</ele>
        <time>2011-03-27T09:16:59Z</time>
      </trkpt>
      <trkpt lat="44.17138" lon="1.70297">
        <ele>299</ele>
        <time>2011-03-27T09:17:01Z</time>
      </trkpt>
      <trkpt lat="44.17145" lon="1.70283">
        <ele>299</ele>
        <time>2011-03-27T09:17:04Z</time>
      </trkpt>
      <trkpt lat="44.17154" lon="1.70272">
        <ele>299</ele>
        <time>2011-03-27T09:17:08Z</time>
      </trkpt>
      <trkpt lat="44.17165" lon="1.7026">
        <ele>299</ele>
        <time>2011-03-27T09:17:10Z</time>
      </trkpt>
      <trkpt lat="44.17175" lon="1.70249">
        <ele>299</ele>
        <time>2011-03-27T09:17:13Z</time>
      </trkpt>
      <trkpt lat="44.17184" lon="1.70237">
        <ele>299</ele>
        <time>2011-03-27T09:17:17Z</time>
      </trkpt>
      <trkpt lat="44.17194" lon="1.70224">
        <ele>299</ele>
        <time>2011-03-27T09:17:20Z</time>
      </trkpt>
      <trkpt lat="44.17203" lon="1.70211">
        <ele>299</ele>
        <time>2011-03-27T09:17:23Z</time>
      </trkpt>
      <trkpt lat="44.17212" lon="1.70199">
        <ele>299</ele>
        <time>2011-03-27T09:17:26Z</time>
      </trkpt>
      <trkpt lat="44.17222" lon="1.70186">
        <ele>298</ele>
        <time>2011-03-27T09:17:29Z</time>
      </trkpt>
      <trkpt lat="44.17232" lon="1.70172">
        <ele>298</ele>
        <time>2011-03-27T09:17:31Z</time>
      </trkpt>
      <trkpt lat="44.17241" lon="1.70163">
        <ele>299</ele>
        <time>2011-03-27T09:17:34Z</time>
      </trkpt>
      <trkpt lat="44.17252" lon="1.70147">
        <ele>298</ele>
        <time>2011-03-27T09:17:36Z</time>
      </trkpt>
      <trkpt lat="44.17262" lon="1.70133">
        <ele>299</ele>
        <time>2011-03-27T09:17:40Z</time>
      </trkpt>
      <trkpt lat="44.17274" lon="1.70121">
        <ele>299</ele>
        <time>2011-03-27T09:17:43Z</time>
      </trkpt>
      <trkpt lat="44.17285" lon="1.70108">
        <ele>299</ele>
        <time>2011-03-27T09:17:46Z</time>
      </trkpt>
      <trkpt lat="44.17294" lon="1.70095">
        <ele>299</ele>
        <time>2011-03-27T09:17:49Z</time>
      </trkpt>
      <trkpt lat="44.17304" lon="1.70083">
        <ele>299</ele>
        <time>2011-03-27T09:17:51Z</time>
      </trkpt>
      <trkpt lat="44.17311" lon="1.70073">
        <ele>299</ele>
        <time>2011-03-27T09:17:54Z</time>
      </trkpt>
      <trkpt lat="44.17317" lon="1.70064">
        <ele>299</ele>
        <time>2011-03-27T09:17:56Z</time>
      </trkpt>
      <trkpt lat="44.17324" lon="1.70054">
        <ele>299</ele>
        <time>2011-03-27T09:17:58Z</time>
      </trkpt>
      <trkpt lat="44.17333" lon="1.70039">
        <ele>298</ele>
        <time>2011-03-27T09:18:01Z</time>
      </trkpt>
      <trkpt lat="44.17343" lon="1.70025">
        <ele>298</ele>
        <time>2011-03-27T09:18:04Z</time>
      </trkpt>
      <trkpt lat="44.17352" lon="1.70012">
        <ele>298</ele>
        <time>2011-03-27T09:18:07Z</time>
      </trkpt>
      <trkpt lat="44.17362" lon="1.69999">
        <ele>298</ele>
        <time>2011-03-27T09:18:10Z</time>
      </trkpt>
      <trkpt lat="44.17372" lon="1.69984">
        <ele>298</ele>
        <time>2011-03-27T09:18:12Z</time>
      </trkpt>
      <trkpt lat="44.1738" lon="1.6997">
        <ele>298</ele>
        <time>2011-03-27T09:18:14Z</time>
      </trkpt>
      <trkpt lat="44.1739" lon="1.6995">
        <ele>298</ele>
        <time>2011-03-27T09:18:18Z</time>
      </trkpt>
      <trkpt lat="44.17395" lon="1.69938">
        <ele>298</ele>
        <time>2011-03-27T09:18:20Z</time>
      </trkpt>
      <trkpt lat="44.17403" lon="1.69922">
        <ele>298</ele>
        <time>2011-03-27T09:18:23Z</time>
      </trkpt>
      <trkpt lat="44.1741" lon="1.69906">
        <ele>298</ele>
        <time>2011-03-27T09:18:25Z</time>
      </trkpt>
      <trkpt lat="44.17416" lon="1.69895">
        <ele>298</ele>
        <time>2011-03-27T09:18:28Z</time>
      </trkpt>
      <trkpt lat="44.17426" lon="1.69883">
        <ele>299</ele>
        <time>2011-03-27T09:18:30Z</time>
      </trkpt>
      <trkpt lat="44.17436" lon="1.6987">
        <ele>299</ele>
        <time>2011-03-27T09:18:34Z</time>
      </trkpt>
      <trkpt lat="44.17442" lon="1.6986">
        <ele>299</ele>
        <time>2011-03-27T09:18:36Z</time>
      </trkpt>
      <trkpt lat="44.1745" lon="1.69847">
        <ele>299</ele>
        <time>2011-03-27T09:18:39Z</time>
      </trkpt>
      <trkpt lat="44.1746" lon="1.69834">
        <ele>299</ele>
        <time>2011-03-27T09:18:42Z</time>
      </trkpt>
      <trkpt lat="44.17469" lon="1.6982">
        <ele>299</ele>
        <time>2011-03-27T09:18:44Z</time>
      </trkpt>
      <trkpt lat="44.17478" lon="1.69807">
        <ele>299</ele>
        <time>2011-03-27T09:18:48Z</time>
      </trkpt>
      <trkpt lat="44.17487" lon="1.69793">
        <ele>299</ele>
        <time>2011-03-27T09:18:51Z</time>
      </trkpt>
      <trkpt lat="44.17496" lon="1.69779">
        <ele>299</ele>
        <time>2011-03-27T09:18:54Z</time>
      </trkpt>
      <trkpt lat="44.17505" lon="1.69767">
        <ele>300</ele>
        <time>2011-03-27T09:18:57Z</time>
      </trkpt>
      <trkpt lat="44.17513" lon="1.69754">
        <ele>300</ele>
        <time>2011-03-27T09:19:00Z</time>
      </trkpt>
      <trkpt lat="44.17522" lon="1.69743">
        <ele>300</ele>
        <time>2011-03-27T09:19:03Z</time>
      </trkpt>
      <trkpt lat="44.17533" lon="1.69732">
        <ele>300</ele>
        <time>2011-03-27T09:19:06Z</time>
      </trkpt>
      <trkpt lat="44.17541" lon="1.69726">
        <ele>301</ele>
        <time>2011-03-27T09:19:08Z</time>
      </trkpt>
      <trkpt lat="44.17553" lon="1.69717">
        <ele>301</ele>
        <time>2011-03-27T09:19:10Z</time>
      </trkpt>
      <trkpt lat="44.17561" lon="1.69711">
        <ele>301</ele>
        <time>2011-03-27T09:19:13Z</time>
      </trkpt>
      <trkpt lat="44.17573" lon="1.69702">
        <ele>301</ele>
        <time>2011-03-27T09:19:16Z</time>
      </trkpt>
      <trkpt lat="44.17584" lon="1.69694">
        <ele>304</ele>
        <time>2011-03-27T09:19:19Z</time>
      </trkpt>
      <trkpt lat="44.17595" lon="1.69688">
        <ele>304</ele>
        <time>2011-03-27T09:19:21Z</time>
      </trkpt>
      <trkpt lat="44.17606" lon="1.69683">
        <ele>304</ele>
        <time>2011-03-27T09:19:25Z</time>
      </trkpt>
      <trkpt lat="44.17615" lon="1.69678">
        <ele>304</ele>
        <time>2011-03-27T09:19:27Z</time>
      </trkpt>
      <trkpt lat="44.17626" lon="1.69673">
        <ele>305</ele>
        <time>2011-03-27T09:19:30Z</time>
      </trkpt>
      <trkpt lat="44.17637" lon="1.69667">
        <ele>305</ele>
        <time>2011-03-27T09:19:33Z</time>
      </trkpt>
      <trkpt lat="44.17647" lon="1.69661">
        <ele>305</ele>
        <time>2011-03-27T09:19:35Z</time>
      </trkpt>
      <trkpt lat="44.17657" lon="1.69653">
        <ele>305</ele>
        <time>2011-03-27T09:19:38Z</time>
      </trkpt>
      <trkpt lat="44.17666" lon="1.69646">
        <ele>305</ele>
        <time>2011-03-27T09:19:42Z</time>
      </trkpt>
      <trkpt lat="44.17675" lon="1.6964">
        <ele>308</ele>
        <time>2011-03-27T09:19:45Z</time>
      </trkpt>
      <trkpt lat="44.17685" lon="1.69631">
        <ele>308</ele>
        <time>2011-03-27T09:19:48Z</time>
      </trkpt>
      <trkpt lat="44.17695" lon="1.69623">
        <ele>308</ele>
        <time>2011-03-27T09:19:53Z</time>
      </trkpt>
      <trkpt lat="44.17702" lon="1.69615">
        <ele>308</ele>
        <time>2011-03-27T09:19:56Z</time>
      </trkpt>
      <trkpt lat="44.17709" lon="1.69607">
        <ele>308</ele>
        <time>2011-03-27T09:19:59Z</time>
      </trkpt>
      <trkpt lat="44.17716" lon="1.696">
        <ele>308</ele>
        <time>2011-03-27T09:20:02Z</time>
      </trkpt>
      <trkpt lat="44.17724" lon="1.69588">
        <ele>308</ele>
        <time>2011-03-27T09:20:06Z</time>
      </trkpt>
      <trkpt lat="44.17731" lon="1.69579">
        <ele>308</ele>
        <time>2011-03-27T09:20:09Z</time>
      </trkpt>
      <trkpt lat="44.17737" lon="1.69569">
        <ele>308</ele>
        <time>2011-03-27T09:20:12Z</time>
      </trkpt>
      <trkpt lat="44.17745" lon="1.69556">
        <ele>307</ele>
        <time>2011-03-27T09:20:16Z</time>
      </trkpt>
      <trkpt lat="44.17753" lon="1.69543">
        <ele>310</ele>
        <time>2011-03-27T09:20:20Z</time>
      </trkpt>
      <trkpt lat="44.17759" lon="1.69532">
        <ele>310</ele>
        <time>2011-03-27T09:20:22Z</time>
      </trkpt>
      <trkpt lat="44.17766" lon="1.69521">
        <ele>310</ele>
        <time>2011-03-27T09:20:25Z</time>
      </trkpt>
      <trkpt lat="44.17777" lon="1.69521">
        <ele>310</ele>
        <time>2011-03-27T09:20:30Z</time>
      </trkpt>
      <trkpt lat="44.17787" lon="1.69526">
        <ele>311</ele>
        <time>2011-03-27T09:20:33Z</time>
      </trkpt>
      <trkpt lat="44.17796" lon="1.69534">
        <ele>311</ele>
        <time>2011-03-27T09:20:37Z</time>
      </trkpt>
      <trkpt lat="44.17805" lon="1.69541">
        <ele>312</ele>
        <time>2011-03-27T09:20:42Z</time>
      </trkpt>
      <trkpt lat="44.17814" lon="1.69548">
        <ele>312</ele>
        <time>2011-03-27T09:20:45Z</time>
      </trkpt>
      <trkpt lat="44.17824" lon="1.69553">
        <ele>312</ele>
        <time>2011-03-27T09:20:50Z</time>
      </trkpt>
      <trkpt lat="44.17834" lon="1.69561">
        <ele>316</ele>
        <time>2011-03-27T09:20:54Z</time>
      </trkpt>
      <trkpt lat="44.17843" lon="1.69568">
        <ele>316</ele>
        <time>2011-03-27T09:20:57Z</time>
      </trkpt>
      <trkpt lat="44.17851" lon="1.69574">
        <ele>316</ele>
        <time>2011-03-27T09:21:02Z</time>
      </trkpt>
      <trkpt lat="44.1786" lon="1.69579">
        <ele>316</ele>
        <time>2011-03-27T09:21:05Z</time>
      </trkpt>
      <trkpt lat="44.17869" lon="1.69584">
        <ele>318</ele>
        <time>2011-03-27T09:21:09Z</time>
      </trkpt>
      <trkpt lat="44.17878" lon="1.6959">
        <ele>319</ele>
        <time>2011-03-27T09:21:14Z</time>
      </trkpt>
      <trkpt lat="44.17887" lon="1.69595">
        <ele>319</ele>
        <time>2011-03-27T09:21:17Z</time>
      </trkpt>
      <trkpt lat="44.17896" lon="1.69599">
        <ele>320</ele>
        <time>2011-03-27T09:21:22Z</time>
      </trkpt>
      <trkpt lat="44.17906" lon="1.69605">
        <ele>320</ele>
        <time>2011-03-27T09:21:27Z</time>
      </trkpt>
      <trkpt lat="44.17916" lon="1.69611">
        <ele>320</ele>
        <time>2011-03-27T09:21:32Z</time>
      </trkpt>
      <trkpt lat="44.17926" lon="1.69616">
        <ele>324</ele>
        <time>2011-03-27T09:21:36Z</time>
      </trkpt>
      <trkpt lat="44.17937" lon="1.69619">
        <ele>324</ele>
        <time>2011-03-27T09:21:42Z</time>
      </trkpt>
      <trkpt lat="44.17947" lon="1.69622">
        <ele>324</ele>
        <time>2011-03-27T09:21:47Z</time>
      </trkpt>
      <trkpt lat="44.17957" lon="1.69627">
        <ele>325</ele>
        <time>2011-03-27T09:21:51Z</time>
      </trkpt>
      <trkpt lat="44.17966" lon="1.6963">
        <ele>325</ele>
        <time>2011-03-27T09:21:56Z</time>
      </trkpt>
      <trkpt lat="44.17976" lon="1.69634">
        <ele>326</ele>
        <time>2011-03-27T09:22:01Z</time>
      </trkpt>
      <trkpt lat="44.17986" lon="1.69637">
        <ele>326</ele>
        <time>2011-03-27T09:22:06Z</time>
      </trkpt>
      <trkpt lat="44.17995" lon="1.69641">
        <ele>326</ele>
        <time>2011-03-27T09:22:11Z</time>
      </trkpt>
      <trkpt lat="44.18004" lon="1.69646">
        <ele>329</ele>
        <time>2011-03-27T09:22:15Z</time>
      </trkpt>
      <trkpt lat="44.18015" lon="1.69651">
        <ele>329</ele>
        <time>2011-03-27T09:22:19Z</time>
      </trkpt>
      <trkpt lat="44.18023" lon="1.69655">
        <ele>330</ele>
        <time>2011-03-27T09:22:24Z</time>
      </trkpt>
      <trkpt lat="44.18033" lon="1.6966">
        <ele>330</ele>
        <time>2011-03-27T09:22:29Z</time>
      </trkpt>
      <trkpt lat="44.18043" lon="1.69664">
        <ele>330</ele>
        <time>2011-03-27T09:22:33Z</time>
      </trkpt>
      <trkpt lat="44.18053" lon="1.6967">
        <ele>332</ele>
        <time>2011-03-27T09:22:39Z</time>
      </trkpt>
      <trkpt lat="44.18061" lon="1.69677">
        <ele>332</ele>
        <time>2011-03-27T09:22:42Z</time>
      </trkpt>
      <trkpt lat="44.18069" lon="1.69684">
        <ele>333</ele>
        <time>2011-03-27T09:22:48Z</time>
      </trkpt>
      <trkpt lat="44.18077" lon="1.69692">
        <ele>333</ele>
        <time>2011-03-27T09:22:53Z</time>
      </trkpt>
      <trkpt lat="44.18086" lon="1.69701">
        <ele>336</ele>
        <time>2011-03-27T09:22:58Z</time>
      </trkpt>
      <trkpt lat="44.18094" lon="1.6971">
        <ele>336</ele>
        <time>2011-03-27T09:23:03Z</time>
      </trkpt>
      <trkpt lat="44.18102" lon="1.69721">
        <ele>336</ele>
        <time>2011-03-27T09:23:07Z</time>
      </trkpt>
      <trkpt lat="44.1811" lon="1.6973">
        <ele>336</ele>
        <time>2011-03-27T09:23:11Z</time>
      </trkpt>
      <trkpt lat="44.18118" lon="1.69738">
        <ele>337</ele>
        <time>2011-03-27T09:23:16Z</time>
      </trkpt>
      <trkpt lat="44.18127" lon="1.69747">
        <ele>337</ele>
        <time>2011-03-27T09:23:21Z</time>
      </trkpt>
      <trkpt lat="44.18137" lon="1.69754">
        <ele>339</ele>
        <time>2011-03-27T09:23:26Z</time>
      </trkpt>
      <trkpt lat="44.18147" lon="1.69755">
        <ele>339</ele>
        <time>2011-03-27T09:23:32Z</time>
      </trkpt>
      <trkpt lat="44.18157" lon="1.69757">
        <ele>339</ele>
        <time>2011-03-27T09:23:35Z</time>
      </trkpt>
      <trkpt lat="44.18166" lon="1.69762">
        <ele>340</ele>
        <time>2011-03-27T09:23:39Z</time>
      </trkpt>
      <trkpt lat="44.18175" lon="1.69767">
        <ele>340</ele>
        <time>2011-03-27T09:23:42Z</time>
      </trkpt>
      <trkpt lat="44.18184" lon="1.69772">
        <ele>340</ele>
        <time>2011-03-27T09:23:46Z</time>
      </trkpt>
      <trkpt lat="44.18193" lon="1.69777">
        <ele>340</ele>
        <time>2011-03-27T09:23:50Z</time>
      </trkpt>
      <trkpt lat="44.18203" lon="1.69779">
        <ele>340</ele>
        <time>2011-03-27T09:23:54Z</time>
      </trkpt>
      <trkpt lat="44.18212" lon="1.69783">
        <ele>340</ele>
        <time>2011-03-27T09:23:58Z</time>
      </trkpt>
      <trkpt lat="44.18222" lon="1.69787">
        <ele>340</ele>
        <time>2011-03-27T09:24:01Z</time>
      </trkpt>
      <trkpt lat="44.18232" lon="1.69789">
        <ele>340</ele>
        <time>2011-03-27T09:24:04Z</time>
      </trkpt>
      <trkpt lat="44.18244" lon="1.69785">
        <ele>339</ele>
        <time>2011-03-27T09:24:06Z</time>
      </trkpt>
      <trkpt lat="44.18255" lon="1.69776">
        <ele>338</ele>
        <time>2011-03-27T09:24:10Z</time>
      </trkpt>
      <trkpt lat="44.18268" lon="1.6977">
        <ele>338</ele>
        <time>2011-03-27T09:24:13Z</time>
      </trkpt>
      <trkpt lat="44.18282" lon="1.69768">
        <ele>338</ele>
        <time>2011-03-27T09:24:16Z</time>
      </trkpt>
      <trkpt lat="44.18291" lon="1.69766">
        <ele>337</ele>
        <time>2011-03-27T09:24:18Z</time>
      </trkpt>
      <trkpt lat="44.18305" lon="1.69764">
        <ele>337</ele>
        <time>2011-03-27T09:24:21Z</time>
      </trkpt>
      <trkpt lat="44.18315" lon="1.69762">
        <ele>337</ele>
        <time>2011-03-27T09:24:23Z</time>
      </trkpt>
      <trkpt lat="44.18331" lon="1.69762">
        <ele>337</ele>
        <time>2011-03-27T09:24:26Z</time>
      </trkpt>
      <trkpt lat="44.1834" lon="1.69763">
        <ele>335</ele>
        <time>2011-03-27T09:24:28Z</time>
      </trkpt>
      <trkpt lat="44.1835" lon="1.69765">
        <ele>335</ele>
        <time>2011-03-27T09:24:30Z</time>
      </trkpt>
      <trkpt lat="44.18364" lon="1.69767">
        <ele>335</ele>
        <time>2011-03-27T09:24:33Z</time>
      </trkpt>
      <trkpt lat="44.18375" lon="1.69767">
        <ele>334</ele>
        <time>2011-03-27T09:24:35Z</time>
      </trkpt>
      <trkpt lat="44.18391" lon="1.69768">
        <ele>334</ele>
        <time>2011-03-27T09:24:38Z</time>
      </trkpt>
      <trkpt lat="44.18402" lon="1.69768">
        <ele>334</ele>
        <time>2011-03-27T09:24:40Z</time>
      </trkpt>
      <trkpt lat="44.18418" lon="1.6977">
        <ele>331</ele>
        <time>2011-03-27T09:24:43Z</time>
      </trkpt>
      <trkpt lat="44.18434" lon="1.69774">
        <ele>331</ele>
        <time>2011-03-27T09:24:46Z</time>
      </trkpt>
      <trkpt lat="44.18448" lon="1.69784">
        <ele>330</ele>
        <time>2011-03-27T09:24:49Z</time>
      </trkpt>
      <trkpt lat="44.18461" lon="1.69798">
        <ele>330</ele>
        <time>2011-03-27T09:24:52Z</time>
      </trkpt>
      <trkpt lat="44.18471" lon="1.69804">
        <ele>329</ele>
        <time>2011-03-27T09:24:54Z</time>
      </trkpt>
      <trkpt lat="44.18481" lon="1.69809">
        <ele>329</ele>
        <time>2011-03-27T09:24:56Z</time>
      </trkpt>
      <trkpt lat="44.18494" lon="1.69819">
        <ele>328</ele>
        <time>2011-03-27T09:24:58Z</time>
      </trkpt>
      <trkpt lat="44.18502" lon="1.69827">
        <ele>326</ele>
        <time>2011-03-27T09:25:01Z</time>
      </trkpt>
      <trkpt lat="44.1851" lon="1.69836">
        <ele>326</ele>
        <time>2011-03-27T09:25:03Z</time>
      </trkpt>
      <trkpt lat="44.18519" lon="1.69852">
        <ele>325</ele>
        <time>2011-03-27T09:25:06Z</time>
      </trkpt>
      <trkpt lat="44.18528" lon="1.69874">
        <ele>325</ele>
        <time>2011-03-27T09:25:09Z</time>
      </trkpt>
      <trkpt lat="44.18535" lon="1.69886">
        <ele>324</ele>
        <time>2011-03-27T09:25:11Z</time>
      </trkpt>
      <trkpt lat="44.18546" lon="1.69901">
        <ele>324</ele>
        <time>2011-03-27T09:25:14Z</time>
      </trkpt>
      <trkpt lat="44.18555" lon="1.6991">
        <ele>324</ele>
        <time>2011-03-27T09:25:16Z</time>
      </trkpt>
      <trkpt lat="44.18563" lon="1.69919">
        <ele>324</ele>
        <time>2011-03-27T09:25:18Z</time>
      </trkpt>
      <trkpt lat="44.18574" lon="1.69933">
        <ele>324</ele>
        <time>2011-03-27T09:25:21Z</time>
      </trkpt>
      <trkpt lat="44.18583" lon="1.69947">
        <ele>324</ele>
        <time>2011-03-27T09:25:24Z</time>
      </trkpt>
      <trkpt lat="44.18594" lon="1.69961">
        <ele>323</ele>
        <time>2011-03-27T09:25:27Z</time>
      </trkpt>
      <trkpt lat="44.18606" lon="1.69973">
        <ele>323</ele>
        <time>2011-03-27T09:25:30Z</time>
      </trkpt>
      <trkpt lat="44.1862" lon="1.69985">
        <ele>322</ele>
        <time>2011-03-27T09:25:33Z</time>
      </trkpt>
      <trkpt lat="44.18635" lon="1.69999">
        <ele>322</ele>
        <time>2011-03-27T09:25:36Z</time>
      </trkpt>
      <trkpt lat="44.18644" lon="1.70007">
        <ele>323</ele>
        <time>2011-03-27T09:25:38Z</time>
      </trkpt>
      <trkpt lat="44.18658" lon="1.7002">
        <ele>323</ele>
        <time>2011-03-27T09:25:41Z</time>
      </trkpt>
      <trkpt lat="44.18672" lon="1.70029">
        <ele>321</ele>
        <time>2011-03-27T09:25:44Z</time>
      </trkpt>
      <trkpt lat="44.18688" lon="1.70038">
        <ele>321</ele>
        <time>2011-03-27T09:25:47Z</time>
      </trkpt>
      <trkpt lat="44.18703" lon="1.70048">
        <ele>320</ele>
        <time>2011-03-27T09:25:50Z</time>
      </trkpt>
      <trkpt lat="44.18718" lon="1.7006">
        <ele>320</ele>
        <time>2011-03-27T09:25:53Z</time>
      </trkpt>
      <trkpt lat="44.18733" lon="1.70076">
        <ele>319</ele>
        <time>2011-03-27T09:25:56Z</time>
      </trkpt>
      <trkpt lat="44.18744" lon="1.70087">
        <ele>319</ele>
        <time>2011-03-27T09:25:58Z</time>
      </trkpt>
      <trkpt lat="44.18761" lon="1.70102">
        <ele>316</ele>
        <time>2011-03-27T09:26:01Z</time>
      </trkpt>
      <trkpt lat="44.18774" lon="1.70108">
        <ele>316</ele>
        <time>2011-03-27T09:26:03Z</time>
      </trkpt>
      <trkpt lat="44.18792" lon="1.70117">
        <ele>315</ele>
        <time>2011-03-27T09:26:06Z</time>
      </trkpt>
      <trkpt lat="44.18808" lon="1.70127">
        <ele>314</ele>
        <time>2011-03-27T09:26:09Z</time>
      </trkpt>
      <trkpt lat="44.18825" lon="1.7014">
        <ele>313</ele>
        <time>2011-03-27T09:26:12Z</time>
      </trkpt>
      <trkpt lat="44.18847" lon="1.70149">
        <ele>310</ele>
        <time>2011-03-27T09:26:15Z</time>
      </trkpt>
      <trkpt lat="44.1887" lon="1.70156">
        <ele>309</ele>
        <time>2011-03-27T09:26:18Z</time>
      </trkpt>
      <trkpt lat="44.18894" lon="1.70159">
        <ele>308</ele>
        <time>2011-03-27T09:26:21Z</time>
      </trkpt>
      <trkpt lat="44.18918" lon="1.70161">
        <ele>306</ele>
        <time>2011-03-27T09:26:24Z</time>
      </trkpt>
      <trkpt lat="44.18938" lon="1.70167">
        <ele>307</ele>
        <time>2011-03-27T09:26:27Z</time>
      </trkpt>
      <trkpt lat="44.18954" lon="1.70172">
        <ele>305</ele>
        <time>2011-03-27T09:26:30Z</time>
      </trkpt>
      <trkpt lat="44.1897" lon="1.70177">
        <ele>305</ele>
        <time>2011-03-27T09:26:33Z</time>
      </trkpt>
      <trkpt lat="44.18988" lon="1.70182">
        <ele>305</ele>
        <time>2011-03-27T09:26:36Z</time>
      </trkpt>
      <trkpt lat="44.19006" lon="1.70185">
        <ele>304</ele>
        <time>2011-03-27T09:26:39Z</time>
      </trkpt>
      <trkpt lat="44.1902" lon="1.70186">
        <ele>303</ele>
        <time>2011-03-27T09:26:41Z</time>
      </trkpt>
      <trkpt lat="44.19041" lon="1.7019">
        <ele>303</ele>
        <time>2011-03-27T09:26:44Z</time>
      </trkpt>
      <trkpt lat="44.1906" lon="1.70195">
        <ele>302</ele>
        <time>2011-03-27T09:26:47Z</time>
      </trkpt>
      <trkpt lat="44.19076" lon="1.70204">
        <ele>302</ele>
        <time>2011-03-27T09:26:50Z</time>
      </trkpt>
      <trkpt lat="44.19088" lon="1.70209">
        <ele>301</ele>
        <time>2011-03-27T09:26:53Z</time>
      </trkpt>
      <trkpt lat="44.19099" lon="1.70218">
        <ele>301</ele>
        <time>2011-03-27T09:26:56Z</time>
      </trkpt>
      <trkpt lat="44.19113" lon="1.70225">
        <ele>301</ele>
        <time>2011-03-27T09:26:59Z</time>
      </trkpt>
      <trkpt lat="44.19125" lon="1.70232">
        <ele>301</ele>
        <time>2011-03-27T09:27:02Z</time>
      </trkpt>
      <trkpt lat="44.19135" lon="1.70238">
        <ele>301</ele>
        <time>2011-03-27T09:27:05Z</time>
      </trkpt>
      <trkpt lat="44.19146" lon="1.70245">
        <ele>302</ele>
        <time>2011-03-27T09:27:09Z</time>
      </trkpt>
      <trkpt lat="44.19157" lon="1.70249">
        <ele>302</ele>
        <time>2011-03-27T09:27:13Z</time>
      </trkpt>
      <trkpt lat="44.19168" lon="1.70252">
        <ele>302</ele>
        <time>2011-03-27T09:27:17Z</time>
      </trkpt>
      <trkpt lat="44.19177" lon="1.70257">
        <ele>303</ele>
        <time>2011-03-27T09:27:21Z</time>
      </trkpt>
      <trkpt lat="44.19187" lon="1.70263">
        <ele>304</ele>
        <time>2011-03-27T09:27:25Z</time>
      </trkpt>
      <trkpt lat="44.19198" lon="1.70267">
        <ele>304</ele>
        <time>2011-03-27T09:27:29Z</time>
      </trkpt>
      <trkpt lat="44.19208" lon="1.70271">
        <ele>304</ele>
        <time>2011-03-27T09:27:33Z</time>
      </trkpt>
      <trkpt lat="44.19219" lon="1.70273">
        <ele>305</ele>
        <time>2011-03-27T09:27:37Z</time>
      </trkpt>
      <trkpt lat="44.19229" lon="1.70278">
        <ele>305</ele>
        <time>2011-03-27T09:27:41Z</time>
      </trkpt>
      <trkpt lat="44.1924" lon="1.70283">
        <ele>305</ele>
        <time>2011-03-27T09:27:45Z</time>
      </trkpt>
      <trkpt lat="44.1925" lon="1.70287">
        <ele>305</ele>
        <time>2011-03-27T09:27:49Z</time>
      </trkpt>
      <trkpt lat="44.1925" lon="1.703">
        <ele>306</ele>
        <time>2011-03-27T09:27:54Z</time>
      </trkpt>
      <trkpt lat="44.1925" lon="1.70314">
        <ele>305</ele>
        <time>2011-03-27T09:27:58Z</time>
      </trkpt>
      <trkpt lat="44.19248" lon="1.7033">
        <ele>306</ele>
        <time>2011-03-27T09:28:01Z</time>
      </trkpt>
      <trkpt lat="44.19246" lon="1.70347">
        <ele>305</ele>
        <time>2011-03-27T09:28:04Z</time>
      </trkpt>
      <trkpt lat="44.19244" lon="1.70366">
        <ele>305</ele>
        <time>2011-03-27T09:28:07Z</time>
      </trkpt>
      <trkpt lat="44.19241" lon="1.70387">
        <ele>305</ele>
        <time>2011-03-27T09:28:10Z</time>
      </trkpt>
      <trkpt lat="44.19238" lon="1.70401">
        <ele>305</ele>
        <time>2011-03-27T09:28:12Z</time>
      </trkpt>
      <trkpt lat="44.19234" lon="1.70422">
        <ele>304</ele>
        <time>2011-03-27T09:28:15Z</time>
      </trkpt>
      <trkpt lat="44.19229" lon="1.70444">
        <ele>304</ele>
        <time>2011-03-27T09:28:18Z</time>
      </trkpt>
      <trkpt lat="44.19225" lon="1.70462">
        <ele>303</ele>
        <time>2011-03-27T09:28:20Z</time>
      </trkpt>
      <trkpt lat="44.19221" lon="1.70488">
        <ele>303</ele>
        <time>2011-03-27T09:28:23Z</time>
      </trkpt>
      <trkpt lat="44.19216" lon="1.70514">
        <ele>302</ele>
        <time>2011-03-27T09:28:26Z</time>
      </trkpt>
      <trkpt lat="44.19213" lon="1.7053">
        <ele>302</ele>
        <time>2011-03-27T09:28:28Z</time>
      </trkpt>
      <trkpt lat="44.19208" lon="1.70552">
        <ele>301</ele>
        <time>2011-03-27T09:28:31Z</time>
      </trkpt>
      <trkpt lat="44.19208" lon="1.70574">
        <ele>301</ele>
        <time>2011-03-27T09:28:34Z</time>
      </trkpt>
      <trkpt lat="44.19209" lon="1.70589">
        <ele>300</ele>
        <time>2011-03-27T09:28:36Z</time>
      </trkpt>
      <trkpt lat="44.19211" lon="1.70605">
        <ele>300</ele>
        <time>2011-03-27T09:28:38Z</time>
      </trkpt>
      <trkpt lat="44.19212" lon="1.70621">
        <ele>300</ele>
        <time>2011-03-27T09:28:40Z</time>
      </trkpt>
      <trkpt lat="44.19215" lon="1.70644">
        <ele>300</ele>
        <time>2011-03-27T09:28:43Z</time>
      </trkpt>
      <trkpt lat="44.19217" lon="1.70669">
        <ele>299</ele>
        <time>2011-03-27T09:28:46Z</time>
      </trkpt>
      <trkpt lat="44.19219" lon="1.70686">
        <ele>299</ele>
        <time>2011-03-27T09:28:48Z</time>
      </trkpt>
      <trkpt lat="44.1922" lon="1.70711">
        <ele>298</ele>
        <time>2011-03-27T09:28:51Z</time>
      </trkpt>
      <trkpt lat="44.19222" lon="1.70737">
        <ele>298</ele>
        <time>2011-03-27T09:28:54Z</time>
      </trkpt>
      <trkpt lat="44.19223" lon="1.70754">
        <ele>297</ele>
        <time>2011-03-27T09:28:56Z</time>
      </trkpt>
      <trkpt lat="44.19223" lon="1.70781">
        <ele>296</ele>
        <time>2011-03-27T09:28:59Z</time>
      </trkpt>
      <trkpt lat="44.19222" lon="1.70805">
        <ele>296</ele>
        <time>2011-03-27T09:29:02Z</time>
      </trkpt>
      <trkpt lat="44.19222" lon="1.7082">
        <ele>296</ele>
        <time>2011-03-27T09:29:04Z</time>
      </trkpt>
      <trkpt lat="44.19218" lon="1.70844">
        <ele>294</ele>
        <time>2011-03-27T09:29:07Z</time>
      </trkpt>
      <trkpt lat="44.19219" lon="1.70869">
        <ele>294</ele>
        <time>2011-03-27T09:29:10Z</time>
      </trkpt>
      <trkpt lat="44.19216" lon="1.70896">
        <ele>293</ele>
        <time>2011-03-27T09:29:13Z</time>
      </trkpt>
      <trkpt lat="44.19214" lon="1.70914">
        <ele>293</ele>
        <time>2011-03-27T09:29:15Z</time>
      </trkpt>
      <trkpt lat="44.19213" lon="1.70935">
        <ele>292</ele>
        <time>2011-03-27T09:29:18Z</time>
      </trkpt>
      <trkpt lat="44.19211" lon="1.70948">
        <ele>292</ele>
        <time>2011-03-27T09:29:20Z</time>
      </trkpt>
      <trkpt lat="44.19205" lon="1.70964">
        <ele>291</ele>
        <time>2011-03-27T09:29:23Z</time>
      </trkpt>
      <trkpt lat="44.19199" lon="1.70982">
        <ele>291</ele>
        <time>2011-03-27T09:29:26Z</time>
      </trkpt>
      <trkpt lat="44.19197" lon="1.70998">
        <ele>291</ele>
        <time>2011-03-27T09:29:29Z</time>
      </trkpt>
      <trkpt lat="44.19205" lon="1.71006">
        <ele>290</ele>
        <time>2011-03-27T09:29:34Z</time>
      </trkpt>
      <trkpt lat="44.19205" lon="1.71006">
        <ele>290</ele>
        <time>2011-03-27T09:29:37Z</time>
      </trkpt>
      <trkpt lat="44.19222" lon="1.71006">
        <ele>290</ele>
        <time>2011-03-27T09:30:04Z</time>
      </trkpt>
      <trkpt lat="44.19221" lon="1.71022">
        <ele>290</ele>
        <time>2011-03-27T09:30:08Z</time>
      </trkpt>
      <trkpt lat="44.19213" lon="1.71029">
        <ele>290</ele>
        <time>2011-03-27T09:30:10Z</time>
      </trkpt>
      <trkpt lat="44.19209" lon="1.71045">
        <ele>289</ele>
        <time>2011-03-27T09:30:12Z</time>
      </trkpt>
      <trkpt lat="44.19211" lon="1.71077">
        <ele>289</ele>
        <time>2011-03-27T09:30:15Z</time>
      </trkpt>
      <trkpt lat="44.19219" lon="1.71116">
        <ele>286</ele>
        <time>2011-03-27T09:30:18Z</time>
      </trkpt>
      <trkpt lat="44.19229" lon="1.71154">
        <ele>284</ele>
        <time>2011-03-27T09:30:21Z</time>
      </trkpt>
      <trkpt lat="44.19236" lon="1.71186">
        <ele>283</ele>
        <time>2011-03-27T09:30:24Z</time>
      </trkpt>
      <trkpt lat="44.19244" lon="1.71214">
        <ele>282</ele>
        <time>2011-03-27T09:30:27Z</time>
      </trkpt>
      <trkpt lat="44.19252" lon="1.71239">
        <ele>279</ele>
        <time>2011-03-27T09:30:30Z</time>
      </trkpt>
      <trkpt lat="44.19257" lon="1.71261">
        <ele>278</ele>
        <time>2011-03-27T09:30:33Z</time>
      </trkpt>
      <trkpt lat="44.19264" lon="1.71278">
        <ele>279</ele>
        <time>2011-03-27T09:30:36Z</time>
      </trkpt>
      <trkpt lat="44.19272" lon="1.71296">
        <ele>280</ele>
        <time>2011-03-27T09:30:39Z</time>
      </trkpt>
      <trkpt lat="44.19278" lon="1.71308">
        <ele>280</ele>
        <time>2011-03-27T09:30:41Z</time>
      </trkpt>
      <trkpt lat="44.19285" lon="1.71321">
        <ele>279</ele>
        <time>2011-03-27T09:30:43Z</time>
      </trkpt>
      <trkpt lat="44.19295" lon="1.71339">
        <ele>278</ele>
        <time>2011-03-27T09:30:46Z</time>
      </trkpt>
      <trkpt lat="44.19305" lon="1.71356">
        <ele>278</ele>
        <time>2011-03-27T09:30:49Z</time>
      </trkpt>
      <trkpt lat="44.19313" lon="1.71371">
        <ele>277</ele>
        <time>2011-03-27T09:30:52Z</time>
      </trkpt>
      <trkpt lat="44.19323" lon="1.71382">
        <ele>277</ele>
        <time>2011-03-27T09:30:55Z</time>
      </trkpt>
      <trkpt lat="44.19335" lon="1.71376">
        <ele>277</ele>
        <time>2011-03-27T09:30:58Z</time>
      </trkpt>
      <trkpt lat="44.19347" lon="1.71377">
        <ele>277</ele>
        <time>2011-03-27T09:31:01Z</time>
      </trkpt>
      <trkpt lat="44.19356" lon="1.71389">
        <ele>277</ele>
        <time>2011-03-27T09:31:04Z</time>
      </trkpt>
      <trkpt lat="44.19366" lon="1.71398">
        <ele>278</ele>
        <time>2011-03-27T09:31:07Z</time>
      </trkpt>
      <trkpt lat="44.19374" lon="1.71413">
        <ele>278</ele>
        <time>2011-03-27T09:31:10Z</time>
      </trkpt>
      <trkpt lat="44.19379" lon="1.71431">
        <ele>277</ele>
        <time>2011-03-27T09:31:13Z</time>
      </trkpt>
      <trkpt lat="44.19383" lon="1.71452">
        <ele>277</ele>
        <time>2011-03-27T09:31:16Z</time>
      </trkpt>
      <trkpt lat="44.19385" lon="1.71465">
        <ele>277</ele>
        <time>2011-03-27T09:31:18Z</time>
      </trkpt>
      <trkpt lat="44.19386" lon="1.71486">
        <ele>277</ele>
        <time>2011-03-27T09:31:21Z</time>
      </trkpt>
      <trkpt lat="44.19389" lon="1.71511">
        <ele>275</ele>
        <time>2011-03-27T09:31:24Z</time>
      </trkpt>
      <trkpt lat="44.19392" lon="1.71537">
        <ele>274</ele>
        <time>2011-03-27T09:31:27Z</time>
      </trkpt>
      <trkpt lat="44.19396" lon="1.71563">
        <ele>274</ele>
        <time>2011-03-27T09:31:30Z</time>
      </trkpt>
      <trkpt lat="44.19398" lon="1.71584">
        <ele>271</ele>
        <time>2011-03-27T09:31:33Z</time>
      </trkpt>
      <trkpt lat="44.19394" lon="1.71608">
        <ele>270</ele>
        <time>2011-03-27T09:31:36Z</time>
      </trkpt>
      <trkpt lat="44.1939" lon="1.71637">
        <ele>268</ele>
        <time>2011-03-27T09:31:39Z</time>
      </trkpt>
      <trkpt lat="44.19388" lon="1.71668">
        <ele>265</ele>
        <time>2011-03-27T09:31:42Z</time>
      </trkpt>
      <trkpt lat="44.19383" lon="1.717">
        <ele>265</ele>
        <time>2011-03-27T09:31:45Z</time>
      </trkpt>
      <trkpt lat="44.19381" lon="1.71722">
        <ele>264</ele>
        <time>2011-03-27T09:31:47Z</time>
      </trkpt>
      <trkpt lat="44.19382" lon="1.71748">
        <ele>264</ele>
        <time>2011-03-27T09:31:50Z</time>
      </trkpt>
      <trkpt lat="44.19382" lon="1.71765">
        <ele>263</ele>
        <time>2011-03-27T09:31:52Z</time>
      </trkpt>
      <trkpt lat="44.19389" lon="1.71793">
        <ele>263</ele>
        <time>2011-03-27T09:31:55Z</time>
      </trkpt>
      <trkpt lat="44.19397" lon="1.71816">
        <ele>262</ele>
        <time>2011-03-27T09:31:58Z</time>
      </trkpt>
      <trkpt lat="44.19401" lon="1.7184">
        <ele>261</ele>
        <time>2011-03-27T09:32:01Z</time>
      </trkpt>
      <trkpt lat="44.19403" lon="1.71864">
        <ele>262</ele>
        <time>2011-03-27T09:32:04Z</time>
      </trkpt>
      <trkpt lat="44.19405" lon="1.71887">
        <ele>261</ele>
        <time>2011-03-27T09:32:07Z</time>
      </trkpt>
      <trkpt lat="44.19407" lon="1.71913">
        <ele>259</ele>
        <time>2011-03-27T09:32:10Z</time>
      </trkpt>
      <trkpt lat="44.19405" lon="1.71929">
        <ele>260</ele>
        <time>2011-03-27T09:32:12Z</time>
      </trkpt>
      <trkpt lat="44.19404" lon="1.71945">
        <ele>261</ele>
        <time>2011-03-27T09:32:14Z</time>
      </trkpt>
      <trkpt lat="44.19402" lon="1.71963">
        <ele>261</ele>
        <time>2011-03-27T09:32:17Z</time>
      </trkpt>
      <trkpt lat="44.19402" lon="1.71963">
        <ele>261</ele>
        <time>2011-03-27T09:32:18Z</time>
      </trkpt>
      <trkpt lat="44.19405" lon="1.71983">
        <ele>261</ele>
        <time>2011-03-27T09:32:38Z</time>
      </trkpt>
      <trkpt lat="44.19403" lon="1.71998">
        <ele>260</ele>
        <time>2011-03-27T09:32:40Z</time>
      </trkpt>
      <trkpt lat="44.19402" lon="1.7202">
        <ele>260</ele>
        <time>2011-03-27T09:32:43Z</time>
      </trkpt>
      <trkpt lat="44.19401" lon="1.72043">
        <ele>260</ele>
        <time>2011-03-27T09:32:46Z</time>
      </trkpt>
      <trkpt lat="44.19401" lon="1.72059">
        <ele>260</ele>
        <time>2011-03-27T09:32:48Z</time>
      </trkpt>
      <trkpt lat="44.194" lon="1.72083">
        <ele>259</ele>
        <time>2011-03-27T09:32:51Z</time>
      </trkpt>
      <trkpt lat="44.19399" lon="1.7211">
        <ele>256</ele>
        <time>2011-03-27T09:32:54Z</time>
      </trkpt>
      <trkpt lat="44.19398" lon="1.72138">
        <ele>255</ele>
        <time>2011-03-27T09:32:57Z</time>
      </trkpt>
      <trkpt lat="44.19396" lon="1.72167">
        <ele>253</ele>
        <time>2011-03-27T09:33:00Z</time>
      </trkpt>
      <trkpt lat="44.19395" lon="1.72186">
        <ele>253</ele>
        <time>2011-03-27T09:33:02Z</time>
      </trkpt>
      <trkpt lat="44.19394" lon="1.72214">
        <ele>253</ele>
        <time>2011-03-27T09:33:05Z</time>
      </trkpt>
      <trkpt lat="44.19394" lon="1.72234">
        <ele>252</ele>
        <time>2011-03-27T09:33:07Z</time>
      </trkpt>
      <trkpt lat="44.19399" lon="1.72265">
        <ele>250</ele>
        <time>2011-03-27T09:33:10Z</time>
      </trkpt>
      <trkpt lat="44.19403" lon="1.72296">
        <ele>249</ele>
        <time>2011-03-27T09:33:13Z</time>
      </trkpt>
      <trkpt lat="44.19406" lon="1.72316">
        <ele>247</ele>
        <time>2011-03-27T09:33:15Z</time>
      </trkpt>
      <trkpt lat="44.19408" lon="1.72346">
        <ele>244</ele>
        <time>2011-03-27T09:33:18Z</time>
      </trkpt>
      <trkpt lat="44.19406" lon="1.72367">
        <ele>244</ele>
        <time>2011-03-27T09:33:20Z</time>
      </trkpt>
      <trkpt lat="44.19405" lon="1.72385">
        <ele>244</ele>
        <time>2011-03-27T09:33:22Z</time>
      </trkpt>
      <trkpt lat="44.19404" lon="1.72403">
        <ele>243</ele>
        <time>2011-03-27T09:33:24Z</time>
      </trkpt>
      <trkpt lat="44.19405" lon="1.72431">
        <ele>241</ele>
        <time>2011-03-27T09:33:27Z</time>
      </trkpt>
      <trkpt lat="44.19406" lon="1.72447">
        <ele>240</ele>
        <time>2011-03-27T09:33:29Z</time>
      </trkpt>
      <trkpt lat="44.19408" lon="1.7246">
        <ele>240</ele>
        <time>2011-03-27T09:33:32Z</time>
      </trkpt>
      <trkpt lat="44.1941" lon="1.72474">
        <ele>238</ele>
        <time>2011-03-27T09:33:35Z</time>
      </trkpt>
      <trkpt lat="44.19414" lon="1.72487">
        <ele>236</ele>
        <time>2011-03-27T09:33:38Z</time>
      </trkpt>
      <trkpt lat="44.19418" lon="1.72502">
        <ele>233</ele>
        <time>2011-03-27T09:33:42Z</time>
      </trkpt>
      <trkpt lat="44.19418" lon="1.72502">
        <ele>233</ele>
        <time>2011-03-27T09:33:45Z</time>
      </trkpt>
      <trkpt lat="44.19427" lon="1.72527">
        <ele>237</ele>
        <time>2011-03-27T09:33:57Z</time>
      </trkpt>
      <trkpt lat="44.19435" lon="1.72539">
        <ele>237</ele>
        <time>2011-03-27T09:34:00Z</time>
      </trkpt>
      <trkpt lat="44.19445" lon="1.72549">
        <ele>238</ele>
        <time>2011-03-27T09:34:03Z</time>
      </trkpt>
      <trkpt lat="44.19461" lon="1.72563">
        <ele>238</ele>
        <time>2011-03-27T09:34:06Z</time>
      </trkpt>
      <trkpt lat="44.19477" lon="1.72576">
        <ele>237</ele>
        <time>2011-03-27T09:34:09Z</time>
      </trkpt>
      <trkpt lat="44.19494" lon="1.72589">
        <ele>235</ele>
        <time>2011-03-27T09:34:12Z</time>
      </trkpt>
      <trkpt lat="44.19506" lon="1.72598">
        <ele>233</ele>
        <time>2011-03-27T09:34:14Z</time>
      </trkpt>
      <trkpt lat="44.19522" lon="1.72612">
        <ele>233</ele>
        <time>2011-03-27T09:34:17Z</time>
      </trkpt>
      <trkpt lat="44.19535" lon="1.72625">
        <ele>233</ele>
        <time>2011-03-27T09:34:20Z</time>
      </trkpt>
      <trkpt lat="44.19549" lon="1.72637">
        <ele>233</ele>
        <time>2011-03-27T09:34:23Z</time>
      </trkpt>
      <trkpt lat="44.19563" lon="1.72646">
        <ele>232</ele>
        <time>2011-03-27T09:34:26Z</time>
      </trkpt>
      <trkpt lat="44.19569" lon="1.72659">
        <ele>231</ele>
        <time>2011-03-27T09:34:29Z</time>
      </trkpt>
      <trkpt lat="44.19571" lon="1.72676">
        <ele>231</ele>
        <time>2011-03-27T09:34:32Z</time>
      </trkpt>
      <trkpt lat="44.19576" lon="1.72697">
        <ele>232</ele>
        <time>2011-03-27T09:34:35Z</time>
      </trkpt>
      <trkpt lat="44.19581" lon="1.72718">
        <ele>232</ele>
        <time>2011-03-27T09:34:38Z</time>
      </trkpt>
      <trkpt lat="44.19585" lon="1.72737">
        <ele>233</ele>
        <time>2011-03-27T09:34:41Z</time>
      </trkpt>
      <trkpt lat="44.19587" lon="1.72758">
        <ele>231</ele>
        <time>2011-03-27T09:34:44Z</time>
      </trkpt>
      <trkpt lat="44.19587" lon="1.72779">
        <ele>235</ele>
        <time>2011-03-27T09:34:47Z</time>
      </trkpt>
      <trkpt lat="44.19586" lon="1.72799">
        <ele>234</ele>
        <time>2011-03-27T09:34:50Z</time>
      </trkpt>
      <trkpt lat="44.19588" lon="1.72814">
        <ele>233</ele>
        <time>2011-03-27T09:34:52Z</time>
      </trkpt>
      <trkpt lat="44.19592" lon="1.72832">
        <ele>230</ele>
        <time>2011-03-27T09:34:55Z</time>
      </trkpt>
      <trkpt lat="44.19597" lon="1.72849">
        <ele>231</ele>
        <time>2011-03-27T09:34:58Z</time>
      </trkpt>
      <trkpt lat="44.196" lon="1.72872">
        <ele>232</ele>
        <time>2011-03-27T09:35:01Z</time>
      </trkpt>
      <trkpt lat="44.19603" lon="1.72898">
        <ele>230</ele>
        <time>2011-03-27T09:35:04Z</time>
      </trkpt>
      <trkpt lat="44.19607" lon="1.72925">
        <ele>228</ele>
        <time>2011-03-27T09:35:07Z</time>
      </trkpt>
      <trkpt lat="44.1961" lon="1.72943">
        <ele>229</ele>
        <time>2011-03-27T09:35:09Z</time>
      </trkpt>
      <trkpt lat="44.19613" lon="1.72968">
        <ele>230</ele>
        <time>2011-03-27T09:35:12Z</time>
      </trkpt>
      <trkpt lat="44.19613" lon="1.72981">
        <ele>229</ele>
        <time>2011-03-27T09:35:14Z</time>
      </trkpt>
      <trkpt lat="44.19611" lon="1.73005">
        <ele>230</ele>
        <time>2011-03-27T09:35:17Z</time>
      </trkpt>
      <trkpt lat="44.19605" lon="1.73029">
        <ele>231</ele>
        <time>2011-03-27T09:35:20Z</time>
      </trkpt>
      <trkpt lat="44.19593" lon="1.73055">
        <ele>230</ele>
        <time>2011-03-27T09:35:23Z</time>
      </trkpt>
      <trkpt lat="44.19582" lon="1.7308">
        <ele>227</ele>
        <time>2011-03-27T09:35:26Z</time>
      </trkpt>
      <trkpt lat="44.19582" lon="1.73112">
        <ele>233</ele>
        <time>2011-03-27T09:35:29Z</time>
      </trkpt>
      <trkpt lat="44.19583" lon="1.73132">
        <ele>233</ele>
        <time>2011-03-27T09:35:31Z</time>
      </trkpt>
      <trkpt lat="44.19584" lon="1.73151">
        <ele>229</ele>
        <time>2011-03-27T09:35:33Z</time>
      </trkpt>
      <trkpt lat="44.19585" lon="1.73177">
        <ele>227</ele>
        <time>2011-03-27T09:35:36Z</time>
      </trkpt>
      <trkpt lat="44.19587" lon="1.732">
        <ele>230</ele>
        <time>2011-03-27T09:35:39Z</time>
      </trkpt>
      <trkpt lat="44.19592" lon="1.73224">
        <ele>230</ele>
        <time>2011-03-27T09:35:42Z</time>
      </trkpt>
      <trkpt lat="44.19597" lon="1.73239">
        <ele>229</ele>
        <time>2011-03-27T09:35:44Z</time>
      </trkpt>
      <trkpt lat="44.19602" lon="1.73253">
        <ele>228</ele>
        <time>2011-03-27T09:35:46Z</time>
      </trkpt>
      <trkpt lat="44.1961" lon="1.73267">
        <ele>228</ele>
        <time>2011-03-27T09:35:49Z</time>
      </trkpt>
      <trkpt lat="44.19619" lon="1.73278">
        <ele>229</ele>
        <time>2011-03-27T09:35:52Z</time>
      </trkpt>
      <trkpt lat="44.19626" lon="1.73285">
        <ele>229</ele>
        <time>2011-03-27T09:35:55Z</time>
      </trkpt>
      <trkpt lat="44.19634" lon="1.73294">
        <ele>229</ele>
        <time>2011-03-27T09:36:00Z</time>
      </trkpt>
      <trkpt lat="44.19634" lon="1.73294">
        <ele>229</ele>
        <time>2011-03-27T09:36:05Z</time>
      </trkpt>
      <trkpt lat="44.19663" lon="1.73319">
        <ele>226</ele>
        <time>2011-03-27T09:36:22Z</time>
      </trkpt>
      <trkpt lat="44.19663" lon="1.73319">
        <ele>226</ele>
        <time>2011-03-27T09:36:28Z</time>
      </trkpt>
      <trkpt lat="44.19682" lon="1.73362">
        <ele>224</ele>
        <time>2011-03-27T09:36:45Z</time>
      </trkpt>
      <trkpt lat="44.19686" lon="1.73374">
        <ele>223</ele>
        <time>2011-03-27T09:36:50Z</time>
      </trkpt>
      <trkpt lat="44.19686" lon="1.73374">
        <ele>223</ele>
        <time>2011-03-27T09:37:05Z</time>
      </trkpt>
      <trkpt lat="44.19706" lon="1.73408">
        <ele>223</ele>
        <time>2011-03-27T09:37:20Z</time>
      </trkpt>
      <trkpt lat="44.19718" lon="1.73412">
        <ele>224</ele>
        <time>2011-03-27T09:37:23Z</time>
      </trkpt>
      <trkpt lat="44.19728" lon="1.73412">
        <ele>225</ele>
        <time>2011-03-27T09:37:26Z</time>
      </trkpt>
      <trkpt lat="44.19728" lon="1.73412">
        <ele>225</ele>
        <time>2011-03-27T09:37:28Z</time>
      </trkpt>
      <trkpt lat="44.1973" lon="1.73437">
        <ele>222</ele>
        <time>2011-03-27T09:37:32Z</time>
      </trkpt>
      <trkpt lat="44.19717" lon="1.7345">
        <ele>221</ele>
        <time>2011-03-27T09:37:35Z</time>
      </trkpt>
      <trkpt lat="44.19703" lon="1.73464">
        <ele>220</ele>
        <time>2011-03-27T09:37:38Z</time>
      </trkpt>
      <trkpt lat="44.19692" lon="1.73478">
        <ele>219</ele>
        <time>2011-03-27T09:37:41Z</time>
      </trkpt>
      <trkpt lat="44.19682" lon="1.73506">
        <ele>218</ele>
        <time>2011-03-27T09:37:44Z</time>
      </trkpt>
      <trkpt lat="44.1968" lon="1.73531">
        <ele>220</ele>
        <time>2011-03-27T09:37:46Z</time>
      </trkpt>
      <trkpt lat="44.19679" lon="1.73569">
        <ele>220</ele>
        <time>2011-03-27T09:37:49Z</time>
      </trkpt>
      <trkpt lat="44.1968" lon="1.73592">
        <ele>220</ele>
        <time>2011-03-27T09:37:51Z</time>
      </trkpt>
      <trkpt lat="44.19681" lon="1.73619">
        <ele>223</ele>
        <time>2011-03-27T09:37:54Z</time>
      </trkpt>
      <trkpt lat="44.19679" lon="1.73644">
        <ele>222</ele>
        <time>2011-03-27T09:37:57Z</time>
      </trkpt>
      <trkpt lat="44.19676" lon="1.7367">
        <ele>217</ele>
        <time>2011-03-27T09:38:00Z</time>
      </trkpt>
      <trkpt lat="44.19678" lon="1.73693">
        <ele>219</ele>
        <time>2011-03-27T09:38:03Z</time>
      </trkpt>
      <trkpt lat="44.19677" lon="1.73719">
        <ele>217</ele>
        <time>2011-03-27T09:38:06Z</time>
      </trkpt>
      <trkpt lat="44.19674" lon="1.73746">
        <ele>212</ele>
        <time>2011-03-27T09:38:09Z</time>
      </trkpt>
      <trkpt lat="44.19671" lon="1.73774">
        <ele>210</ele>
        <time>2011-03-27T09:38:12Z</time>
      </trkpt>
      <trkpt lat="44.19669" lon="1.73792">
        <ele>209</ele>
        <time>2011-03-27T09:38:14Z</time>
      </trkpt>
      <trkpt lat="44.19669" lon="1.73819">
        <ele>206</ele>
        <time>2011-03-27T09:38:17Z</time>
      </trkpt>
      <trkpt lat="44.19668" lon="1.73837">
        <ele>204</ele>
        <time>2011-03-27T09:38:19Z</time>
      </trkpt>
      <trkpt lat="44.1967" lon="1.7386">
        <ele>205</ele>
        <time>2011-03-27T09:38:22Z</time>
      </trkpt>
      <trkpt lat="44.19673" lon="1.73878">
        <ele>205</ele>
        <time>2011-03-27T09:38:25Z</time>
      </trkpt>
      <trkpt lat="44.19673" lon="1.73891">
        <ele>205</ele>
        <time>2011-03-27T09:38:28Z</time>
      </trkpt>
      <trkpt lat="44.19666" lon="1.73904">
        <ele>207</ele>
        <time>2011-03-27T09:38:32Z</time>
      </trkpt>
      <trkpt lat="44.19656" lon="1.73917">
        <ele>207</ele>
        <time>2011-03-27T09:38:35Z</time>
      </trkpt>
      <trkpt lat="44.1965" lon="1.73933">
        <ele>208</ele>
        <time>2011-03-27T09:38:38Z</time>
      </trkpt>
      <trkpt lat="44.19645" lon="1.73949">
        <ele>210</ele>
        <time>2011-03-27T09:38:41Z</time>
      </trkpt>
      <trkpt lat="44.19643" lon="1.73967">
        <ele>210</ele>
        <time>2011-03-27T09:38:44Z</time>
      </trkpt>
      <trkpt lat="44.19638" lon="1.73985">
        <ele>210</ele>
        <time>2011-03-27T09:38:47Z</time>
      </trkpt>
      <trkpt lat="44.19632" lon="1.74001">
        <ele>211</ele>
        <time>2011-03-27T09:38:50Z</time>
      </trkpt>
      <trkpt lat="44.19626" lon="1.74018">
        <ele>211</ele>
        <time>2011-03-27T09:38:53Z</time>
      </trkpt>
      <trkpt lat="44.19619" lon="1.74035">
        <ele>211</ele>
        <time>2011-03-27T09:38:56Z</time>
      </trkpt>
      <trkpt lat="44.19614" lon="1.74047">
        <ele>211</ele>
        <time>2011-03-27T09:38:58Z</time>
      </trkpt>
      <trkpt lat="44.196" lon="1.74068">
        <ele>208</ele>
        <time>2011-03-27T09:39:01Z</time>
      </trkpt>
      <trkpt lat="44.19586" lon="1.74076">
        <ele>203</ele>
        <time>2011-03-27T09:39:03Z</time>
      </trkpt>
      <trkpt lat="44.19567" lon="1.74086">
        <ele>201</ele>
        <time>2011-03-27T09:39:06Z</time>
      </trkpt>
      <trkpt lat="44.19554" lon="1.74095">
        <ele>202</ele>
        <time>2011-03-27T09:39:09Z</time>
      </trkpt>
      <trkpt lat="44.19543" lon="1.74103">
        <ele>203</ele>
        <time>2011-03-27T09:39:12Z</time>
      </trkpt>
      <trkpt lat="44.19533" lon="1.74103">
        <ele>203</ele>
        <time>2011-03-27T09:39:14Z</time>
      </trkpt>
      <trkpt lat="44.1952" lon="1.74107">
        <ele>203</ele>
        <time>2011-03-27T09:39:17Z</time>
      </trkpt>
      <trkpt lat="44.1952" lon="1.74107">
        <ele>203</ele>
        <time>2011-03-27T09:39:20Z</time>
      </trkpt>
      <trkpt lat="44.19497" lon="1.74117">
        <ele>206</ele>
        <time>2011-03-27T09:39:41Z</time>
      </trkpt>
      <trkpt lat="44.1949" lon="1.74125">
        <ele>205</ele>
        <time>2011-03-27T09:39:44Z</time>
      </trkpt>
      <trkpt lat="44.1948" lon="1.7413">
        <ele>205</ele>
        <time>2011-03-27T09:39:47Z</time>
      </trkpt>
      <trkpt lat="44.1947" lon="1.74136">
        <ele>205</ele>
        <time>2011-03-27T09:39:51Z</time>
      </trkpt>
      <trkpt lat="44.1946" lon="1.74138">
        <ele>205</ele>
        <time>2011-03-27T09:39:55Z</time>
      </trkpt>
      <trkpt lat="44.19451" lon="1.74142">
        <ele>205</ele>
        <time>2011-03-27T09:39:58Z</time>
      </trkpt>
      <trkpt lat="44.19441" lon="1.7415">
        <ele>204</ele>
        <time>2011-03-27T09:40:01Z</time>
      </trkpt>
      <trkpt lat="44.19431" lon="1.74155">
        <ele>203</ele>
        <time>2011-03-27T09:40:04Z</time>
      </trkpt>
      <trkpt lat="44.19421" lon="1.74159">
        <ele>201</ele>
        <time>2011-03-27T09:40:07Z</time>
      </trkpt>
      <trkpt lat="44.19413" lon="1.74164">
        <ele>201</ele>
        <time>2011-03-27T09:40:10Z</time>
      </trkpt>
      <trkpt lat="44.19403" lon="1.74169">
        <ele>200</ele>
        <time>2011-03-27T09:40:13Z</time>
      </trkpt>
      <trkpt lat="44.19391" lon="1.74177">
        <ele>200</ele>
        <time>2011-03-27T09:40:16Z</time>
      </trkpt>
      <trkpt lat="44.19379" lon="1.74187">
        <ele>200</ele>
        <time>2011-03-27T09:40:19Z</time>
      </trkpt>
      <trkpt lat="44.19368" lon="1.74197">
        <ele>200</ele>
        <time>2011-03-27T09:40:22Z</time>
      </trkpt>
      <trkpt lat="44.19358" lon="1.74207">
        <ele>199</ele>
        <time>2011-03-27T09:40:25Z</time>
      </trkpt>
      <trkpt lat="44.19348" lon="1.74216">
        <ele>199</ele>
        <time>2011-03-27T09:40:28Z</time>
      </trkpt>
      <trkpt lat="44.19338" lon="1.74221">
        <ele>199</ele>
        <time>2011-03-27T09:40:33Z</time>
      </trkpt>
      <trkpt lat="44.19338" lon="1.74221">
        <ele>199</ele>
        <time>2011-03-27T09:40:35Z</time>
      </trkpt>
      <trkpt lat="44.1931" lon="1.74209">
        <ele>201</ele>
        <time>2011-03-27T09:40:49Z</time>
      </trkpt>
      <trkpt lat="44.19305" lon="1.74196">
        <ele>201</ele>
        <time>2011-03-27T09:40:54Z</time>
      </trkpt>
      <trkpt lat="44.19303" lon="1.74182">
        <ele>201</ele>
        <time>2011-03-27T09:40:58Z</time>
      </trkpt>
      <trkpt lat="44.19299" lon="1.74168">
        <ele>200</ele>
        <time>2011-03-27T09:41:04Z</time>
      </trkpt>
      <trkpt lat="44.19296" lon="1.74155">
        <ele>200</ele>
        <time>2011-03-27T09:41:08Z</time>
      </trkpt>
      <trkpt lat="44.19292" lon="1.74142">
        <ele>200</ele>
        <time>2011-03-27T09:41:12Z</time>
      </trkpt>
      <trkpt lat="44.19289" lon="1.74129">
        <ele>200</ele>
        <time>2011-03-27T09:41:16Z</time>
      </trkpt>
      <trkpt lat="44.19286" lon="1.74116">
        <ele>200</ele>
        <time>2011-03-27T09:41:20Z</time>
      </trkpt>
      <trkpt lat="44.19285" lon="1.74102">
        <ele>200</ele>
        <time>2011-03-27T09:41:23Z</time>
      </trkpt>
      <trkpt lat="44.19282" lon="1.74087">
        <ele>199</ele>
        <time>2011-03-27T09:41:26Z</time>
      </trkpt>
      <trkpt lat="44.19279" lon="1.74067">
        <ele>202</ele>
        <time>2011-03-27T09:41:29Z</time>
      </trkpt>
      <trkpt lat="44.19277" lon="1.7405">
        <ele>203</ele>
        <time>2011-03-27T09:41:32Z</time>
      </trkpt>
      <trkpt lat="44.19273" lon="1.74037">
        <ele>203</ele>
        <time>2011-03-27T09:41:35Z</time>
      </trkpt>
      <trkpt lat="44.1927" lon="1.74022">
        <ele>202</ele>
        <time>2011-03-27T09:41:38Z</time>
      </trkpt>
      <trkpt lat="44.19267" lon="1.74009">
        <ele>200</ele>
        <time>2011-03-27T09:41:41Z</time>
      </trkpt>
      <trkpt lat="44.19263" lon="1.73995">
        <ele>203</ele>
        <time>2011-03-27T09:41:45Z</time>
      </trkpt>
      <trkpt lat="44.19259" lon="1.73981">
        <ele>206</ele>
        <time>2011-03-27T09:41:49Z</time>
      </trkpt>
      <trkpt lat="44.19253" lon="1.73969">
        <ele>209</ele>
        <time>2011-03-27T09:41:53Z</time>
      </trkpt>
      <trkpt lat="44.19247" lon="1.73959">
        <ele>197</ele>
        <time>2011-03-27T09:41:56Z</time>
      </trkpt>
      <trkpt lat="44.19239" lon="1.73948">
        <ele>198</ele>
        <time>2011-03-27T09:42:00Z</time>
      </trkpt>
      <trkpt lat="44.1923" lon="1.73941">
        <ele>198</ele>
        <time>2011-03-27T09:42:03Z</time>
      </trkpt>
      <trkpt lat="44.19222" lon="1.73934">
        <ele>198</ele>
        <time>2011-03-27T09:42:07Z</time>
      </trkpt>
      <trkpt lat="44.19215" lon="1.73925">
        <ele>197</ele>
        <time>2011-03-27T09:42:10Z</time>
      </trkpt>
      <trkpt lat="44.19206" lon="1.73914">
        <ele>205</ele>
        <time>2011-03-27T09:42:13Z</time>
      </trkpt>
      <trkpt lat="44.19194" lon="1.7391">
        <ele>203</ele>
        <time>2011-03-27T09:42:16Z</time>
      </trkpt>
      <trkpt lat="44.19183" lon="1.73907">
        <ele>200</ele>
        <time>2011-03-27T09:42:19Z</time>
      </trkpt>
      <trkpt lat="44.19171" lon="1.73905">
        <ele>197</ele>
        <time>2011-03-27T09:42:22Z</time>
      </trkpt>
      <trkpt lat="44.1916" lon="1.73912">
        <ele>192</ele>
        <time>2011-03-27T09:42:25Z</time>
      </trkpt>
      <trkpt lat="44.19147" lon="1.73915">
        <ele>196</ele>
        <time>2011-03-27T09:42:28Z</time>
      </trkpt>
      <trkpt lat="44.19138" lon="1.73917">
        <ele>191</ele>
        <time>2011-03-27T09:42:31Z</time>
      </trkpt>
      <trkpt lat="44.19127" lon="1.73921">
        <ele>191</ele>
        <time>2011-03-27T09:42:35Z</time>
      </trkpt>
      <trkpt lat="44.19116" lon="1.73926">
        <ele>191</ele>
        <time>2011-03-27T09:42:39Z</time>
      </trkpt>
      <trkpt lat="44.19106" lon="1.73926">
        <ele>191</ele>
        <time>2011-03-27T09:42:44Z</time>
      </trkpt>
      <trkpt lat="44.19095" lon="1.73928">
        <ele>190</ele>
        <time>2011-03-27T09:42:50Z</time>
      </trkpt>
      <trkpt lat="44.19086" lon="1.73928">
        <ele>190</ele>
        <time>2011-03-27T09:42:56Z</time>
      </trkpt>
      <trkpt lat="44.19075" lon="1.73927">
        <ele>190</ele>
        <time>2011-03-27T09:43:00Z</time>
      </trkpt>
      <trkpt lat="44.19064" lon="1.73928">
        <ele>190</ele>
        <time>2011-03-27T09:43:04Z</time>
      </trkpt>
      <trkpt lat="44.19055" lon="1.73929">
        <ele>191</ele>
        <time>2011-03-27T09:43:08Z</time>
      </trkpt>
      <trkpt lat="44.19045" lon="1.73929">
        <ele>191</ele>
        <time>2011-03-27T09:43:11Z</time>
      </trkpt>
      <trkpt lat="44.19035" lon="1.73929">
        <ele>191</ele>
        <time>2011-03-27T09:43:15Z</time>
      </trkpt>
      <trkpt lat="44.19025" lon="1.73927">
        <ele>190</ele>
        <time>2011-03-27T09:43:18Z</time>
      </trkpt>
      <trkpt lat="44.19013" lon="1.73922">
        <ele>189</ele>
        <time>2011-03-27T09:43:21Z</time>
      </trkpt>
      <trkpt lat="44.19001" lon="1.73918">
        <ele>186</ele>
        <time>2011-03-27T09:43:24Z</time>
      </trkpt>
      <trkpt lat="44.18988" lon="1.73912">
        <ele>188</ele>
        <time>2011-03-27T09:43:27Z</time>
      </trkpt>
      <trkpt lat="44.18975" lon="1.73908">
        <ele>189</ele>
        <time>2011-03-27T09:43:30Z</time>
      </trkpt>
      <trkpt lat="44.18964" lon="1.73906">
        <ele>189</ele>
        <time>2011-03-27T09:43:33Z</time>
      </trkpt>
      <trkpt lat="44.18954" lon="1.73907">
        <ele>189</ele>
        <time>2011-03-27T09:43:37Z</time>
      </trkpt>
      <trkpt lat="44.18944" lon="1.73908">
        <ele>188</ele>
        <time>2011-03-27T09:43:40Z</time>
      </trkpt>
      <trkpt lat="44.18933" lon="1.73911">
        <ele>187</ele>
        <time>2011-03-27T09:43:43Z</time>
      </trkpt>
      <trkpt lat="44.18919" lon="1.7391">
        <ele>185</ele>
        <time>2011-03-27T09:43:46Z</time>
      </trkpt>
      <trkpt lat="44.18904" lon="1.73907">
        <ele>184</ele>
        <time>2011-03-27T09:43:49Z</time>
      </trkpt>
      <trkpt lat="44.18892" lon="1.73903">
        <ele>184</ele>
        <time>2011-03-27T09:43:51Z</time>
      </trkpt>
      <trkpt lat="44.18881" lon="1.73898">
        <ele>184</ele>
        <time>2011-03-27T09:43:53Z</time>
      </trkpt>
      <trkpt lat="44.18866" lon="1.73896">
        <ele>184</ele>
        <time>2011-03-27T09:43:56Z</time>
      </trkpt>
      <trkpt lat="44.18851" lon="1.73901">
        <ele>183</ele>
        <time>2011-03-27T09:43:59Z</time>
      </trkpt>
      <trkpt lat="44.18841" lon="1.73906">
        <ele>182</ele>
        <time>2011-03-27T09:44:02Z</time>
      </trkpt>
      <trkpt lat="44.18833" lon="1.73912">
        <ele>182</ele>
        <time>2011-03-27T09:44:06Z</time>
      </trkpt>
      <trkpt lat="44.18823" lon="1.7392">
        <ele>181</ele>
        <time>2011-03-27T09:44:10Z</time>
      </trkpt>
      <trkpt lat="44.18816" lon="1.73931">
        <ele>182</ele>
        <time>2011-03-27T09:44:13Z</time>
      </trkpt>
      <trkpt lat="44.1881" lon="1.73942">
        <ele>183</ele>
        <time>2011-03-27T09:44:16Z</time>
      </trkpt>
      <trkpt lat="44.18804" lon="1.73953">
        <ele>184</ele>
        <time>2011-03-27T09:44:19Z</time>
      </trkpt>
      <trkpt lat="44.18797" lon="1.73967">
        <ele>184</ele>
        <time>2011-03-27T09:44:22Z</time>
      </trkpt>
      <trkpt lat="44.18787" lon="1.73974">
        <ele>183</ele>
        <time>2011-03-27T09:44:25Z</time>
      </trkpt>
      <trkpt lat="44.18778" lon="1.73982">
        <ele>183</ele>
        <time>2011-03-27T09:44:28Z</time>
      </trkpt>
      <trkpt lat="44.18767" lon="1.73985">
        <ele>182</ele>
        <time>2011-03-27T09:44:32Z</time>
      </trkpt>
      <trkpt lat="44.18756" lon="1.73985">
        <ele>181</ele>
        <time>2011-03-27T09:44:35Z</time>
      </trkpt>
      <trkpt lat="44.18744" lon="1.73987">
        <ele>184</ele>
        <time>2011-03-27T09:44:38Z</time>
      </trkpt>
      <trkpt lat="44.18731" lon="1.73986">
        <ele>185</ele>
        <time>2011-03-27T09:44:41Z</time>
      </trkpt>
      <trkpt lat="44.18719" lon="1.73987">
        <ele>187</ele>
        <time>2011-03-27T09:44:44Z</time>
      </trkpt>
      <trkpt lat="44.18708" lon="1.73988">
        <ele>187</ele>
        <time>2011-03-27T09:44:47Z</time>
      </trkpt>
      <trkpt lat="44.18696" lon="1.73992">
        <ele>187</ele>
        <time>2011-03-27T09:44:50Z</time>
      </trkpt>
      <trkpt lat="44.18686" lon="1.73998">
        <ele>186</ele>
        <time>2011-03-27T09:44:52Z</time>
      </trkpt>
      <trkpt lat="44.18677" lon="1.74007">
        <ele>182</ele>
        <time>2011-03-27T09:44:54Z</time>
      </trkpt>
      <trkpt lat="44.18665" lon="1.74016">
        <ele>181</ele>
        <time>2011-03-27T09:44:57Z</time>
      </trkpt>
      <trkpt lat="44.18651" lon="1.74023">
        <ele>181</ele>
        <time>2011-03-27T09:45:00Z</time>
      </trkpt>
      <trkpt lat="44.18642" lon="1.74026">
        <ele>181</ele>
        <time>2011-03-27T09:45:02Z</time>
      </trkpt>
      <trkpt lat="44.18627" lon="1.74032">
        <ele>181</ele>
        <time>2011-03-27T09:45:05Z</time>
      </trkpt>
      <trkpt lat="44.18611" lon="1.74035">
        <ele>181</ele>
        <time>2011-03-27T09:45:08Z</time>
      </trkpt>
      <trkpt lat="44.18601" lon="1.74036">
        <ele>181</ele>
        <time>2011-03-27T09:45:10Z</time>
      </trkpt>
      <trkpt lat="44.18591" lon="1.74036">
        <ele>181</ele>
        <time>2011-03-27T09:45:12Z</time>
      </trkpt>
      <trkpt lat="44.18577" lon="1.74034">
        <ele>180</ele>
        <time>2011-03-27T09:45:15Z</time>
      </trkpt>
      <trkpt lat="44.18568" lon="1.74034">
        <ele>180</ele>
        <time>2011-03-27T09:45:17Z</time>
      </trkpt>
      <trkpt lat="44.18559" lon="1.74035">
        <ele>180</ele>
        <time>2011-03-27T09:45:19Z</time>
      </trkpt>
      <trkpt lat="44.18544" lon="1.74034">
        <ele>179</ele>
        <time>2011-03-27T09:45:22Z</time>
      </trkpt>
      <trkpt lat="44.18529" lon="1.74029">
        <ele>179</ele>
        <time>2011-03-27T09:45:25Z</time>
      </trkpt>
      <trkpt lat="44.18516" lon="1.74025">
        <ele>179</ele>
        <time>2011-03-27T09:45:28Z</time>
      </trkpt>
      <trkpt lat="44.18501" lon="1.7402">
        <ele>180</ele>
        <time>2011-03-27T09:45:31Z</time>
      </trkpt>
      <trkpt lat="44.18489" lon="1.74019">
        <ele>179</ele>
        <time>2011-03-27T09:45:33Z</time>
      </trkpt>
      <trkpt lat="44.18468" lon="1.74019">
        <ele>179</ele>
        <time>2011-03-27T09:45:36Z</time>
      </trkpt>
      <trkpt lat="44.18453" lon="1.74018">
        <ele>179</ele>
        <time>2011-03-27T09:45:39Z</time>
      </trkpt>
      <trkpt lat="44.18439" lon="1.74017">
        <ele>180</ele>
        <time>2011-03-27T09:45:42Z</time>
      </trkpt>
      <trkpt lat="44.18425" lon="1.74017">
        <ele>181</ele>
        <time>2011-03-27T09:45:45Z</time>
      </trkpt>
      <trkpt lat="44.1841" lon="1.74016">
        <ele>182</ele>
        <time>2011-03-27T09:45:48Z</time>
      </trkpt>
      <trkpt lat="44.18395" lon="1.74027">
        <ele>180</ele>
        <time>2011-03-27T09:45:51Z</time>
      </trkpt>
      <trkpt lat="44.18374" lon="1.74042">
        <ele>178</ele>
        <time>2011-03-27T09:45:54Z</time>
      </trkpt>
      <trkpt lat="44.18362" lon="1.7405">
        <ele>177</ele>
        <time>2011-03-27T09:45:56Z</time>
      </trkpt>
      <trkpt lat="44.18345" lon="1.74058">
        <ele>176</ele>
        <time>2011-03-27T09:45:59Z</time>
      </trkpt>
      <trkpt lat="44.18335" lon="1.74062">
        <ele>175</ele>
        <time>2011-03-27T09:46:01Z</time>
      </trkpt>
      <trkpt lat="44.18319" lon="1.74066">
        <ele>174</ele>
        <time>2011-03-27T09:46:04Z</time>
      </trkpt>
      <trkpt lat="44.18304" lon="1.74071">
        <ele>175</ele>
        <time>2011-03-27T09:46:07Z</time>
      </trkpt>
      <trkpt lat="44.18292" lon="1.74077">
        <ele>175</ele>
        <time>2011-03-27T09:46:10Z</time>
      </trkpt>
      <trkpt lat="44.18285" lon="1.74096">
        <ele>169</ele>
        <time>2011-03-27T09:46:13Z</time>
      </trkpt>
      <trkpt lat="44.18282" lon="1.74119">
        <ele>169</ele>
        <time>2011-03-27T09:46:16Z</time>
      </trkpt>
      <trkpt lat="44.1828" lon="1.74134">
        <ele>168</ele>
        <time>2011-03-27T09:46:18Z</time>
      </trkpt>
      <trkpt lat="44.18275" lon="1.74153">
        <ele>168</ele>
        <time>2011-03-27T09:46:21Z</time>
      </trkpt>
      <trkpt lat="44.18275" lon="1.74153">
        <ele>168</ele>
        <time>2011-03-27T09:46:23Z</time>
      </trkpt>
      <trkpt lat="44.18275" lon="1.74153">
        <ele>168</ele>
        <time>2011-03-27T09:46:52Z</time>
      </trkpt>
      <trkpt lat="44.18263" lon="1.74176">
        <ele>169</ele>
        <time>2011-03-27T09:48:22Z</time>
      </trkpt>
      <trkpt lat="44.18252" lon="1.74194">
        <ele>170</ele>
        <time>2011-03-27T09:48:25Z</time>
      </trkpt>
      <trkpt lat="44.18244" lon="1.74214">
        <ele>176</ele>
        <time>2011-03-27T09:48:28Z</time>
      </trkpt>
      <trkpt lat="44.18237" lon="1.74236">
        <ele>175</ele>
        <time>2011-03-27T09:48:31Z</time>
      </trkpt>
      <trkpt lat="44.18233" lon="1.74251">
        <ele>175</ele>
        <time>2011-03-27T09:48:33Z</time>
      </trkpt>
      <trkpt lat="44.18229" lon="1.74267">
        <ele>178</ele>
        <time>2011-03-27T09:48:35Z</time>
      </trkpt>
      <trkpt lat="44.18222" lon="1.74289">
        <ele>180</ele>
        <time>2011-03-27T09:48:38Z</time>
      </trkpt>
      <trkpt lat="44.18218" lon="1.74303">
        <ele>181</ele>
        <time>2011-03-27T09:48:40Z</time>
      </trkpt>
      <trkpt lat="44.18214" lon="1.74317">
        <ele>181</ele>
        <time>2011-03-27T09:48:42Z</time>
      </trkpt>
      <trkpt lat="44.18211" lon="1.74338">
        <ele>180</ele>
        <time>2011-03-27T09:48:45Z</time>
      </trkpt>
      <trkpt lat="44.18208" lon="1.74351">
        <ele>180</ele>
        <time>2011-03-27T09:48:47Z</time>
      </trkpt>
      <trkpt lat="44.18202" lon="1.74371">
        <ele>180</ele>
        <time>2011-03-27T09:48:50Z</time>
      </trkpt>
      <trkpt lat="44.18196" lon="1.74393">
        <ele>180</ele>
        <time>2011-03-27T09:48:53Z</time>
      </trkpt>
      <trkpt lat="44.18187" lon="1.74415">
        <ele>180</ele>
        <time>2011-03-27T09:48:56Z</time>
      </trkpt>
      <trkpt lat="44.18179" lon="1.7443">
        <ele>178</ele>
        <time>2011-03-27T09:48:58Z</time>
      </trkpt>
      <trkpt lat="44.18167" lon="1.74449">
        <ele>186</ele>
        <time>2011-03-27T09:49:01Z</time>
      </trkpt>
      <trkpt lat="44.18159" lon="1.74461">
        <ele>185</ele>
        <time>2011-03-27T09:49:03Z</time>
      </trkpt>
      <trkpt lat="44.18152" lon="1.74473">
        <ele>184</ele>
        <time>2011-03-27T09:49:05Z</time>
      </trkpt>
      <trkpt lat="44.18146" lon="1.74485">
        <ele>183</ele>
        <time>2011-03-27T09:49:07Z</time>
      </trkpt>
      <trkpt lat="44.18139" lon="1.74499">
        <ele>184</ele>
        <time>2011-03-27T09:49:10Z</time>
      </trkpt>
      <trkpt lat="44.18128" lon="1.74518">
        <ele>177</ele>
        <time>2011-03-27T09:49:13Z</time>
      </trkpt>
      <trkpt lat="44.18118" lon="1.74536">
        <ele>177</ele>
        <time>2011-03-27T09:49:16Z</time>
      </trkpt>
      <trkpt lat="44.18105" lon="1.74553">
        <ele>176</ele>
        <time>2011-03-27T09:49:19Z</time>
      </trkpt>
      <trkpt lat="44.18096" lon="1.74565">
        <ele>175</ele>
        <time>2011-03-27T09:49:21Z</time>
      </trkpt>
      <trkpt lat="44.18081" lon="1.74581">
        <ele>174</ele>
        <time>2011-03-27T09:49:24Z</time>
      </trkpt>
      <trkpt lat="44.1807" lon="1.7459">
        <ele>172</ele>
        <time>2011-03-27T09:49:26Z</time>
      </trkpt>
      <trkpt lat="44.18053" lon="1.74602">
        <ele>173</ele>
        <time>2011-03-27T09:49:29Z</time>
      </trkpt>
      <trkpt lat="44.18042" lon="1.7461">
        <ele>173</ele>
        <time>2011-03-27T09:49:31Z</time>
      </trkpt>
      <trkpt lat="44.18031" lon="1.74617">
        <ele>173</ele>
        <time>2011-03-27T09:49:33Z</time>
      </trkpt>
      <trkpt lat="44.18015" lon="1.74629">
        <ele>172</ele>
        <time>2011-03-27T09:49:36Z</time>
      </trkpt>
      <trkpt lat="44.17998" lon="1.7464">
        <ele>177</ele>
        <time>2011-03-27T09:49:38Z</time>
      </trkpt>
      <trkpt lat="44.17983" lon="1.74649">
        <ele>176</ele>
        <time>2011-03-27T09:49:41Z</time>
      </trkpt>
      <trkpt lat="44.17973" lon="1.74655">
        <ele>177</ele>
        <time>2011-03-27T09:49:43Z</time>
      </trkpt>
      <trkpt lat="44.17966" lon="1.74663">
        <ele>177</ele>
        <time>2011-03-27T09:49:45Z</time>
      </trkpt>
      <trkpt lat="44.1796" lon="1.74681">
        <ele>164</ele>
        <time>2011-03-27T09:49:48Z</time>
      </trkpt>
      <trkpt lat="44.17951" lon="1.74702">
        <ele>163</ele>
        <time>2011-03-27T09:49:51Z</time>
      </trkpt>
      <trkpt lat="44.17942" lon="1.74714">
        <ele>163</ele>
        <time>2011-03-27T09:49:53Z</time>
      </trkpt>
      <trkpt lat="44.17932" lon="1.74729">
        <ele>161</ele>
        <time>2011-03-27T09:49:56Z</time>
      </trkpt>
      <trkpt lat="44.17924" lon="1.74739">
        <ele>160</ele>
        <time>2011-03-27T09:49:58Z</time>
      </trkpt>
      <trkpt lat="44.17912" lon="1.74757">
        <ele>157</ele>
        <time>2011-03-27T09:50:01Z</time>
      </trkpt>
      <trkpt lat="44.179" lon="1.74774">
        <ele>157</ele>
        <time>2011-03-27T09:50:04Z</time>
      </trkpt>
      <trkpt lat="44.17887" lon="1.74793">
        <ele>157</ele>
        <time>2011-03-27T09:50:07Z</time>
      </trkpt>
      <trkpt lat="44.17876" lon="1.74812">
        <ele>157</ele>
        <time>2011-03-27T09:50:10Z</time>
      </trkpt>
      <trkpt lat="44.17865" lon="1.7483">
        <ele>156</ele>
        <time>2011-03-27T09:50:13Z</time>
      </trkpt>
      <trkpt lat="44.17854" lon="1.74849">
        <ele>155</ele>
        <time>2011-03-27T09:50:16Z</time>
      </trkpt>
      <trkpt lat="44.17846" lon="1.74861">
        <ele>155</ele>
        <time>2011-03-27T09:50:18Z</time>
      </trkpt>
      <trkpt lat="44.17839" lon="1.74874">
        <ele>156</ele>
        <time>2011-03-27T09:50:20Z</time>
      </trkpt>
      <trkpt lat="44.17827" lon="1.74892">
        <ele>155</ele>
        <time>2011-03-27T09:50:23Z</time>
      </trkpt>
      <trkpt lat="44.17818" lon="1.74904">
        <ele>155</ele>
        <time>2011-03-27T09:50:25Z</time>
      </trkpt>
      <trkpt lat="44.1781" lon="1.74917">
        <ele>155</ele>
        <time>2011-03-27T09:50:27Z</time>
      </trkpt>
      <trkpt lat="44.17795" lon="1.74933">
        <ele>154</ele>
        <time>2011-03-27T09:50:30Z</time>
      </trkpt>
      <trkpt lat="44.17784" lon="1.74942">
        <ele>154</ele>
        <time>2011-03-27T09:50:32Z</time>
      </trkpt>
      <trkpt lat="44.17766" lon="1.74955">
        <ele>153</ele>
        <time>2011-03-27T09:50:35Z</time>
      </trkpt>
      <trkpt lat="44.17755" lon="1.74967">
        <ele>153</ele>
        <time>2011-03-27T09:50:37Z</time>
      </trkpt>
      <trkpt lat="44.17742" lon="1.74986">
        <ele>151</ele>
        <time>2011-03-27T09:50:40Z</time>
      </trkpt>
      <trkpt lat="44.17734" lon="1.75">
        <ele>150</ele>
        <time>2011-03-27T09:50:43Z</time>
      </trkpt>
      <trkpt lat="44.17736" lon="1.75013">
        <ele>149</ele>
        <time>2011-03-27T09:50:46Z</time>
      </trkpt>
      <trkpt lat="44.17746" lon="1.75026">
        <ele>149</ele>
        <time>2011-03-27T09:50:49Z</time>
      </trkpt>
      <trkpt lat="44.17755" lon="1.75034">
        <ele>151</ele>
        <time>2011-03-27T09:50:51Z</time>
      </trkpt>
      <trkpt lat="44.1777" lon="1.75044">
        <ele>151</ele>
        <time>2011-03-27T09:50:54Z</time>
      </trkpt>
      <trkpt lat="44.1778" lon="1.75052">
        <ele>151</ele>
        <time>2011-03-27T09:50:56Z</time>
      </trkpt>
      <trkpt lat="44.1779" lon="1.75059">
        <ele>151</ele>
        <time>2011-03-27T09:50:58Z</time>
      </trkpt>
      <trkpt lat="44.17805" lon="1.75069">
        <ele>150</ele>
        <time>2011-03-27T09:51:01Z</time>
      </trkpt>
      <trkpt lat="44.17819" lon="1.75077">
        <ele>150</ele>
        <time>2011-03-27T09:51:04Z</time>
      </trkpt>
      <trkpt lat="44.17833" lon="1.75087">
        <ele>149</ele>
        <time>2011-03-27T09:51:07Z</time>
      </trkpt>
      <trkpt lat="44.17846" lon="1.75096">
        <ele>148</ele>
        <time>2011-03-27T09:51:10Z</time>
      </trkpt>
      <trkpt lat="44.17856" lon="1.751">
        <ele>148</ele>
        <time>2011-03-27T09:51:12Z</time>
      </trkpt>
      <trkpt lat="44.17871" lon="1.75102">
        <ele>148</ele>
        <time>2011-03-27T09:51:15Z</time>
      </trkpt>
      <trkpt lat="44.17881" lon="1.75102">
        <ele>149</ele>
        <time>2011-03-27T09:51:17Z</time>
      </trkpt>
      <trkpt lat="44.17896" lon="1.75103">
        <ele>149</ele>
        <time>2011-03-27T09:51:20Z</time>
      </trkpt>
      <trkpt lat="44.17908" lon="1.75106">
        <ele>150</ele>
        <time>2011-03-27T09:51:22Z</time>
      </trkpt>
      <trkpt lat="44.17924" lon="1.75125">
        <ele>153</ele>
        <time>2011-03-27T09:51:25Z</time>
      </trkpt>
      <trkpt lat="44.17938" lon="1.75157">
        <ele>151</ele>
        <time>2011-03-27T09:51:28Z</time>
      </trkpt>
      <trkpt lat="44.17951" lon="1.75192">
        <ele>145</ele>
        <time>2011-03-27T09:51:31Z</time>
      </trkpt>
      <trkpt lat="44.1796" lon="1.75216">
        <ele>145</ele>
        <time>2011-03-27T09:51:33Z</time>
      </trkpt>
      <trkpt lat="44.1797" lon="1.75245">
        <ele>144</ele>
        <time>2011-03-27T09:51:36Z</time>
      </trkpt>
      <trkpt lat="44.17976" lon="1.75261">
        <ele>143</ele>
        <time>2011-03-27T09:51:38Z</time>
      </trkpt>
      <trkpt lat="44.1798" lon="1.75283">
        <ele>143</ele>
        <time>2011-03-27T09:51:41Z</time>
      </trkpt>
      <trkpt lat="44.17984" lon="1.75304">
        <ele>142</ele>
        <time>2011-03-27T09:51:44Z</time>
      </trkpt>
      <trkpt lat="44.17988" lon="1.75327">
        <ele>142</ele>
        <time>2011-03-27T09:51:47Z</time>
      </trkpt>
      <trkpt lat="44.17991" lon="1.75349">
        <ele>143</ele>
        <time>2011-03-27T09:51:50Z</time>
      </trkpt>
      <trkpt lat="44.17995" lon="1.75371">
        <ele>143</ele>
        <time>2011-03-27T09:51:53Z</time>
      </trkpt>
      <trkpt lat="44.17999" lon="1.75385">
        <ele>143</ele>
        <time>2011-03-27T09:51:55Z</time>
      </trkpt>
      <trkpt lat="44.18004" lon="1.75407">
        <ele>142</ele>
        <time>2011-03-27T09:51:58Z</time>
      </trkpt>
      <trkpt lat="44.18008" lon="1.7542">
        <ele>143</ele>
        <time>2011-03-27T09:52:00Z</time>
      </trkpt>
      <trkpt lat="44.18012" lon="1.75441">
        <ele>143</ele>
        <time>2011-03-27T09:52:03Z</time>
      </trkpt>
      <trkpt lat="44.18015" lon="1.75462">
        <ele>144</ele>
        <time>2011-03-27T09:52:06Z</time>
      </trkpt>
      <trkpt lat="44.18015" lon="1.75484">
        <ele>144</ele>
        <time>2011-03-27T09:52:09Z</time>
      </trkpt>
      <trkpt lat="44.18013" lon="1.75498">
        <ele>145</ele>
        <time>2011-03-27T09:52:11Z</time>
      </trkpt>
      <trkpt lat="44.18009" lon="1.75519">
        <ele>147</ele>
        <time>2011-03-27T09:52:14Z</time>
      </trkpt>
      <trkpt lat="44.18007" lon="1.75531">
        <ele>147</ele>
        <time>2011-03-27T09:52:16Z</time>
      </trkpt>
      <trkpt lat="44.18004" lon="1.75549">
        <ele>148</ele>
        <time>2011-03-27T09:52:19Z</time>
      </trkpt>
      <trkpt lat="44.18004" lon="1.75566">
        <ele>149</ele>
        <time>2011-03-27T09:52:22Z</time>
      </trkpt>
      <trkpt lat="44.18" lon="1.75582">
        <ele>151</ele>
        <time>2011-03-27T09:52:25Z</time>
      </trkpt>
      <trkpt lat="44.1799" lon="1.75588">
        <ele>154</ele>
        <time>2011-03-27T09:52:28Z</time>
      </trkpt>
      <trkpt lat="44.17979" lon="1.75583">
        <ele>153</ele>
        <time>2011-03-27T09:52:31Z</time>
      </trkpt>
      <trkpt lat="44.1797" lon="1.75574">
        <ele>153</ele>
        <time>2011-03-27T09:52:35Z</time>
      </trkpt>
      <trkpt lat="44.1796" lon="1.75565">
        <ele>154</ele>
        <time>2011-03-27T09:52:39Z</time>
      </trkpt>
      <trkpt lat="44.17951" lon="1.75556">
        <ele>154</ele>
        <time>2011-03-27T09:52:43Z</time>
      </trkpt>
      <trkpt lat="44.17943" lon="1.75549">
        <ele>154</ele>
        <time>2011-03-27T09:52:49Z</time>
      </trkpt>
      <trkpt lat="44.17936" lon="1.7554">
        <ele>155</ele>
        <time>2011-03-27T09:52:55Z</time>
      </trkpt>
      <trkpt lat="44.1793" lon="1.7553">
        <ele>155</ele>
        <time>2011-03-27T09:53:01Z</time>
      </trkpt>
      <trkpt lat="44.17924" lon="1.75521">
        <ele>155</ele>
        <time>2011-03-27T09:53:06Z</time>
      </trkpt>
      <trkpt lat="44.17915" lon="1.75514">
        <ele>162</ele>
        <time>2011-03-27T09:53:10Z</time>
      </trkpt>
      <trkpt lat="44.17906" lon="1.75505">
        <ele>162</ele>
        <time>2011-03-27T09:53:14Z</time>
      </trkpt>
      <trkpt lat="44.17898" lon="1.75494">
        <ele>160</ele>
        <time>2011-03-27T09:53:17Z</time>
      </trkpt>
      <trkpt lat="44.17887" lon="1.75482">
        <ele>162</ele>
        <time>2011-03-27T09:53:20Z</time>
      </trkpt>
      <trkpt lat="44.17878" lon="1.75469">
        <ele>162</ele>
        <time>2011-03-27T09:53:23Z</time>
      </trkpt>
      <trkpt lat="44.17869" lon="1.75454">
        <ele>162</ele>
        <time>2011-03-27T09:53:26Z</time>
      </trkpt>
      <trkpt lat="44.17862" lon="1.75438">
        <ele>162</ele>
        <time>2011-03-27T09:53:29Z</time>
      </trkpt>
      <trkpt lat="44.17856" lon="1.75423">
        <ele>163</ele>
        <time>2011-03-27T09:53:32Z</time>
      </trkpt>
      <trkpt lat="44.17849" lon="1.75407">
        <ele>158</ele>
        <time>2011-03-27T09:53:35Z</time>
      </trkpt>
      <trkpt lat="44.17841" lon="1.75392">
        <ele>157</ele>
        <time>2011-03-27T09:53:38Z</time>
      </trkpt>
      <trkpt lat="44.17831" lon="1.75378">
        <ele>166</ele>
        <time>2011-03-27T09:53:41Z</time>
      </trkpt>
      <trkpt lat="44.1782" lon="1.75365">
        <ele>165</ele>
        <time>2011-03-27T09:53:44Z</time>
      </trkpt>
      <trkpt lat="44.17809" lon="1.75353">
        <ele>165</ele>
        <time>2011-03-27T09:53:47Z</time>
      </trkpt>
      <trkpt lat="44.17798" lon="1.75342">
        <ele>166</ele>
        <time>2011-03-27T09:53:50Z</time>
      </trkpt>
      <trkpt lat="44.17786" lon="1.75331">
        <ele>160</ele>
        <time>2011-03-27T09:53:53Z</time>
      </trkpt>
      <trkpt lat="44.17774" lon="1.75319">
        <ele>162</ele>
        <time>2011-03-27T09:53:56Z</time>
      </trkpt>
      <trkpt lat="44.17768" lon="1.75309">
        <ele>161</ele>
        <time>2011-03-27T09:53:58Z</time>
      </trkpt>
      <trkpt lat="44.17759" lon="1.75293">
        <ele>160</ele>
        <time>2011-03-27T09:54:01Z</time>
      </trkpt>
      <trkpt lat="44.17754" lon="1.75282">
        <ele>159</ele>
        <time>2011-03-27T09:54:03Z</time>
      </trkpt>
      <trkpt lat="44.17745" lon="1.75265">
        <ele>164</ele>
        <time>2011-03-27T09:54:06Z</time>
      </trkpt>
      <trkpt lat="44.17735" lon="1.7525">
        <ele>158</ele>
        <time>2011-03-27T09:54:09Z</time>
      </trkpt>
      <trkpt lat="44.17724" lon="1.75236">
        <ele>159</ele>
        <time>2011-03-27T09:54:12Z</time>
      </trkpt>
      <trkpt lat="44.17711" lon="1.75228">
        <ele>160</ele>
        <time>2011-03-27T09:54:15Z</time>
      </trkpt>
      <trkpt lat="44.17699" lon="1.7522">
        <ele>161</ele>
        <time>2011-03-27T09:54:18Z</time>
      </trkpt>
      <trkpt lat="44.17685" lon="1.75212">
        <ele>161</ele>
        <time>2011-03-27T09:54:21Z</time>
      </trkpt>
      <trkpt lat="44.17671" lon="1.75205">
        <ele>161</ele>
        <time>2011-03-27T09:54:24Z</time>
      </trkpt>
      <trkpt lat="44.17658" lon="1.75199">
        <ele>165</ele>
        <time>2011-03-27T09:54:27Z</time>
      </trkpt>
      <trkpt lat="44.17644" lon="1.75193">
        <ele>165</ele>
        <time>2011-03-27T09:54:30Z</time>
      </trkpt>
      <trkpt lat="44.1763" lon="1.75189">
        <ele>165</ele>
        <time>2011-03-27T09:54:33Z</time>
      </trkpt>
      <trkpt lat="44.17621" lon="1.75187">
        <ele>165</ele>
        <time>2011-03-27T09:54:35Z</time>
      </trkpt>
      <trkpt lat="44.17607" lon="1.75186">
        <ele>165</ele>
        <time>2011-03-27T09:54:38Z</time>
      </trkpt>
      <trkpt lat="44.17593" lon="1.75183">
        <ele>164</ele>
        <time>2011-03-27T09:54:41Z</time>
      </trkpt>
      <trkpt lat="44.1758" lon="1.75179">
        <ele>164</ele>
        <time>2011-03-27T09:54:44Z</time>
      </trkpt>
      <trkpt lat="44.17565" lon="1.75174">
        <ele>165</ele>
        <time>2011-03-27T09:54:47Z</time>
      </trkpt>
      <trkpt lat="44.17553" lon="1.75171">
        <ele>166</ele>
        <time>2011-03-27T09:54:49Z</time>
      </trkpt>
      <trkpt lat="44.17541" lon="1.75169">
        <ele>166</ele>
        <time>2011-03-27T09:54:51Z</time>
      </trkpt>
      <trkpt lat="44.17522" lon="1.7517">
        <ele>165</ele>
        <time>2011-03-27T09:54:54Z</time>
      </trkpt>
      <trkpt lat="44.17504" lon="1.75175">
        <ele>164</ele>
        <time>2011-03-27T09:54:57Z</time>
      </trkpt>
      <trkpt lat="44.17487" lon="1.75179">
        <ele>165</ele>
        <time>2011-03-27T09:55:00Z</time>
      </trkpt>
      <trkpt lat="44.17469" lon="1.75179">
        <ele>166</ele>
        <time>2011-03-27T09:55:03Z</time>
      </trkpt>
      <trkpt lat="44.17458" lon="1.75175">
        <ele>166</ele>
        <time>2011-03-27T09:55:05Z</time>
      </trkpt>
      <trkpt lat="44.17441" lon="1.75169">
        <ele>165</ele>
        <time>2011-03-27T09:55:08Z</time>
      </trkpt>
      <trkpt lat="44.17431" lon="1.75163">
        <ele>159</ele>
        <time>2011-03-27T09:55:10Z</time>
      </trkpt>
      <trkpt lat="44.17414" lon="1.75156">
        <ele>160</ele>
        <time>2011-03-27T09:55:13Z</time>
      </trkpt>
      <trkpt lat="44.17403" lon="1.75152">
        <ele>159</ele>
        <time>2011-03-27T09:55:15Z</time>
      </trkpt>
      <trkpt lat="44.17391" lon="1.75148">
        <ele>158</ele>
        <time>2011-03-27T09:55:17Z</time>
      </trkpt>
      <trkpt lat="44.17374" lon="1.75142">
        <ele>157</ele>
        <time>2011-03-27T09:55:20Z</time>
      </trkpt>
      <trkpt lat="44.17363" lon="1.75139">
        <ele>157</ele>
        <time>2011-03-27T09:55:22Z</time>
      </trkpt>
      <trkpt lat="44.17351" lon="1.75136">
        <ele>157</ele>
        <time>2011-03-27T09:55:24Z</time>
      </trkpt>
      <trkpt lat="44.17334" lon="1.7513">
        <ele>157</ele>
        <time>2011-03-27T09:55:27Z</time>
      </trkpt>
      <trkpt lat="44.17323" lon="1.75126">
        <ele>156</ele>
        <time>2011-03-27T09:55:29Z</time>
      </trkpt>
      <trkpt lat="44.17312" lon="1.75122">
        <ele>156</ele>
        <time>2011-03-27T09:55:31Z</time>
      </trkpt>
      <trkpt lat="44.17295" lon="1.75116">
        <ele>156</ele>
        <time>2011-03-27T09:55:34Z</time>
      </trkpt>
      <trkpt lat="44.17283" lon="1.7511">
        <ele>155</ele>
        <time>2011-03-27T09:55:36Z</time>
      </trkpt>
      <trkpt lat="44.17267" lon="1.75103">
        <ele>154</ele>
        <time>2011-03-27T09:55:39Z</time>
      </trkpt>
      <trkpt lat="44.17249" lon="1.751">
        <ele>153</ele>
        <time>2011-03-27T09:55:42Z</time>
      </trkpt>
      <trkpt lat="44.17231" lon="1.75101">
        <ele>154</ele>
        <time>2011-03-27T09:55:45Z</time>
      </trkpt>
      <trkpt lat="44.17213" lon="1.75104">
        <ele>155</ele>
        <time>2011-03-27T09:55:48Z</time>
      </trkpt>
      <trkpt lat="44.17202" lon="1.75105">
        <ele>155</ele>
        <time>2011-03-27T09:55:50Z</time>
      </trkpt>
      <trkpt lat="44.17185" lon="1.75108">
        <ele>154</ele>
        <time>2011-03-27T09:55:53Z</time>
      </trkpt>
      <trkpt lat="44.17174" lon="1.75109">
        <ele>154</ele>
        <time>2011-03-27T09:55:55Z</time>
      </trkpt>
      <trkpt lat="44.17163" lon="1.75109">
        <ele>154</ele>
        <time>2011-03-27T09:55:57Z</time>
      </trkpt>
      <trkpt lat="44.17152" lon="1.75109">
        <ele>155</ele>
        <time>2011-03-27T09:55:59Z</time>
      </trkpt>
      <trkpt lat="44.17141" lon="1.75109">
        <ele>155</ele>
        <time>2011-03-27T09:56:01Z</time>
      </trkpt>
      <trkpt lat="44.17124" lon="1.75107">
        <ele>155</ele>
        <time>2011-03-27T09:56:04Z</time>
      </trkpt>
      <trkpt lat="44.17113" lon="1.75106">
        <ele>155</ele>
        <time>2011-03-27T09:56:06Z</time>
      </trkpt>
      <trkpt lat="44.17097" lon="1.75105">
        <ele>154</ele>
        <time>2011-03-27T09:56:09Z</time>
      </trkpt>
      <trkpt lat="44.17086" lon="1.75105">
        <ele>154</ele>
        <time>2011-03-27T09:56:11Z</time>
      </trkpt>
      <trkpt lat="44.1707" lon="1.75104">
        <ele>156</ele>
        <time>2011-03-27T09:56:14Z</time>
      </trkpt>
      <trkpt lat="44.17059" lon="1.75102">
        <ele>156</ele>
        <time>2011-03-27T09:56:16Z</time>
      </trkpt>
      <trkpt lat="44.17048" lon="1.75099">
        <ele>156</ele>
        <time>2011-03-27T09:56:18Z</time>
      </trkpt>
      <trkpt lat="44.17031" lon="1.75094">
        <ele>156</ele>
        <time>2011-03-27T09:56:21Z</time>
      </trkpt>
      <trkpt lat="44.1702" lon="1.75089">
        <ele>155</ele>
        <time>2011-03-27T09:56:23Z</time>
      </trkpt>
      <trkpt lat="44.17002" lon="1.75081">
        <ele>151</ele>
        <time>2011-03-27T09:56:26Z</time>
      </trkpt>
      <trkpt lat="44.16984" lon="1.75075">
        <ele>149</ele>
        <time>2011-03-27T09:56:29Z</time>
      </trkpt>
      <trkpt lat="44.16965" lon="1.75071">
        <ele>148</ele>
        <time>2011-03-27T09:56:32Z</time>
      </trkpt>
      <trkpt lat="44.16947" lon="1.75067">
        <ele>148</ele>
        <time>2011-03-27T09:56:35Z</time>
      </trkpt>
      <trkpt lat="44.16929" lon="1.75064">
        <ele>149</ele>
        <time>2011-03-27T09:56:38Z</time>
      </trkpt>
      <trkpt lat="44.16916" lon="1.75063">
        <ele>148</ele>
        <time>2011-03-27T09:56:40Z</time>
      </trkpt>
      <trkpt lat="44.16897" lon="1.75063">
        <ele>147</ele>
        <time>2011-03-27T09:56:43Z</time>
      </trkpt>
      <trkpt lat="44.16877" lon="1.75064">
        <ele>146</ele>
        <time>2011-03-27T09:56:46Z</time>
      </trkpt>
      <trkpt lat="44.16863" lon="1.75068">
        <ele>145</ele>
        <time>2011-03-27T09:56:48Z</time>
      </trkpt>
      <trkpt lat="44.16849" lon="1.75073">
        <ele>146</ele>
        <time>2011-03-27T09:56:50Z</time>
      </trkpt>
      <trkpt lat="44.16834" lon="1.75078">
        <ele>147</ele>
        <time>2011-03-27T09:56:52Z</time>
      </trkpt>
      <trkpt lat="44.16807" lon="1.7509">
        <ele>149</ele>
        <time>2011-03-27T09:56:55Z</time>
      </trkpt>
      <trkpt lat="44.1679" lon="1.75096">
        <ele>148</ele>
        <time>2011-03-27T09:56:57Z</time>
      </trkpt>
      <trkpt lat="44.16778" lon="1.75101">
        <ele>147</ele>
        <time>2011-03-27T09:56:59Z</time>
      </trkpt>
      <trkpt lat="44.16766" lon="1.75112">
        <ele>148</ele>
        <time>2011-03-27T09:57:02Z</time>
      </trkpt>
      <trkpt lat="44.16761" lon="1.75124">
        <ele>149</ele>
        <time>2011-03-27T09:57:06Z</time>
      </trkpt>
      <trkpt lat="44.16756" lon="1.75138">
        <ele>151</ele>
        <time>2011-03-27T09:57:11Z</time>
      </trkpt>
      <trkpt lat="44.16754" lon="1.7515">
        <ele>152</ele>
        <time>2011-03-27T09:57:16Z</time>
      </trkpt>
      <trkpt lat="44.16753" lon="1.75164">
        <ele>154</ele>
        <time>2011-03-27T09:57:22Z</time>
      </trkpt>
      <trkpt lat="44.16747" lon="1.75175">
        <ele>156</ele>
        <time>2011-03-27T09:57:27Z</time>
      </trkpt>
      <trkpt lat="44.1674" lon="1.75185">
        <ele>158</ele>
        <time>2011-03-27T09:57:32Z</time>
      </trkpt>
      <trkpt lat="44.16732" lon="1.75193">
        <ele>159</ele>
        <time>2011-03-27T09:57:38Z</time>
      </trkpt>
      <trkpt lat="44.16723" lon="1.752">
        <ele>160</ele>
        <time>2011-03-27T09:57:45Z</time>
      </trkpt>
      <trkpt lat="44.16714" lon="1.75206">
        <ele>160</ele>
        <time>2011-03-27T09:57:52Z</time>
      </trkpt>
      <trkpt lat="44.16706" lon="1.75214">
        <ele>161</ele>
        <time>2011-03-27T09:58:00Z</time>
      </trkpt>
      <trkpt lat="44.16699" lon="1.75223">
        <ele>162</ele>
        <time>2011-03-27T09:58:07Z</time>
      </trkpt>
      <trkpt lat="44.16692" lon="1.75231">
        <ele>162</ele>
        <time>2011-03-27T09:58:15Z</time>
      </trkpt>
      <trkpt lat="44.16684" lon="1.75239">
        <ele>163</ele>
        <time>2011-03-27T09:58:21Z</time>
      </trkpt>
      <trkpt lat="44.16678" lon="1.75251">
        <ele>171</ele>
        <time>2011-03-27T09:58:27Z</time>
      </trkpt>
      <trkpt lat="44.1667" lon="1.75259">
        <ele>171</ele>
        <time>2011-03-27T09:58:34Z</time>
      </trkpt>
      <trkpt lat="44.16662" lon="1.75268">
        <ele>165</ele>
        <time>2011-03-27T09:58:41Z</time>
      </trkpt>
      <trkpt lat="44.16656" lon="1.75279">
        <ele>166</ele>
        <time>2011-03-27T09:58:46Z</time>
      </trkpt>
      <trkpt lat="44.16652" lon="1.75292">
        <ele>167</ele>
        <time>2011-03-27T09:58:51Z</time>
      </trkpt>
      <trkpt lat="44.16646" lon="1.75303">
        <ele>168</ele>
        <time>2011-03-27T09:58:55Z</time>
      </trkpt>
      <trkpt lat="44.16636" lon="1.75313">
        <ele>167</ele>
        <time>2011-03-27T09:58:59Z</time>
      </trkpt>
      <trkpt lat="44.16628" lon="1.75327">
        <ele>167</ele>
        <time>2011-03-27T09:59:02Z</time>
      </trkpt>
      <trkpt lat="44.16619" lon="1.75344">
        <ele>180</ele>
        <time>2011-03-27T09:59:05Z</time>
      </trkpt>
      <trkpt lat="44.16612" lon="1.75352">
        <ele>180</ele>
        <time>2011-03-27T09:59:07Z</time>
      </trkpt>
      <trkpt lat="44.16602" lon="1.75362">
        <ele>180</ele>
        <time>2011-03-27T09:59:10Z</time>
      </trkpt>
      <trkpt lat="44.16591" lon="1.75371">
        <ele>181</ele>
        <time>2011-03-27T09:59:13Z</time>
      </trkpt>
      <trkpt lat="44.16578" lon="1.75374">
        <ele>170</ele>
        <time>2011-03-27T09:59:16Z</time>
      </trkpt>
      <trkpt lat="44.16569" lon="1.75379">
        <ele>171</ele>
        <time>2011-03-27T09:59:18Z</time>
      </trkpt>
      <trkpt lat="44.16561" lon="1.75384">
        <ele>171</ele>
        <time>2011-03-27T09:59:21Z</time>
      </trkpt>
      <trkpt lat="44.1655" lon="1.75392">
        <ele>171</ele>
        <time>2011-03-27T09:59:25Z</time>
      </trkpt>
      <trkpt lat="44.1654" lon="1.75397">
        <ele>171</ele>
        <time>2011-03-27T09:59:29Z</time>
      </trkpt>
      <trkpt lat="44.1653" lon="1.75398">
        <ele>170</ele>
        <time>2011-03-27T09:59:34Z</time>
      </trkpt>
      <trkpt lat="44.16519" lon="1.75398">
        <ele>169</ele>
        <time>2011-03-27T09:59:39Z</time>
      </trkpt>
      <trkpt lat="44.16519" lon="1.75398">
        <ele>169</ele>
        <time>2011-03-27T09:59:40Z</time>
      </trkpt>
      <trkpt lat="44.16519" lon="1.75398">
        <ele>169</ele>
        <time>2011-03-27T10:00:09Z</time>
      </trkpt>
      <trkpt lat="44.16491" lon="1.75401">
        <ele>163</ele>
        <time>2011-03-27T10:00:59Z</time>
      </trkpt>
      <trkpt lat="44.16481" lon="1.754">
        <ele>161</ele>
        <time>2011-03-27T10:01:04Z</time>
      </trkpt>
      <trkpt lat="44.16471" lon="1.75401">
        <ele>160</ele>
        <time>2011-03-27T10:01:08Z</time>
      </trkpt>
      <trkpt lat="44.16463" lon="1.75406">
        <ele>159</ele>
        <time>2011-03-27T10:01:13Z</time>
      </trkpt>
      <trkpt lat="44.16455" lon="1.75413">
        <ele>158</ele>
        <time>2011-03-27T10:01:20Z</time>
      </trkpt>
      <trkpt lat="44.16447" lon="1.75422">
        <ele>168</ele>
        <time>2011-03-27T10:01:24Z</time>
      </trkpt>
      <trkpt lat="44.1644" lon="1.75431">
        <ele>167</ele>
        <time>2011-03-27T10:01:29Z</time>
      </trkpt>
      <trkpt lat="44.1644" lon="1.75431">
        <ele>167</ele>
        <time>2011-03-27T10:01:30Z</time>
      </trkpt>
      <trkpt lat="44.1643" lon="1.75448">
        <ele>169</ele>
        <time>2011-03-27T10:01:45Z</time>
      </trkpt>
      <trkpt lat="44.1642" lon="1.75455">
        <ele>169</ele>
        <time>2011-03-27T10:01:49Z</time>
      </trkpt>
      <trkpt lat="44.16411" lon="1.75467">
        <ele>159</ele>
        <time>2011-03-27T10:01:52Z</time>
      </trkpt>
      <trkpt lat="44.16403" lon="1.75481">
        <ele>161</ele>
        <time>2011-03-27T10:01:55Z</time>
      </trkpt>
      <trkpt lat="44.16396" lon="1.75491">
        <ele>161</ele>
        <time>2011-03-27T10:01:58Z</time>
      </trkpt>
      <trkpt lat="44.16387" lon="1.75498">
        <ele>159</ele>
        <time>2011-03-27T10:02:01Z</time>
      </trkpt>
      <trkpt lat="44.16377" lon="1.75507">
        <ele>166</ele>
        <time>2011-03-27T10:02:04Z</time>
      </trkpt>
      <trkpt lat="44.16368" lon="1.75521">
        <ele>165</ele>
        <time>2011-03-27T10:02:07Z</time>
      </trkpt>
      <trkpt lat="44.1636" lon="1.75532">
        <ele>165</ele>
        <time>2011-03-27T10:02:10Z</time>
      </trkpt>
      <trkpt lat="44.16354" lon="1.75542">
        <ele>166</ele>
        <time>2011-03-27T10:02:13Z</time>
      </trkpt>
      <trkpt lat="44.16349" lon="1.75559">
        <ele>166</ele>
        <time>2011-03-27T10:02:16Z</time>
      </trkpt>
      <trkpt lat="44.16344" lon="1.75571">
        <ele>166</ele>
        <time>2011-03-27T10:02:19Z</time>
      </trkpt>
      <trkpt lat="44.16339" lon="1.75586">
        <ele>168</ele>
        <time>2011-03-27T10:02:23Z</time>
      </trkpt>
      <trkpt lat="44.16331" lon="1.75608">
        <ele>161</ele>
        <time>2011-03-27T10:02:26Z</time>
      </trkpt>
      <trkpt lat="44.16321" lon="1.75627">
        <ele>162</ele>
        <time>2011-03-27T10:02:29Z</time>
      </trkpt>
      <trkpt lat="44.16314" lon="1.75638">
        <ele>163</ele>
        <time>2011-03-27T10:02:32Z</time>
      </trkpt>
      <trkpt lat="44.16304" lon="1.75635">
        <ele>161</ele>
        <time>2011-03-27T10:02:38Z</time>
      </trkpt>
      <trkpt lat="44.16294" lon="1.75632">
        <ele>159</ele>
        <time>2011-03-27T10:02:41Z</time>
      </trkpt>
      <trkpt lat="44.16282" lon="1.75635">
        <ele>158</ele>
        <time>2011-03-27T10:02:45Z</time>
      </trkpt>
      <trkpt lat="44.1627" lon="1.75641">
        <ele>157</ele>
        <time>2011-03-27T10:02:48Z</time>
      </trkpt>
      <trkpt lat="44.16258" lon="1.75648">
        <ele>156</ele>
        <time>2011-03-27T10:02:51Z</time>
      </trkpt>
      <trkpt lat="44.16246" lon="1.75654">
        <ele>148</ele>
        <time>2011-03-27T10:02:55Z</time>
      </trkpt>
      <trkpt lat="44.16234" lon="1.75661">
        <ele>148</ele>
        <time>2011-03-27T10:02:58Z</time>
      </trkpt>
      <trkpt lat="44.16223" lon="1.75667">
        <ele>150</ele>
        <time>2011-03-27T10:03:01Z</time>
      </trkpt>
      <trkpt lat="44.16215" lon="1.75678">
        <ele>150</ele>
        <time>2011-03-27T10:03:04Z</time>
      </trkpt>
      <trkpt lat="44.1621" lon="1.75689">
        <ele>150</ele>
        <time>2011-03-27T10:03:07Z</time>
      </trkpt>
      <trkpt lat="44.16206" lon="1.75702">
        <ele>150</ele>
        <time>2011-03-27T10:03:10Z</time>
      </trkpt>
      <trkpt lat="44.16201" lon="1.75715">
        <ele>150</ele>
        <time>2011-03-27T10:03:13Z</time>
      </trkpt>
      <trkpt lat="44.16192" lon="1.75725">
        <ele>150</ele>
        <time>2011-03-27T10:03:16Z</time>
      </trkpt>
      <trkpt lat="44.1618" lon="1.75738">
        <ele>148</ele>
        <time>2011-03-27T10:03:19Z</time>
      </trkpt>
      <trkpt lat="44.16171" lon="1.75749">
        <ele>147</ele>
        <time>2011-03-27T10:03:21Z</time>
      </trkpt>
      <trkpt lat="44.1616" lon="1.75763">
        <ele>146</ele>
        <time>2011-03-27T10:03:24Z</time>
      </trkpt>
      <trkpt lat="44.16151" lon="1.75777">
        <ele>146</ele>
        <time>2011-03-27T10:03:27Z</time>
      </trkpt>
      <trkpt lat="44.16143" lon="1.75786">
        <ele>146</ele>
        <time>2011-03-27T10:03:29Z</time>
      </trkpt>
      <trkpt lat="44.16131" lon="1.75796">
        <ele>146</ele>
        <time>2011-03-27T10:03:32Z</time>
      </trkpt>
      <trkpt lat="44.1612" lon="1.75811">
        <ele>145</ele>
        <time>2011-03-27T10:03:35Z</time>
      </trkpt>
      <trkpt lat="44.16111" lon="1.75829">
        <ele>144</ele>
        <time>2011-03-27T10:03:38Z</time>
      </trkpt>
      <trkpt lat="44.16104" lon="1.75839">
        <ele>146</ele>
        <time>2011-03-27T10:03:40Z</time>
      </trkpt>
      <trkpt lat="44.16101" lon="1.75851">
        <ele>146</ele>
        <time>2011-03-27T10:03:44Z</time>
      </trkpt>
      <trkpt lat="44.16101" lon="1.75851">
        <ele>146</ele>
        <time>2011-03-27T10:03:45Z</time>
      </trkpt>
      <trkpt lat="44.16088" lon="1.7586">
        <ele>146</ele>
        <time>2011-03-27T10:04:08Z</time>
      </trkpt>
      <trkpt lat="44.16078" lon="1.7587">
        <ele>142</ele>
        <time>2011-03-27T10:04:11Z</time>
      </trkpt>
      <trkpt lat="44.16069" lon="1.75887">
        <ele>142</ele>
        <time>2011-03-27T10:04:14Z</time>
      </trkpt>
      <trkpt lat="44.16061" lon="1.75894">
        <ele>142</ele>
        <time>2011-03-27T10:04:16Z</time>
      </trkpt>
      <trkpt lat="44.16052" lon="1.75897">
        <ele>142</ele>
        <time>2011-03-27T10:04:18Z</time>
      </trkpt>
      <trkpt lat="44.16042" lon="1.75897">
        <ele>143</ele>
        <time>2011-03-27T10:04:20Z</time>
      </trkpt>
      <trkpt lat="44.16026" lon="1.75896">
        <ele>143</ele>
        <time>2011-03-27T10:04:23Z</time>
      </trkpt>
      <trkpt lat="44.16012" lon="1.75893">
        <ele>143</ele>
        <time>2011-03-27T10:04:26Z</time>
      </trkpt>
      <trkpt lat="44.15999" lon="1.7589">
        <ele>144</ele>
        <time>2011-03-27T10:04:29Z</time>
      </trkpt>
      <trkpt lat="44.15986" lon="1.75886">
        <ele>144</ele>
        <time>2011-03-27T10:04:32Z</time>
      </trkpt>
      <trkpt lat="44.15973" lon="1.75884">
        <ele>144</ele>
        <time>2011-03-27T10:04:35Z</time>
      </trkpt>
      <trkpt lat="44.1596" lon="1.7588">
        <ele>144</ele>
        <time>2011-03-27T10:04:38Z</time>
      </trkpt>
      <trkpt lat="44.15946" lon="1.75874">
        <ele>144</ele>
        <time>2011-03-27T10:04:41Z</time>
      </trkpt>
      <trkpt lat="44.15936" lon="1.75871">
        <ele>144</ele>
        <time>2011-03-27T10:04:43Z</time>
      </trkpt>
      <trkpt lat="44.15927" lon="1.75868">
        <ele>143</ele>
        <time>2011-03-27T10:04:45Z</time>
      </trkpt>
      <trkpt lat="44.15912" lon="1.75863">
        <ele>143</ele>
        <time>2011-03-27T10:04:48Z</time>
      </trkpt>
      <trkpt lat="44.15897" lon="1.75858">
        <ele>143</ele>
        <time>2011-03-27T10:04:51Z</time>
      </trkpt>
      <trkpt lat="44.15881" lon="1.75853">
        <ele>143</ele>
        <time>2011-03-27T10:04:54Z</time>
      </trkpt>
      <trkpt lat="44.15865" lon="1.7585">
        <ele>143</ele>
        <time>2011-03-27T10:04:57Z</time>
      </trkpt>
      <trkpt lat="44.1585" lon="1.7585">
        <ele>142</ele>
        <time>2011-03-27T10:05:00Z</time>
      </trkpt>
      <trkpt lat="44.15836" lon="1.75852">
        <ele>142</ele>
        <time>2011-03-27T10:05:03Z</time>
      </trkpt>
      <trkpt lat="44.15821" lon="1.75856">
        <ele>141</ele>
        <time>2011-03-27T10:05:06Z</time>
      </trkpt>
      <trkpt lat="44.15806" lon="1.75861">
        <ele>142</ele>
        <time>2011-03-27T10:05:09Z</time>
      </trkpt>
      <trkpt lat="44.15796" lon="1.75863">
        <ele>142</ele>
        <time>2011-03-27T10:05:11Z</time>
      </trkpt>
      <trkpt lat="44.1578" lon="1.75865">
        <ele>142</ele>
        <time>2011-03-27T10:05:14Z</time>
      </trkpt>
      <trkpt lat="44.15763" lon="1.75865">
        <ele>142</ele>
        <time>2011-03-27T10:05:17Z</time>
      </trkpt>
      <trkpt lat="44.15749" lon="1.75866">
        <ele>141</ele>
        <time>2011-03-27T10:05:20Z</time>
      </trkpt>
      <trkpt lat="44.1574" lon="1.75867">
        <ele>141</ele>
        <time>2011-03-27T10:05:22Z</time>
      </trkpt>
      <trkpt lat="44.15723" lon="1.75872">
        <ele>141</ele>
        <time>2011-03-27T10:05:25Z</time>
      </trkpt>
      <trkpt lat="44.15705" lon="1.75877">
        <ele>141</ele>
        <time>2011-03-27T10:05:28Z</time>
      </trkpt>
      <trkpt lat="44.15688" lon="1.75874">
        <ele>141</ele>
        <time>2011-03-27T10:05:31Z</time>
      </trkpt>
      <trkpt lat="44.15671" lon="1.75865">
        <ele>141</ele>
        <time>2011-03-27T10:05:34Z</time>
      </trkpt>
      <trkpt lat="44.15661" lon="1.75856">
        <ele>140</ele>
        <time>2011-03-27T10:05:36Z</time>
      </trkpt>
      <trkpt lat="44.15645" lon="1.75842">
        <ele>140</ele>
        <time>2011-03-27T10:05:39Z</time>
      </trkpt>
      <trkpt lat="44.15634" lon="1.75832">
        <ele>136</ele>
        <time>2011-03-27T10:05:41Z</time>
      </trkpt>
      <trkpt lat="44.15614" lon="1.75818">
        <ele>136</ele>
        <time>2011-03-27T10:05:44Z</time>
      </trkpt>
      <trkpt lat="44.15594" lon="1.75809">
        <ele>136</ele>
        <time>2011-03-27T10:05:47Z</time>
      </trkpt>
      <trkpt lat="44.15572" lon="1.75804">
        <ele>135</ele>
        <time>2011-03-27T10:05:50Z</time>
      </trkpt>
      <trkpt lat="44.15558" lon="1.75801">
        <ele>135</ele>
        <time>2011-03-27T10:05:52Z</time>
      </trkpt>
      <trkpt lat="44.15537" lon="1.75795">
        <ele>135</ele>
        <time>2011-03-27T10:05:55Z</time>
      </trkpt>
      <trkpt lat="44.15516" lon="1.75788">
        <ele>135</ele>
        <time>2011-03-27T10:05:58Z</time>
      </trkpt>
      <trkpt lat="44.15502" lon="1.75783">
        <ele>135</ele>
        <time>2011-03-27T10:06:00Z</time>
      </trkpt>
      <trkpt lat="44.15481" lon="1.75774">
        <ele>135</ele>
        <time>2011-03-27T10:06:03Z</time>
      </trkpt>
      <trkpt lat="44.15461" lon="1.75764">
        <ele>135</ele>
        <time>2011-03-27T10:06:06Z</time>
      </trkpt>
      <trkpt lat="44.15441" lon="1.75754">
        <ele>134</ele>
        <time>2011-03-27T10:06:09Z</time>
      </trkpt>
      <trkpt lat="44.15421" lon="1.75744">
        <ele>132</ele>
        <time>2011-03-27T10:06:12Z</time>
      </trkpt>
      <trkpt lat="44.15402" lon="1.75735">
        <ele>132</ele>
        <time>2011-03-27T10:06:15Z</time>
      </trkpt>
      <trkpt lat="44.1539" lon="1.7573">
        <ele>132</ele>
        <time>2011-03-27T10:06:17Z</time>
      </trkpt>
      <trkpt lat="44.15379" lon="1.75725">
        <ele>133</ele>
        <time>2011-03-27T10:06:19Z</time>
      </trkpt>
      <trkpt lat="44.15367" lon="1.75718">
        <ele>133</ele>
        <time>2011-03-27T10:06:22Z</time>
      </trkpt>
      <trkpt lat="44.1536" lon="1.75707">
        <ele>133</ele>
        <time>2011-03-27T10:06:27Z</time>
      </trkpt>
      <trkpt lat="44.15354" lon="1.75696">
        <ele>133</ele>
        <time>2011-03-27T10:06:31Z</time>
      </trkpt>
      <trkpt lat="44.15347" lon="1.75686">
        <ele>133</ele>
        <time>2011-03-27T10:06:38Z</time>
      </trkpt>
      <trkpt lat="44.15347" lon="1.75686">
        <ele>133</ele>
        <time>2011-03-27T10:06:39Z</time>
      </trkpt>
      <trkpt lat="44.15334" lon="1.75677">
        <ele>133</ele>
        <time>2011-03-27T10:06:52Z</time>
      </trkpt>
      <trkpt lat="44.15325" lon="1.75671">
        <ele>134</ele>
        <time>2011-03-27T10:06:56Z</time>
      </trkpt>
      <trkpt lat="44.15325" lon="1.75671">
        <ele>134</ele>
        <time>2011-03-27T10:06:57Z</time>
      </trkpt>
      <trkpt lat="44.15312" lon="1.75655">
        <ele>133</ele>
        <time>2011-03-27T10:07:06Z</time>
      </trkpt>
      <trkpt lat="44.15307" lon="1.75644">
        <ele>134</ele>
        <time>2011-03-27T10:07:08Z</time>
      </trkpt>
      <trkpt lat="44.15307" lon="1.75626">
        <ele>133</ele>
        <time>2011-03-27T10:07:10Z</time>
      </trkpt>
      <trkpt lat="44.15308" lon="1.75605">
        <ele>133</ele>
        <time>2011-03-27T10:07:12Z</time>
      </trkpt>
      <trkpt lat="44.1531" lon="1.75583">
        <ele>130</ele>
        <time>2011-03-27T10:07:14Z</time>
      </trkpt>
      <trkpt lat="44.15312" lon="1.75551">
        <ele>130</ele>
        <time>2011-03-27T10:07:17Z</time>
      </trkpt>
      <trkpt lat="44.15314" lon="1.7553">
        <ele>130</ele>
        <time>2011-03-27T10:07:19Z</time>
      </trkpt>
      <trkpt lat="44.15318" lon="1.75495">
        <ele>128</ele>
        <time>2011-03-27T10:07:22Z</time>
      </trkpt>
      <trkpt lat="44.15322" lon="1.75462">
        <ele>128</ele>
        <time>2011-03-27T10:07:25Z</time>
      </trkpt>
      <trkpt lat="44.15324" lon="1.75432">
        <ele>127</ele>
        <time>2011-03-27T10:07:28Z</time>
      </trkpt>
      <trkpt lat="44.15327" lon="1.75404">
        <ele>125</ele>
        <time>2011-03-27T10:07:31Z</time>
      </trkpt>
      <trkpt lat="44.15327" lon="1.75387">
        <ele>125</ele>
        <time>2011-03-27T10:07:33Z</time>
      </trkpt>
      <trkpt lat="44.15321" lon="1.75374">
        <ele>124</ele>
        <time>2011-03-27T10:07:35Z</time>
      </trkpt>
      <trkpt lat="44.15307" lon="1.75356">
        <ele>124</ele>
        <time>2011-03-27T10:07:38Z</time>
      </trkpt>
      <trkpt lat="44.15292" lon="1.75341">
        <ele>124</ele>
        <time>2011-03-27T10:07:41Z</time>
      </trkpt>
      <trkpt lat="44.15276" lon="1.75327">
        <ele>123</ele>
        <time>2011-03-27T10:07:44Z</time>
      </trkpt>
      <trkpt lat="44.1526" lon="1.75316">
        <ele>123</ele>
        <time>2011-03-27T10:07:47Z</time>
      </trkpt>
      <trkpt lat="44.15242" lon="1.75316">
        <ele>123</ele>
        <time>2011-03-27T10:07:50Z</time>
      </trkpt>
      <trkpt lat="44.1523" lon="1.75315">
        <ele>123</ele>
        <time>2011-03-27T10:07:52Z</time>
      </trkpt>
      <trkpt lat="44.1521" lon="1.75312">
        <ele>124</ele>
        <time>2011-03-27T10:07:55Z</time>
      </trkpt>
      <trkpt lat="44.15188" lon="1.75305">
        <ele>124</ele>
        <time>2011-03-27T10:07:58Z</time>
      </trkpt>
      <trkpt lat="44.15174" lon="1.75305">
        <ele>124</ele>
        <time>2011-03-27T10:08:00Z</time>
      </trkpt>
      <trkpt lat="44.15158" lon="1.75307">
        <ele>125</ele>
        <time>2011-03-27T10:08:02Z</time>
      </trkpt>
      <trkpt lat="44.15145" lon="1.75317">
        <ele>125</ele>
        <time>2011-03-27T10:08:04Z</time>
      </trkpt>
      <trkpt lat="44.15129" lon="1.75333">
        <ele>125</ele>
        <time>2011-03-27T10:08:07Z</time>
      </trkpt>
      <trkpt lat="44.15116" lon="1.75348">
        <ele>126</ele>
        <time>2011-03-27T10:08:10Z</time>
      </trkpt>
      <trkpt lat="44.15105" lon="1.75351">
        <ele>126</ele>
        <time>2011-03-27T10:08:13Z</time>
      </trkpt>
      <trkpt lat="44.15105" lon="1.75351">
        <ele>126</ele>
        <time>2011-03-27T10:08:19Z</time>
      </trkpt>
      <trkpt lat="44.15105" lon="1.75351">
        <ele>126</ele>
        <time>2011-03-27T10:08:45Z</time>
      </trkpt>
      <trkpt lat="44.15096" lon="1.7537">
        <ele>127</ele>
        <time>2011-03-27T10:17:12Z</time>
      </trkpt>
      <trkpt lat="44.15093" lon="1.75383">
        <ele>127</ele>
        <time>2011-03-27T10:17:15Z</time>
      </trkpt>
      <trkpt lat="44.15085" lon="1.75401">
        <ele>127</ele>
        <time>2011-03-27T10:17:18Z</time>
      </trkpt>
      <trkpt lat="44.15079" lon="1.75412">
        <ele>128</ele>
        <time>2011-03-27T10:17:20Z</time>
      </trkpt>
      <trkpt lat="44.15072" lon="1.7543">
        <ele>128</ele>
        <time>2011-03-27T10:17:23Z</time>
      </trkpt>
      <trkpt lat="44.15066" lon="1.75446">
        <ele>128</ele>
        <time>2011-03-27T10:17:26Z</time>
      </trkpt>
      <trkpt lat="44.1506" lon="1.75467">
        <ele>128</ele>
        <time>2011-03-27T10:17:29Z</time>
      </trkpt>
      <trkpt lat="44.15057" lon="1.75483">
        <ele>128</ele>
        <time>2011-03-27T10:17:31Z</time>
      </trkpt>
      <trkpt lat="44.15051" lon="1.75505">
        <ele>128</ele>
        <time>2011-03-27T10:17:34Z</time>
      </trkpt>
      <trkpt lat="44.15045" lon="1.75515">
        <ele>128</ele>
        <time>2011-03-27T10:17:36Z</time>
      </trkpt>
      <trkpt lat="44.15032" lon="1.75525">
        <ele>127</ele>
        <time>2011-03-27T10:17:39Z</time>
      </trkpt>
      <trkpt lat="44.15021" lon="1.75521">
        <ele>127</ele>
        <time>2011-03-27T10:17:41Z</time>
      </trkpt>
      <trkpt lat="44.1501" lon="1.75516">
        <ele>126</ele>
        <time>2011-03-27T10:17:43Z</time>
      </trkpt>
      <trkpt lat="44.14994" lon="1.75508">
        <ele>127</ele>
        <time>2011-03-27T10:17:46Z</time>
      </trkpt>
      <trkpt lat="44.14979" lon="1.75503">
        <ele>129</ele>
        <time>2011-03-27T10:17:49Z</time>
      </trkpt>
      <trkpt lat="44.1497" lon="1.75499">
        <ele>133</ele>
        <time>2011-03-27T10:17:51Z</time>
      </trkpt>
      <trkpt lat="44.14959" lon="1.75492">
        <ele>135</ele>
        <time>2011-03-27T10:17:54Z</time>
      </trkpt>
      <trkpt lat="44.14949" lon="1.75498">
        <ele>136</ele>
        <time>2011-03-27T10:17:59Z</time>
      </trkpt>
      <trkpt lat="44.14948" lon="1.75513">
        <ele>134</ele>
        <time>2011-03-27T10:18:03Z</time>
      </trkpt>
      <trkpt lat="44.14946" lon="1.75531">
        <ele>134</ele>
        <time>2011-03-27T10:18:06Z</time>
      </trkpt>
      <trkpt lat="44.14944" lon="1.75555">
        <ele>134</ele>
        <time>2011-03-27T10:18:09Z</time>
      </trkpt>
      <trkpt lat="44.1494" lon="1.75584">
        <ele>133</ele>
        <time>2011-03-27T10:18:12Z</time>
      </trkpt>
      <trkpt lat="44.14932" lon="1.75611">
        <ele>133</ele>
        <time>2011-03-27T10:18:15Z</time>
      </trkpt>
      <trkpt lat="44.14923" lon="1.75635">
        <ele>132</ele>
        <time>2011-03-27T10:18:18Z</time>
      </trkpt>
      <trkpt lat="44.14913" lon="1.75657">
        <ele>137</ele>
        <time>2011-03-27T10:18:21Z</time>
      </trkpt>
      <trkpt lat="44.14906" lon="1.75671">
        <ele>134</ele>
        <time>2011-03-27T10:18:23Z</time>
      </trkpt>
      <trkpt lat="44.149" lon="1.75684">
        <ele>136</ele>
        <time>2011-03-27T10:18:25Z</time>
      </trkpt>
      <trkpt lat="44.14891" lon="1.75705">
        <ele>136</ele>
        <time>2011-03-27T10:18:28Z</time>
      </trkpt>
      <trkpt lat="44.14886" lon="1.75719">
        <ele>136</ele>
        <time>2011-03-27T10:18:30Z</time>
      </trkpt>
      <trkpt lat="44.14877" lon="1.7574">
        <ele>136</ele>
        <time>2011-03-27T10:18:33Z</time>
      </trkpt>
      <trkpt lat="44.14867" lon="1.75761">
        <ele>133</ele>
        <time>2011-03-27T10:18:36Z</time>
      </trkpt>
      <trkpt lat="44.14857" lon="1.75782">
        <ele>133</ele>
        <time>2011-03-27T10:18:39Z</time>
      </trkpt>
      <trkpt lat="44.14847" lon="1.75801">
        <ele>132</ele>
        <time>2011-03-27T10:18:42Z</time>
      </trkpt>
      <trkpt lat="44.14836" lon="1.75822">
        <ele>132</ele>
        <time>2011-03-27T10:18:45Z</time>
      </trkpt>
      <trkpt lat="44.14829" lon="1.75836">
        <ele>135</ele>
        <time>2011-03-27T10:18:47Z</time>
      </trkpt>
      <trkpt lat="44.14823" lon="1.7585">
        <ele>138</ele>
        <time>2011-03-27T10:18:49Z</time>
      </trkpt>
      <trkpt lat="44.14814" lon="1.7587">
        <ele>139</ele>
        <time>2011-03-27T10:18:52Z</time>
      </trkpt>
      <trkpt lat="44.14804" lon="1.75889">
        <ele>139</ele>
        <time>2011-03-27T10:18:55Z</time>
      </trkpt>
      <trkpt lat="44.14795" lon="1.75908">
        <ele>140</ele>
        <time>2011-03-27T10:18:58Z</time>
      </trkpt>
      <trkpt lat="44.14789" lon="1.75928">
        <ele>137</ele>
        <time>2011-03-27T10:19:01Z</time>
      </trkpt>
      <trkpt lat="44.14787" lon="1.7595">
        <ele>136</ele>
        <time>2011-03-27T10:19:04Z</time>
      </trkpt>
      <trkpt lat="44.14785" lon="1.75971">
        <ele>136</ele>
        <time>2011-03-27T10:19:07Z</time>
      </trkpt>
      <trkpt lat="44.14784" lon="1.75991">
        <ele>136</ele>
        <time>2011-03-27T10:19:10Z</time>
      </trkpt>
      <trkpt lat="44.14783" lon="1.76005">
        <ele>134</ele>
        <time>2011-03-27T10:19:12Z</time>
      </trkpt>
      <trkpt lat="44.14782" lon="1.76019">
        <ele>134</ele>
        <time>2011-03-27T10:19:14Z</time>
      </trkpt>
      <trkpt lat="44.14781" lon="1.76041">
        <ele>133</ele>
        <time>2011-03-27T10:19:17Z</time>
      </trkpt>
      <trkpt lat="44.14779" lon="1.76062">
        <ele>133</ele>
        <time>2011-03-27T10:19:20Z</time>
      </trkpt>
      <trkpt lat="44.14778" lon="1.76086">
        <ele>132</ele>
        <time>2011-03-27T10:19:23Z</time>
      </trkpt>
      <trkpt lat="44.14776" lon="1.7611">
        <ele>132</ele>
        <time>2011-03-27T10:19:26Z</time>
      </trkpt>
      <trkpt lat="44.14774" lon="1.76128">
        <ele>132</ele>
        <time>2011-03-27T10:19:28Z</time>
      </trkpt>
      <trkpt lat="44.14772" lon="1.76153">
        <ele>132</ele>
        <time>2011-03-27T10:19:31Z</time>
      </trkpt>
      <trkpt lat="44.14771" lon="1.76177">
        <ele>132</ele>
        <time>2011-03-27T10:19:34Z</time>
      </trkpt>
      <trkpt lat="44.14769" lon="1.76201">
        <ele>132</ele>
        <time>2011-03-27T10:19:37Z</time>
      </trkpt>
      <trkpt lat="44.1477" lon="1.76225">
        <ele>132</ele>
        <time>2011-03-27T10:19:40Z</time>
      </trkpt>
      <trkpt lat="44.1477" lon="1.76238">
        <ele>132</ele>
        <time>2011-03-27T10:19:42Z</time>
      </trkpt>
      <trkpt lat="44.1477" lon="1.76263">
        <ele>133</ele>
        <time>2011-03-27T10:19:45Z</time>
      </trkpt>
      <trkpt lat="44.14773" lon="1.76288">
        <ele>132</ele>
        <time>2011-03-27T10:19:48Z</time>
      </trkpt>
      <trkpt lat="44.14776" lon="1.76304">
        <ele>132</ele>
        <time>2011-03-27T10:19:50Z</time>
      </trkpt>
      <trkpt lat="44.14781" lon="1.76327">
        <ele>132</ele>
        <time>2011-03-27T10:19:53Z</time>
      </trkpt>
      <trkpt lat="44.14787" lon="1.76342">
        <ele>132</ele>
        <time>2011-03-27T10:19:55Z</time>
      </trkpt>
      <trkpt lat="44.14796" lon="1.76362">
        <ele>131</ele>
        <time>2011-03-27T10:19:58Z</time>
      </trkpt>
      <trkpt lat="44.14806" lon="1.76382">
        <ele>131</ele>
        <time>2011-03-27T10:20:01Z</time>
      </trkpt>
      <trkpt lat="44.14814" lon="1.76395">
        <ele>130</ele>
        <time>2011-03-27T10:20:03Z</time>
      </trkpt>
      <trkpt lat="44.14826" lon="1.76413">
        <ele>128</ele>
        <time>2011-03-27T10:20:06Z</time>
      </trkpt>
      <trkpt lat="44.14838" lon="1.76431">
        <ele>127</ele>
        <time>2011-03-27T10:20:09Z</time>
      </trkpt>
      <trkpt lat="44.1485" lon="1.7645">
        <ele>127</ele>
        <time>2011-03-27T10:20:12Z</time>
      </trkpt>
      <trkpt lat="44.14858" lon="1.76463">
        <ele>128</ele>
        <time>2011-03-27T10:20:14Z</time>
      </trkpt>
      <trkpt lat="44.14865" lon="1.76476">
        <ele>128</ele>
        <time>2011-03-27T10:20:16Z</time>
      </trkpt>
      <trkpt lat="44.14872" lon="1.76488">
        <ele>128</ele>
        <time>2011-03-27T10:20:18Z</time>
      </trkpt>
      <trkpt lat="44.14884" lon="1.76506">
        <ele>129</ele>
        <time>2011-03-27T10:20:21Z</time>
      </trkpt>
      <trkpt lat="44.14894" lon="1.76525">
        <ele>129</ele>
        <time>2011-03-27T10:20:24Z</time>
      </trkpt>
      <trkpt lat="44.14901" lon="1.76535">
        <ele>129</ele>
        <time>2011-03-27T10:20:26Z</time>
      </trkpt>
      <trkpt lat="44.14912" lon="1.76553">
        <ele>129</ele>
        <time>2011-03-27T10:20:29Z</time>
      </trkpt>
      <trkpt lat="44.14919" lon="1.76565">
        <ele>129</ele>
        <time>2011-03-27T10:20:31Z</time>
      </trkpt>
      <trkpt lat="44.14929" lon="1.76583">
        <ele>129</ele>
        <time>2011-03-27T10:20:34Z</time>
      </trkpt>
      <trkpt lat="44.14937" lon="1.76602">
        <ele>128</ele>
        <time>2011-03-27T10:20:37Z</time>
      </trkpt>
      <trkpt lat="44.14943" lon="1.76615">
        <ele>128</ele>
        <time>2011-03-27T10:20:39Z</time>
      </trkpt>
      <trkpt lat="44.1495" lon="1.76634">
        <ele>128</ele>
        <time>2011-03-27T10:20:42Z</time>
      </trkpt>
      <trkpt lat="44.14958" lon="1.76655">
        <ele>128</ele>
        <time>2011-03-27T10:20:45Z</time>
      </trkpt>
      <trkpt lat="44.14963" lon="1.76668">
        <ele>128</ele>
        <time>2011-03-27T10:20:47Z</time>
      </trkpt>
      <trkpt lat="44.14971" lon="1.76689">
        <ele>128</ele>
        <time>2011-03-27T10:20:50Z</time>
      </trkpt>
      <trkpt lat="44.14976" lon="1.76702">
        <ele>128</ele>
        <time>2011-03-27T10:20:52Z</time>
      </trkpt>
      <trkpt lat="44.14984" lon="1.76722">
        <ele>128</ele>
        <time>2011-03-27T10:20:55Z</time>
      </trkpt>
      <trkpt lat="44.1499" lon="1.76742">
        <ele>128</ele>
        <time>2011-03-27T10:20:58Z</time>
      </trkpt>
      <trkpt lat="44.14995" lon="1.76757">
        <ele>128</ele>
        <time>2011-03-27T10:21:00Z</time>
      </trkpt>
      <trkpt lat="44.15" lon="1.7677">
        <ele>129</ele>
        <time>2011-03-27T10:21:02Z</time>
      </trkpt>
      <trkpt lat="44.15004" lon="1.76783">
        <ele>129</ele>
        <time>2011-03-27T10:21:04Z</time>
      </trkpt>
      <trkpt lat="44.1501" lon="1.76803">
        <ele>129</ele>
        <time>2011-03-27T10:21:07Z</time>
      </trkpt>
      <trkpt lat="44.15014" lon="1.76821">
        <ele>129</ele>
        <time>2011-03-27T10:21:10Z</time>
      </trkpt>
      <trkpt lat="44.15008" lon="1.76838">
        <ele>129</ele>
        <time>2011-03-27T10:21:13Z</time>
      </trkpt>
      <trkpt lat="44.15003" lon="1.76849">
        <ele>129</ele>
        <time>2011-03-27T10:21:15Z</time>
      </trkpt>
      <trkpt lat="44.14998" lon="1.76859">
        <ele>129</ele>
        <time>2011-03-27T10:21:17Z</time>
      </trkpt>
      <trkpt lat="44.1499" lon="1.76874">
        <ele>130</ele>
        <time>2011-03-27T10:21:20Z</time>
      </trkpt>
      <trkpt lat="44.14981" lon="1.76885">
        <ele>130</ele>
        <time>2011-03-27T10:21:23Z</time>
      </trkpt>
      <trkpt lat="44.14973" lon="1.76892">
        <ele>130</ele>
        <time>2011-03-27T10:21:27Z</time>
      </trkpt>
      <trkpt lat="44.14973" lon="1.76892">
        <ele>130</ele>
        <time>2011-03-27T10:21:29Z</time>
      </trkpt>
      <trkpt lat="44.14965" lon="1.76909">
        <ele>130</ele>
        <time>2011-03-27T10:21:35Z</time>
      </trkpt>
      <trkpt lat="44.1497" lon="1.76927">
        <ele>131</ele>
        <time>2011-03-27T10:21:38Z</time>
      </trkpt>
      <trkpt lat="44.14973" lon="1.7694">
        <ele>131</ele>
        <time>2011-03-27T10:21:40Z</time>
      </trkpt>
      <trkpt lat="44.14978" lon="1.76957">
        <ele>132</ele>
        <time>2011-03-27T10:21:43Z</time>
      </trkpt>
      <trkpt lat="44.14981" lon="1.76975">
        <ele>132</ele>
        <time>2011-03-27T10:21:46Z</time>
      </trkpt>
      <trkpt lat="44.14981" lon="1.76988">
        <ele>132</ele>
        <time>2011-03-27T10:21:48Z</time>
      </trkpt>
      <trkpt lat="44.14978" lon="1.77006">
        <ele>133</ele>
        <time>2011-03-27T10:21:51Z</time>
      </trkpt>
      <trkpt lat="44.14977" lon="1.77018">
        <ele>134</ele>
        <time>2011-03-27T10:21:53Z</time>
      </trkpt>
      <trkpt lat="44.14977" lon="1.77036">
        <ele>134</ele>
        <time>2011-03-27T10:21:56Z</time>
      </trkpt>
      <trkpt lat="44.14977" lon="1.77049">
        <ele>135</ele>
        <time>2011-03-27T10:21:59Z</time>
      </trkpt>
      <trkpt lat="44.14974" lon="1.77063">
        <ele>135</ele>
        <time>2011-03-27T10:22:03Z</time>
      </trkpt>
      <trkpt lat="44.14968" lon="1.77073">
        <ele>135</ele>
        <time>2011-03-27T10:22:07Z</time>
      </trkpt>
      <trkpt lat="44.14963" lon="1.77084">
        <ele>137</ele>
        <time>2011-03-27T10:22:11Z</time>
      </trkpt>
      <trkpt lat="44.14957" lon="1.77095">
        <ele>137</ele>
        <time>2011-03-27T10:22:15Z</time>
      </trkpt>
      <trkpt lat="44.1495" lon="1.77105">
        <ele>138</ele>
        <time>2011-03-27T10:22:19Z</time>
      </trkpt>
      <trkpt lat="44.14944" lon="1.77115">
        <ele>138</ele>
        <time>2011-03-27T10:22:23Z</time>
      </trkpt>
      <trkpt lat="44.14937" lon="1.77125">
        <ele>138</ele>
        <time>2011-03-27T10:22:27Z</time>
      </trkpt>
      <trkpt lat="44.1493" lon="1.77136">
        <ele>139</ele>
        <time>2011-03-27T10:22:31Z</time>
      </trkpt>
      <trkpt lat="44.14924" lon="1.77147">
        <ele>139</ele>
        <time>2011-03-27T10:22:35Z</time>
      </trkpt>
      <trkpt lat="44.14918" lon="1.77158">
        <ele>140</ele>
        <time>2011-03-27T10:22:39Z</time>
      </trkpt>
      <trkpt lat="44.14912" lon="1.77168">
        <ele>142</ele>
        <time>2011-03-27T10:22:43Z</time>
      </trkpt>
      <trkpt lat="44.14906" lon="1.77177">
        <ele>145</ele>
        <time>2011-03-27T10:22:47Z</time>
      </trkpt>
      <trkpt lat="44.14898" lon="1.77186">
        <ele>146</ele>
        <time>2011-03-27T10:22:51Z</time>
      </trkpt>
      <trkpt lat="44.14889" lon="1.77195">
        <ele>148</ele>
        <time>2011-03-27T10:22:55Z</time>
      </trkpt>
      <trkpt lat="44.14881" lon="1.77203">
        <ele>148</ele>
        <time>2011-03-27T10:22:59Z</time>
      </trkpt>
      <trkpt lat="44.14873" lon="1.77212">
        <ele>149</ele>
        <time>2011-03-27T10:23:03Z</time>
      </trkpt>
      <trkpt lat="44.14867" lon="1.77223">
        <ele>150</ele>
        <time>2011-03-27T10:23:07Z</time>
      </trkpt>
      <trkpt lat="44.14861" lon="1.77234">
        <ele>151</ele>
        <time>2011-03-27T10:23:12Z</time>
      </trkpt>
      <trkpt lat="44.14856" lon="1.77247">
        <ele>152</ele>
        <time>2011-03-27T10:23:17Z</time>
      </trkpt>
      <trkpt lat="44.14851" lon="1.7726">
        <ele>153</ele>
        <time>2011-03-27T10:23:22Z</time>
      </trkpt>
      <trkpt lat="44.14847" lon="1.77272">
        <ele>153</ele>
        <time>2011-03-27T10:23:27Z</time>
      </trkpt>
      <trkpt lat="44.14844" lon="1.77285">
        <ele>153</ele>
        <time>2011-03-27T10:23:32Z</time>
      </trkpt>
      <trkpt lat="44.14842" lon="1.77298">
        <ele>153</ele>
        <time>2011-03-27T10:23:37Z</time>
      </trkpt>
      <trkpt lat="44.1484" lon="1.77311">
        <ele>154</ele>
        <time>2011-03-27T10:23:43Z</time>
      </trkpt>
      <trkpt lat="44.14837" lon="1.77325">
        <ele>156</ele>
        <time>2011-03-27T10:23:50Z</time>
      </trkpt>
      <trkpt lat="44.14832" lon="1.77336">
        <ele>159</ele>
        <time>2011-03-27T10:23:58Z</time>
      </trkpt>
      <trkpt lat="44.14827" lon="1.77348">
        <ele>161</ele>
        <time>2011-03-27T10:24:04Z</time>
      </trkpt>
      <trkpt lat="44.14823" lon="1.7736">
        <ele>162</ele>
        <time>2011-03-27T10:24:10Z</time>
      </trkpt>
      <trkpt lat="44.14816" lon="1.7737">
        <ele>163</ele>
        <time>2011-03-27T10:24:17Z</time>
      </trkpt>
      <trkpt lat="44.1481" lon="1.7738">
        <ele>163</ele>
        <time>2011-03-27T10:24:22Z</time>
      </trkpt>
      <trkpt lat="44.14802" lon="1.77388">
        <ele>164</ele>
        <time>2011-03-27T10:24:28Z</time>
      </trkpt>
      <trkpt lat="44.14796" lon="1.77399">
        <ele>164</ele>
        <time>2011-03-27T10:24:32Z</time>
      </trkpt>
      <trkpt lat="44.1479" lon="1.77408">
        <ele>165</ele>
        <time>2011-03-27T10:24:36Z</time>
      </trkpt>
      <trkpt lat="44.14783" lon="1.77417">
        <ele>165</ele>
        <time>2011-03-27T10:24:41Z</time>
      </trkpt>
      <trkpt lat="44.14776" lon="1.77426">
        <ele>166</ele>
        <time>2011-03-27T10:24:46Z</time>
      </trkpt>
      <trkpt lat="44.14773" lon="1.77441">
        <ele>166</ele>
        <time>2011-03-27T10:24:50Z</time>
      </trkpt>
      <trkpt lat="44.14775" lon="1.77457">
        <ele>165</ele>
        <time>2011-03-27T10:24:53Z</time>
      </trkpt>
      <trkpt lat="44.14778" lon="1.77469">
        <ele>165</ele>
        <time>2011-03-27T10:24:55Z</time>
      </trkpt>
      <trkpt lat="44.14785" lon="1.77487">
        <ele>164</ele>
        <time>2011-03-27T10:24:58Z</time>
      </trkpt>
      <trkpt lat="44.14791" lon="1.77501">
        <ele>165</ele>
        <time>2011-03-27T10:25:01Z</time>
      </trkpt>
      <trkpt lat="44.14795" lon="1.77514">
        <ele>165</ele>
        <time>2011-03-27T10:25:06Z</time>
      </trkpt>
      <trkpt lat="44.148" lon="1.77525">
        <ele>165</ele>
        <time>2011-03-27T10:25:13Z</time>
      </trkpt>
      <trkpt lat="44.148" lon="1.77539">
        <ele>166</ele>
        <time>2011-03-27T10:25:22Z</time>
      </trkpt>
      <trkpt lat="44.14796" lon="1.7755">
        <ele>166</ele>
        <time>2011-03-27T10:25:28Z</time>
      </trkpt>
      <trkpt lat="44.1479" lon="1.77562">
        <ele>167</ele>
        <time>2011-03-27T10:25:35Z</time>
      </trkpt>
      <trkpt lat="44.14784" lon="1.77573">
        <ele>168</ele>
        <time>2011-03-27T10:25:42Z</time>
      </trkpt>
      <trkpt lat="44.14784" lon="1.77586">
        <ele>170</ele>
        <time>2011-03-27T10:25:49Z</time>
      </trkpt>
      <trkpt lat="44.14782" lon="1.77601">
        <ele>170</ele>
        <time>2011-03-27T10:25:55Z</time>
      </trkpt>
      <trkpt lat="44.14778" lon="1.77613">
        <ele>171</ele>
        <time>2011-03-27T10:26:00Z</time>
      </trkpt>
      <trkpt lat="44.14769" lon="1.7762">
        <ele>171</ele>
        <time>2011-03-27T10:26:07Z</time>
      </trkpt>
      <trkpt lat="44.14762" lon="1.77628">
        <ele>172</ele>
        <time>2011-03-27T10:26:13Z</time>
      </trkpt>
      <trkpt lat="44.14753" lon="1.77633">
        <ele>173</ele>
        <time>2011-03-27T10:26:20Z</time>
      </trkpt>
      <trkpt lat="44.14744" lon="1.77641">
        <ele>185</ele>
        <time>2011-03-27T10:26:27Z</time>
      </trkpt>
      <trkpt lat="44.14738" lon="1.77651">
        <ele>185</ele>
        <time>2011-03-27T10:26:33Z</time>
      </trkpt>
      <trkpt lat="44.14736" lon="1.77665">
        <ele>184</ele>
        <time>2011-03-27T10:26:41Z</time>
      </trkpt>
      <trkpt lat="44.14736" lon="1.77678">
        <ele>188</ele>
        <time>2011-03-27T10:26:49Z</time>
      </trkpt>
      <trkpt lat="44.14736" lon="1.77678">
        <ele>188</ele>
        <time>2011-03-27T10:26:54Z</time>
      </trkpt>
      <trkpt lat="44.14708" lon="1.7769">
        <ele>196</ele>
        <time>2011-03-27T10:27:30Z</time>
      </trkpt>
      <trkpt lat="44.14699" lon="1.77696">
        <ele>198</ele>
        <time>2011-03-27T10:27:41Z</time>
      </trkpt>
      <trkpt lat="44.14689" lon="1.77698">
        <ele>199</ele>
        <time>2011-03-27T10:27:52Z</time>
      </trkpt>
      <trkpt lat="44.14682" lon="1.77705">
        <ele>201</ele>
        <time>2011-03-27T10:28:02Z</time>
      </trkpt>
      <trkpt lat="44.14682" lon="1.77705">
        <ele>201</ele>
        <time>2011-03-27T10:28:19Z</time>
      </trkpt>
      <trkpt lat="44.14682" lon="1.77705">
        <ele>201</ele>
        <time>2011-03-27T10:28:58Z</time>
      </trkpt>
      <trkpt lat="44.1469" lon="1.77743">
        <ele>204</ele>
        <time>2011-03-27T10:29:10Z</time>
      </trkpt>
      <trkpt lat="44.1469" lon="1.77743">
        <ele>204</ele>
        <time>2011-03-27T10:29:26Z</time>
      </trkpt>
      <trkpt lat="44.14703" lon="1.77788">
        <ele>213</ele>
        <time>2011-03-27T10:29:52Z</time>
      </trkpt>
      <trkpt lat="44.14703" lon="1.77788">
        <ele>213</ele>
        <time>2011-03-27T10:30:09Z</time>
      </trkpt>
      <trkpt lat="44.147" lon="1.77838">
        <ele>227</ele>
        <time>2011-03-27T10:30:51Z</time>
      </trkpt>
      <trkpt lat="44.147" lon="1.77851">
        <ele>227</ele>
        <time>2011-03-27T10:31:01Z</time>
      </trkpt>
      <trkpt lat="44.14699" lon="1.77863">
        <ele>228</ele>
        <time>2011-03-27T10:31:09Z</time>
      </trkpt>
      <trkpt lat="44.14699" lon="1.77876">
        <ele>229</ele>
        <time>2011-03-27T10:31:19Z</time>
      </trkpt>
      <trkpt lat="44.14698" lon="1.77889">
        <ele>230</ele>
        <time>2011-03-27T10:31:30Z</time>
      </trkpt>
      <trkpt lat="44.14696" lon="1.77902">
        <ele>232</ele>
        <time>2011-03-27T10:31:40Z</time>
      </trkpt>
      <trkpt lat="44.14694" lon="1.77916">
        <ele>234</ele>
        <time>2011-03-27T10:31:54Z</time>
      </trkpt>
      <trkpt lat="44.14692" lon="1.77928">
        <ele>238</ele>
        <time>2011-03-27T10:32:06Z</time>
      </trkpt>
      <trkpt lat="44.14688" lon="1.7794">
        <ele>238</ele>
        <time>2011-03-27T10:32:19Z</time>
      </trkpt>
      <trkpt lat="44.14686" lon="1.77953">
        <ele>238</ele>
        <time>2011-03-27T10:32:33Z</time>
      </trkpt>
      <trkpt lat="44.14684" lon="1.77966">
        <ele>239</ele>
        <time>2011-03-27T10:32:42Z</time>
      </trkpt>
      <trkpt lat="44.14682" lon="1.77978">
        <ele>241</ele>
        <time>2011-03-27T10:32:52Z</time>
      </trkpt>
      <trkpt lat="44.14677" lon="1.77989">
        <ele>245</ele>
        <time>2011-03-27T10:33:02Z</time>
      </trkpt>
      <trkpt lat="44.14674" lon="1.78002">
        <ele>249</ele>
        <time>2011-03-27T10:33:15Z</time>
      </trkpt>
      <trkpt lat="44.14672" lon="1.78015">
        <ele>244</ele>
        <time>2011-03-27T10:33:23Z</time>
      </trkpt>
      <trkpt lat="44.14669" lon="1.78027">
        <ele>240</ele>
        <time>2011-03-27T10:33:31Z</time>
      </trkpt>
      <trkpt lat="44.14665" lon="1.7804">
        <ele>265</ele>
        <time>2011-03-27T10:33:45Z</time>
      </trkpt>
      <trkpt lat="44.14662" lon="1.78052">
        <ele>264</ele>
        <time>2011-03-27T10:33:51Z</time>
      </trkpt>
      <trkpt lat="44.14657" lon="1.78065">
        <ele>262</ele>
        <time>2011-03-27T10:33:57Z</time>
      </trkpt>
      <trkpt lat="44.14654" lon="1.78078">
        <ele>259</ele>
        <time>2011-03-27T10:34:03Z</time>
      </trkpt>
      <trkpt lat="44.14651" lon="1.7809">
        <ele>253</ele>
        <time>2011-03-27T10:34:07Z</time>
      </trkpt>
      <trkpt lat="44.14649" lon="1.78103">
        <ele>253</ele>
        <time>2011-03-27T10:34:11Z</time>
      </trkpt>
      <trkpt lat="44.14645" lon="1.78115">
        <ele>253</ele>
        <time>2011-03-27T10:34:15Z</time>
      </trkpt>
      <trkpt lat="44.14639" lon="1.78126">
        <ele>252</ele>
        <time>2011-03-27T10:34:20Z</time>
      </trkpt>
      <trkpt lat="44.14629" lon="1.78131">
        <ele>254</ele>
        <time>2011-03-27T10:34:27Z</time>
      </trkpt>
      <trkpt lat="44.14621" lon="1.78138">
        <ele>255</ele>
        <time>2011-03-27T10:34:34Z</time>
      </trkpt>
      <trkpt lat="44.14613" lon="1.78148">
        <ele>256</ele>
        <time>2011-03-27T10:34:41Z</time>
      </trkpt>
      <trkpt lat="44.14605" lon="1.78155">
        <ele>257</ele>
        <time>2011-03-27T10:34:47Z</time>
      </trkpt>
      <trkpt lat="44.14597" lon="1.78164">
        <ele>259</ele>
        <time>2011-03-27T10:34:55Z</time>
      </trkpt>
      <trkpt lat="44.1459" lon="1.78174">
        <ele>250</ele>
        <time>2011-03-27T10:35:01Z</time>
      </trkpt>
      <trkpt lat="44.14585" lon="1.78185">
        <ele>243</ele>
        <time>2011-03-27T10:35:04Z</time>
      </trkpt>
      <trkpt lat="44.14576" lon="1.78197">
        <ele>259</ele>
        <time>2011-03-27T10:35:07Z</time>
      </trkpt>
      <trkpt lat="44.14568" lon="1.78206">
        <ele>257</ele>
        <time>2011-03-27T10:35:10Z</time>
      </trkpt>
      <trkpt lat="44.14558" lon="1.78212">
        <ele>258</ele>
        <time>2011-03-27T10:35:14Z</time>
      </trkpt>
      <trkpt lat="44.14548" lon="1.78217">
        <ele>259</ele>
        <time>2011-03-27T10:35:19Z</time>
      </trkpt>
      <trkpt lat="44.14539" lon="1.78225">
        <ele>259</ele>
        <time>2011-03-27T10:35:23Z</time>
      </trkpt>
      <trkpt lat="44.14531" lon="1.78234">
        <ele>260</ele>
        <time>2011-03-27T10:35:26Z</time>
      </trkpt>
      <trkpt lat="44.14524" lon="1.78245">
        <ele>261</ele>
        <time>2011-03-27T10:35:30Z</time>
      </trkpt>
      <trkpt lat="44.14517" lon="1.78254">
        <ele>245</ele>
        <time>2011-03-27T10:35:34Z</time>
      </trkpt>
      <trkpt lat="44.14508" lon="1.78263">
        <ele>246</ele>
        <time>2011-03-27T10:35:39Z</time>
      </trkpt>
      <trkpt lat="44.145" lon="1.78271">
        <ele>242</ele>
        <time>2011-03-27T10:35:43Z</time>
      </trkpt>
      <trkpt lat="44.14494" lon="1.78283">
        <ele>259</ele>
        <time>2011-03-27T10:35:48Z</time>
      </trkpt>
      <trkpt lat="44.14486" lon="1.78293">
        <ele>257</ele>
        <time>2011-03-27T10:35:52Z</time>
      </trkpt>
      <trkpt lat="44.14479" lon="1.78303">
        <ele>255</ele>
        <time>2011-03-27T10:35:57Z</time>
      </trkpt>
      <trkpt lat="44.1447" lon="1.78309">
        <ele>256</ele>
        <time>2011-03-27T10:36:04Z</time>
      </trkpt>
      <trkpt lat="44.14462" lon="1.78315">
        <ele>257</ele>
        <time>2011-03-27T10:36:08Z</time>
      </trkpt>
      <trkpt lat="44.14454" lon="1.78326">
        <ele>258</ele>
        <time>2011-03-27T10:36:12Z</time>
      </trkpt>
      <trkpt lat="44.14444" lon="1.78333">
        <ele>261</ele>
        <time>2011-03-27T10:36:16Z</time>
      </trkpt>
      <trkpt lat="44.14434" lon="1.78339">
        <ele>246</ele>
        <time>2011-03-27T10:36:21Z</time>
      </trkpt>
      <trkpt lat="44.14427" lon="1.78347">
        <ele>247</ele>
        <time>2011-03-27T10:36:25Z</time>
      </trkpt>
      <trkpt lat="44.14418" lon="1.78356">
        <ele>243</ele>
        <time>2011-03-27T10:36:30Z</time>
      </trkpt>
      <trkpt lat="44.1441" lon="1.78366">
        <ele>264</ele>
        <time>2011-03-27T10:36:34Z</time>
      </trkpt>
      <trkpt lat="44.14402" lon="1.78374">
        <ele>263</ele>
        <time>2011-03-27T10:36:38Z</time>
      </trkpt>
      <trkpt lat="44.14395" lon="1.78382">
        <ele>263</ele>
        <time>2011-03-27T10:36:42Z</time>
      </trkpt>
      <trkpt lat="44.14386" lon="1.7839">
        <ele>263</ele>
        <time>2011-03-27T10:36:47Z</time>
      </trkpt>
      <trkpt lat="44.14378" lon="1.78399">
        <ele>264</ele>
        <time>2011-03-27T10:36:53Z</time>
      </trkpt>
      <trkpt lat="44.14371" lon="1.78408">
        <ele>265</ele>
        <time>2011-03-27T10:36:58Z</time>
      </trkpt>
      <trkpt lat="44.14366" lon="1.78418">
        <ele>249</ele>
        <time>2011-03-27T10:37:02Z</time>
      </trkpt>
      <trkpt lat="44.1436" lon="1.78432">
        <ele>250</ele>
        <time>2011-03-27T10:37:07Z</time>
      </trkpt>
      <trkpt lat="44.14354" lon="1.78444">
        <ele>249</ele>
        <time>2011-03-27T10:37:11Z</time>
      </trkpt>
      <trkpt lat="44.14346" lon="1.78452">
        <ele>248</ele>
        <time>2011-03-27T10:37:15Z</time>
      </trkpt>
      <trkpt lat="44.14339" lon="1.7846">
        <ele>248</ele>
        <time>2011-03-27T10:37:19Z</time>
      </trkpt>
      <trkpt lat="44.14332" lon="1.7847">
        <ele>275</ele>
        <time>2011-03-27T10:37:23Z</time>
      </trkpt>
      <trkpt lat="44.14325" lon="1.78479">
        <ele>272</ele>
        <time>2011-03-27T10:37:27Z</time>
      </trkpt>
      <trkpt lat="44.1432" lon="1.78489">
        <ele>270</ele>
        <time>2011-03-27T10:37:31Z</time>
      </trkpt>
      <trkpt lat="44.14314" lon="1.78499">
        <ele>271</ele>
        <time>2011-03-27T10:37:35Z</time>
      </trkpt>
      <trkpt lat="44.14307" lon="1.78509">
        <ele>262</ele>
        <time>2011-03-27T10:37:40Z</time>
      </trkpt>
      <trkpt lat="44.14298" lon="1.78518">
        <ele>265</ele>
        <time>2011-03-27T10:37:45Z</time>
      </trkpt>
      <trkpt lat="44.1429" lon="1.78525">
        <ele>266</ele>
        <time>2011-03-27T10:37:50Z</time>
      </trkpt>
      <trkpt lat="44.14284" lon="1.78536">
        <ele>267</ele>
        <time>2011-03-27T10:37:56Z</time>
      </trkpt>
      <trkpt lat="44.14278" lon="1.78549">
        <ele>266</ele>
        <time>2011-03-27T10:38:02Z</time>
      </trkpt>
      <trkpt lat="44.14273" lon="1.7856">
        <ele>267</ele>
        <time>2011-03-27T10:38:08Z</time>
      </trkpt>
      <trkpt lat="44.14266" lon="1.78571">
        <ele>269</ele>
        <time>2011-03-27T10:38:14Z</time>
      </trkpt>
      <trkpt lat="44.1426" lon="1.78583">
        <ele>273</ele>
        <time>2011-03-27T10:38:19Z</time>
      </trkpt>
      <trkpt lat="44.14254" lon="1.78593">
        <ele>263</ele>
        <time>2011-03-27T10:38:23Z</time>
      </trkpt>
      <trkpt lat="44.14247" lon="1.78604">
        <ele>281</ele>
        <time>2011-03-27T10:38:28Z</time>
      </trkpt>
      <trkpt lat="44.14239" lon="1.78613">
        <ele>281</ele>
        <time>2011-03-27T10:38:33Z</time>
      </trkpt>
      <trkpt lat="44.14231" lon="1.78622">
        <ele>281</ele>
        <time>2011-03-27T10:38:37Z</time>
      </trkpt>
      <trkpt lat="44.14226" lon="1.78633">
        <ele>280</ele>
        <time>2011-03-27T10:38:41Z</time>
      </trkpt>
      <trkpt lat="44.1422" lon="1.78644">
        <ele>279</ele>
        <time>2011-03-27T10:38:46Z</time>
      </trkpt>
      <trkpt lat="44.14215" lon="1.78656">
        <ele>279</ele>
        <time>2011-03-27T10:38:53Z</time>
      </trkpt>
      <trkpt lat="44.14215" lon="1.78656">
        <ele>279</ele>
        <time>2011-03-27T10:39:04Z</time>
      </trkpt>
      <trkpt lat="44.14215" lon="1.78656">
        <ele>279</ele>
        <time>2011-03-27T10:39:23Z</time>
      </trkpt>
      <trkpt lat="44.14198" lon="1.78689">
        <ele>263</ele>
        <time>2011-03-27T10:39:50Z</time>
      </trkpt>
      <trkpt lat="44.14194" lon="1.787">
        <ele>262</ele>
        <time>2011-03-27T10:39:54Z</time>
      </trkpt>
      <trkpt lat="44.14188" lon="1.7871">
        <ele>261</ele>
        <time>2011-03-27T10:39:58Z</time>
      </trkpt>
      <trkpt lat="44.1418" lon="1.7872">
        <ele>261</ele>
        <time>2011-03-27T10:40:02Z</time>
      </trkpt>
      <trkpt lat="44.14172" lon="1.78733">
        <ele>261</ele>
        <time>2011-03-27T10:40:06Z</time>
      </trkpt>
      <trkpt lat="44.14165" lon="1.78742">
        <ele>276</ele>
        <time>2011-03-27T10:40:09Z</time>
      </trkpt>
      <trkpt lat="44.14158" lon="1.78752">
        <ele>269</ele>
        <time>2011-03-27T10:40:12Z</time>
      </trkpt>
      <trkpt lat="44.14151" lon="1.78762">
        <ele>271</ele>
        <time>2011-03-27T10:40:15Z</time>
      </trkpt>
      <trkpt lat="44.14144" lon="1.78772">
        <ele>273</ele>
        <time>2011-03-27T10:40:18Z</time>
      </trkpt>
      <trkpt lat="44.14137" lon="1.78782">
        <ele>274</ele>
        <time>2011-03-27T10:40:22Z</time>
      </trkpt>
      <trkpt lat="44.1413" lon="1.78791">
        <ele>274</ele>
        <time>2011-03-27T10:40:26Z</time>
      </trkpt>
      <trkpt lat="44.14123" lon="1.788">
        <ele>275</ele>
        <time>2011-03-27T10:40:31Z</time>
      </trkpt>
      <trkpt lat="44.14113" lon="1.78807">
        <ele>277</ele>
        <time>2011-03-27T10:40:36Z</time>
      </trkpt>
      <trkpt lat="44.14105" lon="1.78815">
        <ele>279</ele>
        <time>2011-03-27T10:40:40Z</time>
      </trkpt>
      <trkpt lat="44.14098" lon="1.78824">
        <ele>281</ele>
        <time>2011-03-27T10:40:44Z</time>
      </trkpt>
      <trkpt lat="44.14092" lon="1.78834">
        <ele>274</ele>
        <time>2011-03-27T10:40:48Z</time>
      </trkpt>
      <trkpt lat="44.14085" lon="1.78844">
        <ele>271</ele>
        <time>2011-03-27T10:40:52Z</time>
      </trkpt>
      <trkpt lat="44.14078" lon="1.78853">
        <ele>289</ele>
        <time>2011-03-27T10:40:56Z</time>
      </trkpt>
      <trkpt lat="44.1407" lon="1.78861">
        <ele>290</ele>
        <time>2011-03-27T10:41:01Z</time>
      </trkpt>
      <trkpt lat="44.14064" lon="1.7887">
        <ele>290</ele>
        <time>2011-03-27T10:41:07Z</time>
      </trkpt>
      <trkpt lat="44.14057" lon="1.78879">
        <ele>289</ele>
        <time>2011-03-27T10:41:14Z</time>
      </trkpt>
      <trkpt lat="44.14051" lon="1.78889">
        <ele>289</ele>
        <time>2011-03-27T10:41:20Z</time>
      </trkpt>
      <trkpt lat="44.14045" lon="1.78899">
        <ele>289</ele>
        <time>2011-03-27T10:41:26Z</time>
      </trkpt>
      <trkpt lat="44.14039" lon="1.78909">
        <ele>291</ele>
        <time>2011-03-27T10:41:34Z</time>
      </trkpt>
      <trkpt lat="44.14033" lon="1.7892">
        <ele>274</ele>
        <time>2011-03-27T10:41:41Z</time>
      </trkpt>
      <trkpt lat="44.14026" lon="1.78928">
        <ele>277</ele>
        <time>2011-03-27T10:41:47Z</time>
      </trkpt>
      <trkpt lat="44.14018" lon="1.78938">
        <ele>278</ele>
        <time>2011-03-27T10:41:53Z</time>
      </trkpt>
      <trkpt lat="44.14012" lon="1.78949">
        <ele>276</ele>
        <time>2011-03-27T10:41:59Z</time>
      </trkpt>
      <trkpt lat="44.14005" lon="1.78959">
        <ele>274</ele>
        <time>2011-03-27T10:42:05Z</time>
      </trkpt>
      <trkpt lat="44.13998" lon="1.78968">
        <ele>300</ele>
        <time>2011-03-27T10:42:10Z</time>
      </trkpt>
      <trkpt lat="44.13989" lon="1.78977">
        <ele>298</ele>
        <time>2011-03-27T10:42:16Z</time>
      </trkpt>
      <trkpt lat="44.13983" lon="1.78986">
        <ele>296</ele>
        <time>2011-03-27T10:42:22Z</time>
      </trkpt>
      <trkpt lat="44.13977" lon="1.78995">
        <ele>297</ele>
        <time>2011-03-27T10:42:29Z</time>
      </trkpt>
      <trkpt lat="44.1397" lon="1.79005">
        <ele>285</ele>
        <time>2011-03-27T10:42:37Z</time>
      </trkpt>
      <trkpt lat="44.13965" lon="1.79019">
        <ele>286</ele>
        <time>2011-03-27T10:42:43Z</time>
      </trkpt>
      <trkpt lat="44.1396" lon="1.79031">
        <ele>286</ele>
        <time>2011-03-27T10:42:47Z</time>
      </trkpt>
      <trkpt lat="44.13953" lon="1.7904">
        <ele>286</ele>
        <time>2011-03-27T10:42:51Z</time>
      </trkpt>
      <trkpt lat="44.13946" lon="1.7905">
        <ele>286</ele>
        <time>2011-03-27T10:42:56Z</time>
      </trkpt>
      <trkpt lat="44.13939" lon="1.79057">
        <ele>287</ele>
        <time>2011-03-27T10:43:02Z</time>
      </trkpt>
      <trkpt lat="44.13931" lon="1.79066">
        <ele>288</ele>
        <time>2011-03-27T10:43:09Z</time>
      </trkpt>
      <trkpt lat="44.13922" lon="1.79071">
        <ele>290</ele>
        <time>2011-03-27T10:43:16Z</time>
      </trkpt>
      <trkpt lat="44.13913" lon="1.79073">
        <ele>300</ele>
        <time>2011-03-27T10:43:22Z</time>
      </trkpt>
      <trkpt lat="44.13902" lon="1.79071">
        <ele>304</ele>
        <time>2011-03-27T10:43:29Z</time>
      </trkpt>
      <trkpt lat="44.13893" lon="1.79071">
        <ele>306</ele>
        <time>2011-03-27T10:43:33Z</time>
      </trkpt>
      <trkpt lat="44.13883" lon="1.79074">
        <ele>308</ele>
        <time>2011-03-27T10:43:38Z</time>
      </trkpt>
      <trkpt lat="44.13875" lon="1.79082">
        <ele>309</ele>
        <time>2011-03-27T10:43:44Z</time>
      </trkpt>
      <trkpt lat="44.13866" lon="1.79088">
        <ele>295</ele>
        <time>2011-03-27T10:43:49Z</time>
      </trkpt>
      <trkpt lat="44.13857" lon="1.79093">
        <ele>296</ele>
        <time>2011-03-27T10:43:54Z</time>
      </trkpt>
      <trkpt lat="44.1385" lon="1.79102">
        <ele>296</ele>
        <time>2011-03-27T10:43:59Z</time>
      </trkpt>
      <trkpt lat="44.13843" lon="1.79112">
        <ele>295</ele>
        <time>2011-03-27T10:44:03Z</time>
      </trkpt>
      <trkpt lat="44.13834" lon="1.79121">
        <ele>293</ele>
        <time>2011-03-27T10:44:06Z</time>
      </trkpt>
      <trkpt lat="44.13827" lon="1.79129">
        <ele>305</ele>
        <time>2011-03-27T10:44:09Z</time>
      </trkpt>
      <trkpt lat="44.1382" lon="1.7914">
        <ele>304</ele>
        <time>2011-03-27T10:44:12Z</time>
      </trkpt>
      <trkpt lat="44.13813" lon="1.7915">
        <ele>303</ele>
        <time>2011-03-27T10:44:15Z</time>
      </trkpt>
      <trkpt lat="44.13805" lon="1.79158">
        <ele>304</ele>
        <time>2011-03-27T10:44:20Z</time>
      </trkpt>
      <trkpt lat="44.13796" lon="1.79164">
        <ele>306</ele>
        <time>2011-03-27T10:44:26Z</time>
      </trkpt>
      <trkpt lat="44.13788" lon="1.79171">
        <ele>296</ele>
        <time>2011-03-27T10:44:31Z</time>
      </trkpt>
      <trkpt lat="44.13779" lon="1.79176">
        <ele>298</ele>
        <time>2011-03-27T10:44:37Z</time>
      </trkpt>
      <trkpt lat="44.1377" lon="1.79181">
        <ele>300</ele>
        <time>2011-03-27T10:44:43Z</time>
      </trkpt>
      <trkpt lat="44.13761" lon="1.79187">
        <ele>301</ele>
        <time>2011-03-27T10:44:49Z</time>
      </trkpt>
      <trkpt lat="44.13753" lon="1.79192">
        <ele>301</ele>
        <time>2011-03-27T10:44:55Z</time>
      </trkpt>
      <trkpt lat="44.13745" lon="1.79199">
        <ele>312</ele>
        <time>2011-03-27T10:45:01Z</time>
      </trkpt>
      <trkpt lat="44.13737" lon="1.79207">
        <ele>311</ele>
        <time>2011-03-27T10:45:08Z</time>
      </trkpt>
      <trkpt lat="44.13727" lon="1.7921">
        <ele>311</ele>
        <time>2011-03-27T10:45:14Z</time>
      </trkpt>
      <trkpt lat="44.13718" lon="1.79217">
        <ele>311</ele>
        <time>2011-03-27T10:45:20Z</time>
      </trkpt>
      <trkpt lat="44.13708" lon="1.79222">
        <ele>312</ele>
        <time>2011-03-27T10:45:27Z</time>
      </trkpt>
      <trkpt lat="44.13699" lon="1.79226">
        <ele>312</ele>
        <time>2011-03-27T10:45:33Z</time>
      </trkpt>
      <trkpt lat="44.1369" lon="1.79222">
        <ele>313</ele>
        <time>2011-03-27T10:45:40Z</time>
      </trkpt>
      <trkpt lat="44.13681" lon="1.79219">
        <ele>314</ele>
        <time>2011-03-27T10:45:46Z</time>
      </trkpt>
      <trkpt lat="44.1367" lon="1.79217">
        <ele>315</ele>
        <time>2011-03-27T10:45:52Z</time>
      </trkpt>
      <trkpt lat="44.13661" lon="1.79215">
        <ele>321</ele>
        <time>2011-03-27T10:45:57Z</time>
      </trkpt>
      <trkpt lat="44.13652" lon="1.79212">
        <ele>322</ele>
        <time>2011-03-27T10:46:03Z</time>
      </trkpt>
      <trkpt lat="44.13642" lon="1.79211">
        <ele>322</ele>
        <time>2011-03-27T10:46:09Z</time>
      </trkpt>
      <trkpt lat="44.13632" lon="1.79209">
        <ele>323</ele>
        <time>2011-03-27T10:46:15Z</time>
      </trkpt>
      <trkpt lat="44.13622" lon="1.7921">
        <ele>323</ele>
        <time>2011-03-27T10:46:21Z</time>
      </trkpt>
      <trkpt lat="44.13615" lon="1.79218">
        <ele>323</ele>
        <time>2011-03-27T10:46:26Z</time>
      </trkpt>
      <trkpt lat="44.13608" lon="1.7923">
        <ele>323</ele>
        <time>2011-03-27T10:46:31Z</time>
      </trkpt>
      <trkpt lat="44.13604" lon="1.79241">
        <ele>323</ele>
        <time>2011-03-27T10:46:35Z</time>
      </trkpt>
      <trkpt lat="44.13599" lon="1.79253">
        <ele>321</ele>
        <time>2011-03-27T10:46:39Z</time>
      </trkpt>
      <trkpt lat="44.13594" lon="1.79266">
        <ele>321</ele>
        <time>2011-03-27T10:46:43Z</time>
      </trkpt>
      <trkpt lat="44.1359" lon="1.79278">
        <ele>320</ele>
        <time>2011-03-27T10:46:47Z</time>
      </trkpt>
      <trkpt lat="44.13585" lon="1.79291">
        <ele>320</ele>
        <time>2011-03-27T10:46:51Z</time>
      </trkpt>
      <trkpt lat="44.13581" lon="1.79302">
        <ele>326</ele>
        <time>2011-03-27T10:46:55Z</time>
      </trkpt>
      <trkpt lat="44.13576" lon="1.79317">
        <ele>326</ele>
        <time>2011-03-27T10:46:59Z</time>
      </trkpt>
      <trkpt lat="44.1357" lon="1.79328">
        <ele>326</ele>
        <time>2011-03-27T10:47:02Z</time>
      </trkpt>
      <trkpt lat="44.13562" lon="1.7934">
        <ele>326</ele>
        <time>2011-03-27T10:47:06Z</time>
      </trkpt>
      <trkpt lat="44.13557" lon="1.79351">
        <ele>326</ele>
        <time>2011-03-27T10:47:09Z</time>
      </trkpt>
      <trkpt lat="44.13551" lon="1.79363">
        <ele>326</ele>
        <time>2011-03-27T10:47:13Z</time>
      </trkpt>
      <trkpt lat="44.13544" lon="1.79371">
        <ele>326</ele>
        <time>2011-03-27T10:47:17Z</time>
      </trkpt>
      <trkpt lat="44.13537" lon="1.7938">
        <ele>326</ele>
        <time>2011-03-27T10:47:21Z</time>
      </trkpt>
      <trkpt lat="44.13527" lon="1.79377">
        <ele>326</ele>
        <time>2011-03-27T10:47:31Z</time>
      </trkpt>
      <trkpt lat="44.13525" lon="1.79363">
        <ele>327</ele>
        <time>2011-03-27T10:47:36Z</time>
      </trkpt>
      <trkpt lat="44.13524" lon="1.79349">
        <ele>327</ele>
        <time>2011-03-27T10:47:40Z</time>
      </trkpt>
      <trkpt lat="44.13519" lon="1.79333">
        <ele>328</ele>
        <time>2011-03-27T10:47:44Z</time>
      </trkpt>
      <trkpt lat="44.13515" lon="1.79319">
        <ele>328</ele>
        <time>2011-03-27T10:47:48Z</time>
      </trkpt>
      <trkpt lat="44.13511" lon="1.79308">
        <ele>328</ele>
        <time>2011-03-27T10:47:51Z</time>
      </trkpt>
      <trkpt lat="44.13504" lon="1.79294">
        <ele>328</ele>
        <time>2011-03-27T10:47:55Z</time>
      </trkpt>
      <trkpt lat="44.13495" lon="1.79299">
        <ele>329</ele>
        <time>2011-03-27T10:48:00Z</time>
      </trkpt>
      <trkpt lat="44.13488" lon="1.79308">
        <ele>329</ele>
        <time>2011-03-27T10:48:03Z</time>
      </trkpt>
      <trkpt lat="44.13481" lon="1.79319">
        <ele>329</ele>
        <time>2011-03-27T10:48:06Z</time>
      </trkpt>
      <trkpt lat="44.13474" lon="1.79331">
        <ele>329</ele>
        <time>2011-03-27T10:48:09Z</time>
      </trkpt>
      <trkpt lat="44.13468" lon="1.79343">
        <ele>329</ele>
        <time>2011-03-27T10:48:12Z</time>
      </trkpt>
      <trkpt lat="44.13461" lon="1.79355">
        <ele>329</ele>
        <time>2011-03-27T10:48:15Z</time>
      </trkpt>
      <trkpt lat="44.13454" lon="1.79366">
        <ele>329</ele>
        <time>2011-03-27T10:48:18Z</time>
      </trkpt>
      <trkpt lat="44.13447" lon="1.79377">
        <ele>329</ele>
        <time>2011-03-27T10:48:21Z</time>
      </trkpt>
      <trkpt lat="44.13439" lon="1.79388">
        <ele>329</ele>
        <time>2011-03-27T10:48:24Z</time>
      </trkpt>
      <trkpt lat="44.1343" lon="1.79398">
        <ele>330</ele>
        <time>2011-03-27T10:48:27Z</time>
      </trkpt>
      <trkpt lat="44.13422" lon="1.79409">
        <ele>330</ele>
        <time>2011-03-27T10:48:30Z</time>
      </trkpt>
      <trkpt lat="44.13412" lon="1.79419">
        <ele>330</ele>
        <time>2011-03-27T10:48:33Z</time>
      </trkpt>
      <trkpt lat="44.13402" lon="1.7943">
        <ele>329</ele>
        <time>2011-03-27T10:48:36Z</time>
      </trkpt>
      <trkpt lat="44.13395" lon="1.79443">
        <ele>329</ele>
        <time>2011-03-27T10:48:39Z</time>
      </trkpt>
      <trkpt lat="44.13388" lon="1.79457">
        <ele>329</ele>
        <time>2011-03-27T10:48:42Z</time>
      </trkpt>
      <trkpt lat="44.13383" lon="1.79472">
        <ele>329</ele>
        <time>2011-03-27T10:48:45Z</time>
      </trkpt>
      <trkpt lat="44.13378" lon="1.79489">
        <ele>329</ele>
        <time>2011-03-27T10:48:48Z</time>
      </trkpt>
      <trkpt lat="44.13373" lon="1.79506">
        <ele>329</ele>
        <time>2011-03-27T10:48:51Z</time>
      </trkpt>
      <trkpt lat="44.13368" lon="1.79517">
        <ele>329</ele>
        <time>2011-03-27T10:48:53Z</time>
      </trkpt>
      <trkpt lat="44.13362" lon="1.79527">
        <ele>329</ele>
        <time>2011-03-27T10:48:55Z</time>
      </trkpt>
      <trkpt lat="44.13354" lon="1.79537">
        <ele>329</ele>
        <time>2011-03-27T10:48:57Z</time>
      </trkpt>
      <trkpt lat="44.13341" lon="1.7955">
        <ele>329</ele>
        <time>2011-03-27T10:49:00Z</time>
      </trkpt>
      <trkpt lat="44.1333" lon="1.79558">
        <ele>328</ele>
        <time>2011-03-27T10:49:02Z</time>
      </trkpt>
      <trkpt lat="44.13318" lon="1.79563">
        <ele>328</ele>
        <time>2011-03-27T10:49:04Z</time>
      </trkpt>
      <trkpt lat="44.13305" lon="1.79567">
        <ele>328</ele>
        <time>2011-03-27T10:49:06Z</time>
      </trkpt>
      <trkpt lat="44.13285" lon="1.79569">
        <ele>328</ele>
        <time>2011-03-27T10:49:09Z</time>
      </trkpt>
      <trkpt lat="44.13271" lon="1.79571">
        <ele>328</ele>
        <time>2011-03-27T10:49:11Z</time>
      </trkpt>
      <trkpt lat="44.13252" lon="1.79572">
        <ele>328</ele>
        <time>2011-03-27T10:49:14Z</time>
      </trkpt>
      <trkpt lat="44.13239" lon="1.79573">
        <ele>326</ele>
        <time>2011-03-27T10:49:16Z</time>
      </trkpt>
      <trkpt lat="44.1322" lon="1.79577">
        <ele>325</ele>
        <time>2011-03-27T10:49:19Z</time>
      </trkpt>
      <trkpt lat="44.13202" lon="1.7959">
        <ele>325</ele>
        <time>2011-03-27T10:49:22Z</time>
      </trkpt>
      <trkpt lat="44.13193" lon="1.79605">
        <ele>325</ele>
        <time>2011-03-27T10:49:24Z</time>
      </trkpt>
      <trkpt lat="44.13184" lon="1.7963">
        <ele>325</ele>
        <time>2011-03-27T10:49:27Z</time>
      </trkpt>
      <trkpt lat="44.1318" lon="1.7965">
        <ele>324</ele>
        <time>2011-03-27T10:49:29Z</time>
      </trkpt>
      <trkpt lat="44.13175" lon="1.7967">
        <ele>323</ele>
        <time>2011-03-27T10:49:31Z</time>
      </trkpt>
      <trkpt lat="44.13165" lon="1.79696">
        <ele>322</ele>
        <time>2011-03-27T10:49:34Z</time>
      </trkpt>
      <trkpt lat="44.1316" lon="1.79709">
        <ele>322</ele>
        <time>2011-03-27T10:49:37Z</time>
      </trkpt>
      <trkpt lat="44.13153" lon="1.79724">
        <ele>321</ele>
        <time>2011-03-27T10:49:41Z</time>
      </trkpt>
      <trkpt lat="44.13146" lon="1.79736">
        <ele>321</ele>
        <time>2011-03-27T10:49:43Z</time>
      </trkpt>
      <trkpt lat="44.13133" lon="1.79755">
        <ele>317</ele>
        <time>2011-03-27T10:49:46Z</time>
      </trkpt>
      <trkpt lat="44.13119" lon="1.79775">
        <ele>316</ele>
        <time>2011-03-27T10:49:49Z</time>
      </trkpt>
      <trkpt lat="44.13101" lon="1.79789">
        <ele>315</ele>
        <time>2011-03-27T10:49:52Z</time>
      </trkpt>
      <trkpt lat="44.13089" lon="1.79796">
        <ele>315</ele>
        <time>2011-03-27T10:49:54Z</time>
      </trkpt>
      <trkpt lat="44.13072" lon="1.79805">
        <ele>314</ele>
        <time>2011-03-27T10:49:57Z</time>
      </trkpt>
      <trkpt lat="44.13062" lon="1.7981">
        <ele>314</ele>
        <time>2011-03-27T10:49:59Z</time>
      </trkpt>
      <trkpt lat="44.13045" lon="1.79821">
        <ele>314</ele>
        <time>2011-03-27T10:50:02Z</time>
      </trkpt>
      <trkpt lat="44.13034" lon="1.7983">
        <ele>314</ele>
        <time>2011-03-27T10:50:04Z</time>
      </trkpt>
      <trkpt lat="44.13016" lon="1.79843">
        <ele>307</ele>
        <time>2011-03-27T10:50:07Z</time>
      </trkpt>
      <trkpt lat="44.12998" lon="1.79853">
        <ele>308</ele>
        <time>2011-03-27T10:50:10Z</time>
      </trkpt>
      <trkpt lat="44.12983" lon="1.79866">
        <ele>307</ele>
        <time>2011-03-27T10:50:13Z</time>
      </trkpt>
      <trkpt lat="44.12972" lon="1.79876">
        <ele>306</ele>
        <time>2011-03-27T10:50:15Z</time>
      </trkpt>
      <trkpt lat="44.12961" lon="1.79886">
        <ele>306</ele>
        <time>2011-03-27T10:50:17Z</time>
      </trkpt>
      <trkpt lat="44.12943" lon="1.799">
        <ele>306</ele>
        <time>2011-03-27T10:50:20Z</time>
      </trkpt>
      <trkpt lat="44.12931" lon="1.79908">
        <ele>306</ele>
        <time>2011-03-27T10:50:22Z</time>
      </trkpt>
      <trkpt lat="44.12913" lon="1.79922">
        <ele>304</ele>
        <time>2011-03-27T10:50:25Z</time>
      </trkpt>
      <trkpt lat="44.129" lon="1.79932">
        <ele>301</ele>
        <time>2011-03-27T10:50:27Z</time>
      </trkpt>
      <trkpt lat="44.12882" lon="1.79948">
        <ele>299</ele>
        <time>2011-03-27T10:50:30Z</time>
      </trkpt>
      <trkpt lat="44.12869" lon="1.79956">
        <ele>298</ele>
        <time>2011-03-27T10:50:32Z</time>
      </trkpt>
      <trkpt lat="44.1285" lon="1.7997">
        <ele>298</ele>
        <time>2011-03-27T10:50:35Z</time>
      </trkpt>
      <trkpt lat="44.12839" lon="1.79988">
        <ele>298</ele>
        <time>2011-03-27T10:50:37Z</time>
      </trkpt>
      <trkpt lat="44.12828" lon="1.80016">
        <ele>299</ele>
        <time>2011-03-27T10:50:40Z</time>
      </trkpt>
      <trkpt lat="44.12822" lon="1.80029">
        <ele>299</ele>
        <time>2011-03-27T10:50:42Z</time>
      </trkpt>
      <trkpt lat="44.12815" lon="1.80041">
        <ele>299</ele>
        <time>2011-03-27T10:50:45Z</time>
      </trkpt>
      <trkpt lat="44.12808" lon="1.8005">
        <ele>298</ele>
        <time>2011-03-27T10:50:48Z</time>
      </trkpt>
      <trkpt lat="44.128" lon="1.80059">
        <ele>299</ele>
        <time>2011-03-27T10:50:52Z</time>
      </trkpt>
      <trkpt lat="44.128" lon="1.80059">
        <ele>299</ele>
        <time>2011-03-27T10:50:55Z</time>
      </trkpt>
      <trkpt lat="44.12773" lon="1.80082">
        <ele>303</ele>
        <time>2011-03-27T10:51:10Z</time>
      </trkpt>
      <trkpt lat="44.12763" lon="1.80088">
        <ele>298</ele>
        <time>2011-03-27T10:51:17Z</time>
      </trkpt>
      <trkpt lat="44.12755" lon="1.80093">
        <ele>300</ele>
        <time>2011-03-27T10:51:23Z</time>
      </trkpt>
      <trkpt lat="44.12746" lon="1.80098">
        <ele>302</ele>
        <time>2011-03-27T10:51:30Z</time>
      </trkpt>
      <trkpt lat="44.12737" lon="1.80104">
        <ele>300</ele>
        <time>2011-03-27T10:51:36Z</time>
      </trkpt>
      <trkpt lat="44.12727" lon="1.80108">
        <ele>299</ele>
        <time>2011-03-27T10:51:42Z</time>
      </trkpt>
      <trkpt lat="44.12717" lon="1.80108">
        <ele>298</ele>
        <time>2011-03-27T10:51:49Z</time>
      </trkpt>
      <trkpt lat="44.12708" lon="1.80108">
        <ele>298</ele>
        <time>2011-03-27T10:51:54Z</time>
      </trkpt>
      <trkpt lat="44.12698" lon="1.80105">
        <ele>299</ele>
        <time>2011-03-27T10:52:00Z</time>
      </trkpt>
      <trkpt lat="44.1269" lon="1.80099">
        <ele>301</ele>
        <time>2011-03-27T10:52:06Z</time>
      </trkpt>
      <trkpt lat="44.12682" lon="1.80091">
        <ele>303</ele>
        <time>2011-03-27T10:52:12Z</time>
      </trkpt>
      <trkpt lat="44.12675" lon="1.80082">
        <ele>309</ele>
        <time>2011-03-27T10:52:18Z</time>
      </trkpt>
      <trkpt lat="44.12666" lon="1.80074">
        <ele>308</ele>
        <time>2011-03-27T10:52:23Z</time>
      </trkpt>
      <trkpt lat="44.12657" lon="1.80065">
        <ele>307</ele>
        <time>2011-03-27T10:52:27Z</time>
      </trkpt>
      <trkpt lat="44.12649" lon="1.80057">
        <ele>307</ele>
        <time>2011-03-27T10:52:31Z</time>
      </trkpt>
      <trkpt lat="44.1264" lon="1.80048">
        <ele>307</ele>
        <time>2011-03-27T10:52:35Z</time>
      </trkpt>
      <trkpt lat="44.12631" lon="1.80038">
        <ele>306</ele>
        <time>2011-03-27T10:52:39Z</time>
      </trkpt>
      <trkpt lat="44.12625" lon="1.80028">
        <ele>307</ele>
        <time>2011-03-27T10:52:42Z</time>
      </trkpt>
      <trkpt lat="44.12618" lon="1.80017">
        <ele>307</ele>
        <time>2011-03-27T10:52:46Z</time>
      </trkpt>
      <trkpt lat="44.12618" lon="1.80017">
        <ele>307</ele>
        <time>2011-03-27T10:52:49Z</time>
      </trkpt>
      <trkpt lat="44.12605" lon="1.79998">
        <ele>311</ele>
        <time>2011-03-27T10:52:54Z</time>
      </trkpt>
      <trkpt lat="44.12597" lon="1.79991">
        <ele>311</ele>
        <time>2011-03-27T10:52:57Z</time>
      </trkpt>
      <trkpt lat="44.12587" lon="1.79983">
        <ele>311</ele>
        <time>2011-03-27T10:53:00Z</time>
      </trkpt>
      <trkpt lat="44.12577" lon="1.79973">
        <ele>310</ele>
        <time>2011-03-27T10:53:03Z</time>
      </trkpt>
      <trkpt lat="44.12564" lon="1.79963">
        <ele>311</ele>
        <time>2011-03-27T10:53:06Z</time>
      </trkpt>
      <trkpt lat="44.12549" lon="1.79954">
        <ele>311</ele>
        <time>2011-03-27T10:53:09Z</time>
      </trkpt>
      <trkpt lat="44.12541" lon="1.7995">
        <ele>311</ele>
        <time>2011-03-27T10:53:11Z</time>
      </trkpt>
      <trkpt lat="44.1253" lon="1.79947">
        <ele>311</ele>
        <time>2011-03-27T10:53:14Z</time>
      </trkpt>
      <trkpt lat="44.1252" lon="1.79943">
        <ele>312</ele>
        <time>2011-03-27T10:53:17Z</time>
      </trkpt>
      <trkpt lat="44.1251" lon="1.79938">
        <ele>313</ele>
        <time>2011-03-27T10:53:20Z</time>
      </trkpt>
      <trkpt lat="44.12501" lon="1.79933">
        <ele>314</ele>
        <time>2011-03-27T10:53:23Z</time>
      </trkpt>
      <trkpt lat="44.12493" lon="1.79924">
        <ele>313</ele>
        <time>2011-03-27T10:53:27Z</time>
      </trkpt>
      <trkpt lat="44.1249" lon="1.79911">
        <ele>318</ele>
        <time>2011-03-27T10:53:33Z</time>
      </trkpt>
      <trkpt lat="44.1249" lon="1.79898">
        <ele>319</ele>
        <time>2011-03-27T10:53:41Z</time>
      </trkpt>
      <trkpt lat="44.12488" lon="1.79884">
        <ele>320</ele>
        <time>2011-03-27T10:53:49Z</time>
      </trkpt>
      <trkpt lat="44.1249" lon="1.79871">
        <ele>321</ele>
        <time>2011-03-27T10:53:56Z</time>
      </trkpt>
      <trkpt lat="44.12492" lon="1.79858">
        <ele>322</ele>
        <time>2011-03-27T10:54:02Z</time>
      </trkpt>
      <trkpt lat="44.12495" lon="1.79846">
        <ele>323</ele>
        <time>2011-03-27T10:54:09Z</time>
      </trkpt>
      <trkpt lat="44.12491" lon="1.79834">
        <ele>324</ele>
        <time>2011-03-27T10:54:15Z</time>
      </trkpt>
      <trkpt lat="44.12488" lon="1.7982">
        <ele>325</ele>
        <time>2011-03-27T10:54:22Z</time>
      </trkpt>
      <trkpt lat="44.12486" lon="1.79806">
        <ele>325</ele>
        <time>2011-03-27T10:54:28Z</time>
      </trkpt>
      <trkpt lat="44.12483" lon="1.79794">
        <ele>325</ele>
        <time>2011-03-27T10:54:33Z</time>
      </trkpt>
      <trkpt lat="44.12482" lon="1.79781">
        <ele>325</ele>
        <time>2011-03-27T10:54:39Z</time>
      </trkpt>
      <trkpt lat="44.12482" lon="1.79768">
        <ele>325</ele>
        <time>2011-03-27T10:54:42Z</time>
      </trkpt>
      <trkpt lat="44.12482" lon="1.79755">
        <ele>325</ele>
        <time>2011-03-27T10:54:44Z</time>
      </trkpt>
      <trkpt lat="44.12478" lon="1.79735">
        <ele>323</ele>
        <time>2011-03-27T10:54:47Z</time>
      </trkpt>
      <trkpt lat="44.12473" lon="1.79712">
        <ele>322</ele>
        <time>2011-03-27T10:54:50Z</time>
      </trkpt>
      <trkpt lat="44.12468" lon="1.79701">
        <ele>322</ele>
        <time>2011-03-27T10:54:52Z</time>
      </trkpt>
      <trkpt lat="44.1246" lon="1.79684">
        <ele>322</ele>
        <time>2011-03-27T10:54:55Z</time>
      </trkpt>
      <trkpt lat="44.12454" lon="1.79674">
        <ele>322</ele>
        <time>2011-03-27T10:54:57Z</time>
      </trkpt>
      <trkpt lat="44.12445" lon="1.7966">
        <ele>320</ele>
        <time>2011-03-27T10:55:00Z</time>
      </trkpt>
      <trkpt lat="44.12437" lon="1.79653">
        <ele>320</ele>
        <time>2011-03-27T10:55:02Z</time>
      </trkpt>
      <trkpt lat="44.12422" lon="1.79646">
        <ele>320</ele>
        <time>2011-03-27T10:55:05Z</time>
      </trkpt>
      <trkpt lat="44.12413" lon="1.79642">
        <ele>321</ele>
        <time>2011-03-27T10:55:07Z</time>
      </trkpt>
      <trkpt lat="44.12399" lon="1.79641">
        <ele>321</ele>
        <time>2011-03-27T10:55:10Z</time>
      </trkpt>
      <trkpt lat="44.12386" lon="1.79646">
        <ele>321</ele>
        <time>2011-03-27T10:55:13Z</time>
      </trkpt>
      <trkpt lat="44.12377" lon="1.7965">
        <ele>321</ele>
        <time>2011-03-27T10:55:16Z</time>
      </trkpt>
      <trkpt lat="44.12368" lon="1.79657">
        <ele>321</ele>
        <time>2011-03-27T10:55:19Z</time>
      </trkpt>
      <trkpt lat="44.12357" lon="1.7966">
        <ele>321</ele>
        <time>2011-03-27T10:55:22Z</time>
      </trkpt>
      <trkpt lat="44.12345" lon="1.79662">
        <ele>322</ele>
        <time>2011-03-27T10:55:25Z</time>
      </trkpt>
      <trkpt lat="44.12334" lon="1.79666">
        <ele>322</ele>
        <time>2011-03-27T10:55:28Z</time>
      </trkpt>
      <trkpt lat="44.12323" lon="1.7967">
        <ele>323</ele>
        <time>2011-03-27T10:55:31Z</time>
      </trkpt>
      <trkpt lat="44.12312" lon="1.79671">
        <ele>323</ele>
        <time>2011-03-27T10:55:34Z</time>
      </trkpt>
      <trkpt lat="44.12301" lon="1.79672">
        <ele>324</ele>
        <time>2011-03-27T10:55:37Z</time>
      </trkpt>
      <trkpt lat="44.1229" lon="1.79674">
        <ele>324</ele>
        <time>2011-03-27T10:55:40Z</time>
      </trkpt>
      <trkpt lat="44.12279" lon="1.79674">
        <ele>324</ele>
        <time>2011-03-27T10:55:43Z</time>
      </trkpt>
      <trkpt lat="44.12269" lon="1.79674">
        <ele>325</ele>
        <time>2011-03-27T10:55:46Z</time>
      </trkpt>
      <trkpt lat="44.12257" lon="1.79674">
        <ele>325</ele>
        <time>2011-03-27T10:55:49Z</time>
      </trkpt>
      <trkpt lat="44.12244" lon="1.79675">
        <ele>325</ele>
        <time>2011-03-27T10:55:52Z</time>
      </trkpt>
      <trkpt lat="44.12234" lon="1.79674">
        <ele>325</ele>
        <time>2011-03-27T10:55:55Z</time>
      </trkpt>
      <trkpt lat="44.12223" lon="1.79676">
        <ele>326</ele>
        <time>2011-03-27T10:55:58Z</time>
      </trkpt>
      <trkpt lat="44.12212" lon="1.79678">
        <ele>326</ele>
        <time>2011-03-27T10:56:01Z</time>
      </trkpt>
      <trkpt lat="44.12202" lon="1.7968">
        <ele>326</ele>
        <time>2011-03-27T10:56:04Z</time>
      </trkpt>
      <trkpt lat="44.12193" lon="1.79683">
        <ele>326</ele>
        <time>2011-03-27T10:56:06Z</time>
      </trkpt>
      <trkpt lat="44.12181" lon="1.79687">
        <ele>326</ele>
        <time>2011-03-27T10:56:09Z</time>
      </trkpt>
      <trkpt lat="44.12168" lon="1.79691">
        <ele>326</ele>
        <time>2011-03-27T10:56:12Z</time>
      </trkpt>
      <trkpt lat="44.12158" lon="1.79694">
        <ele>325</ele>
        <time>2011-03-27T10:56:14Z</time>
      </trkpt>
      <trkpt lat="44.12144" lon="1.79701">
        <ele>324</ele>
        <time>2011-03-27T10:56:17Z</time>
      </trkpt>
      <trkpt lat="44.12131" lon="1.79705">
        <ele>324</ele>
        <time>2011-03-27T10:56:20Z</time>
      </trkpt>
      <trkpt lat="44.12121" lon="1.79706">
        <ele>324</ele>
        <time>2011-03-27T10:56:24Z</time>
      </trkpt>
      <trkpt lat="44.12121" lon="1.79691">
        <ele>324</ele>
        <time>2011-03-27T10:56:30Z</time>
      </trkpt>
      <trkpt lat="44.12121" lon="1.79675">
        <ele>324</ele>
        <time>2011-03-27T10:56:34Z</time>
      </trkpt>
      <trkpt lat="44.12124" lon="1.79663">
        <ele>325</ele>
        <time>2011-03-27T10:56:38Z</time>
      </trkpt>
      <trkpt lat="44.12128" lon="1.79651">
        <ele>325</ele>
        <time>2011-03-27T10:56:42Z</time>
      </trkpt>
      <trkpt lat="44.12131" lon="1.79636">
        <ele>325</ele>
        <time>2011-03-27T10:56:47Z</time>
      </trkpt>
      <trkpt lat="44.12132" lon="1.79622">
        <ele>325</ele>
        <time>2011-03-27T10:56:50Z</time>
      </trkpt>
      <trkpt lat="44.12133" lon="1.79607">
        <ele>325</ele>
        <time>2011-03-27T10:56:54Z</time>
      </trkpt>
      <trkpt lat="44.12136" lon="1.79592">
        <ele>325</ele>
        <time>2011-03-27T10:56:58Z</time>
      </trkpt>
      <trkpt lat="44.1214" lon="1.79579">
        <ele>326</ele>
        <time>2011-03-27T10:57:01Z</time>
      </trkpt>
      <trkpt lat="44.12145" lon="1.79566">
        <ele>326</ele>
        <time>2011-03-27T10:57:06Z</time>
      </trkpt>
      <trkpt lat="44.12149" lon="1.79554">
        <ele>326</ele>
        <time>2011-03-27T10:57:11Z</time>
      </trkpt>
      <trkpt lat="44.12153" lon="1.79542">
        <ele>327</ele>
        <time>2011-03-27T10:57:15Z</time>
      </trkpt>
      <trkpt lat="44.12153" lon="1.79527">
        <ele>327</ele>
        <time>2011-03-27T10:57:19Z</time>
      </trkpt>
      <trkpt lat="44.12148" lon="1.79515">
        <ele>328</ele>
        <time>2011-03-27T10:57:23Z</time>
      </trkpt>
      <trkpt lat="44.12142" lon="1.79503">
        <ele>327</ele>
        <time>2011-03-27T10:57:27Z</time>
      </trkpt>
      <trkpt lat="44.12135" lon="1.79493">
        <ele>329</ele>
        <time>2011-03-27T10:57:30Z</time>
      </trkpt>
      <trkpt lat="44.12127" lon="1.7948">
        <ele>328</ele>
        <time>2011-03-27T10:57:33Z</time>
      </trkpt>
      <trkpt lat="44.12119" lon="1.79467">
        <ele>328</ele>
        <time>2011-03-27T10:57:36Z</time>
      </trkpt>
      <trkpt lat="44.12111" lon="1.79454">
        <ele>328</ele>
        <time>2011-03-27T10:57:39Z</time>
      </trkpt>
      <trkpt lat="44.12102" lon="1.79442">
        <ele>328</ele>
        <time>2011-03-27T10:57:42Z</time>
      </trkpt>
      <trkpt lat="44.12095" lon="1.79429">
        <ele>329</ele>
        <time>2011-03-27T10:57:45Z</time>
      </trkpt>
      <trkpt lat="44.12091" lon="1.79414">
        <ele>329</ele>
        <time>2011-03-27T10:57:48Z</time>
      </trkpt>
      <trkpt lat="44.12087" lon="1.79402">
        <ele>329</ele>
        <time>2011-03-27T10:57:52Z</time>
      </trkpt>
      <trkpt lat="44.12085" lon="1.79387">
        <ele>329</ele>
        <time>2011-03-27T10:57:56Z</time>
      </trkpt>
      <trkpt lat="44.12086" lon="1.7937">
        <ele>329</ele>
        <time>2011-03-27T10:58:00Z</time>
      </trkpt>
      <trkpt lat="44.12085" lon="1.79355">
        <ele>329</ele>
        <time>2011-03-27T10:58:04Z</time>
      </trkpt>
      <trkpt lat="44.12082" lon="1.79341">
        <ele>328</ele>
        <time>2011-03-27T10:58:08Z</time>
      </trkpt>
      <trkpt lat="44.1208" lon="1.79327">
        <ele>328</ele>
        <time>2011-03-27T10:58:12Z</time>
      </trkpt>
      <trkpt lat="44.12076" lon="1.79314">
        <ele>328</ele>
        <time>2011-03-27T10:58:16Z</time>
      </trkpt>
      <trkpt lat="44.12071" lon="1.793">
        <ele>328</ele>
        <time>2011-03-27T10:58:19Z</time>
      </trkpt>
      <trkpt lat="44.12068" lon="1.79286">
        <ele>328</ele>
        <time>2011-03-27T10:58:22Z</time>
      </trkpt>
      <trkpt lat="44.12064" lon="1.79273">
        <ele>329</ele>
        <time>2011-03-27T10:58:25Z</time>
      </trkpt>
      <trkpt lat="44.12061" lon="1.79261">
        <ele>329</ele>
        <time>2011-03-27T10:58:28Z</time>
      </trkpt>
      <trkpt lat="44.12057" lon="1.79246">
        <ele>330</ele>
        <time>2011-03-27T10:58:32Z</time>
      </trkpt>
      <trkpt lat="44.12052" lon="1.79231">
        <ele>330</ele>
        <time>2011-03-27T10:58:36Z</time>
      </trkpt>
      <trkpt lat="44.12048" lon="1.7922">
        <ele>330</ele>
        <time>2011-03-27T10:58:39Z</time>
      </trkpt>
      <trkpt lat="44.12042" lon="1.79206">
        <ele>330</ele>
        <time>2011-03-27T10:58:43Z</time>
      </trkpt>
      <trkpt lat="44.12039" lon="1.79193">
        <ele>330</ele>
        <time>2011-03-27T10:58:47Z</time>
      </trkpt>
      <trkpt lat="44.12037" lon="1.79179">
        <ele>331</ele>
        <time>2011-03-27T10:58:51Z</time>
      </trkpt>
      <trkpt lat="44.12044" lon="1.79168">
        <ele>331</ele>
        <time>2011-03-27T10:58:57Z</time>
      </trkpt>
      <trkpt lat="44.12052" lon="1.79162">
        <ele>332</ele>
        <time>2011-03-27T10:59:03Z</time>
      </trkpt>
      <trkpt lat="44.12061" lon="1.79163">
        <ele>333</ele>
        <time>2011-03-27T10:59:09Z</time>
      </trkpt>
      <trkpt lat="44.1207" lon="1.79166">
        <ele>333</ele>
        <time>2011-03-27T10:59:14Z</time>
      </trkpt>
      <trkpt lat="44.1208" lon="1.7917">
        <ele>334</ele>
        <time>2011-03-27T10:59:20Z</time>
      </trkpt>
      <trkpt lat="44.12088" lon="1.79175">
        <ele>335</ele>
        <time>2011-03-27T10:59:24Z</time>
      </trkpt>
      <trkpt lat="44.12097" lon="1.79177">
        <ele>334</ele>
        <time>2011-03-27T10:59:28Z</time>
      </trkpt>
      <trkpt lat="44.12107" lon="1.79174">
        <ele>334</ele>
        <time>2011-03-27T10:59:32Z</time>
      </trkpt>
      <trkpt lat="44.12117" lon="1.79167">
        <ele>334</ele>
        <time>2011-03-27T10:59:36Z</time>
      </trkpt>
      <trkpt lat="44.12125" lon="1.79157">
        <ele>335</ele>
        <time>2011-03-27T10:59:39Z</time>
      </trkpt>
      <trkpt lat="44.12132" lon="1.79146">
        <ele>335</ele>
        <time>2011-03-27T10:59:42Z</time>
      </trkpt>
      <trkpt lat="44.12139" lon="1.79137">
        <ele>335</ele>
        <time>2011-03-27T10:59:45Z</time>
      </trkpt>
      <trkpt lat="44.12146" lon="1.79126">
        <ele>335</ele>
        <time>2011-03-27T10:59:48Z</time>
      </trkpt>
      <trkpt lat="44.12153" lon="1.79115">
        <ele>336</ele>
        <time>2011-03-27T10:59:51Z</time>
      </trkpt>
      <trkpt lat="44.12161" lon="1.79104">
        <ele>336</ele>
        <time>2011-03-27T10:59:54Z</time>
      </trkpt>
      <trkpt lat="44.12168" lon="1.79093">
        <ele>337</ele>
        <time>2011-03-27T10:59:57Z</time>
      </trkpt>
      <trkpt lat="44.12175" lon="1.79082">
        <ele>337</ele>
        <time>2011-03-27T11:00:00Z</time>
      </trkpt>
      <trkpt lat="44.12182" lon="1.79069">
        <ele>335</ele>
        <time>2011-03-27T11:00:03Z</time>
      </trkpt>
      <trkpt lat="44.12189" lon="1.79056">
        <ele>334</ele>
        <time>2011-03-27T11:00:06Z</time>
      </trkpt>
      <trkpt lat="44.12196" lon="1.79044">
        <ele>333</ele>
        <time>2011-03-27T11:00:09Z</time>
      </trkpt>
      <trkpt lat="44.12206" lon="1.79032">
        <ele>333</ele>
        <time>2011-03-27T11:00:12Z</time>
      </trkpt>
      <trkpt lat="44.12214" lon="1.79021">
        <ele>332</ele>
        <time>2011-03-27T11:00:15Z</time>
      </trkpt>
      <trkpt lat="44.12222" lon="1.79014">
        <ele>332</ele>
        <time>2011-03-27T11:00:18Z</time>
      </trkpt>
      <trkpt lat="44.1223" lon="1.79002">
        <ele>332</ele>
        <time>2011-03-27T11:00:22Z</time>
      </trkpt>
      <trkpt lat="44.12237" lon="1.78991">
        <ele>330</ele>
        <time>2011-03-27T11:00:25Z</time>
      </trkpt>
      <trkpt lat="44.12245" lon="1.78978">
        <ele>330</ele>
        <time>2011-03-27T11:00:28Z</time>
      </trkpt>
      <trkpt lat="44.12252" lon="1.78968">
        <ele>329</ele>
        <time>2011-03-27T11:00:30Z</time>
      </trkpt>
      <trkpt lat="44.12263" lon="1.78952">
        <ele>329</ele>
        <time>2011-03-27T11:00:33Z</time>
      </trkpt>
      <trkpt lat="44.12274" lon="1.78935">
        <ele>329</ele>
        <time>2011-03-27T11:00:36Z</time>
      </trkpt>
      <trkpt lat="44.12281" lon="1.78925">
        <ele>329</ele>
        <time>2011-03-27T11:00:38Z</time>
      </trkpt>
      <trkpt lat="44.12291" lon="1.78908">
        <ele>329</ele>
        <time>2011-03-27T11:00:41Z</time>
      </trkpt>
      <trkpt lat="44.123" lon="1.78891">
        <ele>329</ele>
        <time>2011-03-27T11:00:44Z</time>
      </trkpt>
      <trkpt lat="44.12309" lon="1.78875">
        <ele>329</ele>
        <time>2011-03-27T11:00:47Z</time>
      </trkpt>
      <trkpt lat="44.12319" lon="1.78861">
        <ele>330</ele>
        <time>2011-03-27T11:00:50Z</time>
      </trkpt>
      <trkpt lat="44.12328" lon="1.78844">
        <ele>330</ele>
        <time>2011-03-27T11:00:53Z</time>
      </trkpt>
      <trkpt lat="44.12338" lon="1.78829">
        <ele>331</ele>
        <time>2011-03-27T11:00:56Z</time>
      </trkpt>
      <trkpt lat="44.12347" lon="1.78813">
        <ele>330</ele>
        <time>2011-03-27T11:00:59Z</time>
      </trkpt>
      <trkpt lat="44.12354" lon="1.78803">
        <ele>330</ele>
        <time>2011-03-27T11:01:01Z</time>
      </trkpt>
      <trkpt lat="44.12359" lon="1.78791">
        <ele>330</ele>
        <time>2011-03-27T11:01:03Z</time>
      </trkpt>
      <trkpt lat="44.12365" lon="1.78779">
        <ele>330</ele>
        <time>2011-03-27T11:01:05Z</time>
      </trkpt>
      <trkpt lat="44.12376" lon="1.78761">
        <ele>330</ele>
        <time>2011-03-27T11:01:08Z</time>
      </trkpt>
      <trkpt lat="44.12387" lon="1.78743">
        <ele>330</ele>
        <time>2011-03-27T11:01:11Z</time>
      </trkpt>
      <trkpt lat="44.12397" lon="1.78725">
        <ele>330</ele>
        <time>2011-03-27T11:01:14Z</time>
      </trkpt>
      <trkpt lat="44.12407" lon="1.78708">
        <ele>331</ele>
        <time>2011-03-27T11:01:17Z</time>
      </trkpt>
      <trkpt lat="44.12416" lon="1.78691">
        <ele>331</ele>
        <time>2011-03-27T11:01:20Z</time>
      </trkpt>
      <trkpt lat="44.12425" lon="1.78676">
        <ele>331</ele>
        <time>2011-03-27T11:01:23Z</time>
      </trkpt>
      <trkpt lat="44.12431" lon="1.78662">
        <ele>332</ele>
        <time>2011-03-27T11:01:26Z</time>
      </trkpt>
      <trkpt lat="44.12435" lon="1.78648">
        <ele>331</ele>
        <time>2011-03-27T11:01:30Z</time>
      </trkpt>
      <trkpt lat="44.12437" lon="1.78632">
        <ele>331</ele>
        <time>2011-03-27T11:01:34Z</time>
      </trkpt>
      <trkpt lat="44.12437" lon="1.78617">
        <ele>331</ele>
        <time>2011-03-27T11:01:37Z</time>
      </trkpt>
      <trkpt lat="44.12439" lon="1.786">
        <ele>332</ele>
        <time>2011-03-27T11:01:40Z</time>
      </trkpt>
      <trkpt lat="44.12442" lon="1.78582">
        <ele>332</ele>
        <time>2011-03-27T11:01:43Z</time>
      </trkpt>
      <trkpt lat="44.12447" lon="1.78566">
        <ele>331</ele>
        <time>2011-03-27T11:01:46Z</time>
      </trkpt>
      <trkpt lat="44.12452" lon="1.7855">
        <ele>331</ele>
        <time>2011-03-27T11:01:49Z</time>
      </trkpt>
      <trkpt lat="44.12457" lon="1.78534">
        <ele>331</ele>
        <time>2011-03-27T11:01:52Z</time>
      </trkpt>
      <trkpt lat="44.1246" lon="1.78518">
        <ele>331</ele>
        <time>2011-03-27T11:01:55Z</time>
      </trkpt>
      <trkpt lat="44.12463" lon="1.78502">
        <ele>331</ele>
        <time>2011-03-27T11:01:58Z</time>
      </trkpt>
      <trkpt lat="44.12464" lon="1.78485">
        <ele>331</ele>
        <time>2011-03-27T11:02:01Z</time>
      </trkpt>
      <trkpt lat="44.12466" lon="1.78469">
        <ele>331</ele>
        <time>2011-03-27T11:02:04Z</time>
      </trkpt>
      <trkpt lat="44.12467" lon="1.78455">
        <ele>331</ele>
        <time>2011-03-27T11:02:07Z</time>
      </trkpt>
      <trkpt lat="44.12469" lon="1.78441">
        <ele>332</ele>
        <time>2011-03-27T11:02:12Z</time>
      </trkpt>
      <trkpt lat="44.12465" lon="1.78429">
        <ele>332</ele>
        <time>2011-03-27T11:02:16Z</time>
      </trkpt>
      <trkpt lat="44.12457" lon="1.78421">
        <ele>331</ele>
        <time>2011-03-27T11:02:19Z</time>
      </trkpt>
      <trkpt lat="44.12446" lon="1.78412">
        <ele>332</ele>
        <time>2011-03-27T11:02:22Z</time>
      </trkpt>
      <trkpt lat="44.12435" lon="1.78401">
        <ele>331</ele>
        <time>2011-03-27T11:02:25Z</time>
      </trkpt>
      <trkpt lat="44.12425" lon="1.7839">
        <ele>331</ele>
        <time>2011-03-27T11:02:28Z</time>
      </trkpt>
      <trkpt lat="44.12417" lon="1.7838">
        <ele>328</ele>
        <time>2011-03-27T11:02:31Z</time>
      </trkpt>
      <trkpt lat="44.12407" lon="1.7837">
        <ele>328</ele>
        <time>2011-03-27T11:02:34Z</time>
      </trkpt>
      <trkpt lat="44.12396" lon="1.78358">
        <ele>328</ele>
        <time>2011-03-27T11:02:37Z</time>
      </trkpt>
      <trkpt lat="44.12389" lon="1.7835">
        <ele>328</ele>
        <time>2011-03-27T11:02:39Z</time>
      </trkpt>
      <trkpt lat="44.12379" lon="1.78339">
        <ele>328</ele>
        <time>2011-03-27T11:02:42Z</time>
      </trkpt>
      <trkpt lat="44.12369" lon="1.78327">
        <ele>328</ele>
        <time>2011-03-27T11:02:45Z</time>
      </trkpt>
      <trkpt lat="44.12359" lon="1.78314">
        <ele>328</ele>
        <time>2011-03-27T11:02:48Z</time>
      </trkpt>
      <trkpt lat="44.12351" lon="1.78301">
        <ele>328</ele>
        <time>2011-03-27T11:02:51Z</time>
      </trkpt>
      <trkpt lat="44.12344" lon="1.78288">
        <ele>328</ele>
        <time>2011-03-27T11:02:54Z</time>
      </trkpt>
      <trkpt lat="44.12335" lon="1.78278">
        <ele>328</ele>
        <time>2011-03-27T11:02:57Z</time>
      </trkpt>
      <trkpt lat="44.12326" lon="1.7827">
        <ele>327</ele>
        <time>2011-03-27T11:03:00Z</time>
      </trkpt>
      <trkpt lat="44.12317" lon="1.78261">
        <ele>327</ele>
        <time>2011-03-27T11:03:03Z</time>
      </trkpt>
      <trkpt lat="44.12307" lon="1.78249">
        <ele>328</ele>
        <time>2011-03-27T11:03:06Z</time>
      </trkpt>
      <trkpt lat="44.12299" lon="1.7824">
        <ele>329</ele>
        <time>2011-03-27T11:03:09Z</time>
      </trkpt>
      <trkpt lat="44.1229" lon="1.78229">
        <ele>329</ele>
        <time>2011-03-27T11:03:12Z</time>
      </trkpt>
      <trkpt lat="44.1228" lon="1.78221">
        <ele>329</ele>
        <time>2011-03-27T11:03:15Z</time>
      </trkpt>
      <trkpt lat="44.1227" lon="1.78212">
        <ele>329</ele>
        <time>2011-03-27T11:03:18Z</time>
      </trkpt>
      <trkpt lat="44.12258" lon="1.78205">
        <ele>329</ele>
        <time>2011-03-27T11:03:21Z</time>
      </trkpt>
      <trkpt lat="44.12249" lon="1.78201">
        <ele>330</ele>
        <time>2011-03-27T11:03:24Z</time>
      </trkpt>
      <trkpt lat="44.12238" lon="1.782">
        <ele>330</ele>
        <time>2011-03-27T11:03:28Z</time>
      </trkpt>
      <trkpt lat="44.12226" lon="1.78196">
        <ele>330</ele>
        <time>2011-03-27T11:03:33Z</time>
      </trkpt>
      <trkpt lat="44.12215" lon="1.78192">
        <ele>330</ele>
        <time>2011-03-27T11:03:37Z</time>
      </trkpt>
      <trkpt lat="44.12205" lon="1.78191">
        <ele>331</ele>
        <time>2011-03-27T11:03:41Z</time>
      </trkpt>
      <trkpt lat="44.12195" lon="1.78188">
        <ele>331</ele>
        <time>2011-03-27T11:03:44Z</time>
      </trkpt>
      <trkpt lat="44.12185" lon="1.78184">
        <ele>331</ele>
        <time>2011-03-27T11:03:48Z</time>
      </trkpt>
      <trkpt lat="44.12174" lon="1.78179">
        <ele>332</ele>
        <time>2011-03-27T11:03:52Z</time>
      </trkpt>
      <trkpt lat="44.12165" lon="1.78175">
        <ele>333</ele>
        <time>2011-03-27T11:03:55Z</time>
      </trkpt>
      <trkpt lat="44.12157" lon="1.78169">
        <ele>333</ele>
        <time>2011-03-27T11:03:59Z</time>
      </trkpt>
      <trkpt lat="44.12147" lon="1.78162">
        <ele>333</ele>
        <time>2011-03-27T11:04:03Z</time>
      </trkpt>
      <trkpt lat="44.12136" lon="1.78154">
        <ele>333</ele>
        <time>2011-03-27T11:04:07Z</time>
      </trkpt>
      <trkpt lat="44.12128" lon="1.78149">
        <ele>333</ele>
        <time>2011-03-27T11:04:10Z</time>
      </trkpt>
      <trkpt lat="44.12118" lon="1.7814">
        <ele>333</ele>
        <time>2011-03-27T11:04:14Z</time>
      </trkpt>
      <trkpt lat="44.12108" lon="1.78132">
        <ele>333</ele>
        <time>2011-03-27T11:04:18Z</time>
      </trkpt>
      <trkpt lat="44.12097" lon="1.78124">
        <ele>333</ele>
        <time>2011-03-27T11:04:22Z</time>
      </trkpt>
      <trkpt lat="44.12089" lon="1.78117">
        <ele>333</ele>
        <time>2011-03-27T11:04:25Z</time>
      </trkpt>
      <trkpt lat="44.12078" lon="1.7811">
        <ele>332</ele>
        <time>2011-03-27T11:04:28Z</time>
      </trkpt>
      <trkpt lat="44.12068" lon="1.781">
        <ele>332</ele>
        <time>2011-03-27T11:04:31Z</time>
      </trkpt>
      <trkpt lat="44.12058" lon="1.7809">
        <ele>332</ele>
        <time>2011-03-27T11:04:34Z</time>
      </trkpt>
      <trkpt lat="44.12048" lon="1.78078">
        <ele>332</ele>
        <time>2011-03-27T11:04:37Z</time>
      </trkpt>
      <trkpt lat="44.12042" lon="1.78068">
        <ele>331</ele>
        <time>2011-03-27T11:04:39Z</time>
      </trkpt>
      <trkpt lat="44.12035" lon="1.78055">
        <ele>331</ele>
        <time>2011-03-27T11:04:42Z</time>
      </trkpt>
      <trkpt lat="44.12025" lon="1.78041">
        <ele>331</ele>
        <time>2011-03-27T11:04:45Z</time>
      </trkpt>
      <trkpt lat="44.12017" lon="1.78028">
        <ele>331</ele>
        <time>2011-03-27T11:04:48Z</time>
      </trkpt>
      <trkpt lat="44.12009" lon="1.78015">
        <ele>331</ele>
        <time>2011-03-27T11:04:51Z</time>
      </trkpt>
      <trkpt lat="44.11999" lon="1.77999">
        <ele>330</ele>
        <time>2011-03-27T11:04:54Z</time>
      </trkpt>
      <trkpt lat="44.11991" lon="1.77988">
        <ele>330</ele>
        <time>2011-03-27T11:04:56Z</time>
      </trkpt>
      <trkpt lat="44.11983" lon="1.77978">
        <ele>329</ele>
        <time>2011-03-27T11:04:58Z</time>
      </trkpt>
      <trkpt lat="44.11971" lon="1.77963">
        <ele>329</ele>
        <time>2011-03-27T11:05:01Z</time>
      </trkpt>
      <trkpt lat="44.11964" lon="1.7795">
        <ele>329</ele>
        <time>2011-03-27T11:05:04Z</time>
      </trkpt>
      <trkpt lat="44.11953" lon="1.77937">
        <ele>329</ele>
        <time>2011-03-27T11:05:07Z</time>
      </trkpt>
      <trkpt lat="44.11944" lon="1.77924">
        <ele>329</ele>
        <time>2011-03-27T11:05:10Z</time>
      </trkpt>
      <trkpt lat="44.11931" lon="1.77908">
        <ele>329</ele>
        <time>2011-03-27T11:05:13Z</time>
      </trkpt>
      <trkpt lat="44.11923" lon="1.77899">
        <ele>329</ele>
        <time>2011-03-27T11:05:15Z</time>
      </trkpt>
      <trkpt lat="44.11912" lon="1.77888">
        <ele>328</ele>
        <time>2011-03-27T11:05:18Z</time>
      </trkpt>
      <trkpt lat="44.11902" lon="1.77878">
        <ele>328</ele>
        <time>2011-03-27T11:05:21Z</time>
      </trkpt>
      <trkpt lat="44.11893" lon="1.77871">
        <ele>328</ele>
        <time>2011-03-27T11:05:23Z</time>
      </trkpt>
      <trkpt lat="44.11881" lon="1.7786">
        <ele>328</ele>
        <time>2011-03-27T11:05:26Z</time>
      </trkpt>
      <trkpt lat="44.1187" lon="1.7785">
        <ele>328</ele>
        <time>2011-03-27T11:05:29Z</time>
      </trkpt>
      <trkpt lat="44.1186" lon="1.77844">
        <ele>328</ele>
        <time>2011-03-27T11:05:32Z</time>
      </trkpt>
      <trkpt lat="44.11848" lon="1.77839">
        <ele>328</ele>
        <time>2011-03-27T11:05:35Z</time>
      </trkpt>
      <trkpt lat="44.11835" lon="1.77834">
        <ele>328</ele>
        <time>2011-03-27T11:05:38Z</time>
      </trkpt>
      <trkpt lat="44.11823" lon="1.77829">
        <ele>328</ele>
        <time>2011-03-27T11:05:41Z</time>
      </trkpt>
      <trkpt lat="44.11812" lon="1.77822">
        <ele>328</ele>
        <time>2011-03-27T11:05:44Z</time>
      </trkpt>
      <trkpt lat="44.11802" lon="1.77815">
        <ele>328</ele>
        <time>2011-03-27T11:05:47Z</time>
      </trkpt>
      <trkpt lat="44.11791" lon="1.77807">
        <ele>328</ele>
        <time>2011-03-27T11:05:50Z</time>
      </trkpt>
      <trkpt lat="44.11777" lon="1.77801">
        <ele>328</ele>
        <time>2011-03-27T11:05:53Z</time>
      </trkpt>
      <trkpt lat="44.11766" lon="1.77796">
        <ele>328</ele>
        <time>2011-03-27T11:05:56Z</time>
      </trkpt>
      <trkpt lat="44.11757" lon="1.77789">
        <ele>328</ele>
        <time>2011-03-27T11:06:00Z</time>
      </trkpt>
      <trkpt lat="44.11757" lon="1.77789">
        <ele>328</ele>
        <time>2011-03-27T11:06:07Z</time>
      </trkpt>
      <trkpt lat="44.11757" lon="1.77789">
        <ele>328</ele>
        <time>2011-03-27T11:06:29Z</time>
      </trkpt>
      <trkpt lat="44.1174" lon="1.77772">
        <ele>329</ele>
        <time>2011-03-27T11:06:48Z</time>
      </trkpt>
      <trkpt lat="44.11733" lon="1.77763">
        <ele>329</ele>
        <time>2011-03-27T11:06:52Z</time>
      </trkpt>
      <trkpt lat="44.11724" lon="1.77758">
        <ele>330</ele>
        <time>2011-03-27T11:06:55Z</time>
      </trkpt>
      <trkpt lat="44.11713" lon="1.77753">
        <ele>330</ele>
        <time>2011-03-27T11:06:59Z</time>
      </trkpt>
      <trkpt lat="44.11702" lon="1.7775">
        <ele>330</ele>
        <time>2011-03-27T11:07:03Z</time>
      </trkpt>
      <trkpt lat="44.11693" lon="1.77745">
        <ele>331</ele>
        <time>2011-03-27T11:07:07Z</time>
      </trkpt>
      <trkpt lat="44.11683" lon="1.77739">
        <ele>331</ele>
        <time>2011-03-27T11:07:11Z</time>
      </trkpt>
      <trkpt lat="44.11673" lon="1.77735">
        <ele>331</ele>
        <time>2011-03-27T11:07:15Z</time>
      </trkpt>
      <trkpt lat="44.11665" lon="1.7773">
        <ele>331</ele>
        <time>2011-03-27T11:07:18Z</time>
      </trkpt>
      <trkpt lat="44.11654" lon="1.77722">
        <ele>331</ele>
        <time>2011-03-27T11:07:22Z</time>
      </trkpt>
      <trkpt lat="44.11646" lon="1.77715">
        <ele>331</ele>
        <time>2011-03-27T11:07:25Z</time>
      </trkpt>
      <trkpt lat="44.1164" lon="1.77706">
        <ele>331</ele>
        <time>2011-03-27T11:07:28Z</time>
      </trkpt>
      <trkpt lat="44.11632" lon="1.77694">
        <ele>330</ele>
        <time>2011-03-27T11:07:31Z</time>
      </trkpt>
      <trkpt lat="44.11625" lon="1.77679">
        <ele>330</ele>
        <time>2011-03-27T11:07:34Z</time>
      </trkpt>
      <trkpt lat="44.11616" lon="1.77662">
        <ele>328</ele>
        <time>2011-03-27T11:07:37Z</time>
      </trkpt>
      <trkpt lat="44.11611" lon="1.77646">
        <ele>327</ele>
        <time>2011-03-27T11:07:40Z</time>
      </trkpt>
      <trkpt lat="44.11609" lon="1.77632">
        <ele>327</ele>
        <time>2011-03-27T11:07:42Z</time>
      </trkpt>
      <trkpt lat="44.11608" lon="1.77618">
        <ele>327</ele>
        <time>2011-03-27T11:07:44Z</time>
      </trkpt>
      <trkpt lat="44.11608" lon="1.77598">
        <ele>326</ele>
        <time>2011-03-27T11:07:47Z</time>
      </trkpt>
      <trkpt lat="44.11607" lon="1.77585">
        <ele>325</ele>
        <time>2011-03-27T11:07:49Z</time>
      </trkpt>
      <trkpt lat="44.11605" lon="1.77565">
        <ele>324</ele>
        <time>2011-03-27T11:07:52Z</time>
      </trkpt>
      <trkpt lat="44.11606" lon="1.77545">
        <ele>324</ele>
        <time>2011-03-27T11:07:55Z</time>
      </trkpt>
      <trkpt lat="44.11608" lon="1.7753">
        <ele>324</ele>
        <time>2011-03-27T11:07:58Z</time>
      </trkpt>
      <trkpt lat="44.11609" lon="1.77517">
        <ele>324</ele>
        <time>2011-03-27T11:08:01Z</time>
      </trkpt>
      <trkpt lat="44.1161" lon="1.77501">
        <ele>324</ele>
        <time>2011-03-27T11:08:04Z</time>
      </trkpt>
      <trkpt lat="44.11609" lon="1.77484">
        <ele>324</ele>
        <time>2011-03-27T11:08:07Z</time>
      </trkpt>
      <trkpt lat="44.11607" lon="1.7747">
        <ele>324</ele>
        <time>2011-03-27T11:08:10Z</time>
      </trkpt>
      <trkpt lat="44.11606" lon="1.77456">
        <ele>325</ele>
        <time>2011-03-27T11:08:13Z</time>
      </trkpt>
      <trkpt lat="44.11601" lon="1.77441">
        <ele>324</ele>
        <time>2011-03-27T11:08:17Z</time>
      </trkpt>
      <trkpt lat="44.11594" lon="1.77429">
        <ele>324</ele>
        <time>2011-03-27T11:08:20Z</time>
      </trkpt>
      <trkpt lat="44.11589" lon="1.77417">
        <ele>324</ele>
        <time>2011-03-27T11:08:23Z</time>
      </trkpt>
      <trkpt lat="44.11584" lon="1.77406">
        <ele>324</ele>
        <time>2011-03-27T11:08:26Z</time>
      </trkpt>
      <trkpt lat="44.11579" lon="1.77393">
        <ele>322</ele>
        <time>2011-03-27T11:08:29Z</time>
      </trkpt>
      <trkpt lat="44.11578" lon="1.7738">
        <ele>322</ele>
        <time>2011-03-27T11:08:32Z</time>
      </trkpt>
      <trkpt lat="44.11579" lon="1.77368">
        <ele>322</ele>
        <time>2011-03-27T11:08:37Z</time>
      </trkpt>
      <trkpt lat="44.11574" lon="1.77356">
        <ele>323</ele>
        <time>2011-03-27T11:08:42Z</time>
      </trkpt>
      <trkpt lat="44.11567" lon="1.77345">
        <ele>323</ele>
        <time>2011-03-27T11:08:46Z</time>
      </trkpt>
      <trkpt lat="44.11559" lon="1.77337">
        <ele>323</ele>
        <time>2011-03-27T11:08:50Z</time>
      </trkpt>
      <trkpt lat="44.11551" lon="1.77331">
        <ele>324</ele>
        <time>2011-03-27T11:08:54Z</time>
      </trkpt>
      <trkpt lat="44.1154" lon="1.77326">
        <ele>323</ele>
        <time>2011-03-27T11:08:58Z</time>
      </trkpt>
      <trkpt lat="44.11531" lon="1.77322">
        <ele>322</ele>
        <time>2011-03-27T11:09:01Z</time>
      </trkpt>
      <trkpt lat="44.11519" lon="1.77318">
        <ele>322</ele>
        <time>2011-03-27T11:09:05Z</time>
      </trkpt>
      <trkpt lat="44.11505" lon="1.77314">
        <ele>321</ele>
        <time>2011-03-27T11:09:08Z</time>
      </trkpt>
      <trkpt lat="44.11493" lon="1.77311">
        <ele>318</ele>
        <time>2011-03-27T11:09:11Z</time>
      </trkpt>
      <trkpt lat="44.11481" lon="1.77309">
        <ele>318</ele>
        <time>2011-03-27T11:09:14Z</time>
      </trkpt>
      <trkpt lat="44.11471" lon="1.77303">
        <ele>318</ele>
        <time>2011-03-27T11:09:18Z</time>
      </trkpt>
      <trkpt lat="44.1146" lon="1.77297">
        <ele>318</ele>
        <time>2011-03-27T11:09:21Z</time>
      </trkpt>
      <trkpt lat="44.11449" lon="1.77294">
        <ele>318</ele>
        <time>2011-03-27T11:09:24Z</time>
      </trkpt>
      <trkpt lat="44.11441" lon="1.77291">
        <ele>318</ele>
        <time>2011-03-27T11:09:27Z</time>
      </trkpt>
      <trkpt lat="44.1143" lon="1.77284">
        <ele>318</ele>
        <time>2011-03-27T11:09:32Z</time>
      </trkpt>
      <trkpt lat="44.11421" lon="1.77278">
        <ele>318</ele>
        <time>2011-03-27T11:09:36Z</time>
      </trkpt>
      <trkpt lat="44.1141" lon="1.77276">
        <ele>317</ele>
        <time>2011-03-27T11:09:40Z</time>
      </trkpt>
      <trkpt lat="44.11398" lon="1.77272">
        <ele>316</ele>
        <time>2011-03-27T11:09:43Z</time>
      </trkpt>
      <trkpt lat="44.11389" lon="1.77268">
        <ele>316</ele>
        <time>2011-03-27T11:09:46Z</time>
      </trkpt>
      <trkpt lat="44.11379" lon="1.77263">
        <ele>316</ele>
        <time>2011-03-27T11:09:51Z</time>
      </trkpt>
      <trkpt lat="44.11369" lon="1.7726">
        <ele>316</ele>
        <time>2011-03-27T11:09:55Z</time>
      </trkpt>
      <trkpt lat="44.11359" lon="1.77256">
        <ele>316</ele>
        <time>2011-03-27T11:09:59Z</time>
      </trkpt>
      <trkpt lat="44.11348" lon="1.77249">
        <ele>316</ele>
        <time>2011-03-27T11:10:03Z</time>
      </trkpt>
      <trkpt lat="44.11339" lon="1.77246">
        <ele>316</ele>
        <time>2011-03-27T11:10:06Z</time>
      </trkpt>
      <trkpt lat="44.11329" lon="1.77242">
        <ele>315</ele>
        <time>2011-03-27T11:10:09Z</time>
      </trkpt>
      <trkpt lat="44.1132" lon="1.77237">
        <ele>315</ele>
        <time>2011-03-27T11:10:12Z</time>
      </trkpt>
      <trkpt lat="44.11312" lon="1.77226">
        <ele>314</ele>
        <time>2011-03-27T11:10:16Z</time>
      </trkpt>
      <trkpt lat="44.11308" lon="1.77214">
        <ele>314</ele>
        <time>2011-03-27T11:10:20Z</time>
      </trkpt>
      <trkpt lat="44.11305" lon="1.77197">
        <ele>313</ele>
        <time>2011-03-27T11:10:24Z</time>
      </trkpt>
      <trkpt lat="44.11301" lon="1.77184">
        <ele>313</ele>
        <time>2011-03-27T11:10:27Z</time>
      </trkpt>
      <trkpt lat="44.11299" lon="1.77169">
        <ele>313</ele>
        <time>2011-03-27T11:10:30Z</time>
      </trkpt>
      <trkpt lat="44.11298" lon="1.77152">
        <ele>312</ele>
        <time>2011-03-27T11:10:33Z</time>
      </trkpt>
      <trkpt lat="44.11295" lon="1.77139">
        <ele>312</ele>
        <time>2011-03-27T11:10:35Z</time>
      </trkpt>
      <trkpt lat="44.11292" lon="1.77127">
        <ele>312</ele>
        <time>2011-03-27T11:10:37Z</time>
      </trkpt>
      <trkpt lat="44.11285" lon="1.77107">
        <ele>311</ele>
        <time>2011-03-27T11:10:40Z</time>
      </trkpt>
      <trkpt lat="44.1128" lon="1.77094">
        <ele>311</ele>
        <time>2011-03-27T11:10:42Z</time>
      </trkpt>
      <trkpt lat="44.11275" lon="1.77081">
        <ele>310</ele>
        <time>2011-03-27T11:10:44Z</time>
      </trkpt>
      <trkpt lat="44.11267" lon="1.77063">
        <ele>310</ele>
        <time>2011-03-27T11:10:47Z</time>
      </trkpt>
      <trkpt lat="44.11262" lon="1.7705">
        <ele>310</ele>
        <time>2011-03-27T11:10:49Z</time>
      </trkpt>
      <trkpt lat="44.11257" lon="1.77033">
        <ele>310</ele>
        <time>2011-03-27T11:10:52Z</time>
      </trkpt>
      <trkpt lat="44.11251" lon="1.77017">
        <ele>309</ele>
        <time>2011-03-27T11:10:55Z</time>
      </trkpt>
      <trkpt lat="44.11246" lon="1.77003">
        <ele>309</ele>
        <time>2011-03-27T11:10:58Z</time>
      </trkpt>
      <trkpt lat="44.11243" lon="1.76989">
        <ele>308</ele>
        <time>2011-03-27T11:11:02Z</time>
      </trkpt>
      <trkpt lat="44.11242" lon="1.76975">
        <ele>308</ele>
        <time>2011-03-27T11:11:06Z</time>
      </trkpt>
      <trkpt lat="44.11242" lon="1.7696">
        <ele>308</ele>
        <time>2011-03-27T11:11:11Z</time>
      </trkpt>
      <trkpt lat="44.11241" lon="1.76946">
        <ele>308</ele>
        <time>2011-03-27T11:11:15Z</time>
      </trkpt>
      <trkpt lat="44.11237" lon="1.76932">
        <ele>308</ele>
        <time>2011-03-27T11:11:20Z</time>
      </trkpt>
      <trkpt lat="44.1123" lon="1.76925">
        <ele>308</ele>
        <time>2011-03-27T11:11:23Z</time>
      </trkpt>
      <trkpt lat="44.11222" lon="1.76916">
        <ele>309</ele>
        <time>2011-03-27T11:11:26Z</time>
      </trkpt>
      <trkpt lat="44.11215" lon="1.76904">
        <ele>309</ele>
        <time>2011-03-27T11:11:30Z</time>
      </trkpt>
      <trkpt lat="44.1121" lon="1.76891">
        <ele>309</ele>
        <time>2011-03-27T11:11:34Z</time>
      </trkpt>
      <trkpt lat="44.11208" lon="1.76877">
        <ele>309</ele>
        <time>2011-03-27T11:11:38Z</time>
      </trkpt>
      <trkpt lat="44.11207" lon="1.76864">
        <ele>309</ele>
        <time>2011-03-27T11:11:42Z</time>
      </trkpt>
      <trkpt lat="44.11203" lon="1.76848">
        <ele>309</ele>
        <time>2011-03-27T11:11:46Z</time>
      </trkpt>
      <trkpt lat="44.11198" lon="1.76837">
        <ele>309</ele>
        <time>2011-03-27T11:11:49Z</time>
      </trkpt>
      <trkpt lat="44.11192" lon="1.76827">
        <ele>309</ele>
        <time>2011-03-27T11:11:52Z</time>
      </trkpt>
      <trkpt lat="44.11185" lon="1.76812">
        <ele>309</ele>
        <time>2011-03-27T11:11:55Z</time>
      </trkpt>
      <trkpt lat="44.11179" lon="1.76798">
        <ele>309</ele>
        <time>2011-03-27T11:11:58Z</time>
      </trkpt>
      <trkpt lat="44.11172" lon="1.76783">
        <ele>309</ele>
        <time>2011-03-27T11:12:01Z</time>
      </trkpt>
      <trkpt lat="44.11165" lon="1.76767">
        <ele>307</ele>
        <time>2011-03-27T11:12:04Z</time>
      </trkpt>
      <trkpt lat="44.1116" lon="1.76757">
        <ele>307</ele>
        <time>2011-03-27T11:12:06Z</time>
      </trkpt>
      <trkpt lat="44.11153" lon="1.76741">
        <ele>307</ele>
        <time>2011-03-27T11:12:09Z</time>
      </trkpt>
      <trkpt lat="44.11147" lon="1.76725">
        <ele>306</ele>
        <time>2011-03-27T11:12:12Z</time>
      </trkpt>
      <trkpt lat="44.11138" lon="1.76709">
        <ele>306</ele>
        <time>2011-03-27T11:12:15Z</time>
      </trkpt>
      <trkpt lat="44.11128" lon="1.76695">
        <ele>305</ele>
        <time>2011-03-27T11:12:18Z</time>
      </trkpt>
      <trkpt lat="44.11116" lon="1.76685">
        <ele>305</ele>
        <time>2011-03-27T11:12:21Z</time>
      </trkpt>
      <trkpt lat="44.11108" lon="1.76674">
        <ele>304</ele>
        <time>2011-03-27T11:12:25Z</time>
      </trkpt>
      <trkpt lat="44.11112" lon="1.7666">
        <ele>303</ele>
        <time>2011-03-27T11:12:29Z</time>
      </trkpt>
      <trkpt lat="44.11116" lon="1.7665">
        <ele>303</ele>
        <time>2011-03-27T11:12:32Z</time>
      </trkpt>
      <trkpt lat="44.11125" lon="1.76639">
        <ele>303</ele>
        <time>2011-03-27T11:12:35Z</time>
      </trkpt>
      <trkpt lat="44.11136" lon="1.76632">
        <ele>303</ele>
        <time>2011-03-27T11:12:38Z</time>
      </trkpt>
      <trkpt lat="44.11146" lon="1.76628">
        <ele>304</ele>
        <time>2011-03-27T11:12:41Z</time>
      </trkpt>
      <trkpt lat="44.11157" lon="1.76622">
        <ele>304</ele>
        <time>2011-03-27T11:12:44Z</time>
      </trkpt>
      <trkpt lat="44.11166" lon="1.76614">
        <ele>304</ele>
        <time>2011-03-27T11:12:47Z</time>
      </trkpt>
      <trkpt lat="44.11174" lon="1.76608">
        <ele>307</ele>
        <time>2011-03-27T11:12:50Z</time>
      </trkpt>
      <trkpt lat="44.11184" lon="1.766">
        <ele>307</ele>
        <time>2011-03-27T11:12:54Z</time>
      </trkpt>
      <trkpt lat="44.11192" lon="1.76591">
        <ele>307</ele>
        <time>2011-03-27T11:12:58Z</time>
      </trkpt>
      <trkpt lat="44.11198" lon="1.76579">
        <ele>306</ele>
        <time>2011-03-27T11:13:02Z</time>
      </trkpt>
      <trkpt lat="44.11203" lon="1.76566">
        <ele>307</ele>
        <time>2011-03-27T11:13:06Z</time>
      </trkpt>
      <trkpt lat="44.11207" lon="1.76552">
        <ele>307</ele>
        <time>2011-03-27T11:13:09Z</time>
      </trkpt>
      <trkpt lat="44.11212" lon="1.76538">
        <ele>307</ele>
        <time>2011-03-27T11:13:12Z</time>
      </trkpt>
      <trkpt lat="44.11216" lon="1.76526">
        <ele>307</ele>
        <time>2011-03-27T11:13:15Z</time>
      </trkpt>
      <trkpt lat="44.11218" lon="1.76513">
        <ele>307</ele>
        <time>2011-03-27T11:13:18Z</time>
      </trkpt>
      <trkpt lat="44.11223" lon="1.76498">
        <ele>308</ele>
        <time>2011-03-27T11:13:22Z</time>
      </trkpt>
      <trkpt lat="44.11226" lon="1.76485">
        <ele>308</ele>
        <time>2011-03-27T11:13:27Z</time>
      </trkpt>
      <trkpt lat="44.1123" lon="1.76473">
        <ele>308</ele>
        <time>2011-03-27T11:13:31Z</time>
      </trkpt>
      <trkpt lat="44.11239" lon="1.76463">
        <ele>308</ele>
        <time>2011-03-27T11:13:35Z</time>
      </trkpt>
      <trkpt lat="44.11247" lon="1.76456">
        <ele>308</ele>
        <time>2011-03-27T11:13:38Z</time>
      </trkpt>
      <trkpt lat="44.11257" lon="1.76448">
        <ele>310</ele>
        <time>2011-03-27T11:13:42Z</time>
      </trkpt>
      <trkpt lat="44.11265" lon="1.76442">
        <ele>310</ele>
        <time>2011-03-27T11:13:45Z</time>
      </trkpt>
      <trkpt lat="44.11273" lon="1.76434">
        <ele>310</ele>
        <time>2011-03-27T11:13:48Z</time>
      </trkpt>
      <trkpt lat="44.11281" lon="1.76423">
        <ele>310</ele>
        <time>2011-03-27T11:13:52Z</time>
      </trkpt>
      <trkpt lat="44.1129" lon="1.76412">
        <ele>310</ele>
        <time>2011-03-27T11:13:56Z</time>
      </trkpt>
      <trkpt lat="44.11301" lon="1.76406">
        <ele>311</ele>
        <time>2011-03-27T11:14:00Z</time>
      </trkpt>
      <trkpt lat="44.11311" lon="1.76404">
        <ele>311</ele>
        <time>2011-03-27T11:14:03Z</time>
      </trkpt>
      <trkpt lat="44.11321" lon="1.76395">
        <ele>311</ele>
        <time>2011-03-27T11:14:07Z</time>
      </trkpt>
      <trkpt lat="44.1133" lon="1.76387">
        <ele>311</ele>
        <time>2011-03-27T11:14:11Z</time>
      </trkpt>
      <trkpt lat="44.11339" lon="1.76379">
        <ele>314</ele>
        <time>2011-03-27T11:14:15Z</time>
      </trkpt>
      <trkpt lat="44.11346" lon="1.76369">
        <ele>314</ele>
        <time>2011-03-27T11:14:19Z</time>
      </trkpt>
      <trkpt lat="44.11354" lon="1.76358">
        <ele>314</ele>
        <time>2011-03-27T11:14:23Z</time>
      </trkpt>
      <trkpt lat="44.11364" lon="1.76349">
        <ele>314</ele>
        <time>2011-03-27T11:14:27Z</time>
      </trkpt>
      <trkpt lat="44.11373" lon="1.76344">
        <ele>314</ele>
        <time>2011-03-27T11:14:30Z</time>
      </trkpt>
      <trkpt lat="44.11384" lon="1.7634">
        <ele>315</ele>
        <time>2011-03-27T11:14:34Z</time>
      </trkpt>
      <trkpt lat="44.11395" lon="1.7634">
        <ele>315</ele>
        <time>2011-03-27T11:14:38Z</time>
      </trkpt>
      <trkpt lat="44.11405" lon="1.76342">
        <ele>315</ele>
        <time>2011-03-27T11:14:42Z</time>
      </trkpt>
      <trkpt lat="44.11415" lon="1.76344">
        <ele>315</ele>
        <time>2011-03-27T11:14:46Z</time>
      </trkpt>
      <trkpt lat="44.11425" lon="1.76345">
        <ele>317</ele>
        <time>2011-03-27T11:14:50Z</time>
      </trkpt>
      <trkpt lat="44.11435" lon="1.76347">
        <ele>317</ele>
        <time>2011-03-27T11:14:53Z</time>
      </trkpt>
      <trkpt lat="44.11444" lon="1.76349">
        <ele>317</ele>
        <time>2011-03-27T11:14:56Z</time>
      </trkpt>
      <trkpt lat="44.11454" lon="1.76351">
        <ele>318</ele>
        <time>2011-03-27T11:15:00Z</time>
      </trkpt>
      <trkpt lat="44.11464" lon="1.76348">
        <ele>318</ele>
        <time>2011-03-27T11:15:04Z</time>
      </trkpt>
      <trkpt lat="44.11471" lon="1.7634">
        <ele>319</ele>
        <time>2011-03-27T11:15:08Z</time>
      </trkpt>
      <trkpt lat="44.11478" lon="1.76331">
        <ele>320</ele>
        <time>2011-03-27T11:15:12Z</time>
      </trkpt>
      <trkpt lat="44.11485" lon="1.76324">
        <ele>320</ele>
        <time>2011-03-27T11:15:16Z</time>
      </trkpt>
      <trkpt lat="44.11495" lon="1.76319">
        <ele>320</ele>
        <time>2011-03-27T11:15:20Z</time>
      </trkpt>
      <trkpt lat="44.11504" lon="1.76315">
        <ele>322</ele>
        <time>2011-03-27T11:15:24Z</time>
      </trkpt>
      <trkpt lat="44.11514" lon="1.76312">
        <ele>322</ele>
        <time>2011-03-27T11:15:28Z</time>
      </trkpt>
      <trkpt lat="44.11524" lon="1.76309">
        <ele>323</ele>
        <time>2011-03-27T11:15:32Z</time>
      </trkpt>
      <trkpt lat="44.11534" lon="1.76307">
        <ele>323</ele>
        <time>2011-03-27T11:15:36Z</time>
      </trkpt>
      <trkpt lat="44.11543" lon="1.76305">
        <ele>323</ele>
        <time>2011-03-27T11:15:40Z</time>
      </trkpt>
      <trkpt lat="44.11553" lon="1.76301">
        <ele>323</ele>
        <time>2011-03-27T11:15:44Z</time>
      </trkpt>
      <trkpt lat="44.11563" lon="1.76296">
        <ele>323</ele>
        <time>2011-03-27T11:15:48Z</time>
      </trkpt>
      <trkpt lat="44.11567" lon="1.76285">
        <ele>323</ele>
        <time>2011-03-27T11:15:52Z</time>
      </trkpt>
      <trkpt lat="44.11568" lon="1.76272">
        <ele>324</ele>
        <time>2011-03-27T11:15:56Z</time>
      </trkpt>
      <trkpt lat="44.11568" lon="1.76259">
        <ele>324</ele>
        <time>2011-03-27T11:16:00Z</time>
      </trkpt>
      <trkpt lat="44.11567" lon="1.76246">
        <ele>325</ele>
        <time>2011-03-27T11:16:04Z</time>
      </trkpt>
      <trkpt lat="44.11564" lon="1.76233">
        <ele>325</ele>
        <time>2011-03-27T11:16:08Z</time>
      </trkpt>
      <trkpt lat="44.11559" lon="1.76223">
        <ele>325</ele>
        <time>2011-03-27T11:16:12Z</time>
      </trkpt>
      <trkpt lat="44.11549" lon="1.76227">
        <ele>324</ele>
        <time>2011-03-27T11:16:18Z</time>
      </trkpt>
      <trkpt lat="44.11541" lon="1.76233">
        <ele>324</ele>
        <time>2011-03-27T11:16:21Z</time>
      </trkpt>
      <trkpt lat="44.1153" lon="1.76242">
        <ele>324</ele>
        <time>2011-03-27T11:16:24Z</time>
      </trkpt>
      <trkpt lat="44.11518" lon="1.76249">
        <ele>323</ele>
        <time>2011-03-27T11:16:27Z</time>
      </trkpt>
      <trkpt lat="44.11506" lon="1.76249">
        <ele>323</ele>
        <time>2011-03-27T11:16:30Z</time>
      </trkpt>
      <trkpt lat="44.11495" lon="1.7624">
        <ele>322</ele>
        <time>2011-03-27T11:16:33Z</time>
      </trkpt>
      <trkpt lat="44.11484" lon="1.76227">
        <ele>321</ele>
        <time>2011-03-27T11:16:36Z</time>
      </trkpt>
      <trkpt lat="44.11474" lon="1.76213">
        <ele>321</ele>
        <time>2011-03-27T11:16:39Z</time>
      </trkpt>
      <trkpt lat="44.11463" lon="1.762">
        <ele>321</ele>
        <time>2011-03-27T11:16:42Z</time>
      </trkpt>
      <trkpt lat="44.11454" lon="1.76187">
        <ele>321</ele>
        <time>2011-03-27T11:16:45Z</time>
      </trkpt>
      <trkpt lat="44.11442" lon="1.76181">
        <ele>320</ele>
        <time>2011-03-27T11:16:48Z</time>
      </trkpt>
      <trkpt lat="44.11434" lon="1.76174">
        <ele>320</ele>
        <time>2011-03-27T11:16:51Z</time>
      </trkpt>
      <trkpt lat="44.11433" lon="1.76161">
        <ele>320</ele>
        <time>2011-03-27T11:16:54Z</time>
      </trkpt>
      <trkpt lat="44.11434" lon="1.76146">
        <ele>321</ele>
        <time>2011-03-27T11:16:58Z</time>
      </trkpt>
      <trkpt lat="44.11431" lon="1.7613">
        <ele>321</ele>
        <time>2011-03-27T11:17:02Z</time>
      </trkpt>
      <trkpt lat="44.11424" lon="1.76122">
        <ele>321</ele>
        <time>2011-03-27T11:17:05Z</time>
      </trkpt>
      <trkpt lat="44.11418" lon="1.76112">
        <ele>321</ele>
        <time>2011-03-27T11:17:08Z</time>
      </trkpt>
      <trkpt lat="44.1141" lon="1.761">
        <ele>319</ele>
        <time>2011-03-27T11:17:12Z</time>
      </trkpt>
      <trkpt lat="44.11402" lon="1.76088">
        <ele>319</ele>
        <time>2011-03-27T11:17:16Z</time>
      </trkpt>
      <trkpt lat="44.11393" lon="1.76077">
        <ele>320</ele>
        <time>2011-03-27T11:17:20Z</time>
      </trkpt>
      <trkpt lat="44.11387" lon="1.76066">
        <ele>320</ele>
        <time>2011-03-27T11:17:23Z</time>
      </trkpt>
      <trkpt lat="44.11379" lon="1.76053">
        <ele>320</ele>
        <time>2011-03-27T11:17:26Z</time>
      </trkpt>
      <trkpt lat="44.11372" lon="1.76038">
        <ele>319</ele>
        <time>2011-03-27T11:17:29Z</time>
      </trkpt>
      <trkpt lat="44.11362" lon="1.7602">
        <ele>319</ele>
        <time>2011-03-27T11:17:32Z</time>
      </trkpt>
      <trkpt lat="44.11355" lon="1.76007">
        <ele>319</ele>
        <time>2011-03-27T11:17:34Z</time>
      </trkpt>
      <trkpt lat="44.11345" lon="1.75986">
        <ele>319</ele>
        <time>2011-03-27T11:17:37Z</time>
      </trkpt>
      <trkpt lat="44.1134" lon="1.75971">
        <ele>319</ele>
        <time>2011-03-27T11:17:39Z</time>
      </trkpt>
      <trkpt lat="44.11332" lon="1.75948">
        <ele>316</ele>
        <time>2011-03-27T11:17:42Z</time>
      </trkpt>
      <trkpt lat="44.11326" lon="1.75932">
        <ele>316</ele>
        <time>2011-03-27T11:17:44Z</time>
      </trkpt>
      <trkpt lat="44.11318" lon="1.75908">
        <ele>316</ele>
        <time>2011-03-27T11:17:47Z</time>
      </trkpt>
      <trkpt lat="44.11314" lon="1.75891">
        <ele>315</ele>
        <time>2011-03-27T11:17:49Z</time>
      </trkpt>
      <trkpt lat="44.1131" lon="1.75876">
        <ele>315</ele>
        <time>2011-03-27T11:17:51Z</time>
      </trkpt>
      <trkpt lat="44.11306" lon="1.75858">
        <ele>314</ele>
        <time>2011-03-27T11:17:54Z</time>
      </trkpt>
      <trkpt lat="44.113" lon="1.75844">
        <ele>314</ele>
        <time>2011-03-27T11:17:57Z</time>
      </trkpt>
      <trkpt lat="44.11292" lon="1.75833">
        <ele>314</ele>
        <time>2011-03-27T11:18:00Z</time>
      </trkpt>
      <trkpt lat="44.11282" lon="1.75826">
        <ele>314</ele>
        <time>2011-03-27T11:18:03Z</time>
      </trkpt>
      <trkpt lat="44.11276" lon="1.75813">
        <ele>314</ele>
        <time>2011-03-27T11:18:06Z</time>
      </trkpt>
      <trkpt lat="44.11272" lon="1.75799">
        <ele>314</ele>
        <time>2011-03-27T11:18:09Z</time>
      </trkpt>
      <trkpt lat="44.11267" lon="1.75787">
        <ele>314</ele>
        <time>2011-03-27T11:18:12Z</time>
      </trkpt>
      <trkpt lat="44.11262" lon="1.75777">
        <ele>314</ele>
        <time>2011-03-27T11:18:15Z</time>
      </trkpt>
      <trkpt lat="44.11256" lon="1.75764">
        <ele>315</ele>
        <time>2011-03-27T11:18:19Z</time>
      </trkpt>
      <trkpt lat="44.11249" lon="1.75753">
        <ele>315</ele>
        <time>2011-03-27T11:18:23Z</time>
      </trkpt>
      <trkpt lat="44.11241" lon="1.75741">
        <ele>315</ele>
        <time>2011-03-27T11:18:27Z</time>
      </trkpt>
      <trkpt lat="44.11236" lon="1.75728">
        <ele>315</ele>
        <time>2011-03-27T11:18:31Z</time>
      </trkpt>
      <trkpt lat="44.11228" lon="1.75716">
        <ele>314</ele>
        <time>2011-03-27T11:18:35Z</time>
      </trkpt>
      <trkpt lat="44.11218" lon="1.75709">
        <ele>314</ele>
        <time>2011-03-27T11:18:39Z</time>
      </trkpt>
      <trkpt lat="44.1121" lon="1.75704">
        <ele>314</ele>
        <time>2011-03-27T11:18:42Z</time>
      </trkpt>
      <trkpt lat="44.11201" lon="1.75698">
        <ele>314</ele>
        <time>2011-03-27T11:18:45Z</time>
      </trkpt>
      <trkpt lat="44.11189" lon="1.75693">
        <ele>314</ele>
        <time>2011-03-27T11:18:48Z</time>
      </trkpt>
      <trkpt lat="44.1118" lon="1.75692">
        <ele>314</ele>
        <time>2011-03-27T11:18:50Z</time>
      </trkpt>
      <trkpt lat="44.11167" lon="1.75692">
        <ele>314</ele>
        <time>2011-03-27T11:18:53Z</time>
      </trkpt>
      <trkpt lat="44.11158" lon="1.75693">
        <ele>312</ele>
        <time>2011-03-27T11:18:55Z</time>
      </trkpt>
      <trkpt lat="44.11143" lon="1.75694">
        <ele>312</ele>
        <time>2011-03-27T11:18:58Z</time>
      </trkpt>
      <trkpt lat="44.11133" lon="1.75694">
        <ele>311</ele>
        <time>2011-03-27T11:19:00Z</time>
      </trkpt>
      <trkpt lat="44.11121" lon="1.75694">
        <ele>311</ele>
        <time>2011-03-27T11:19:03Z</time>
      </trkpt>
      <trkpt lat="44.11112" lon="1.75694">
        <ele>311</ele>
        <time>2011-03-27T11:19:05Z</time>
      </trkpt>
      <trkpt lat="44.11102" lon="1.75694">
        <ele>311</ele>
        <time>2011-03-27T11:19:07Z</time>
      </trkpt>
      <trkpt lat="44.11093" lon="1.75695">
        <ele>310</ele>
        <time>2011-03-27T11:19:09Z</time>
      </trkpt>
      <trkpt lat="44.11083" lon="1.75696">
        <ele>309</ele>
        <time>2011-03-27T11:19:11Z</time>
      </trkpt>
      <trkpt lat="44.11068" lon="1.75697">
        <ele>309</ele>
        <time>2011-03-27T11:19:14Z</time>
      </trkpt>
      <trkpt lat="44.11054" lon="1.75699">
        <ele>308</ele>
        <time>2011-03-27T11:19:17Z</time>
      </trkpt>
      <trkpt lat="44.11041" lon="1.75701">
        <ele>308</ele>
        <time>2011-03-27T11:19:20Z</time>
      </trkpt>
      <trkpt lat="44.11029" lon="1.75702">
        <ele>308</ele>
        <time>2011-03-27T11:19:23Z</time>
      </trkpt>
      <trkpt lat="44.11017" lon="1.75705">
        <ele>308</ele>
        <time>2011-03-27T11:19:26Z</time>
      </trkpt>
      <trkpt lat="44.11004" lon="1.75707">
        <ele>308</ele>
        <time>2011-03-27T11:19:29Z</time>
      </trkpt>
      <trkpt lat="44.10991" lon="1.75708">
        <ele>307</ele>
        <time>2011-03-27T11:19:32Z</time>
      </trkpt>
      <trkpt lat="44.10977" lon="1.7571">
        <ele>308</ele>
        <time>2011-03-27T11:19:35Z</time>
      </trkpt>
      <trkpt lat="44.10965" lon="1.75713">
        <ele>308</ele>
        <time>2011-03-27T11:19:38Z</time>
      </trkpt>
      <trkpt lat="44.10951" lon="1.75715">
        <ele>308</ele>
        <time>2011-03-27T11:19:41Z</time>
      </trkpt>
      <trkpt lat="44.10942" lon="1.75717">
        <ele>308</ele>
        <time>2011-03-27T11:19:43Z</time>
      </trkpt>
      <trkpt lat="44.10929" lon="1.75721">
        <ele>308</ele>
        <time>2011-03-27T11:19:46Z</time>
      </trkpt>
      <trkpt lat="44.10916" lon="1.75722">
        <ele>309</ele>
        <time>2011-03-27T11:19:49Z</time>
      </trkpt>
      <trkpt lat="44.10907" lon="1.75721">
        <ele>309</ele>
        <time>2011-03-27T11:19:52Z</time>
      </trkpt>
      <trkpt lat="44.10897" lon="1.7572">
        <ele>309</ele>
        <time>2011-03-27T11:19:55Z</time>
      </trkpt>
      <trkpt lat="44.10888" lon="1.75716">
        <ele>309</ele>
        <time>2011-03-27T11:19:58Z</time>
      </trkpt>
      <trkpt lat="44.1088" lon="1.75712">
        <ele>309</ele>
        <time>2011-03-27T11:20:01Z</time>
      </trkpt>
      <trkpt lat="44.10868" lon="1.75707">
        <ele>309</ele>
        <time>2011-03-27T11:20:05Z</time>
      </trkpt>
      <trkpt lat="44.10859" lon="1.75702">
        <ele>309</ele>
        <time>2011-03-27T11:20:09Z</time>
      </trkpt>
      <trkpt lat="44.10851" lon="1.75695">
        <ele>309</ele>
        <time>2011-03-27T11:20:12Z</time>
      </trkpt>
      <trkpt lat="44.10846" lon="1.75682">
        <ele>308</ele>
        <time>2011-03-27T11:20:15Z</time>
      </trkpt>
      <trkpt lat="44.10841" lon="1.75669">
        <ele>308</ele>
        <time>2011-03-27T11:20:18Z</time>
      </trkpt>
      <trkpt lat="44.10834" lon="1.75654">
        <ele>308</ele>
        <time>2011-03-27T11:20:21Z</time>
      </trkpt>
      <trkpt lat="44.10827" lon="1.75641">
        <ele>308</ele>
        <time>2011-03-27T11:20:24Z</time>
      </trkpt>
      <trkpt lat="44.10818" lon="1.75629">
        <ele>308</ele>
        <time>2011-03-27T11:20:27Z</time>
      </trkpt>
      <trkpt lat="44.10809" lon="1.75617">
        <ele>308</ele>
        <time>2011-03-27T11:20:30Z</time>
      </trkpt>
      <trkpt lat="44.108" lon="1.75607">
        <ele>308</ele>
        <time>2011-03-27T11:20:33Z</time>
      </trkpt>
      <trkpt lat="44.1079" lon="1.75598">
        <ele>309</ele>
        <time>2011-03-27T11:20:36Z</time>
      </trkpt>
      <trkpt lat="44.10781" lon="1.75592">
        <ele>309</ele>
        <time>2011-03-27T11:20:39Z</time>
      </trkpt>
      <trkpt lat="44.10772" lon="1.75587">
        <ele>309</ele>
        <time>2011-03-27T11:20:42Z</time>
      </trkpt>
      <trkpt lat="44.10762" lon="1.75581">
        <ele>308</ele>
        <time>2011-03-27T11:20:46Z</time>
      </trkpt>
      <trkpt lat="44.10752" lon="1.75579">
        <ele>309</ele>
        <time>2011-03-27T11:20:52Z</time>
      </trkpt>
      <trkpt lat="44.10742" lon="1.7558">
        <ele>310</ele>
        <time>2011-03-27T11:20:59Z</time>
      </trkpt>
      <trkpt lat="44.10733" lon="1.75583">
        <ele>311</ele>
        <time>2011-03-27T11:21:06Z</time>
      </trkpt>
      <trkpt lat="44.10726" lon="1.75593">
        <ele>313</ele>
        <time>2011-03-27T11:21:13Z</time>
      </trkpt>
      <trkpt lat="44.10722" lon="1.75605">
        <ele>313</ele>
        <time>2011-03-27T11:21:20Z</time>
      </trkpt>
      <trkpt lat="44.10717" lon="1.75617">
        <ele>314</ele>
        <time>2011-03-27T11:21:27Z</time>
      </trkpt>
      <trkpt lat="44.1071" lon="1.75625">
        <ele>314</ele>
        <time>2011-03-27T11:21:35Z</time>
      </trkpt>
      <trkpt lat="44.107" lon="1.75631">
        <ele>315</ele>
        <time>2011-03-27T11:21:42Z</time>
      </trkpt>
      <trkpt lat="44.10691" lon="1.75634">
        <ele>316</ele>
        <time>2011-03-27T11:21:51Z</time>
      </trkpt>
      <trkpt lat="44.10681" lon="1.75634">
        <ele>316</ele>
        <time>2011-03-27T11:21:59Z</time>
      </trkpt>
      <trkpt lat="44.10672" lon="1.75633">
        <ele>316</ele>
        <time>2011-03-27T11:22:04Z</time>
      </trkpt>
      <trkpt lat="44.10663" lon="1.75631">
        <ele>320</ele>
        <time>2011-03-27T11:22:10Z</time>
      </trkpt>
      <trkpt lat="44.10654" lon="1.7563">
        <ele>321</ele>
        <time>2011-03-27T11:22:16Z</time>
      </trkpt>
      <trkpt lat="44.10645" lon="1.75625">
        <ele>321</ele>
        <time>2011-03-27T11:22:23Z</time>
      </trkpt>
      <trkpt lat="44.10635" lon="1.75623">
        <ele>321</ele>
        <time>2011-03-27T11:22:30Z</time>
      </trkpt>
      <trkpt lat="44.10625" lon="1.75619">
        <ele>321</ele>
        <time>2011-03-27T11:22:36Z</time>
      </trkpt>
      <trkpt lat="44.10617" lon="1.75614">
        <ele>322</ele>
        <time>2011-03-27T11:22:41Z</time>
      </trkpt>
      <trkpt lat="44.10607" lon="1.75609">
        <ele>322</ele>
        <time>2011-03-27T11:22:45Z</time>
      </trkpt>
      <trkpt lat="44.10599" lon="1.75603">
        <ele>323</ele>
        <time>2011-03-27T11:22:50Z</time>
      </trkpt>
      <trkpt lat="44.1059" lon="1.75596">
        <ele>323</ele>
        <time>2011-03-27T11:22:56Z</time>
      </trkpt>
      <trkpt lat="44.10582" lon="1.75586">
        <ele>325</ele>
        <time>2011-03-27T11:23:03Z</time>
      </trkpt>
      <trkpt lat="44.10574" lon="1.75576">
        <ele>324</ele>
        <time>2011-03-27T11:23:09Z</time>
      </trkpt>
      <trkpt lat="44.10567" lon="1.75569">
        <ele>324</ele>
        <time>2011-03-27T11:23:14Z</time>
      </trkpt>
      <trkpt lat="44.10561" lon="1.75558">
        <ele>324</ele>
        <time>2011-03-27T11:23:20Z</time>
      </trkpt>
      <trkpt lat="44.10554" lon="1.75547">
        <ele>324</ele>
        <time>2011-03-27T11:23:25Z</time>
      </trkpt>
      <trkpt lat="44.10548" lon="1.75536">
        <ele>324</ele>
        <time>2011-03-27T11:23:30Z</time>
      </trkpt>
      <trkpt lat="44.1054" lon="1.75526">
        <ele>324</ele>
        <time>2011-03-27T11:23:35Z</time>
      </trkpt>
      <trkpt lat="44.10533" lon="1.75513">
        <ele>323</ele>
        <time>2011-03-27T11:23:39Z</time>
      </trkpt>
      <trkpt lat="44.10526" lon="1.75499">
        <ele>323</ele>
        <time>2011-03-27T11:23:42Z</time>
      </trkpt>
      <trkpt lat="44.10522" lon="1.75488">
        <ele>323</ele>
        <time>2011-03-27T11:23:44Z</time>
      </trkpt>
      <trkpt lat="44.10513" lon="1.7547">
        <ele>323</ele>
        <time>2011-03-27T11:23:47Z</time>
      </trkpt>
      <trkpt lat="44.10506" lon="1.7546">
        <ele>323</ele>
        <time>2011-03-27T11:23:49Z</time>
      </trkpt>
      <trkpt lat="44.10499" lon="1.75452">
        <ele>320</ele>
        <time>2011-03-27T11:23:51Z</time>
      </trkpt>
      <trkpt lat="44.10488" lon="1.75441">
        <ele>320</ele>
        <time>2011-03-27T11:23:54Z</time>
      </trkpt>
      <trkpt lat="44.10478" lon="1.75429">
        <ele>320</ele>
        <time>2011-03-27T11:23:57Z</time>
      </trkpt>
      <trkpt lat="44.10469" lon="1.75415">
        <ele>322</ele>
        <time>2011-03-27T11:24:00Z</time>
      </trkpt>
      <trkpt lat="44.1046" lon="1.754">
        <ele>321</ele>
        <time>2011-03-27T11:24:03Z</time>
      </trkpt>
      <trkpt lat="44.10454" lon="1.7539">
        <ele>321</ele>
        <time>2011-03-27T11:24:05Z</time>
      </trkpt>
      <trkpt lat="44.10443" lon="1.7538">
        <ele>321</ele>
        <time>2011-03-27T11:24:08Z</time>
      </trkpt>
      <trkpt lat="44.10436" lon="1.75369">
        <ele>321</ele>
        <time>2011-03-27T11:24:11Z</time>
      </trkpt>
      <trkpt lat="44.10429" lon="1.75355">
        <ele>321</ele>
        <time>2011-03-27T11:24:14Z</time>
      </trkpt>
      <trkpt lat="44.10421" lon="1.75341">
        <ele>321</ele>
        <time>2011-03-27T11:24:17Z</time>
      </trkpt>
      <trkpt lat="44.10412" lon="1.75335">
        <ele>320</ele>
        <time>2011-03-27T11:24:19Z</time>
      </trkpt>
      <trkpt lat="44.104" lon="1.7533">
        <ele>319</ele>
        <time>2011-03-27T11:24:22Z</time>
      </trkpt>
      <trkpt lat="44.10385" lon="1.75328">
        <ele>317</ele>
        <time>2011-03-27T11:24:25Z</time>
      </trkpt>
      <trkpt lat="44.10372" lon="1.75327">
        <ele>316</ele>
        <time>2011-03-27T11:24:27Z</time>
      </trkpt>
      <trkpt lat="44.10356" lon="1.75321">
        <ele>315</ele>
        <time>2011-03-27T11:24:30Z</time>
      </trkpt>
      <trkpt lat="44.10347" lon="1.75309">
        <ele>315</ele>
        <time>2011-03-27T11:24:33Z</time>
      </trkpt>
      <trkpt lat="44.10342" lon="1.75294">
        <ele>315</ele>
        <time>2011-03-27T11:24:36Z</time>
      </trkpt>
      <trkpt lat="44.10338" lon="1.75278">
        <ele>315</ele>
        <time>2011-03-27T11:24:39Z</time>
      </trkpt>
      <trkpt lat="44.10332" lon="1.75267">
        <ele>310</ele>
        <time>2011-03-27T11:24:41Z</time>
      </trkpt>
      <trkpt lat="44.10326" lon="1.75256">
        <ele>311</ele>
        <time>2011-03-27T11:24:43Z</time>
      </trkpt>
      <trkpt lat="44.10322" lon="1.75245">
        <ele>311</ele>
        <time>2011-03-27T11:24:45Z</time>
      </trkpt>
      <trkpt lat="44.10316" lon="1.75229">
        <ele>311</ele>
        <time>2011-03-27T11:24:48Z</time>
      </trkpt>
      <trkpt lat="44.10311" lon="1.75211">
        <ele>311</ele>
        <time>2011-03-27T11:24:51Z</time>
      </trkpt>
      <trkpt lat="44.10304" lon="1.75201">
        <ele>311</ele>
        <time>2011-03-27T11:24:53Z</time>
      </trkpt>
      <trkpt lat="44.10294" lon="1.75185">
        <ele>311</ele>
        <time>2011-03-27T11:24:56Z</time>
      </trkpt>
      <trkpt lat="44.10289" lon="1.75174">
        <ele>311</ele>
        <time>2011-03-27T11:24:58Z</time>
      </trkpt>
      <trkpt lat="44.1028" lon="1.75159">
        <ele>312</ele>
        <time>2011-03-27T11:25:01Z</time>
      </trkpt>
      <trkpt lat="44.10274" lon="1.75149">
        <ele>312</ele>
        <time>2011-03-27T11:25:03Z</time>
      </trkpt>
      <trkpt lat="44.10265" lon="1.75134">
        <ele>312</ele>
        <time>2011-03-27T11:25:06Z</time>
      </trkpt>
      <trkpt lat="44.10257" lon="1.75119">
        <ele>312</ele>
        <time>2011-03-27T11:25:09Z</time>
      </trkpt>
      <trkpt lat="44.10248" lon="1.75104">
        <ele>308</ele>
        <time>2011-03-27T11:25:12Z</time>
      </trkpt>
      <trkpt lat="44.10239" lon="1.75088">
        <ele>309</ele>
        <time>2011-03-27T11:25:15Z</time>
      </trkpt>
      <trkpt lat="44.10231" lon="1.75072">
        <ele>310</ele>
        <time>2011-03-27T11:25:18Z</time>
      </trkpt>
      <trkpt lat="44.10223" lon="1.75056">
        <ele>309</ele>
        <time>2011-03-27T11:25:21Z</time>
      </trkpt>
      <trkpt lat="44.10216" lon="1.75041">
        <ele>309</ele>
        <time>2011-03-27T11:25:24Z</time>
      </trkpt>
      <trkpt lat="44.1021" lon="1.75025">
        <ele>309</ele>
        <time>2011-03-27T11:25:27Z</time>
      </trkpt>
      <trkpt lat="44.10203" lon="1.7501">
        <ele>309</ele>
        <time>2011-03-27T11:25:30Z</time>
      </trkpt>
      <trkpt lat="44.10196" lon="1.74996">
        <ele>310</ele>
        <time>2011-03-27T11:25:33Z</time>
      </trkpt>
      <trkpt lat="44.10192" lon="1.7498">
        <ele>310</ele>
        <time>2011-03-27T11:25:36Z</time>
      </trkpt>
      <trkpt lat="44.10194" lon="1.74965">
        <ele>310</ele>
        <time>2011-03-27T11:25:40Z</time>
      </trkpt>
      <trkpt lat="44.10197" lon="1.74952">
        <ele>310</ele>
        <time>2011-03-27T11:25:44Z</time>
      </trkpt>
      <trkpt lat="44.10198" lon="1.74938">
        <ele>310</ele>
        <time>2011-03-27T11:25:47Z</time>
      </trkpt>
      <trkpt lat="44.10201" lon="1.74921">
        <ele>310</ele>
        <time>2011-03-27T11:25:50Z</time>
      </trkpt>
      <trkpt lat="44.10204" lon="1.74906">
        <ele>310</ele>
        <time>2011-03-27T11:25:53Z</time>
      </trkpt>
      <trkpt lat="44.10205" lon="1.7489">
        <ele>310</ele>
        <time>2011-03-27T11:25:56Z</time>
      </trkpt>
      <trkpt lat="44.10204" lon="1.74874">
        <ele>309</ele>
        <time>2011-03-27T11:25:59Z</time>
      </trkpt>
      <trkpt lat="44.102" lon="1.74861">
        <ele>309</ele>
        <time>2011-03-27T11:26:02Z</time>
      </trkpt>
      <trkpt lat="44.10191" lon="1.74855">
        <ele>309</ele>
        <time>2011-03-27T11:26:07Z</time>
      </trkpt>
      <trkpt lat="44.10183" lon="1.74863">
        <ele>309</ele>
        <time>2011-03-27T11:26:14Z</time>
      </trkpt>
      <trkpt lat="44.10183" lon="1.74863">
        <ele>309</ele>
        <time>2011-03-27T11:26:44Z</time>
      </trkpt>
      <trkpt lat="44.10169" lon="1.74873">
        <ele>309</ele>
        <time>2011-03-27T11:27:51Z</time>
      </trkpt>
      <trkpt lat="44.10169" lon="1.74873">
        <ele>309</ele>
        <time>2011-03-27T11:27:51Z</time>
      </trkpt>
      <trkpt lat="44.10169" lon="1.74873">
        <ele>309</ele>
        <time>2011-03-27T11:27:52Z</time>
      </trkpt>
      <trkpt lat="44.10158" lon="1.7488">
        <ele>309</ele>
        <time>2011-03-27T11:27:55Z</time>
      </trkpt>
      <trkpt lat="44.1015" lon="1.74891">
        <ele>309</ele>
        <time>2011-03-27T11:27:58Z</time>
      </trkpt>
      <trkpt lat="44.1014" lon="1.74901">
        <ele>309</ele>
        <time>2011-03-27T11:28:01Z</time>
      </trkpt>
      <trkpt lat="44.1013" lon="1.7491">
        <ele>309</ele>
        <time>2011-03-27T11:28:04Z</time>
      </trkpt>
      <trkpt lat="44.10119" lon="1.74917">
        <ele>310</ele>
        <time>2011-03-27T11:28:07Z</time>
      </trkpt>
      <trkpt lat="44.10108" lon="1.74923">
        <ele>310</ele>
        <time>2011-03-27T11:28:10Z</time>
      </trkpt>
      <trkpt lat="44.10098" lon="1.74929">
        <ele>310</ele>
        <time>2011-03-27T11:28:13Z</time>
      </trkpt>
      <trkpt lat="44.10086" lon="1.74934">
        <ele>310</ele>
        <time>2011-03-27T11:28:16Z</time>
      </trkpt>
      <trkpt lat="44.10074" lon="1.74939">
        <ele>312</ele>
        <time>2011-03-27T11:28:19Z</time>
      </trkpt>
      <trkpt lat="44.10062" lon="1.74945">
        <ele>312</ele>
        <time>2011-03-27T11:28:22Z</time>
      </trkpt>
      <trkpt lat="44.1005" lon="1.74951">
        <ele>313</ele>
        <time>2011-03-27T11:28:25Z</time>
      </trkpt>
      <trkpt lat="44.10042" lon="1.74957">
        <ele>313</ele>
        <time>2011-03-27T11:28:28Z</time>
      </trkpt>
      <trkpt lat="44.10032" lon="1.74962">
        <ele>313</ele>
        <time>2011-03-27T11:28:31Z</time>
      </trkpt>
      <trkpt lat="44.10023" lon="1.74965">
        <ele>313</ele>
        <time>2011-03-27T11:28:34Z</time>
      </trkpt>
      <trkpt lat="44.10013" lon="1.7497">
        <ele>313</ele>
        <time>2011-03-27T11:28:38Z</time>
      </trkpt>
      <trkpt lat="44.10005" lon="1.74976">
        <ele>313</ele>
        <time>2011-03-27T11:28:42Z</time>
      </trkpt>
      <trkpt lat="44.09996" lon="1.74984">
        <ele>316</ele>
        <time>2011-03-27T11:28:46Z</time>
      </trkpt>
      <trkpt lat="44.09987" lon="1.7499">
        <ele>316</ele>
        <time>2011-03-27T11:28:50Z</time>
      </trkpt>
      <trkpt lat="44.09978" lon="1.74997">
        <ele>317</ele>
        <time>2011-03-27T11:28:54Z</time>
      </trkpt>
      <trkpt lat="44.0997" lon="1.75006">
        <ele>316</ele>
        <time>2011-03-27T11:28:58Z</time>
      </trkpt>
      <trkpt lat="44.0996" lon="1.75012">
        <ele>317</ele>
        <time>2011-03-27T11:29:02Z</time>
      </trkpt>
      <trkpt lat="44.09951" lon="1.75019">
        <ele>317</ele>
        <time>2011-03-27T11:29:06Z</time>
      </trkpt>
      <trkpt lat="44.0994" lon="1.75023">
        <ele>318</ele>
        <time>2011-03-27T11:29:10Z</time>
      </trkpt>
      <trkpt lat="44.0993" lon="1.75025">
        <ele>318</ele>
        <time>2011-03-27T11:29:14Z</time>
      </trkpt>
      <trkpt lat="44.0992" lon="1.75026">
        <ele>318</ele>
        <time>2011-03-27T11:29:18Z</time>
      </trkpt>
      <trkpt lat="44.09911" lon="1.75033">
        <ele>321</ele>
        <time>2011-03-27T11:29:22Z</time>
      </trkpt>
      <trkpt lat="44.09902" lon="1.75044">
        <ele>321</ele>
        <time>2011-03-27T11:29:27Z</time>
      </trkpt>
      <trkpt lat="44.09893" lon="1.7505">
        <ele>320</ele>
        <time>2011-03-27T11:29:31Z</time>
      </trkpt>
      <trkpt lat="44.09883" lon="1.75052">
        <ele>321</ele>
        <time>2011-03-27T11:29:34Z</time>
      </trkpt>
      <trkpt lat="44.09872" lon="1.75058">
        <ele>321</ele>
        <time>2011-03-27T11:29:37Z</time>
      </trkpt>
      <trkpt lat="44.09859" lon="1.75067">
        <ele>321</ele>
        <time>2011-03-27T11:29:40Z</time>
      </trkpt>
      <trkpt lat="44.09845" lon="1.75079">
        <ele>321</ele>
        <time>2011-03-27T11:29:43Z</time>
      </trkpt>
      <trkpt lat="44.09835" lon="1.75087">
        <ele>321</ele>
        <time>2011-03-27T11:29:45Z</time>
      </trkpt>
      <trkpt lat="44.0982" lon="1.75101">
        <ele>319</ele>
        <time>2011-03-27T11:29:48Z</time>
      </trkpt>
      <trkpt lat="44.0981" lon="1.75111">
        <ele>319</ele>
        <time>2011-03-27T11:29:50Z</time>
      </trkpt>
      <trkpt lat="44.09795" lon="1.75127">
        <ele>318</ele>
        <time>2011-03-27T11:29:53Z</time>
      </trkpt>
      <trkpt lat="44.09784" lon="1.75137">
        <ele>318</ele>
        <time>2011-03-27T11:29:55Z</time>
      </trkpt>
      <trkpt lat="44.0977" lon="1.75151">
        <ele>317</ele>
        <time>2011-03-27T11:29:58Z</time>
      </trkpt>
      <trkpt lat="44.09755" lon="1.75163">
        <ele>316</ele>
        <time>2011-03-27T11:30:01Z</time>
      </trkpt>
      <trkpt lat="44.0974" lon="1.75177">
        <ele>315</ele>
        <time>2011-03-27T11:30:04Z</time>
      </trkpt>
      <trkpt lat="44.09731" lon="1.75186">
        <ele>314</ele>
        <time>2011-03-27T11:30:06Z</time>
      </trkpt>
      <trkpt lat="44.09717" lon="1.75198">
        <ele>314</ele>
        <time>2011-03-27T11:30:09Z</time>
      </trkpt>
      <trkpt lat="44.09708" lon="1.75207">
        <ele>313</ele>
        <time>2011-03-27T11:30:12Z</time>
      </trkpt>
      <trkpt lat="44.09699" lon="1.75213">
        <ele>313</ele>
        <time>2011-03-27T11:30:15Z</time>
      </trkpt>
      <trkpt lat="44.09689" lon="1.7522">
        <ele>313</ele>
        <time>2011-03-27T11:30:18Z</time>
      </trkpt>
      <trkpt lat="44.09679" lon="1.75229">
        <ele>313</ele>
        <time>2011-03-27T11:30:21Z</time>
      </trkpt>
      <trkpt lat="44.09671" lon="1.75243">
        <ele>312</ele>
        <time>2011-03-27T11:30:24Z</time>
      </trkpt>
      <trkpt lat="44.09663" lon="1.75259">
        <ele>313</ele>
        <time>2011-03-27T11:30:27Z</time>
      </trkpt>
      <trkpt lat="44.09657" lon="1.75275">
        <ele>313</ele>
        <time>2011-03-27T11:30:30Z</time>
      </trkpt>
      <trkpt lat="44.09652" lon="1.75291">
        <ele>314</ele>
        <time>2011-03-27T11:30:33Z</time>
      </trkpt>
      <trkpt lat="44.09648" lon="1.75309">
        <ele>314</ele>
        <time>2011-03-27T11:30:36Z</time>
      </trkpt>
      <trkpt lat="44.09645" lon="1.75328">
        <ele>314</ele>
        <time>2011-03-27T11:30:39Z</time>
      </trkpt>
      <trkpt lat="44.09641" lon="1.75346">
        <ele>316</ele>
        <time>2011-03-27T11:30:42Z</time>
      </trkpt>
      <trkpt lat="44.09638" lon="1.75358">
        <ele>316</ele>
        <time>2011-03-27T11:30:44Z</time>
      </trkpt>
      <trkpt lat="44.09634" lon="1.75376">
        <ele>316</ele>
        <time>2011-03-27T11:30:47Z</time>
      </trkpt>
      <trkpt lat="44.09632" lon="1.75389">
        <ele>316</ele>
        <time>2011-03-27T11:30:49Z</time>
      </trkpt>
      <trkpt lat="44.09629" lon="1.75407">
        <ele>317</ele>
        <time>2011-03-27T11:30:52Z</time>
      </trkpt>
      <trkpt lat="44.09629" lon="1.75425">
        <ele>317</ele>
        <time>2011-03-27T11:30:55Z</time>
      </trkpt>
      <trkpt lat="44.09631" lon="1.75443">
        <ele>317</ele>
        <time>2011-03-27T11:30:58Z</time>
      </trkpt>
      <trkpt lat="44.09631" lon="1.75457">
        <ele>317</ele>
        <time>2011-03-27T11:31:01Z</time>
      </trkpt>
      <trkpt lat="44.09631" lon="1.75457">
        <ele>317</ele>
        <time>2011-03-27T11:31:03Z</time>
      </trkpt>
      <trkpt lat="44.09616" lon="1.75452">
        <ele>317</ele>
        <time>2011-03-27T11:31:07Z</time>
      </trkpt>
      <trkpt lat="44.09609" lon="1.75442">
        <ele>317</ele>
        <time>2011-03-27T11:31:09Z</time>
      </trkpt>
      <trkpt lat="44.09597" lon="1.75426">
        <ele>316</ele>
        <time>2011-03-27T11:31:12Z</time>
      </trkpt>
      <trkpt lat="44.0959" lon="1.75416">
        <ele>316</ele>
        <time>2011-03-27T11:31:14Z</time>
      </trkpt>
      <trkpt lat="44.09581" lon="1.75401">
        <ele>316</ele>
        <time>2011-03-27T11:31:17Z</time>
      </trkpt>
      <trkpt lat="44.09571" lon="1.75386">
        <ele>316</ele>
        <time>2011-03-27T11:31:20Z</time>
      </trkpt>
      <trkpt lat="44.09561" lon="1.7537">
        <ele>317</ele>
        <time>2011-03-27T11:31:23Z</time>
      </trkpt>
      <trkpt lat="44.09555" lon="1.75359">
        <ele>317</ele>
        <time>2011-03-27T11:31:25Z</time>
      </trkpt>
      <trkpt lat="44.09547" lon="1.75343">
        <ele>317</ele>
        <time>2011-03-27T11:31:28Z</time>
      </trkpt>
      <trkpt lat="44.09539" lon="1.75327">
        <ele>317</ele>
        <time>2011-03-27T11:31:31Z</time>
      </trkpt>
      <trkpt lat="44.09532" lon="1.75317">
        <ele>317</ele>
        <time>2011-03-27T11:31:33Z</time>
      </trkpt>
      <trkpt lat="44.09522" lon="1.75303">
        <ele>317</ele>
        <time>2011-03-27T11:31:36Z</time>
      </trkpt>
      <trkpt lat="44.09513" lon="1.75293">
        <ele>317</ele>
        <time>2011-03-27T11:31:39Z</time>
      </trkpt>
      <trkpt lat="44.09504" lon="1.75283">
        <ele>317</ele>
        <time>2011-03-27T11:31:42Z</time>
      </trkpt>
      <trkpt lat="44.09495" lon="1.75274">
        <ele>319</ele>
        <time>2011-03-27T11:31:45Z</time>
      </trkpt>
      <trkpt lat="44.09486" lon="1.75264">
        <ele>319</ele>
        <time>2011-03-27T11:31:49Z</time>
      </trkpt>
      <trkpt lat="44.09478" lon="1.75256">
        <ele>319</ele>
        <time>2011-03-27T11:31:53Z</time>
      </trkpt>
      <trkpt lat="44.09469" lon="1.75246">
        <ele>318</ele>
        <time>2011-03-27T11:31:58Z</time>
      </trkpt>
      <trkpt lat="44.09461" lon="1.75237">
        <ele>319</ele>
        <time>2011-03-27T11:32:02Z</time>
      </trkpt>
      <trkpt lat="44.09454" lon="1.75227">
        <ele>319</ele>
        <time>2011-03-27T11:32:06Z</time>
      </trkpt>
      <trkpt lat="44.09447" lon="1.75217">
        <ele>319</ele>
        <time>2011-03-27T11:32:10Z</time>
      </trkpt>
      <trkpt lat="44.09441" lon="1.75203">
        <ele>319</ele>
        <time>2011-03-27T11:32:14Z</time>
      </trkpt>
      <trkpt lat="44.09436" lon="1.75192">
        <ele>319</ele>
        <time>2011-03-27T11:32:17Z</time>
      </trkpt>
      <trkpt lat="44.09431" lon="1.75181">
        <ele>319</ele>
        <time>2011-03-27T11:32:20Z</time>
      </trkpt>
      <trkpt lat="44.09424" lon="1.75169">
        <ele>320</ele>
        <time>2011-03-27T11:32:24Z</time>
      </trkpt>
      <trkpt lat="44.09416" lon="1.75161">
        <ele>321</ele>
        <time>2011-03-27T11:32:28Z</time>
      </trkpt>
      <trkpt lat="44.09409" lon="1.75151">
        <ele>321</ele>
        <time>2011-03-27T11:32:32Z</time>
      </trkpt>
      <trkpt lat="44.09401" lon="1.75142">
        <ele>320</ele>
        <time>2011-03-27T11:32:36Z</time>
      </trkpt>
      <trkpt lat="44.0939" lon="1.75141">
        <ele>320</ele>
        <time>2011-03-27T11:32:42Z</time>
      </trkpt>
      <trkpt lat="44.09387" lon="1.75153">
        <ele>321</ele>
        <time>2011-03-27T11:32:48Z</time>
      </trkpt>
      <trkpt lat="44.09381" lon="1.75165">
        <ele>321</ele>
        <time>2011-03-27T11:32:53Z</time>
      </trkpt>
      <trkpt lat="44.09372" lon="1.75177">
        <ele>322</ele>
        <time>2011-03-27T11:32:57Z</time>
      </trkpt>
      <trkpt lat="44.09363" lon="1.75187">
        <ele>322</ele>
        <time>2011-03-27T11:33:01Z</time>
      </trkpt>
      <trkpt lat="44.09358" lon="1.75197">
        <ele>322</ele>
        <time>2011-03-27T11:33:04Z</time>
      </trkpt>
      <trkpt lat="44.09351" lon="1.75209">
        <ele>322</ele>
        <time>2011-03-27T11:33:08Z</time>
      </trkpt>
      <trkpt lat="44.09342" lon="1.75221">
        <ele>322</ele>
        <time>2011-03-27T11:33:12Z</time>
      </trkpt>
      <trkpt lat="44.09334" lon="1.75231">
        <ele>322</ele>
        <time>2011-03-27T11:33:15Z</time>
      </trkpt>
      <trkpt lat="44.09328" lon="1.75241">
        <ele>322</ele>
        <time>2011-03-27T11:33:18Z</time>
      </trkpt>
      <trkpt lat="44.09321" lon="1.75252">
        <ele>322</ele>
        <time>2011-03-27T11:33:21Z</time>
      </trkpt>
      <trkpt lat="44.09313" lon="1.75264">
        <ele>322</ele>
        <time>2011-03-27T11:33:24Z</time>
      </trkpt>
      <trkpt lat="44.09304" lon="1.75272">
        <ele>322</ele>
        <time>2011-03-27T11:33:26Z</time>
      </trkpt>
      <trkpt lat="44.09294" lon="1.75284">
        <ele>321</ele>
        <time>2011-03-27T11:33:29Z</time>
      </trkpt>
      <trkpt lat="44.09286" lon="1.75294">
        <ele>321</ele>
        <time>2011-03-27T11:33:32Z</time>
      </trkpt>
      <trkpt lat="44.09276" lon="1.75305">
        <ele>321</ele>
        <time>2011-03-27T11:33:35Z</time>
      </trkpt>
      <trkpt lat="44.09269" lon="1.75316">
        <ele>321</ele>
        <time>2011-03-27T11:33:38Z</time>
      </trkpt>
      <trkpt lat="44.09263" lon="1.75326">
        <ele>321</ele>
        <time>2011-03-27T11:33:41Z</time>
      </trkpt>
      <trkpt lat="44.09255" lon="1.75338">
        <ele>321</ele>
        <time>2011-03-27T11:33:44Z</time>
      </trkpt>
      <trkpt lat="44.09246" lon="1.75347">
        <ele>321</ele>
        <time>2011-03-27T11:33:47Z</time>
      </trkpt>
      <trkpt lat="44.09236" lon="1.75358">
        <ele>321</ele>
        <time>2011-03-27T11:33:50Z</time>
      </trkpt>
      <trkpt lat="44.09228" lon="1.7537">
        <ele>321</ele>
        <time>2011-03-27T11:33:53Z</time>
      </trkpt>
      <trkpt lat="44.0922" lon="1.75382">
        <ele>321</ele>
        <time>2011-03-27T11:33:56Z</time>
      </trkpt>
      <trkpt lat="44.09212" lon="1.75394">
        <ele>321</ele>
        <time>2011-03-27T11:33:59Z</time>
      </trkpt>
      <trkpt lat="44.09204" lon="1.75404">
        <ele>321</ele>
        <time>2011-03-27T11:34:02Z</time>
      </trkpt>
      <trkpt lat="44.09195" lon="1.75416">
        <ele>321</ele>
        <time>2011-03-27T11:34:05Z</time>
      </trkpt>
      <trkpt lat="44.09187" lon="1.75427">
        <ele>320</ele>
        <time>2011-03-27T11:34:08Z</time>
      </trkpt>
      <trkpt lat="44.09178" lon="1.75438">
        <ele>320</ele>
        <time>2011-03-27T11:34:11Z</time>
      </trkpt>
      <trkpt lat="44.09171" lon="1.7545">
        <ele>320</ele>
        <time>2011-03-27T11:34:14Z</time>
      </trkpt>
      <trkpt lat="44.09163" lon="1.75464">
        <ele>322</ele>
        <time>2011-03-27T11:34:17Z</time>
      </trkpt>
      <trkpt lat="44.09154" lon="1.75478">
        <ele>322</ele>
        <time>2011-03-27T11:34:20Z</time>
      </trkpt>
      <trkpt lat="44.09146" lon="1.75488">
        <ele>322</ele>
        <time>2011-03-27T11:34:23Z</time>
      </trkpt>
      <trkpt lat="44.0914" lon="1.755">
        <ele>321</ele>
        <time>2011-03-27T11:34:26Z</time>
      </trkpt>
      <trkpt lat="44.0913" lon="1.75511">
        <ele>321</ele>
        <time>2011-03-27T11:34:29Z</time>
      </trkpt>
      <trkpt lat="44.09123" lon="1.75521">
        <ele>322</ele>
        <time>2011-03-27T11:34:32Z</time>
      </trkpt>
      <trkpt lat="44.09116" lon="1.75532">
        <ele>322</ele>
        <time>2011-03-27T11:34:35Z</time>
      </trkpt>
      <trkpt lat="44.09107" lon="1.75544">
        <ele>322</ele>
        <time>2011-03-27T11:34:38Z</time>
      </trkpt>
      <trkpt lat="44.09098" lon="1.75558">
        <ele>322</ele>
        <time>2011-03-27T11:34:41Z</time>
      </trkpt>
      <trkpt lat="44.09091" lon="1.75567">
        <ele>322</ele>
        <time>2011-03-27T11:34:43Z</time>
      </trkpt>
      <trkpt lat="44.09084" lon="1.75577">
        <ele>322</ele>
        <time>2011-03-27T11:34:45Z</time>
      </trkpt>
      <trkpt lat="44.09073" lon="1.75592">
        <ele>322</ele>
        <time>2011-03-27T11:34:48Z</time>
      </trkpt>
      <trkpt lat="44.09064" lon="1.75604">
        <ele>321</ele>
        <time>2011-03-27T11:34:51Z</time>
      </trkpt>
      <trkpt lat="44.0905" lon="1.75615">
        <ele>321</ele>
        <time>2011-03-27T11:34:54Z</time>
      </trkpt>
      <trkpt lat="44.09042" lon="1.7562">
        <ele>321</ele>
        <time>2011-03-27T11:34:56Z</time>
      </trkpt>
      <trkpt lat="44.0903" lon="1.75629">
        <ele>321</ele>
        <time>2011-03-27T11:34:59Z</time>
      </trkpt>
      <trkpt lat="44.09017" lon="1.7564">
        <ele>321</ele>
        <time>2011-03-27T11:35:02Z</time>
      </trkpt>
      <trkpt lat="44.09009" lon="1.75646">
        <ele>321</ele>
        <time>2011-03-27T11:35:04Z</time>
      </trkpt>
      <trkpt lat="44.08996" lon="1.75655">
        <ele>320</ele>
        <time>2011-03-27T11:35:07Z</time>
      </trkpt>
      <trkpt lat="44.08985" lon="1.75656">
        <ele>320</ele>
        <time>2011-03-27T11:35:09Z</time>
      </trkpt>
      <trkpt lat="44.08967" lon="1.75659">
        <ele>320</ele>
        <time>2011-03-27T11:35:12Z</time>
      </trkpt>
      <trkpt lat="44.08952" lon="1.7567">
        <ele>318</ele>
        <time>2011-03-27T11:35:15Z</time>
      </trkpt>
      <trkpt lat="44.08942" lon="1.75679">
        <ele>318</ele>
        <time>2011-03-27T11:35:17Z</time>
      </trkpt>
      <trkpt lat="44.08932" lon="1.75689">
        <ele>317</ele>
        <time>2011-03-27T11:35:19Z</time>
      </trkpt>
      <trkpt lat="44.08922" lon="1.75699">
        <ele>317</ele>
        <time>2011-03-27T11:35:21Z</time>
      </trkpt>
      <trkpt lat="44.08908" lon="1.75713">
        <ele>315</ele>
        <time>2011-03-27T11:35:24Z</time>
      </trkpt>
      <trkpt lat="44.08898" lon="1.75721">
        <ele>315</ele>
        <time>2011-03-27T11:35:26Z</time>
      </trkpt>
      <trkpt lat="44.08881" lon="1.75729">
        <ele>315</ele>
        <time>2011-03-27T11:35:29Z</time>
      </trkpt>
      <trkpt lat="44.08864" lon="1.75735">
        <ele>314</ele>
        <time>2011-03-27T11:35:32Z</time>
      </trkpt>
      <trkpt lat="44.08854" lon="1.75738">
        <ele>314</ele>
        <time>2011-03-27T11:35:35Z</time>
      </trkpt>
      <trkpt lat="44.08854" lon="1.75738">
        <ele>314</ele>
        <time>2011-03-27T11:35:36Z</time>
      </trkpt>
      <trkpt lat="44.08847" lon="1.75759">
        <ele>313</ele>
        <time>2011-03-27T11:35:43Z</time>
      </trkpt>
      <trkpt lat="44.08844" lon="1.75773">
        <ele>313</ele>
        <time>2011-03-27T11:35:46Z</time>
      </trkpt>
      <trkpt lat="44.08839" lon="1.75788">
        <ele>313</ele>
        <time>2011-03-27T11:35:49Z</time>
      </trkpt>
      <trkpt lat="44.08834" lon="1.75804">
        <ele>312</ele>
        <time>2011-03-27T11:35:52Z</time>
      </trkpt>
      <trkpt lat="44.08829" lon="1.75814">
        <ele>305</ele>
        <time>2011-03-27T11:35:55Z</time>
      </trkpt>
      <trkpt lat="44.08822" lon="1.75822">
        <ele>305</ele>
        <time>2011-03-27T11:36:00Z</time>
      </trkpt>
      <trkpt lat="44.08812" lon="1.75828">
        <ele>303</ele>
        <time>2011-03-27T11:36:04Z</time>
      </trkpt>
      <trkpt lat="44.088" lon="1.75821">
        <ele>300</ele>
        <time>2011-03-27T11:36:07Z</time>
      </trkpt>
      <trkpt lat="44.08792" lon="1.75808">
        <ele>299</ele>
        <time>2011-03-27T11:36:10Z</time>
      </trkpt>
      <trkpt lat="44.08785" lon="1.75797">
        <ele>298</ele>
        <time>2011-03-27T11:36:13Z</time>
      </trkpt>
      <trkpt lat="44.08774" lon="1.75786">
        <ele>297</ele>
        <time>2011-03-27T11:36:16Z</time>
      </trkpt>
      <trkpt lat="44.08763" lon="1.7577">
        <ele>297</ele>
        <time>2011-03-27T11:36:19Z</time>
      </trkpt>
      <trkpt lat="44.08763" lon="1.7577">
        <ele>297</ele>
        <time>2011-03-27T11:36:21Z</time>
      </trkpt>
      <trkpt lat="44.08752" lon="1.75749">
        <ele>296</ele>
        <time>2011-03-27T11:36:40Z</time>
      </trkpt>
      <trkpt lat="44.08745" lon="1.75736">
        <ele>285</ele>
        <time>2011-03-27T11:36:44Z</time>
      </trkpt>
      <trkpt lat="44.0874" lon="1.75725">
        <ele>281</ele>
        <time>2011-03-27T11:36:48Z</time>
      </trkpt>
      <trkpt lat="44.0874" lon="1.75725">
        <ele>281</ele>
        <time>2011-03-27T11:36:50Z</time>
      </trkpt>
      <trkpt lat="44.0874" lon="1.75725">
        <ele>281</ele>
        <time>2011-03-27T11:37:44Z</time>
      </trkpt>
      <trkpt lat="44.08721" lon="1.75691">
        <ele>276</ele>
        <time>2011-03-27T11:38:35Z</time>
      </trkpt>
      <trkpt lat="44.08721" lon="1.75691">
        <ele>276</ele>
        <time>2011-03-27T11:38:45Z</time>
      </trkpt>
      <trkpt lat="44.08721" lon="1.75691">
        <ele>276</ele>
        <time>2011-03-27T11:38:59Z</time>
      </trkpt>
      <trkpt lat="44.08741" lon="1.75664">
        <ele>286</ele>
        <time>2011-03-27T11:40:24Z</time>
      </trkpt>
      <trkpt lat="44.08749" lon="1.75657">
        <ele>286</ele>
        <time>2011-03-27T11:40:35Z</time>
      </trkpt>
      <trkpt lat="44.08755" lon="1.75646">
        <ele>296</ele>
        <time>2011-03-27T11:40:47Z</time>
      </trkpt>
      <trkpt lat="44.08755" lon="1.75646">
        <ele>296</ele>
        <time>2011-03-27T11:40:53Z</time>
      </trkpt>
      <trkpt lat="44.08755" lon="1.75646">
        <ele>296</ele>
        <time>2011-03-27T11:41:15Z</time>
      </trkpt>
      <trkpt lat="44.08764" lon="1.75609">
        <ele>294</ele>
        <time>2011-03-27T11:41:38Z</time>
      </trkpt>
      <trkpt lat="44.08766" lon="1.75595">
        <ele>291</ele>
        <time>2011-03-27T11:41:42Z</time>
      </trkpt>
      <trkpt lat="44.0877" lon="1.7558">
        <ele>287</ele>
        <time>2011-03-27T11:41:46Z</time>
      </trkpt>
      <trkpt lat="44.08775" lon="1.75566">
        <ele>289</ele>
        <time>2011-03-27T11:41:50Z</time>
      </trkpt>
      <trkpt lat="44.0878" lon="1.75552">
        <ele>289</ele>
        <time>2011-03-27T11:41:55Z</time>
      </trkpt>
      <trkpt lat="44.08782" lon="1.75539">
        <ele>289</ele>
        <time>2011-03-27T11:41:58Z</time>
      </trkpt>
      <trkpt lat="44.08786" lon="1.75527">
        <ele>289</ele>
        <time>2011-03-27T11:42:01Z</time>
      </trkpt>
      <trkpt lat="44.08788" lon="1.75513">
        <ele>289</ele>
        <time>2011-03-27T11:42:04Z</time>
      </trkpt>
      <trkpt lat="44.08789" lon="1.75497">
        <ele>284</ele>
        <time>2011-03-27T11:42:07Z</time>
      </trkpt>
      <trkpt lat="44.08791" lon="1.75479">
        <ele>284</ele>
        <time>2011-03-27T11:42:10Z</time>
      </trkpt>
      <trkpt lat="44.08795" lon="1.75459">
        <ele>284</ele>
        <time>2011-03-27T11:42:13Z</time>
      </trkpt>
      <trkpt lat="44.08797" lon="1.75444">
        <ele>285</ele>
        <time>2011-03-27T11:42:15Z</time>
      </trkpt>
      <trkpt lat="44.08799" lon="1.75429">
        <ele>285</ele>
        <time>2011-03-27T11:42:17Z</time>
      </trkpt>
      <trkpt lat="44.08803" lon="1.75411">
        <ele>282</ele>
        <time>2011-03-27T11:42:20Z</time>
      </trkpt>
      <trkpt lat="44.08806" lon="1.75396">
        <ele>282</ele>
        <time>2011-03-27T11:42:23Z</time>
      </trkpt>
      <trkpt lat="44.08811" lon="1.75383">
        <ele>281</ele>
        <time>2011-03-27T11:42:26Z</time>
      </trkpt>
      <trkpt lat="44.08815" lon="1.75371">
        <ele>281</ele>
        <time>2011-03-27T11:42:29Z</time>
      </trkpt>
      <trkpt lat="44.08819" lon="1.75355">
        <ele>283</ele>
        <time>2011-03-27T11:42:32Z</time>
      </trkpt>
      <trkpt lat="44.0882" lon="1.75341">
        <ele>285</ele>
        <time>2011-03-27T11:42:35Z</time>
      </trkpt>
      <trkpt lat="44.08821" lon="1.75323">
        <ele>281</ele>
        <time>2011-03-27T11:42:38Z</time>
      </trkpt>
      <trkpt lat="44.08825" lon="1.75307">
        <ele>276</ele>
        <time>2011-03-27T11:42:41Z</time>
      </trkpt>
      <trkpt lat="44.08828" lon="1.75295">
        <ele>275</ele>
        <time>2011-03-27T11:42:43Z</time>
      </trkpt>
      <trkpt lat="44.08831" lon="1.75276">
        <ele>275</ele>
        <time>2011-03-27T11:42:46Z</time>
      </trkpt>
      <trkpt lat="44.08832" lon="1.75259">
        <ele>280</ele>
        <time>2011-03-27T11:42:48Z</time>
      </trkpt>
      <trkpt lat="44.08836" lon="1.75236">
        <ele>288</ele>
        <time>2011-03-27T11:42:51Z</time>
      </trkpt>
      <trkpt lat="44.0884" lon="1.75216">
        <ele>289</ele>
        <time>2011-03-27T11:42:54Z</time>
      </trkpt>
      <trkpt lat="44.08843" lon="1.75199">
        <ele>288</ele>
        <time>2011-03-27T11:42:57Z</time>
      </trkpt>
      <trkpt lat="44.08847" lon="1.75187">
        <ele>287</ele>
        <time>2011-03-27T11:43:02Z</time>
      </trkpt>
      <trkpt lat="44.08847" lon="1.75174">
        <ele>285</ele>
        <time>2011-03-27T11:43:07Z</time>
      </trkpt>
      <trkpt lat="44.08849" lon="1.75161">
        <ele>282</ele>
        <time>2011-03-27T11:43:11Z</time>
      </trkpt>
      <trkpt lat="44.08852" lon="1.75149">
        <ele>283</ele>
        <time>2011-03-27T11:43:17Z</time>
      </trkpt>
      <trkpt lat="44.08852" lon="1.75149">
        <ele>283</ele>
        <time>2011-03-27T11:43:26Z</time>
      </trkpt>
      <trkpt lat="44.08861" lon="1.75107">
        <ele>283</ele>
        <time>2011-03-27T11:44:04Z</time>
      </trkpt>
      <trkpt lat="44.08862" lon="1.75093">
        <ele>282</ele>
        <time>2011-03-27T11:44:08Z</time>
      </trkpt>
      <trkpt lat="44.08862" lon="1.75081">
        <ele>278</ele>
        <time>2011-03-27T11:44:12Z</time>
      </trkpt>
      <trkpt lat="44.08863" lon="1.75064">
        <ele>279</ele>
        <time>2011-03-27T11:44:16Z</time>
      </trkpt>
      <trkpt lat="44.08867" lon="1.7505">
        <ele>279</ele>
        <time>2011-03-27T11:44:20Z</time>
      </trkpt>
      <trkpt lat="44.0887" lon="1.75034">
        <ele>279</ele>
        <time>2011-03-27T11:44:24Z</time>
      </trkpt>
      <trkpt lat="44.08872" lon="1.75022">
        <ele>279</ele>
        <time>2011-03-27T11:44:27Z</time>
      </trkpt>
      <trkpt lat="44.08875" lon="1.75009">
        <ele>280</ele>
        <time>2011-03-27T11:44:30Z</time>
      </trkpt>
      <trkpt lat="44.08874" lon="1.74995">
        <ele>277</ele>
        <time>2011-03-27T11:44:34Z</time>
      </trkpt>
      <trkpt lat="44.08875" lon="1.74981">
        <ele>277</ele>
        <time>2011-03-27T11:44:38Z</time>
      </trkpt>
      <trkpt lat="44.08875" lon="1.74981">
        <ele>277</ele>
        <time>2011-03-27T11:44:40Z</time>
      </trkpt>
      <trkpt lat="44.08874" lon="1.74945">
        <ele>277</ele>
        <time>2011-03-27T11:44:58Z</time>
      </trkpt>
      <trkpt lat="44.08874" lon="1.74929">
        <ele>277</ele>
        <time>2011-03-27T11:45:02Z</time>
      </trkpt>
      <trkpt lat="44.0887" lon="1.74914">
        <ele>276</ele>
        <time>2011-03-27T11:45:06Z</time>
      </trkpt>
      <trkpt lat="44.08871" lon="1.74901">
        <ele>276</ele>
        <time>2011-03-27T11:45:09Z</time>
      </trkpt>
      <trkpt lat="44.08871" lon="1.74887">
        <ele>276</ele>
        <time>2011-03-27T11:45:12Z</time>
      </trkpt>
      <trkpt lat="44.08872" lon="1.74873">
        <ele>277</ele>
        <time>2011-03-27T11:45:15Z</time>
      </trkpt>
      <trkpt lat="44.08874" lon="1.74859">
        <ele>278</ele>
        <time>2011-03-27T11:45:18Z</time>
      </trkpt>
      <trkpt lat="44.08877" lon="1.74847">
        <ele>278</ele>
        <time>2011-03-27T11:45:21Z</time>
      </trkpt>
      <trkpt lat="44.08882" lon="1.74834">
        <ele>280</ele>
        <time>2011-03-27T11:45:24Z</time>
      </trkpt>
      <trkpt lat="44.08887" lon="1.7482">
        <ele>283</ele>
        <time>2011-03-27T11:45:28Z</time>
      </trkpt>
      <trkpt lat="44.0889" lon="1.74805">
        <ele>283</ele>
        <time>2011-03-27T11:45:32Z</time>
      </trkpt>
      <trkpt lat="44.0889" lon="1.74789">
        <ele>283</ele>
        <time>2011-03-27T11:45:36Z</time>
      </trkpt>
      <trkpt lat="44.0889" lon="1.74775">
        <ele>284</ele>
        <time>2011-03-27T11:45:39Z</time>
      </trkpt>
      <trkpt lat="44.08891" lon="1.74758">
        <ele>286</ele>
        <time>2011-03-27T11:45:44Z</time>
      </trkpt>
      <trkpt lat="44.0889" lon="1.74743">
        <ele>287</ele>
        <time>2011-03-27T11:45:48Z</time>
      </trkpt>
      <trkpt lat="44.0889" lon="1.74743">
        <ele>287</ele>
        <time>2011-03-27T11:45:53Z</time>
      </trkpt>
      <trkpt lat="44.0889" lon="1.74743">
        <ele>287</ele>
        <time>2011-03-27T11:46:42Z</time>
      </trkpt>
      <trkpt lat="44.08885" lon="1.74714">
        <ele>284</ele>
        <time>2011-03-27T11:48:16Z</time>
      </trkpt>
      <trkpt lat="44.08879" lon="1.74694">
        <ele>283</ele>
        <time>2011-03-27T11:48:19Z</time>
      </trkpt>
      <trkpt lat="44.08876" lon="1.74676">
        <ele>282</ele>
        <time>2011-03-27T11:48:21Z</time>
      </trkpt>
      <trkpt lat="44.08874" lon="1.7465">
        <ele>282</ele>
        <time>2011-03-27T11:48:24Z</time>
      </trkpt>
      <trkpt lat="44.0887" lon="1.74625">
        <ele>281</ele>
        <time>2011-03-27T11:48:27Z</time>
      </trkpt>
      <trkpt lat="44.08867" lon="1.74606">
        <ele>280</ele>
        <time>2011-03-27T11:48:29Z</time>
      </trkpt>
      <trkpt lat="44.08863" lon="1.74576">
        <ele>280</ele>
        <time>2011-03-27T11:48:32Z</time>
      </trkpt>
      <trkpt lat="44.08859" lon="1.74546">
        <ele>282</ele>
        <time>2011-03-27T11:48:35Z</time>
      </trkpt>
      <trkpt lat="44.08854" lon="1.74526">
        <ele>281</ele>
        <time>2011-03-27T11:48:38Z</time>
      </trkpt>
      <trkpt lat="44.08848" lon="1.74511">
        <ele>279</ele>
        <time>2011-03-27T11:48:41Z</time>
      </trkpt>
      <trkpt lat="44.08843" lon="1.74497">
        <ele>278</ele>
        <time>2011-03-27T11:48:45Z</time>
      </trkpt>
      <trkpt lat="44.08839" lon="1.74485">
        <ele>280</ele>
        <time>2011-03-27T11:48:48Z</time>
      </trkpt>
      <trkpt lat="44.08835" lon="1.74473">
        <ele>282</ele>
        <time>2011-03-27T11:48:51Z</time>
      </trkpt>
      <trkpt lat="44.0883" lon="1.7446">
        <ele>257</ele>
        <time>2011-03-27T11:48:54Z</time>
      </trkpt>
      <trkpt lat="44.08824" lon="1.74447">
        <ele>258</ele>
        <time>2011-03-27T11:48:57Z</time>
      </trkpt>
      <trkpt lat="44.08818" lon="1.74435">
        <ele>259</ele>
        <time>2011-03-27T11:49:00Z</time>
      </trkpt>
      <trkpt lat="44.08814" lon="1.7442">
        <ele>261</ele>
        <time>2011-03-27T11:49:03Z</time>
      </trkpt>
      <trkpt lat="44.08816" lon="1.74407">
        <ele>265</ele>
        <time>2011-03-27T11:49:06Z</time>
      </trkpt>
      <trkpt lat="44.08818" lon="1.74394">
        <ele>264</ele>
        <time>2011-03-27T11:49:10Z</time>
      </trkpt>
      <trkpt lat="44.08818" lon="1.74394">
        <ele>264</ele>
        <time>2011-03-27T11:49:14Z</time>
      </trkpt>
      <trkpt lat="44.08818" lon="1.74394">
        <ele>264</ele>
        <time>2011-03-27T11:50:09Z</time>
      </trkpt>
      <trkpt lat="44.088" lon="1.7436">
        <ele>259</ele>
        <time>2011-03-27T11:51:41Z</time>
      </trkpt>
      <trkpt lat="44.088" lon="1.7436">
        <ele>259</ele>
        <time>2011-03-27T11:51:41Z</time>
      </trkpt>
      <trkpt lat="44.088" lon="1.7436">
        <ele>259</ele>
        <time>2011-03-27T11:51:42Z</time>
      </trkpt>
      <trkpt lat="44.088" lon="1.7436">
        <ele>259</ele>
        <time>2011-03-27T11:51:42Z</time>
      </trkpt>
      <trkpt lat="44.088" lon="1.7436">
        <ele>259</ele>
        <time>2011-03-27T11:51:43Z</time>
      </trkpt>
      <trkpt lat="44.088" lon="1.7436">
        <ele>259</ele>
        <time>2011-03-27T11:51:43Z</time>
      </trkpt>
      <trkpt lat="44.088" lon="1.7436">
        <ele>259</ele>
        <time>2011-03-27T11:51:44Z</time>
      </trkpt>
      <trkpt lat="44.0879" lon="1.74363">
        <ele>257</ele>
        <time>2011-03-27T11:51:51Z</time>
      </trkpt>
      <trkpt lat="44.08784" lon="1.74374">
        <ele>255</ele>
        <time>2011-03-27T11:52:00Z</time>
      </trkpt>
      <trkpt lat="44.08777" lon="1.74383">
        <ele>252</ele>
        <time>2011-03-27T11:52:08Z</time>
      </trkpt>
      <trkpt lat="44.08769" lon="1.74391">
        <ele>249</ele>
        <time>2011-03-27T11:52:14Z</time>
      </trkpt>
      <trkpt lat="44.08761" lon="1.74402">
        <ele>243</ele>
        <time>2011-03-27T11:52:20Z</time>
      </trkpt>
      <trkpt lat="44.08757" lon="1.74415">
        <ele>235</ele>
        <time>2011-03-27T11:52:24Z</time>
      </trkpt>
      <trkpt lat="44.08763" lon="1.7443">
        <ele>237</ele>
        <time>2011-03-27T11:52:29Z</time>
      </trkpt>
      <trkpt lat="44.08763" lon="1.74445">
        <ele>239</ele>
        <time>2011-03-27T11:52:32Z</time>
      </trkpt>
      <trkpt lat="44.08765" lon="1.7446">
        <ele>239</ele>
        <time>2011-03-27T11:52:36Z</time>
      </trkpt>
      <trkpt lat="44.08767" lon="1.74475">
        <ele>236</ele>
        <time>2011-03-27T11:52:41Z</time>
      </trkpt>
      <trkpt lat="44.08768" lon="1.74489">
        <ele>232</ele>
        <time>2011-03-27T11:52:45Z</time>
      </trkpt>
      <trkpt lat="44.0877" lon="1.74508">
        <ele>226</ele>
        <time>2011-03-27T11:52:48Z</time>
      </trkpt>
      <trkpt lat="44.08771" lon="1.74527">
        <ele>229</ele>
        <time>2011-03-27T11:52:51Z</time>
      </trkpt>
      <trkpt lat="44.08773" lon="1.7454">
        <ele>230</ele>
        <time>2011-03-27T11:52:54Z</time>
      </trkpt>
      <trkpt lat="44.08776" lon="1.74553">
        <ele>229</ele>
        <time>2011-03-27T11:52:58Z</time>
      </trkpt>
      <trkpt lat="44.08775" lon="1.7457">
        <ele>226</ele>
        <time>2011-03-27T11:53:01Z</time>
      </trkpt>
      <trkpt lat="44.08773" lon="1.74584">
        <ele>220</ele>
        <time>2011-03-27T11:53:04Z</time>
      </trkpt>
      <trkpt lat="44.08768" lon="1.74602">
        <ele>220</ele>
        <time>2011-03-27T11:53:07Z</time>
      </trkpt>
      <trkpt lat="44.08765" lon="1.7462">
        <ele>222</ele>
        <time>2011-03-27T11:53:09Z</time>
      </trkpt>
      <trkpt lat="44.08762" lon="1.74646">
        <ele>217</ele>
        <time>2011-03-27T11:53:12Z</time>
      </trkpt>
      <trkpt lat="44.08761" lon="1.7466">
        <ele>212</ele>
        <time>2011-03-27T11:53:14Z</time>
      </trkpt>
      <trkpt lat="44.08761" lon="1.74674">
        <ele>212</ele>
        <time>2011-03-27T11:53:16Z</time>
      </trkpt>
      <trkpt lat="44.08758" lon="1.74695">
        <ele>218</ele>
        <time>2011-03-27T11:53:19Z</time>
      </trkpt>
      <trkpt lat="44.08759" lon="1.74707">
        <ele>220</ele>
        <time>2011-03-27T11:53:21Z</time>
      </trkpt>
      <trkpt lat="44.0876" lon="1.7472">
        <ele>219</ele>
        <time>2011-03-27T11:53:24Z</time>
      </trkpt>
      <trkpt lat="44.0876" lon="1.7472">
        <ele>219</ele>
        <time>2011-03-27T11:53:26Z</time>
      </trkpt>
      <trkpt lat="44.08757" lon="1.74748">
        <ele>207</ele>
        <time>2011-03-27T11:53:50Z</time>
      </trkpt>
      <trkpt lat="44.08753" lon="1.74762">
        <ele>211</ele>
        <time>2011-03-27T11:53:55Z</time>
      </trkpt>
      <trkpt lat="44.0875" lon="1.74776">
        <ele>186</ele>
        <time>2011-03-27T11:54:01Z</time>
      </trkpt>
      <trkpt lat="44.08743" lon="1.74786">
        <ele>184</ele>
        <time>2011-03-27T11:54:07Z</time>
      </trkpt>
      <trkpt lat="44.08743" lon="1.74786">
        <ele>184</ele>
        <time>2011-03-27T11:54:08Z</time>
      </trkpt>
      <trkpt lat="44.08743" lon="1.74786">
        <ele>184</ele>
        <time>2011-03-27T11:55:34Z</time>
      </trkpt>
      <trkpt lat="44.08734" lon="1.74823">
        <ele>186</ele>
        <time>2011-03-27T11:56:05Z</time>
      </trkpt>
      <trkpt lat="44.08734" lon="1.74823">
        <ele>186</ele>
        <time>2011-03-27T11:56:05Z</time>
      </trkpt>
      <trkpt lat="44.08734" lon="1.74823">
        <ele>186</ele>
        <time>2011-03-27T11:56:06Z</time>
      </trkpt>
      <trkpt lat="44.08734" lon="1.74823">
        <ele>186</ele>
        <time>2011-03-27T11:56:06Z</time>
      </trkpt>
      <trkpt lat="44.08734" lon="1.74823">
        <ele>186</ele>
        <time>2011-03-27T11:56:07Z</time>
      </trkpt>
      <trkpt lat="44.08734" lon="1.74823">
        <ele>186</ele>
        <time>2011-03-27T11:56:07Z</time>
      </trkpt>
      <trkpt lat="44.08734" lon="1.74823">
        <ele>186</ele>
        <time>2011-03-27T11:56:08Z</time>
      </trkpt>
      <trkpt lat="44.08734" lon="1.74823">
        <ele>186</ele>
        <time>2011-03-27T11:56:08Z</time>
      </trkpt>
      <trkpt lat="44.08734" lon="1.74823">
        <ele>186</ele>
        <time>2011-03-27T11:56:09Z</time>
      </trkpt>
      <trkpt lat="44.08734" lon="1.74823">
        <ele>186</ele>
        <time>2011-03-27T11:56:09Z</time>
      </trkpt>
      <trkpt lat="44.08734" lon="1.74823">
        <ele>186</ele>
        <time>2011-03-27T11:56:10Z</time>
      </trkpt>
      <trkpt lat="44.08725" lon="1.74812">
        <ele>181</ele>
        <time>2011-03-27T11:56:13Z</time>
      </trkpt>
      <trkpt lat="44.08725" lon="1.74812">
        <ele>181</ele>
        <time>2011-03-27T11:56:25Z</time>
      </trkpt>
      <trkpt lat="44.08702" lon="1.74784">
        <ele>174</ele>
        <time>2011-03-27T11:56:48Z</time>
      </trkpt>
      <trkpt lat="44.08702" lon="1.74784">
        <ele>174</ele>
        <time>2011-03-27T11:57:01Z</time>
      </trkpt>
      <trkpt lat="44.08683" lon="1.74763">
        <ele>166</ele>
        <time>2011-03-27T11:57:23Z</time>
      </trkpt>
      <trkpt lat="44.0868" lon="1.7475">
        <ele>162</ele>
        <time>2011-03-27T11:57:27Z</time>
      </trkpt>
      <trkpt lat="44.0868" lon="1.7475">
        <ele>162</ele>
        <time>2011-03-27T11:57:38Z</time>
      </trkpt>
      <trkpt lat="44.08678" lon="1.74783">
        <ele>169</ele>
        <time>2011-03-27T11:58:00Z</time>
      </trkpt>
      <trkpt lat="44.08678" lon="1.74796">
        <ele>169</ele>
        <time>2011-03-27T11:58:04Z</time>
      </trkpt>
      <trkpt lat="44.08678" lon="1.74811">
        <ele>168</ele>
        <time>2011-03-27T11:58:08Z</time>
      </trkpt>
      <trkpt lat="44.08677" lon="1.74827">
        <ele>164</ele>
        <time>2011-03-27T11:58:12Z</time>
      </trkpt>
      <trkpt lat="44.08675" lon="1.74843">
        <ele>165</ele>
        <time>2011-03-27T11:58:15Z</time>
      </trkpt>
      <trkpt lat="44.08674" lon="1.74861">
        <ele>169</ele>
        <time>2011-03-27T11:58:18Z</time>
      </trkpt>
      <trkpt lat="44.08674" lon="1.74878">
        <ele>171</ele>
        <time>2011-03-27T11:58:21Z</time>
      </trkpt>
      <trkpt lat="44.08673" lon="1.74895">
        <ele>169</ele>
        <time>2011-03-27T11:58:24Z</time>
      </trkpt>
      <trkpt lat="44.08672" lon="1.7491">
        <ele>164</ele>
        <time>2011-03-27T11:58:27Z</time>
      </trkpt>
      <trkpt lat="44.08673" lon="1.74925">
        <ele>166</ele>
        <time>2011-03-27T11:58:30Z</time>
      </trkpt>
      <trkpt lat="44.08672" lon="1.74939">
        <ele>170</ele>
        <time>2011-03-27T11:58:33Z</time>
      </trkpt>
      <trkpt lat="44.08671" lon="1.74953">
        <ele>172</ele>
        <time>2011-03-27T11:58:36Z</time>
      </trkpt>
      <trkpt lat="44.08665" lon="1.74967">
        <ele>159</ele>
        <time>2011-03-27T11:58:40Z</time>
      </trkpt>
      <trkpt lat="44.08658" lon="1.74973">
        <ele>159</ele>
        <time>2011-03-27T11:58:44Z</time>
      </trkpt>
      <trkpt lat="44.08653" lon="1.7496">
        <ele>159</ele>
        <time>2011-03-27T11:58:48Z</time>
      </trkpt>
      <trkpt lat="44.08651" lon="1.74947">
        <ele>159</ele>
        <time>2011-03-27T11:58:51Z</time>
      </trkpt>
      <trkpt lat="44.08643" lon="1.74936">
        <ele>159</ele>
        <time>2011-03-27T11:58:55Z</time>
      </trkpt>
      <trkpt lat="44.08634" lon="1.7493">
        <ele>159</ele>
        <time>2011-03-27T11:59:01Z</time>
      </trkpt>
      <trkpt lat="44.08634" lon="1.7493">
        <ele>159</ele>
        <time>2011-03-27T11:59:04Z</time>
      </trkpt>
      <trkpt lat="44.08605" lon="1.74921">
        <ele>158</ele>
        <time>2011-03-27T11:59:26Z</time>
      </trkpt>
      <trkpt lat="44.08596" lon="1.74918">
        <ele>158</ele>
        <time>2011-03-27T11:59:33Z</time>
      </trkpt>
      <trkpt lat="44.08586" lon="1.74917">
        <ele>158</ele>
        <time>2011-03-27T11:59:42Z</time>
      </trkpt>
      <trkpt lat="44.08578" lon="1.74912">
        <ele>160</ele>
        <time>2011-03-27T11:59:57Z</time>
      </trkpt>
      <trkpt lat="44.08568" lon="1.74913">
        <ele>163</ele>
        <time>2011-03-27T12:00:05Z</time>
      </trkpt>
      <trkpt lat="44.08568" lon="1.74913">
        <ele>163</ele>
        <time>2011-03-27T12:00:18Z</time>
      </trkpt>
      <trkpt lat="44.0856" lon="1.74874">
        <ele>166</ele>
        <time>2011-03-27T12:00:46Z</time>
      </trkpt>
      <trkpt lat="44.08561" lon="1.74861">
        <ele>165</ele>
        <time>2011-03-27T12:00:50Z</time>
      </trkpt>
      <trkpt lat="44.08556" lon="1.7485">
        <ele>165</ele>
        <time>2011-03-27T12:00:57Z</time>
      </trkpt>
      <trkpt lat="44.08552" lon="1.74836">
        <ele>166</ele>
        <time>2011-03-27T12:01:05Z</time>
      </trkpt>
      <trkpt lat="44.08549" lon="1.74823">
        <ele>169</ele>
        <time>2011-03-27T12:01:12Z</time>
      </trkpt>
      <trkpt lat="44.08543" lon="1.74812">
        <ele>171</ele>
        <time>2011-03-27T12:01:19Z</time>
      </trkpt>
      <trkpt lat="44.0854" lon="1.74798">
        <ele>172</ele>
        <time>2011-03-27T12:01:27Z</time>
      </trkpt>
      <trkpt lat="44.0853" lon="1.74787">
        <ele>173</ele>
        <time>2011-03-27T12:01:39Z</time>
      </trkpt>
      <trkpt lat="44.0853" lon="1.74787">
        <ele>173</ele>
        <time>2011-03-27T12:01:51Z</time>
      </trkpt>
      <trkpt lat="44.08513" lon="1.7475">
        <ele>180</ele>
        <time>2011-03-27T12:02:33Z</time>
      </trkpt>
      <trkpt lat="44.08509" lon="1.74739">
        <ele>181</ele>
        <time>2011-03-27T12:02:45Z</time>
      </trkpt>
      <trkpt lat="44.08503" lon="1.74729">
        <ele>180</ele>
        <time>2011-03-27T12:03:00Z</time>
      </trkpt>
      <trkpt lat="44.08503" lon="1.74729">
        <ele>180</ele>
        <time>2011-03-27T12:03:17Z</time>
      </trkpt>
      <trkpt lat="44.08503" lon="1.74729">
        <ele>180</ele>
        <time>2011-03-27T12:03:38Z</time>
      </trkpt>
      <trkpt lat="44.08505" lon="1.74681">
        <ele>183</ele>
        <time>2011-03-27T12:04:19Z</time>
      </trkpt>
      <trkpt lat="44.08507" lon="1.74668">
        <ele>185</ele>
        <time>2011-03-27T12:04:25Z</time>
      </trkpt>
      <trkpt lat="44.08507" lon="1.74656">
        <ele>184</ele>
        <time>2011-03-27T12:04:31Z</time>
      </trkpt>
      <trkpt lat="44.08505" lon="1.74643">
        <ele>182</ele>
        <time>2011-03-27T12:04:38Z</time>
      </trkpt>
      <trkpt lat="44.08502" lon="1.7463">
        <ele>182</ele>
        <time>2011-03-27T12:04:44Z</time>
      </trkpt>
      <trkpt lat="44.08497" lon="1.74619">
        <ele>189</ele>
        <time>2011-03-27T12:04:50Z</time>
      </trkpt>
      <trkpt lat="44.08493" lon="1.74607">
        <ele>189</ele>
        <time>2011-03-27T12:04:55Z</time>
      </trkpt>
      <trkpt lat="44.08485" lon="1.74598">
        <ele>189</ele>
        <time>2011-03-27T12:05:01Z</time>
      </trkpt>
      <trkpt lat="44.08478" lon="1.7459">
        <ele>189</ele>
        <time>2011-03-27T12:05:06Z</time>
      </trkpt>
      <trkpt lat="44.08475" lon="1.74577">
        <ele>187</ele>
        <time>2011-03-27T12:05:12Z</time>
      </trkpt>
      <trkpt lat="44.08478" lon="1.74563">
        <ele>187</ele>
        <time>2011-03-27T12:05:19Z</time>
      </trkpt>
      <trkpt lat="44.08478" lon="1.74548">
        <ele>187</ele>
        <time>2011-03-27T12:05:25Z</time>
      </trkpt>
      <trkpt lat="44.08473" lon="1.74536">
        <ele>186</ele>
        <time>2011-03-27T12:05:32Z</time>
      </trkpt>
      <trkpt lat="44.08466" lon="1.74527">
        <ele>186</ele>
        <time>2011-03-27T12:05:38Z</time>
      </trkpt>
      <trkpt lat="44.08457" lon="1.74523">
        <ele>187</ele>
        <time>2011-03-27T12:05:42Z</time>
      </trkpt>
      <trkpt lat="44.08448" lon="1.74516">
        <ele>187</ele>
        <time>2011-03-27T12:05:46Z</time>
      </trkpt>
      <trkpt lat="44.08442" lon="1.74505">
        <ele>188</ele>
        <time>2011-03-27T12:05:49Z</time>
      </trkpt>
      <trkpt lat="44.08435" lon="1.74489">
        <ele>183</ele>
        <time>2011-03-27T12:05:52Z</time>
      </trkpt>
      <trkpt lat="44.08421" lon="1.74473">
        <ele>182</ele>
        <time>2011-03-27T12:05:55Z</time>
      </trkpt>
      <trkpt lat="44.08408" lon="1.74458">
        <ele>184</ele>
        <time>2011-03-27T12:05:58Z</time>
      </trkpt>
      <trkpt lat="44.08399" lon="1.74448">
        <ele>183</ele>
        <time>2011-03-27T12:06:00Z</time>
      </trkpt>
      <trkpt lat="44.0839" lon="1.74438">
        <ele>183</ele>
        <time>2011-03-27T12:06:02Z</time>
      </trkpt>
      <trkpt lat="44.08377" lon="1.74422">
        <ele>182</ele>
        <time>2011-03-27T12:06:05Z</time>
      </trkpt>
      <trkpt lat="44.08363" lon="1.74413">
        <ele>173</ele>
        <time>2011-03-27T12:06:08Z</time>
      </trkpt>
      <trkpt lat="44.08345" lon="1.74406">
        <ele>175</ele>
        <time>2011-03-27T12:06:11Z</time>
      </trkpt>
      <trkpt lat="44.08332" lon="1.74404">
        <ele>178</ele>
        <time>2011-03-27T12:06:13Z</time>
      </trkpt>
      <trkpt lat="44.08314" lon="1.74406">
        <ele>177</ele>
        <time>2011-03-27T12:06:16Z</time>
      </trkpt>
      <trkpt lat="44.08303" lon="1.74407">
        <ele>177</ele>
        <time>2011-03-27T12:06:18Z</time>
      </trkpt>
      <trkpt lat="44.08294" lon="1.74407">
        <ele>177</ele>
        <time>2011-03-27T12:06:20Z</time>
      </trkpt>
      <trkpt lat="44.08281" lon="1.74407">
        <ele>177</ele>
        <time>2011-03-27T12:06:23Z</time>
      </trkpt>
      <trkpt lat="44.0827" lon="1.74407">
        <ele>178</ele>
        <time>2011-03-27T12:06:26Z</time>
      </trkpt>
      <trkpt lat="44.08261" lon="1.74406">
        <ele>179</ele>
        <time>2011-03-27T12:06:29Z</time>
      </trkpt>
      <trkpt lat="44.08251" lon="1.74407">
        <ele>180</ele>
        <time>2011-03-27T12:06:33Z</time>
      </trkpt>
      <trkpt lat="44.0824" lon="1.74407">
        <ele>181</ele>
        <time>2011-03-27T12:06:37Z</time>
      </trkpt>
      <trkpt lat="44.0823" lon="1.74407">
        <ele>181</ele>
        <time>2011-03-27T12:06:41Z</time>
      </trkpt>
      <trkpt lat="44.0822" lon="1.74408">
        <ele>180</ele>
        <time>2011-03-27T12:06:45Z</time>
      </trkpt>
      <trkpt lat="44.08209" lon="1.74409">
        <ele>181</ele>
        <time>2011-03-27T12:06:49Z</time>
      </trkpt>
      <trkpt lat="44.082" lon="1.74409">
        <ele>181</ele>
        <time>2011-03-27T12:06:52Z</time>
      </trkpt>
      <trkpt lat="44.08191" lon="1.74409">
        <ele>181</ele>
        <time>2011-03-27T12:06:55Z</time>
      </trkpt>
      <trkpt lat="44.08182" lon="1.74409">
        <ele>182</ele>
        <time>2011-03-27T12:06:58Z</time>
      </trkpt>
      <trkpt lat="44.08171" lon="1.7441">
        <ele>183</ele>
        <time>2011-03-27T12:07:02Z</time>
      </trkpt>
      <trkpt lat="44.0816" lon="1.7441">
        <ele>185</ele>
        <time>2011-03-27T12:07:07Z</time>
      </trkpt>
      <trkpt lat="44.08151" lon="1.74408">
        <ele>185</ele>
        <time>2011-03-27T12:07:12Z</time>
      </trkpt>
      <trkpt lat="44.08142" lon="1.74404">
        <ele>185</ele>
        <time>2011-03-27T12:07:17Z</time>
      </trkpt>
      <trkpt lat="44.08133" lon="1.744">
        <ele>186</ele>
        <time>2011-03-27T12:07:22Z</time>
      </trkpt>
      <trkpt lat="44.08123" lon="1.74396">
        <ele>186</ele>
        <time>2011-03-27T12:07:27Z</time>
      </trkpt>
      <trkpt lat="44.08113" lon="1.74394">
        <ele>187</ele>
        <time>2011-03-27T12:07:32Z</time>
      </trkpt>
      <trkpt lat="44.08103" lon="1.74392">
        <ele>187</ele>
        <time>2011-03-27T12:07:37Z</time>
      </trkpt>
      <trkpt lat="44.08093" lon="1.74389">
        <ele>188</ele>
        <time>2011-03-27T12:07:42Z</time>
      </trkpt>
      <trkpt lat="44.08083" lon="1.74386">
        <ele>188</ele>
        <time>2011-03-27T12:07:47Z</time>
      </trkpt>
      <trkpt lat="44.08073" lon="1.74384">
        <ele>192</ele>
        <time>2011-03-27T12:07:52Z</time>
      </trkpt>
      <trkpt lat="44.08062" lon="1.74384">
        <ele>193</ele>
        <time>2011-03-27T12:07:57Z</time>
      </trkpt>
      <trkpt lat="44.08051" lon="1.74385">
        <ele>193</ele>
        <time>2011-03-27T12:08:02Z</time>
      </trkpt>
      <trkpt lat="44.08042" lon="1.74387">
        <ele>193</ele>
        <time>2011-03-27T12:08:07Z</time>
      </trkpt>
      <trkpt lat="44.08031" lon="1.74388">
        <ele>194</ele>
        <time>2011-03-27T12:08:12Z</time>
      </trkpt>
      <trkpt lat="44.08021" lon="1.7439">
        <ele>195</ele>
        <time>2011-03-27T12:08:17Z</time>
      </trkpt>
      <trkpt lat="44.0801" lon="1.74391">
        <ele>195</ele>
        <time>2011-03-27T12:08:22Z</time>
      </trkpt>
      <trkpt lat="44.07999" lon="1.74393">
        <ele>198</ele>
        <time>2011-03-27T12:08:27Z</time>
      </trkpt>
      <trkpt lat="44.07989" lon="1.74394">
        <ele>198</ele>
        <time>2011-03-27T12:08:32Z</time>
      </trkpt>
      <trkpt lat="44.07978" lon="1.74395">
        <ele>198</ele>
        <time>2011-03-27T12:08:37Z</time>
      </trkpt>
      <trkpt lat="44.07969" lon="1.74395">
        <ele>198</ele>
        <time>2011-03-27T12:08:41Z</time>
      </trkpt>
      <trkpt lat="44.07959" lon="1.74394">
        <ele>198</ele>
        <time>2011-03-27T12:08:46Z</time>
      </trkpt>
      <trkpt lat="44.07948" lon="1.74393">
        <ele>198</ele>
        <time>2011-03-27T12:08:51Z</time>
      </trkpt>
      <trkpt lat="44.07939" lon="1.74394">
        <ele>199</ele>
        <time>2011-03-27T12:08:56Z</time>
      </trkpt>
      <trkpt lat="44.07929" lon="1.74396">
        <ele>200</ele>
        <time>2011-03-27T12:09:01Z</time>
      </trkpt>
      <trkpt lat="44.07917" lon="1.74398">
        <ele>200</ele>
        <time>2011-03-27T12:09:05Z</time>
      </trkpt>
      <trkpt lat="44.07906" lon="1.744">
        <ele>199</ele>
        <time>2011-03-27T12:09:08Z</time>
      </trkpt>
      <trkpt lat="44.07897" lon="1.74401">
        <ele>199</ele>
        <time>2011-03-27T12:09:11Z</time>
      </trkpt>
      <trkpt lat="44.07885" lon="1.74405">
        <ele>198</ele>
        <time>2011-03-27T12:09:15Z</time>
      </trkpt>
      <trkpt lat="44.07875" lon="1.7441">
        <ele>198</ele>
        <time>2011-03-27T12:09:19Z</time>
      </trkpt>
      <trkpt lat="44.07865" lon="1.74416">
        <ele>198</ele>
        <time>2011-03-27T12:09:22Z</time>
      </trkpt>
      <trkpt lat="44.07854" lon="1.74422">
        <ele>205</ele>
        <time>2011-03-27T12:09:25Z</time>
      </trkpt>
      <trkpt lat="44.07845" lon="1.7443">
        <ele>205</ele>
        <time>2011-03-27T12:09:28Z</time>
      </trkpt>
      <trkpt lat="44.07838" lon="1.74439">
        <ele>206</ele>
        <time>2011-03-27T12:09:31Z</time>
      </trkpt>
      <trkpt lat="44.07831" lon="1.74449">
        <ele>206</ele>
        <time>2011-03-27T12:09:34Z</time>
      </trkpt>
      <trkpt lat="44.07822" lon="1.74457">
        <ele>207</ele>
        <time>2011-03-27T12:09:37Z</time>
      </trkpt>
      <trkpt lat="44.07813" lon="1.74464">
        <ele>208</ele>
        <time>2011-03-27T12:09:40Z</time>
      </trkpt>
      <trkpt lat="44.07804" lon="1.74468">
        <ele>208</ele>
        <time>2011-03-27T12:09:43Z</time>
      </trkpt>
      <trkpt lat="44.07793" lon="1.74472">
        <ele>209</ele>
        <time>2011-03-27T12:09:47Z</time>
      </trkpt>
      <trkpt lat="44.07783" lon="1.74476">
        <ele>209</ele>
        <time>2011-03-27T12:09:51Z</time>
      </trkpt>
      <trkpt lat="44.07772" lon="1.7448">
        <ele>209</ele>
        <time>2011-03-27T12:09:55Z</time>
      </trkpt>
      <trkpt lat="44.07763" lon="1.74484">
        <ele>210</ele>
        <time>2011-03-27T12:09:58Z</time>
      </trkpt>
      <trkpt lat="44.07752" lon="1.74487">
        <ele>211</ele>
        <time>2011-03-27T12:10:01Z</time>
      </trkpt>
      <trkpt lat="44.07743" lon="1.7449">
        <ele>211</ele>
        <time>2011-03-27T12:10:04Z</time>
      </trkpt>
      <trkpt lat="44.07731" lon="1.74493">
        <ele>210</ele>
        <time>2011-03-27T12:10:08Z</time>
      </trkpt>
      <trkpt lat="44.07721" lon="1.74494">
        <ele>210</ele>
        <time>2011-03-27T12:10:11Z</time>
      </trkpt>
      <trkpt lat="44.0771" lon="1.74494">
        <ele>209</ele>
        <time>2011-03-27T12:10:14Z</time>
      </trkpt>
      <trkpt lat="44.077" lon="1.74495">
        <ele>209</ele>
        <time>2011-03-27T12:10:18Z</time>
      </trkpt>
      <trkpt lat="44.07688" lon="1.74495">
        <ele>210</ele>
        <time>2011-03-27T12:10:22Z</time>
      </trkpt>
      <trkpt lat="44.07677" lon="1.74498">
        <ele>211</ele>
        <time>2011-03-27T12:10:25Z</time>
      </trkpt>
      <trkpt lat="44.07668" lon="1.74502">
        <ele>214</ele>
        <time>2011-03-27T12:10:28Z</time>
      </trkpt>
      <trkpt lat="44.07659" lon="1.74496">
        <ele>208</ele>
        <time>2011-03-27T12:10:32Z</time>
      </trkpt>
      <trkpt lat="44.07648" lon="1.74492">
        <ele>203</ele>
        <time>2011-03-27T12:10:36Z</time>
      </trkpt>
      <trkpt lat="44.07638" lon="1.74497">
        <ele>200</ele>
        <time>2011-03-27T12:10:39Z</time>
      </trkpt>
      <trkpt lat="44.07629" lon="1.74502">
        <ele>205</ele>
        <time>2011-03-27T12:10:42Z</time>
      </trkpt>
      <trkpt lat="44.07621" lon="1.74509">
        <ele>203</ele>
        <time>2011-03-27T12:10:44Z</time>
      </trkpt>
      <trkpt lat="44.07609" lon="1.74524">
        <ele>202</ele>
        <time>2011-03-27T12:10:47Z</time>
      </trkpt>
      <trkpt lat="44.07602" lon="1.74533">
        <ele>202</ele>
        <time>2011-03-27T12:10:49Z</time>
      </trkpt>
      <trkpt lat="44.07593" lon="1.74544">
        <ele>202</ele>
        <time>2011-03-27T12:10:52Z</time>
      </trkpt>
      <trkpt lat="44.07585" lon="1.74552">
        <ele>201</ele>
        <time>2011-03-27T12:10:55Z</time>
      </trkpt>
      <trkpt lat="44.07578" lon="1.74561">
        <ele>186</ele>
        <time>2011-03-27T12:10:59Z</time>
      </trkpt>
      <trkpt lat="44.07571" lon="1.74573">
        <ele>188</ele>
        <time>2011-03-27T12:11:05Z</time>
      </trkpt>
      <trkpt lat="44.07567" lon="1.74584">
        <ele>192</ele>
        <time>2011-03-27T12:11:11Z</time>
      </trkpt>
      <trkpt lat="44.07562" lon="1.74596">
        <ele>191</ele>
        <time>2011-03-27T12:11:17Z</time>
      </trkpt>
      <trkpt lat="44.07558" lon="1.74608">
        <ele>190</ele>
        <time>2011-03-27T12:11:22Z</time>
      </trkpt>
      <trkpt lat="44.07554" lon="1.74622">
        <ele>190</ele>
        <time>2011-03-27T12:11:27Z</time>
      </trkpt>
      <trkpt lat="44.07549" lon="1.74635">
        <ele>190</ele>
        <time>2011-03-27T12:11:32Z</time>
      </trkpt>
      <trkpt lat="44.07542" lon="1.74646">
        <ele>189</ele>
        <time>2011-03-27T12:11:36Z</time>
      </trkpt>
      <trkpt lat="44.07536" lon="1.74659">
        <ele>188</ele>
        <time>2011-03-27T12:11:40Z</time>
      </trkpt>
      <trkpt lat="44.07532" lon="1.74672">
        <ele>194</ele>
        <time>2011-03-27T12:11:45Z</time>
      </trkpt>
      <trkpt lat="44.07526" lon="1.74685">
        <ele>194</ele>
        <time>2011-03-27T12:11:50Z</time>
      </trkpt>
      <trkpt lat="44.07519" lon="1.74693">
        <ele>193</ele>
        <time>2011-03-27T12:11:54Z</time>
      </trkpt>
      <trkpt lat="44.07511" lon="1.74702">
        <ele>193</ele>
        <time>2011-03-27T12:11:58Z</time>
      </trkpt>
      <trkpt lat="44.07501" lon="1.74709">
        <ele>193</ele>
        <time>2011-03-27T12:12:03Z</time>
      </trkpt>
      <trkpt lat="44.07492" lon="1.74713">
        <ele>178</ele>
        <time>2011-03-27T12:12:06Z</time>
      </trkpt>
      <trkpt lat="44.07482" lon="1.74719">
        <ele>178</ele>
        <time>2011-03-27T12:12:09Z</time>
      </trkpt>
      <trkpt lat="44.07471" lon="1.74722">
        <ele>177</ele>
        <time>2011-03-27T12:12:12Z</time>
      </trkpt>
      <trkpt lat="44.07462" lon="1.74724">
        <ele>177</ele>
        <time>2011-03-27T12:12:15Z</time>
      </trkpt>
      <trkpt lat="44.07452" lon="1.74721">
        <ele>175</ele>
        <time>2011-03-27T12:12:20Z</time>
      </trkpt>
      <trkpt lat="44.07447" lon="1.74734">
        <ele>175</ele>
        <time>2011-03-27T12:12:26Z</time>
      </trkpt>
      <trkpt lat="44.07445" lon="1.74718">
        <ele>175</ele>
        <time>2011-03-27T12:12:32Z</time>
      </trkpt>
      <trkpt lat="44.07447" lon="1.74701">
        <ele>174</ele>
        <time>2011-03-27T12:12:35Z</time>
      </trkpt>
      <trkpt lat="44.07452" lon="1.74678">
        <ele>174</ele>
        <time>2011-03-27T12:12:38Z</time>
      </trkpt>
      <trkpt lat="44.07459" lon="1.74654">
        <ele>171</ele>
        <time>2011-03-27T12:12:41Z</time>
      </trkpt>
      <trkpt lat="44.0747" lon="1.74627">
        <ele>171</ele>
        <time>2011-03-27T12:12:44Z</time>
      </trkpt>
      <trkpt lat="44.0748" lon="1.7461">
        <ele>170</ele>
        <time>2011-03-27T12:12:46Z</time>
      </trkpt>
      <trkpt lat="44.07495" lon="1.74586">
        <ele>168</ele>
        <time>2011-03-27T12:12:49Z</time>
      </trkpt>
      <trkpt lat="44.07509" lon="1.74559">
        <ele>174</ele>
        <time>2011-03-27T12:12:52Z</time>
      </trkpt>
      <trkpt lat="44.07519" lon="1.74527">
        <ele>174</ele>
        <time>2011-03-27T12:12:55Z</time>
      </trkpt>
      <trkpt lat="44.07528" lon="1.74492">
        <ele>171</ele>
        <time>2011-03-27T12:12:58Z</time>
      </trkpt>
      <trkpt lat="44.07536" lon="1.74455">
        <ele>172</ele>
        <time>2011-03-27T12:13:01Z</time>
      </trkpt>
      <trkpt lat="44.07542" lon="1.74428">
        <ele>171</ele>
        <time>2011-03-27T12:13:03Z</time>
      </trkpt>
      <trkpt lat="44.07548" lon="1.74385">
        <ele>167</ele>
        <time>2011-03-27T12:13:06Z</time>
      </trkpt>
      <trkpt lat="44.07553" lon="1.74345">
        <ele>165</ele>
        <time>2011-03-27T12:13:09Z</time>
      </trkpt>
      <trkpt lat="44.07555" lon="1.74321">
        <ele>161</ele>
        <time>2011-03-27T12:13:11Z</time>
      </trkpt>
      <trkpt lat="44.07557" lon="1.74298">
        <ele>159</ele>
        <time>2011-03-27T12:13:14Z</time>
      </trkpt>
      <trkpt lat="44.07551" lon="1.74279">
        <ele>158</ele>
        <time>2011-03-27T12:13:17Z</time>
      </trkpt>
      <trkpt lat="44.07537" lon="1.74265">
        <ele>158</ele>
        <time>2011-03-27T12:13:20Z</time>
      </trkpt>
      <trkpt lat="44.07529" lon="1.7426">
        <ele>157</ele>
        <time>2011-03-27T12:13:22Z</time>
      </trkpt>
      <trkpt lat="44.0752" lon="1.74254">
        <ele>157</ele>
        <time>2011-03-27T12:13:25Z</time>
      </trkpt>
      <trkpt lat="44.07512" lon="1.74247">
        <ele>155</ele>
        <time>2011-03-27T12:13:29Z</time>
      </trkpt>
      <trkpt lat="44.07502" lon="1.74242">
        <ele>155</ele>
        <time>2011-03-27T12:13:33Z</time>
      </trkpt>
      <trkpt lat="44.07494" lon="1.74237">
        <ele>159</ele>
        <time>2011-03-27T12:13:37Z</time>
      </trkpt>
      <trkpt lat="44.07485" lon="1.7423">
        <ele>160</ele>
        <time>2011-03-27T12:13:40Z</time>
      </trkpt>
      <trkpt lat="44.07477" lon="1.74222">
        <ele>161</ele>
        <time>2011-03-27T12:13:43Z</time>
      </trkpt>
      <trkpt lat="44.07469" lon="1.74215">
        <ele>161</ele>
        <time>2011-03-27T12:13:46Z</time>
      </trkpt>
      <trkpt lat="44.07459" lon="1.74208">
        <ele>162</ele>
        <time>2011-03-27T12:13:50Z</time>
      </trkpt>
      <trkpt lat="44.07448" lon="1.74204">
        <ele>163</ele>
        <time>2011-03-27T12:13:54Z</time>
      </trkpt>
      <trkpt lat="44.07438" lon="1.74199">
        <ele>163</ele>
        <time>2011-03-27T12:13:59Z</time>
      </trkpt>
      <trkpt lat="44.07429" lon="1.74195">
        <ele>164</ele>
        <time>2011-03-27T12:14:03Z</time>
      </trkpt>
      <trkpt lat="44.07419" lon="1.74195">
        <ele>164</ele>
        <time>2011-03-27T12:14:07Z</time>
      </trkpt>
      <trkpt lat="44.07408" lon="1.74196">
        <ele>169</ele>
        <time>2011-03-27T12:14:11Z</time>
      </trkpt>
      <trkpt lat="44.07396" lon="1.74198">
        <ele>170</ele>
        <time>2011-03-27T12:14:15Z</time>
      </trkpt>
      <trkpt lat="44.07385" lon="1.74202">
        <ele>171</ele>
        <time>2011-03-27T12:14:19Z</time>
      </trkpt>
      <trkpt lat="44.07377" lon="1.74207">
        <ele>171</ele>
        <time>2011-03-27T12:14:23Z</time>
      </trkpt>
      <trkpt lat="44.07369" lon="1.74215">
        <ele>172</ele>
        <time>2011-03-27T12:14:28Z</time>
      </trkpt>
      <trkpt lat="44.07359" lon="1.74219">
        <ele>172</ele>
        <time>2011-03-27T12:14:32Z</time>
      </trkpt>
      <trkpt lat="44.0735" lon="1.74222">
        <ele>172</ele>
        <time>2011-03-27T12:14:35Z</time>
      </trkpt>
      <trkpt lat="44.0735" lon="1.74222">
        <ele>172</ele>
        <time>2011-03-27T12:14:50Z</time>
      </trkpt>
      <trkpt lat="44.0735" lon="1.74222">
        <ele>172</ele>
        <time>2011-03-27T12:15:04Z</time>
      </trkpt>
      <trkpt lat="44.07328" lon="1.74227">
        <ele>176</ele>
        <time>2011-03-27T12:15:32Z</time>
      </trkpt>
      <trkpt lat="44.0732" lon="1.74216">
        <ele>177</ele>
        <time>2011-03-27T12:15:36Z</time>
      </trkpt>
      <trkpt lat="44.07319" lon="1.74203">
        <ele>177</ele>
        <time>2011-03-27T12:15:40Z</time>
      </trkpt>
      <trkpt lat="44.07323" lon="1.7419">
        <ele>176</ele>
        <time>2011-03-27T12:15:44Z</time>
      </trkpt>
      <trkpt lat="44.07323" lon="1.7419">
        <ele>176</ele>
        <time>2011-03-27T12:15:49Z</time>
      </trkpt>
      <trkpt lat="44.07357" lon="1.74164">
        <ele>175</ele>
        <time>2011-03-27T12:16:02Z</time>
      </trkpt>
      <trkpt lat="44.07357" lon="1.74164">
        <ele>175</ele>
        <time>2011-03-27T12:16:06Z</time>
      </trkpt>
      <trkpt lat="44.07376" lon="1.74149">
        <ele>174</ele>
        <time>2011-03-27T12:16:13Z</time>
      </trkpt>
      <trkpt lat="44.07385" lon="1.74141">
        <ele>174</ele>
        <time>2011-03-27T12:16:18Z</time>
      </trkpt>
      <trkpt lat="44.07394" lon="1.74133">
        <ele>174</ele>
        <time>2011-03-27T12:16:23Z</time>
      </trkpt>
      <trkpt lat="44.07404" lon="1.74126">
        <ele>175</ele>
        <time>2011-03-27T12:16:28Z</time>
      </trkpt>
      <trkpt lat="44.07412" lon="1.74121">
        <ele>175</ele>
        <time>2011-03-27T12:16:32Z</time>
      </trkpt>
      <trkpt lat="44.07422" lon="1.74117">
        <ele>169</ele>
        <time>2011-03-27T12:16:37Z</time>
      </trkpt>
      <trkpt lat="44.07433" lon="1.74115">
        <ele>169</ele>
        <time>2011-03-27T12:16:42Z</time>
      </trkpt>
      <trkpt lat="44.07444" lon="1.74116">
        <ele>168</ele>
        <time>2011-03-27T12:16:47Z</time>
      </trkpt>
      <trkpt lat="44.07455" lon="1.74117">
        <ele>168</ele>
        <time>2011-03-27T12:16:52Z</time>
      </trkpt>
      <trkpt lat="44.07464" lon="1.74116">
        <ele>167</ele>
        <time>2011-03-27T12:16:57Z</time>
      </trkpt>
      <trkpt lat="44.07475" lon="1.74112">
        <ele>167</ele>
        <time>2011-03-27T12:17:02Z</time>
      </trkpt>
      <trkpt lat="44.07483" lon="1.74106">
        <ele>167</ele>
        <time>2011-03-27T12:17:06Z</time>
      </trkpt>
      <trkpt lat="44.0749" lon="1.74098">
        <ele>168</ele>
        <time>2011-03-27T12:17:10Z</time>
      </trkpt>
      <trkpt lat="44.07497" lon="1.74087">
        <ele>169</ele>
        <time>2011-03-27T12:17:15Z</time>
      </trkpt>
      <trkpt lat="44.07502" lon="1.74075">
        <ele>169</ele>
        <time>2011-03-27T12:17:20Z</time>
      </trkpt>
      <trkpt lat="44.07505" lon="1.74061">
        <ele>169</ele>
        <time>2011-03-27T12:17:25Z</time>
      </trkpt>
      <trkpt lat="44.07505" lon="1.74046">
        <ele>169</ele>
        <time>2011-03-27T12:17:30Z</time>
      </trkpt>
      <trkpt lat="44.07505" lon="1.74031">
        <ele>171</ele>
        <time>2011-03-27T12:17:35Z</time>
      </trkpt>
      <trkpt lat="44.07504" lon="1.74017">
        <ele>173</ele>
        <time>2011-03-27T12:17:40Z</time>
      </trkpt>
      <trkpt lat="44.07503" lon="1.74002">
        <ele>178</ele>
        <time>2011-03-27T12:17:45Z</time>
      </trkpt>
      <trkpt lat="44.07504" lon="1.73987">
        <ele>178</ele>
        <time>2011-03-27T12:17:50Z</time>
      </trkpt>
      <trkpt lat="44.07509" lon="1.73975">
        <ele>178</ele>
        <time>2011-03-27T12:17:55Z</time>
      </trkpt>
      <trkpt lat="44.07514" lon="1.73962">
        <ele>178</ele>
        <time>2011-03-27T12:18:00Z</time>
      </trkpt>
      <trkpt lat="44.07522" lon="1.73956">
        <ele>178</ele>
        <time>2011-03-27T12:18:04Z</time>
      </trkpt>
      <trkpt lat="44.07532" lon="1.7395">
        <ele>178</ele>
        <time>2011-03-27T12:18:09Z</time>
      </trkpt>
      <trkpt lat="44.07541" lon="1.73944">
        <ele>178</ele>
        <time>2011-03-27T12:18:14Z</time>
      </trkpt>
      <trkpt lat="44.07549" lon="1.73935">
        <ele>177</ele>
        <time>2011-03-27T12:18:19Z</time>
      </trkpt>
      <trkpt lat="44.07554" lon="1.73922">
        <ele>177</ele>
        <time>2011-03-27T12:18:23Z</time>
      </trkpt>
      <trkpt lat="44.07557" lon="1.7391">
        <ele>182</ele>
        <time>2011-03-27T12:18:27Z</time>
      </trkpt>
      <trkpt lat="44.07558" lon="1.73896">
        <ele>183</ele>
        <time>2011-03-27T12:18:32Z</time>
      </trkpt>
      <trkpt lat="44.07558" lon="1.73882">
        <ele>184</ele>
        <time>2011-03-27T12:18:37Z</time>
      </trkpt>
      <trkpt lat="44.07553" lon="1.73869">
        <ele>185</ele>
        <time>2011-03-27T12:18:42Z</time>
      </trkpt>
      <trkpt lat="44.07548" lon="1.73857">
        <ele>186</ele>
        <time>2011-03-27T12:18:47Z</time>
      </trkpt>
      <trkpt lat="44.07541" lon="1.73845">
        <ele>186</ele>
        <time>2011-03-27T12:18:52Z</time>
      </trkpt>
      <trkpt lat="44.07534" lon="1.73835">
        <ele>187</ele>
        <time>2011-03-27T12:18:57Z</time>
      </trkpt>
      <trkpt lat="44.07528" lon="1.73825">
        <ele>190</ele>
        <time>2011-03-27T12:19:03Z</time>
      </trkpt>
      <trkpt lat="44.07519" lon="1.73816">
        <ele>190</ele>
        <time>2011-03-27T12:19:09Z</time>
      </trkpt>
      <trkpt lat="44.07511" lon="1.73806">
        <ele>190</ele>
        <time>2011-03-27T12:19:15Z</time>
      </trkpt>
      <trkpt lat="44.07504" lon="1.73796">
        <ele>190</ele>
        <time>2011-03-27T12:19:21Z</time>
      </trkpt>
      <trkpt lat="44.07496" lon="1.73786">
        <ele>194</ele>
        <time>2011-03-27T12:19:27Z</time>
      </trkpt>
      <trkpt lat="44.07489" lon="1.73778">
        <ele>194</ele>
        <time>2011-03-27T12:19:32Z</time>
      </trkpt>
      <trkpt lat="44.07482" lon="1.73769">
        <ele>194</ele>
        <time>2011-03-27T12:19:37Z</time>
      </trkpt>
      <trkpt lat="44.07475" lon="1.73759">
        <ele>194</ele>
        <time>2011-03-27T12:19:42Z</time>
      </trkpt>
      <trkpt lat="44.07467" lon="1.73749">
        <ele>195</ele>
        <time>2011-03-27T12:19:48Z</time>
      </trkpt>
      <trkpt lat="44.07462" lon="1.73737">
        <ele>196</ele>
        <time>2011-03-27T12:19:53Z</time>
      </trkpt>
      <trkpt lat="44.07459" lon="1.73724">
        <ele>196</ele>
        <time>2011-03-27T12:19:58Z</time>
      </trkpt>
      <trkpt lat="44.07459" lon="1.73712">
        <ele>196</ele>
        <time>2011-03-27T12:20:03Z</time>
      </trkpt>
      <trkpt lat="44.07462" lon="1.73698">
        <ele>196</ele>
        <time>2011-03-27T12:20:08Z</time>
      </trkpt>
      <trkpt lat="44.07462" lon="1.73685">
        <ele>196</ele>
        <time>2011-03-27T12:20:12Z</time>
      </trkpt>
      <trkpt lat="44.07464" lon="1.7367">
        <ele>195</ele>
        <time>2011-03-27T12:20:16Z</time>
      </trkpt>
      <trkpt lat="44.07466" lon="1.73654">
        <ele>195</ele>
        <time>2011-03-27T12:20:20Z</time>
      </trkpt>
      <trkpt lat="44.07466" lon="1.73637">
        <ele>196</ele>
        <time>2011-03-27T12:20:24Z</time>
      </trkpt>
      <trkpt lat="44.07468" lon="1.73624">
        <ele>195</ele>
        <time>2011-03-27T12:20:27Z</time>
      </trkpt>
      <trkpt lat="44.07469" lon="1.7361">
        <ele>195</ele>
        <time>2011-03-27T12:20:30Z</time>
      </trkpt>
      <trkpt lat="44.07469" lon="1.73594">
        <ele>195</ele>
        <time>2011-03-27T12:20:33Z</time>
      </trkpt>
      <trkpt lat="44.07469" lon="1.73578">
        <ele>194</ele>
        <time>2011-03-27T12:20:36Z</time>
      </trkpt>
      <trkpt lat="44.0747" lon="1.73562">
        <ele>194</ele>
        <time>2011-03-27T12:20:39Z</time>
      </trkpt>
      <trkpt lat="44.07471" lon="1.73547">
        <ele>194</ele>
        <time>2011-03-27T12:20:42Z</time>
      </trkpt>
      <trkpt lat="44.07472" lon="1.7353">
        <ele>194</ele>
        <time>2011-03-27T12:20:45Z</time>
      </trkpt>
      <trkpt lat="44.07475" lon="1.73511">
        <ele>193</ele>
        <time>2011-03-27T12:20:48Z</time>
      </trkpt>
      <trkpt lat="44.07482" lon="1.73489">
        <ele>191</ele>
        <time>2011-03-27T12:20:51Z</time>
      </trkpt>
      <trkpt lat="44.07492" lon="1.73473">
        <ele>191</ele>
        <time>2011-03-27T12:20:53Z</time>
      </trkpt>
      <trkpt lat="44.0751" lon="1.73446">
        <ele>186</ele>
        <time>2011-03-27T12:20:56Z</time>
      </trkpt>
      <trkpt lat="44.07524" lon="1.73428">
        <ele>186</ele>
        <time>2011-03-27T12:20:58Z</time>
      </trkpt>
      <trkpt lat="44.07546" lon="1.73399">
        <ele>181</ele>
        <time>2011-03-27T12:21:01Z</time>
      </trkpt>
      <trkpt lat="44.07563" lon="1.73368">
        <ele>180</ele>
        <time>2011-03-27T12:21:04Z</time>
      </trkpt>
      <trkpt lat="44.0758" lon="1.73333">
        <ele>177</ele>
        <time>2011-03-27T12:21:07Z</time>
      </trkpt>
      <trkpt lat="44.07591" lon="1.7331">
        <ele>171</ele>
        <time>2011-03-27T12:21:09Z</time>
      </trkpt>
      <trkpt lat="44.076" lon="1.73288">
        <ele>169</ele>
        <time>2011-03-27T12:21:11Z</time>
      </trkpt>
      <trkpt lat="44.0761" lon="1.73266">
        <ele>168</ele>
        <time>2011-03-27T12:21:13Z</time>
      </trkpt>
      <trkpt lat="44.07616" lon="1.73252">
        <ele>168</ele>
        <time>2011-03-27T12:21:16Z</time>
      </trkpt>
      <trkpt lat="44.07616" lon="1.73252">
        <ele>168</ele>
        <time>2011-03-27T12:21:17Z</time>
      </trkpt>
      <trkpt lat="44.07607" lon="1.73237">
        <ele>165</ele>
        <time>2011-03-27T12:21:27Z</time>
      </trkpt>
      <trkpt lat="44.07607" lon="1.73237">
        <ele>165</ele>
        <time>2011-03-27T12:21:31Z</time>
      </trkpt>
      <trkpt lat="44.07607" lon="1.73237">
        <ele>165</ele>
        <time>2011-03-27T12:21:59Z</time>
      </trkpt>
      <trkpt lat="44.07626" lon="1.73221">
        <ele>164</ele>
        <time>2011-03-27T12:28:22Z</time>
      </trkpt>
      <trkpt lat="44.07632" lon="1.73206">
        <ele>163</ele>
        <time>2011-03-27T12:28:26Z</time>
      </trkpt>
      <trkpt lat="44.07639" lon="1.73195">
        <ele>163</ele>
        <time>2011-03-27T12:28:29Z</time>
      </trkpt>
      <trkpt lat="44.0765" lon="1.73187">
        <ele>163</ele>
        <time>2011-03-27T12:28:32Z</time>
      </trkpt>
      <trkpt lat="44.0766" lon="1.73183">
        <ele>163</ele>
        <time>2011-03-27T12:28:35Z</time>
      </trkpt>
      <trkpt lat="44.07669" lon="1.73176">
        <ele>158</ele>
        <time>2011-03-27T12:28:38Z</time>
      </trkpt>
      <trkpt lat="44.07674" lon="1.73162">
        <ele>158</ele>
        <time>2011-03-27T12:28:41Z</time>
      </trkpt>
      <trkpt lat="44.07676" lon="1.73143">
        <ele>154</ele>
        <time>2011-03-27T12:28:44Z</time>
      </trkpt>
      <trkpt lat="44.07679" lon="1.73123">
        <ele>153</ele>
        <time>2011-03-27T12:28:47Z</time>
      </trkpt>
      <trkpt lat="44.07682" lon="1.73109">
        <ele>153</ele>
        <time>2011-03-27T12:28:50Z</time>
      </trkpt>
      <trkpt lat="44.07682" lon="1.73109">
        <ele>153</ele>
        <time>2011-03-27T12:28:50Z</time>
      </trkpt>
      <trkpt lat="44.07679" lon="1.73096">
        <ele>154</ele>
        <time>2011-03-27T12:28:57Z</time>
      </trkpt>
      <trkpt lat="44.07679" lon="1.73083">
        <ele>155</ele>
        <time>2011-03-27T12:29:03Z</time>
      </trkpt>
      <trkpt lat="44.07678" lon="1.73069">
        <ele>154</ele>
        <time>2011-03-27T12:29:08Z</time>
      </trkpt>
      <trkpt lat="44.07678" lon="1.73053">
        <ele>153</ele>
        <time>2011-03-27T12:29:12Z</time>
      </trkpt>
      <trkpt lat="44.07676" lon="1.7304">
        <ele>153</ele>
        <time>2011-03-27T12:29:15Z</time>
      </trkpt>
      <trkpt lat="44.07676" lon="1.73025">
        <ele>153</ele>
        <time>2011-03-27T12:29:18Z</time>
      </trkpt>
      <trkpt lat="44.07678" lon="1.73011">
        <ele>153</ele>
        <time>2011-03-27T12:29:21Z</time>
      </trkpt>
      <trkpt lat="44.07682" lon="1.72997">
        <ele>155</ele>
        <time>2011-03-27T12:29:25Z</time>
      </trkpt>
      <trkpt lat="44.07684" lon="1.72982">
        <ele>155</ele>
        <time>2011-03-27T12:29:28Z</time>
      </trkpt>
      <trkpt lat="44.07688" lon="1.72964">
        <ele>155</ele>
        <time>2011-03-27T12:29:31Z</time>
      </trkpt>
      <trkpt lat="44.07694" lon="1.72946">
        <ele>155</ele>
        <time>2011-03-27T12:29:34Z</time>
      </trkpt>
      <trkpt lat="44.07701" lon="1.7293">
        <ele>155</ele>
        <time>2011-03-27T12:29:37Z</time>
      </trkpt>
      <trkpt lat="44.07707" lon="1.72917">
        <ele>156</ele>
        <time>2011-03-27T12:29:40Z</time>
      </trkpt>
      <trkpt lat="44.07712" lon="1.72905">
        <ele>158</ele>
        <time>2011-03-27T12:29:43Z</time>
      </trkpt>
      <trkpt lat="44.07716" lon="1.72892">
        <ele>159</ele>
        <time>2011-03-27T12:29:46Z</time>
      </trkpt>
      <trkpt lat="44.07721" lon="1.72879">
        <ele>159</ele>
        <time>2011-03-27T12:29:49Z</time>
      </trkpt>
      <trkpt lat="44.07725" lon="1.72865">
        <ele>159</ele>
        <time>2011-03-27T12:29:52Z</time>
      </trkpt>
      <trkpt lat="44.07729" lon="1.72849">
        <ele>160</ele>
        <time>2011-03-27T12:29:55Z</time>
      </trkpt>
      <trkpt lat="44.07734" lon="1.72833">
        <ele>160</ele>
        <time>2011-03-27T12:29:58Z</time>
      </trkpt>
      <trkpt lat="44.07738" lon="1.72814">
        <ele>160</ele>
        <time>2011-03-27T12:30:01Z</time>
      </trkpt>
      <trkpt lat="44.07742" lon="1.72799">
        <ele>158</ele>
        <time>2011-03-27T12:30:03Z</time>
      </trkpt>
      <trkpt lat="44.07748" lon="1.72776">
        <ele>156</ele>
        <time>2011-03-27T12:30:06Z</time>
      </trkpt>
      <trkpt lat="44.07752" lon="1.72761">
        <ele>157</ele>
        <time>2011-03-27T12:30:08Z</time>
      </trkpt>
      <trkpt lat="44.0776" lon="1.7274">
        <ele>156</ele>
        <time>2011-03-27T12:30:11Z</time>
      </trkpt>
      <trkpt lat="44.07766" lon="1.72727">
        <ele>157</ele>
        <time>2011-03-27T12:30:13Z</time>
      </trkpt>
      <trkpt lat="44.07773" lon="1.72705">
        <ele>158</ele>
        <time>2011-03-27T12:30:16Z</time>
      </trkpt>
      <trkpt lat="44.07779" lon="1.7268">
        <ele>157</ele>
        <time>2011-03-27T12:30:19Z</time>
      </trkpt>
      <trkpt lat="44.07786" lon="1.72655">
        <ele>152</ele>
        <time>2011-03-27T12:30:22Z</time>
      </trkpt>
      <trkpt lat="44.07792" lon="1.72639">
        <ele>152</ele>
        <time>2011-03-27T12:30:24Z</time>
      </trkpt>
      <trkpt lat="44.07803" lon="1.72616">
        <ele>151</ele>
        <time>2011-03-27T12:30:27Z</time>
      </trkpt>
      <trkpt lat="44.07817" lon="1.726">
        <ele>149</ele>
        <time>2011-03-27T12:30:30Z</time>
      </trkpt>
      <trkpt lat="44.07832" lon="1.72583">
        <ele>143</ele>
        <time>2011-03-27T12:30:33Z</time>
      </trkpt>
      <trkpt lat="44.0784" lon="1.72573">
        <ele>142</ele>
        <time>2011-03-27T12:30:35Z</time>
      </trkpt>
      <trkpt lat="44.07846" lon="1.7256">
        <ele>141</ele>
        <time>2011-03-27T13:06:15Z</time>
      </trkpt>
      <trkpt lat="44.07859" lon="1.72539">
        <ele>139</ele>
        <time>2011-03-27T13:06:18Z</time>
      </trkpt>
      <trkpt lat="44.07869" lon="1.72521">
        <ele>138</ele>
        <time>2011-03-27T13:06:20Z</time>
      </trkpt>
      <trkpt lat="44.07885" lon="1.72496">
        <ele>135</ele>
        <time>2011-03-27T13:06:23Z</time>
      </trkpt>
      <trkpt lat="44.07902" lon="1.72473">
        <ele>134</ele>
        <time>2011-03-27T13:06:26Z</time>
      </trkpt>
      <trkpt lat="44.07918" lon="1.72464">
        <ele>125</ele>
        <time>2011-03-27T13:06:28Z</time>
      </trkpt>
      <trkpt lat="44.07943" lon="1.72471">
        <ele>124</ele>
        <time>2011-03-27T13:06:31Z</time>
      </trkpt>
      <trkpt lat="44.07959" lon="1.72502">
        <ele>126</ele>
        <time>2011-03-27T13:06:34Z</time>
      </trkpt>
      <trkpt lat="44.07968" lon="1.72541">
        <ele>126</ele>
        <time>2011-03-27T13:06:37Z</time>
      </trkpt>
      <trkpt lat="44.07971" lon="1.72566">
        <ele>126</ele>
        <time>2011-03-27T13:06:39Z</time>
      </trkpt>
      <trkpt lat="44.07971" lon="1.72602">
        <ele>128</ele>
        <time>2011-03-27T13:06:42Z</time>
      </trkpt>
      <trkpt lat="44.07968" lon="1.72631">
        <ele>129</ele>
        <time>2011-03-27T13:06:45Z</time>
      </trkpt>
      <trkpt lat="44.07968" lon="1.72645">
        <ele>129</ele>
        <time>2011-03-27T13:06:47Z</time>
      </trkpt>
      <trkpt lat="44.07973" lon="1.72657">
        <ele>126</ele>
        <time>2011-03-27T13:06:50Z</time>
      </trkpt>
      <trkpt lat="44.0798" lon="1.72648">
        <ele>125</ele>
        <time>2011-03-27T13:06:55Z</time>
      </trkpt>
      <trkpt lat="44.07981" lon="1.7263">
        <ele>126</ele>
        <time>2011-03-27T13:06:58Z</time>
      </trkpt>
      <trkpt lat="44.07981" lon="1.72611">
        <ele>126</ele>
        <time>2011-03-27T13:07:01Z</time>
      </trkpt>
      <trkpt lat="44.07981" lon="1.72591">
        <ele>124</ele>
        <time>2011-03-27T13:07:04Z</time>
      </trkpt>
      <trkpt lat="44.07981" lon="1.72572">
        <ele>123</ele>
        <time>2011-03-27T13:07:07Z</time>
      </trkpt>
      <trkpt lat="44.07982" lon="1.72553">
        <ele>124</ele>
        <time>2011-03-27T13:07:10Z</time>
      </trkpt>
      <trkpt lat="44.07982" lon="1.72539">
        <ele>124</ele>
        <time>2011-03-27T13:07:12Z</time>
      </trkpt>
      <trkpt lat="44.07981" lon="1.72525">
        <ele>124</ele>
        <time>2011-03-27T13:07:14Z</time>
      </trkpt>
      <trkpt lat="44.0798" lon="1.72505">
        <ele>122</ele>
        <time>2011-03-27T13:07:17Z</time>
      </trkpt>
      <trkpt lat="44.0798" lon="1.7249">
        <ele>120</ele>
        <time>2011-03-27T13:07:19Z</time>
      </trkpt>
      <trkpt lat="44.07979" lon="1.72468">
        <ele>121</ele>
        <time>2011-03-27T13:07:22Z</time>
      </trkpt>
      <trkpt lat="44.07977" lon="1.72454">
        <ele>121</ele>
        <time>2011-03-27T13:07:24Z</time>
      </trkpt>
      <trkpt lat="44.07976" lon="1.7244">
        <ele>121</ele>
        <time>2011-03-27T13:07:26Z</time>
      </trkpt>
      <trkpt lat="44.07973" lon="1.72418">
        <ele>121</ele>
        <time>2011-03-27T13:07:29Z</time>
      </trkpt>
      <trkpt lat="44.07971" lon="1.72403">
        <ele>121</ele>
        <time>2011-03-27T13:07:31Z</time>
      </trkpt>
      <trkpt lat="44.07968" lon="1.72381">
        <ele>121</ele>
        <time>2011-03-27T13:07:34Z</time>
      </trkpt>
      <trkpt lat="44.07966" lon="1.72367">
        <ele>121</ele>
        <time>2011-03-27T13:07:36Z</time>
      </trkpt>
      <trkpt lat="44.07965" lon="1.72345">
        <ele>121</ele>
        <time>2011-03-27T13:07:39Z</time>
      </trkpt>
      <trkpt lat="44.07964" lon="1.72324">
        <ele>122</ele>
        <time>2011-03-27T13:07:42Z</time>
      </trkpt>
      <trkpt lat="44.07964" lon="1.72301">
        <ele>122</ele>
        <time>2011-03-27T13:07:45Z</time>
      </trkpt>
      <trkpt lat="44.07961" lon="1.72277">
        <ele>122</ele>
        <time>2011-03-27T13:07:48Z</time>
      </trkpt>
      <trkpt lat="44.07959" lon="1.72252">
        <ele>123</ele>
        <time>2011-03-27T13:07:51Z</time>
      </trkpt>
      <trkpt lat="44.07955" lon="1.72229">
        <ele>122</ele>
        <time>2011-03-27T13:07:54Z</time>
      </trkpt>
      <trkpt lat="44.07952" lon="1.72215">
        <ele>122</ele>
        <time>2011-03-27T13:07:56Z</time>
      </trkpt>
      <trkpt lat="44.07947" lon="1.72195">
        <ele>123</ele>
        <time>2011-03-27T13:07:59Z</time>
      </trkpt>
      <trkpt lat="44.07943" lon="1.72182">
        <ele>124</ele>
        <time>2011-03-27T13:08:01Z</time>
      </trkpt>
      <trkpt lat="44.07938" lon="1.72169">
        <ele>125</ele>
        <time>2011-03-27T13:08:03Z</time>
      </trkpt>
      <trkpt lat="44.0793" lon="1.72149">
        <ele>123</ele>
        <time>2011-03-27T13:08:06Z</time>
      </trkpt>
      <trkpt lat="44.07923" lon="1.72128">
        <ele>121</ele>
        <time>2011-03-27T13:08:09Z</time>
      </trkpt>
      <trkpt lat="44.07917" lon="1.72115">
        <ele>120</ele>
        <time>2011-03-27T13:08:11Z</time>
      </trkpt>
      <trkpt lat="44.07909" lon="1.72095">
        <ele>126</ele>
        <time>2011-03-27T13:08:14Z</time>
      </trkpt>
      <trkpt lat="44.07903" lon="1.72082">
        <ele>122</ele>
        <time>2011-03-27T13:08:16Z</time>
      </trkpt>
      <trkpt lat="44.07894" lon="1.72063">
        <ele>123</ele>
        <time>2011-03-27T13:08:19Z</time>
      </trkpt>
      <trkpt lat="44.07888" lon="1.72051">
        <ele>124</ele>
        <time>2011-03-27T13:08:21Z</time>
      </trkpt>
      <trkpt lat="44.07878" lon="1.72032">
        <ele>124</ele>
        <time>2011-03-27T13:08:24Z</time>
      </trkpt>
      <trkpt lat="44.07867" lon="1.72013">
        <ele>124</ele>
        <time>2011-03-27T13:08:27Z</time>
      </trkpt>
      <trkpt lat="44.07857" lon="1.71994">
        <ele>121</ele>
        <time>2011-03-27T13:08:30Z</time>
      </trkpt>
      <trkpt lat="44.07848" lon="1.71976">
        <ele>120</ele>
        <time>2011-03-27T13:08:33Z</time>
      </trkpt>
      <trkpt lat="44.0784" lon="1.71963">
        <ele>119</ele>
        <time>2011-03-27T13:08:35Z</time>
      </trkpt>
      <trkpt lat="44.07828" lon="1.71945">
        <ele>125</ele>
        <time>2011-03-27T13:08:38Z</time>
      </trkpt>
      <trkpt lat="44.07817" lon="1.71927">
        <ele>124</ele>
        <time>2011-03-27T13:08:41Z</time>
      </trkpt>
      <trkpt lat="44.07809" lon="1.71916">
        <ele>118</ele>
        <time>2011-03-27T13:08:43Z</time>
      </trkpt>
      <trkpt lat="44.07798" lon="1.719">
        <ele>118</ele>
        <time>2011-03-27T13:08:46Z</time>
      </trkpt>
      <trkpt lat="44.0779" lon="1.71889">
        <ele>118</ele>
        <time>2011-03-27T13:08:48Z</time>
      </trkpt>
      <trkpt lat="44.07777" lon="1.71875">
        <ele>118</ele>
        <time>2011-03-27T13:08:51Z</time>
      </trkpt>
      <trkpt lat="44.07763" lon="1.71861">
        <ele>117</ele>
        <time>2011-03-27T13:08:54Z</time>
      </trkpt>
      <trkpt lat="44.07748" lon="1.71849">
        <ele>119</ele>
        <time>2011-03-27T13:08:57Z</time>
      </trkpt>
      <trkpt lat="44.07734" lon="1.7184">
        <ele>119</ele>
        <time>2011-03-27T13:09:00Z</time>
      </trkpt>
      <trkpt lat="44.07725" lon="1.71835">
        <ele>120</ele>
        <time>2011-03-27T13:09:02Z</time>
      </trkpt>
      <trkpt lat="44.07713" lon="1.71827">
        <ele>115</ele>
        <time>2011-03-27T13:09:05Z</time>
      </trkpt>
      <trkpt lat="44.07704" lon="1.71821">
        <ele>116</ele>
        <time>2011-03-27T13:09:07Z</time>
      </trkpt>
      <trkpt lat="44.0769" lon="1.71814">
        <ele>116</ele>
        <time>2011-03-27T13:09:10Z</time>
      </trkpt>
      <trkpt lat="44.07674" lon="1.71806">
        <ele>116</ele>
        <time>2011-03-27T13:09:13Z</time>
      </trkpt>
      <trkpt lat="44.07663" lon="1.71801">
        <ele>117</ele>
        <time>2011-03-27T13:09:15Z</time>
      </trkpt>
      <trkpt lat="44.07653" lon="1.71795">
        <ele>117</ele>
        <time>2011-03-27T13:09:17Z</time>
      </trkpt>
      <trkpt lat="44.07643" lon="1.71791">
        <ele>116</ele>
        <time>2011-03-27T13:09:19Z</time>
      </trkpt>
      <trkpt lat="44.07632" lon="1.71787">
        <ele>116</ele>
        <time>2011-03-27T13:09:21Z</time>
      </trkpt>
      <trkpt lat="44.07617" lon="1.71782">
        <ele>116</ele>
        <time>2011-03-27T13:09:24Z</time>
      </trkpt>
      <trkpt lat="44.07601" lon="1.71777">
        <ele>115</ele>
        <time>2011-03-27T13:09:27Z</time>
      </trkpt>
      <trkpt lat="44.07585" lon="1.71774">
        <ele>115</ele>
        <time>2011-03-27T13:09:30Z</time>
      </trkpt>
      <trkpt lat="44.07574" lon="1.71772">
        <ele>114</ele>
        <time>2011-03-27T13:09:32Z</time>
      </trkpt>
      <trkpt lat="44.07559" lon="1.7177">
        <ele>115</ele>
        <time>2011-03-27T13:09:35Z</time>
      </trkpt>
      <trkpt lat="44.07543" lon="1.71769">
        <ele>115</ele>
        <time>2011-03-27T13:09:38Z</time>
      </trkpt>
      <trkpt lat="44.07527" lon="1.71768">
        <ele>115</ele>
        <time>2011-03-27T13:09:41Z</time>
      </trkpt>
      <trkpt lat="44.0751" lon="1.71768">
        <ele>114</ele>
        <time>2011-03-27T13:09:44Z</time>
      </trkpt>
      <trkpt lat="44.07493" lon="1.71767">
        <ele>114</ele>
        <time>2011-03-27T13:09:47Z</time>
      </trkpt>
      <trkpt lat="44.07482" lon="1.71767">
        <ele>115</ele>
        <time>2011-03-27T13:09:49Z</time>
      </trkpt>
      <trkpt lat="44.07466" lon="1.71766">
        <ele>115</ele>
        <time>2011-03-27T13:09:52Z</time>
      </trkpt>
      <trkpt lat="44.0745" lon="1.71766">
        <ele>115</ele>
        <time>2011-03-27T13:09:55Z</time>
      </trkpt>
      <trkpt lat="44.0744" lon="1.71766">
        <ele>115</ele>
        <time>2011-03-27T13:09:57Z</time>
      </trkpt>
      <trkpt lat="44.07424" lon="1.71765">
        <ele>114</ele>
        <time>2011-03-27T13:10:00Z</time>
      </trkpt>
      <trkpt lat="44.07409" lon="1.71765">
        <ele>115</ele>
        <time>2011-03-27T13:10:03Z</time>
      </trkpt>
      <trkpt lat="44.07399" lon="1.71764">
        <ele>115</ele>
        <time>2011-03-27T13:10:05Z</time>
      </trkpt>
      <trkpt lat="44.07383" lon="1.71763">
        <ele>116</ele>
        <time>2011-03-27T13:10:08Z</time>
      </trkpt>
      <trkpt lat="44.07368" lon="1.71761">
        <ele>116</ele>
        <time>2011-03-27T13:10:11Z</time>
      </trkpt>
      <trkpt lat="44.07352" lon="1.71759">
        <ele>115</ele>
        <time>2011-03-27T13:10:14Z</time>
      </trkpt>
      <trkpt lat="44.07341" lon="1.71757">
        <ele>115</ele>
        <time>2011-03-27T13:10:16Z</time>
      </trkpt>
      <trkpt lat="44.07325" lon="1.71753">
        <ele>115</ele>
        <time>2011-03-27T13:10:19Z</time>
      </trkpt>
      <trkpt lat="44.07315" lon="1.7175">
        <ele>113</ele>
        <time>2011-03-27T13:10:21Z</time>
      </trkpt>
      <trkpt lat="44.073" lon="1.71744">
        <ele>113</ele>
        <time>2011-03-27T13:10:24Z</time>
      </trkpt>
      <trkpt lat="44.07284" lon="1.71738">
        <ele>114</ele>
        <time>2011-03-27T13:10:27Z</time>
      </trkpt>
      <trkpt lat="44.07274" lon="1.71733">
        <ele>114</ele>
        <time>2011-03-27T13:10:29Z</time>
      </trkpt>
      <trkpt lat="44.0726" lon="1.71726">
        <ele>115</ele>
        <time>2011-03-27T13:10:32Z</time>
      </trkpt>
      <trkpt lat="44.0725" lon="1.71722">
        <ele>115</ele>
        <time>2011-03-27T13:10:34Z</time>
      </trkpt>
      <trkpt lat="44.07235" lon="1.71714">
        <ele>118</ele>
        <time>2011-03-27T13:10:37Z</time>
      </trkpt>
      <trkpt lat="44.07224" lon="1.71709">
        <ele>118</ele>
        <time>2011-03-27T13:10:39Z</time>
      </trkpt>
      <trkpt lat="44.07214" lon="1.71702">
        <ele>118</ele>
        <time>2011-03-27T13:10:41Z</time>
      </trkpt>
      <trkpt lat="44.07204" lon="1.71696">
        <ele>118</ele>
        <time>2011-03-27T13:10:43Z</time>
      </trkpt>
      <trkpt lat="44.0719" lon="1.71686">
        <ele>118</ele>
        <time>2011-03-27T13:10:46Z</time>
      </trkpt>
      <trkpt lat="44.07177" lon="1.71676">
        <ele>118</ele>
        <time>2011-03-27T13:10:49Z</time>
      </trkpt>
      <trkpt lat="44.07163" lon="1.71662">
        <ele>118</ele>
        <time>2011-03-27T13:10:52Z</time>
      </trkpt>
      <trkpt lat="44.07149" lon="1.71648">
        <ele>118</ele>
        <time>2011-03-27T13:10:55Z</time>
      </trkpt>
      <trkpt lat="44.07139" lon="1.71638">
        <ele>118</ele>
        <time>2011-03-27T13:10:57Z</time>
      </trkpt>
      <trkpt lat="44.07131" lon="1.71627">
        <ele>118</ele>
        <time>2011-03-27T13:10:59Z</time>
      </trkpt>
      <trkpt lat="44.07119" lon="1.71609">
        <ele>118</ele>
        <time>2011-03-27T13:11:02Z</time>
      </trkpt>
      <trkpt lat="44.07112" lon="1.71597">
        <ele>118</ele>
        <time>2011-03-27T13:11:04Z</time>
      </trkpt>
      <trkpt lat="44.07101" lon="1.71578">
        <ele>116</ele>
        <time>2011-03-27T13:11:07Z</time>
      </trkpt>
      <trkpt lat="44.07094" lon="1.71565">
        <ele>116</ele>
        <time>2011-03-27T13:11:09Z</time>
      </trkpt>
      <trkpt lat="44.07088" lon="1.71551">
        <ele>116</ele>
        <time>2011-03-27T13:11:11Z</time>
      </trkpt>
      <trkpt lat="44.07079" lon="1.71534">
        <ele>122</ele>
        <time>2011-03-27T13:11:14Z</time>
      </trkpt>
      <trkpt lat="44.07072" lon="1.71515">
        <ele>121</ele>
        <time>2011-03-27T13:11:17Z</time>
      </trkpt>
      <trkpt lat="44.07067" lon="1.71502">
        <ele>121</ele>
        <time>2011-03-27T13:11:19Z</time>
      </trkpt>
      <trkpt lat="44.07062" lon="1.71488">
        <ele>120</ele>
        <time>2011-03-27T13:11:21Z</time>
      </trkpt>
      <trkpt lat="44.07057" lon="1.71466">
        <ele>121</ele>
        <time>2011-03-27T13:11:24Z</time>
      </trkpt>
      <trkpt lat="44.07054" lon="1.71451">
        <ele>121</ele>
        <time>2011-03-27T13:11:26Z</time>
      </trkpt>
      <trkpt lat="44.0705" lon="1.71429">
        <ele>121</ele>
        <time>2011-03-27T13:11:29Z</time>
      </trkpt>
      <trkpt lat="44.07048" lon="1.71413">
        <ele>120</ele>
        <time>2011-03-27T13:11:31Z</time>
      </trkpt>
      <trkpt lat="44.07044" lon="1.7139">
        <ele>121</ele>
        <time>2011-03-27T13:11:34Z</time>
      </trkpt>
      <trkpt lat="44.07042" lon="1.71374">
        <ele>121</ele>
        <time>2011-03-27T13:11:36Z</time>
      </trkpt>
      <trkpt lat="44.0704" lon="1.71359">
        <ele>121</ele>
        <time>2011-03-27T13:11:38Z</time>
      </trkpt>
      <trkpt lat="44.07039" lon="1.71344">
        <ele>121</ele>
        <time>2011-03-27T13:11:40Z</time>
      </trkpt>
      <trkpt lat="44.07039" lon="1.71322">
        <ele>121</ele>
        <time>2011-03-27T13:11:43Z</time>
      </trkpt>
      <trkpt lat="44.07039" lon="1.71307">
        <ele>121</ele>
        <time>2011-03-27T13:11:45Z</time>
      </trkpt>
      <trkpt lat="44.07041" lon="1.71285">
        <ele>121</ele>
        <time>2011-03-27T13:11:48Z</time>
      </trkpt>
      <trkpt lat="44.07043" lon="1.71263">
        <ele>121</ele>
        <time>2011-03-27T13:11:51Z</time>
      </trkpt>
      <trkpt lat="44.07046" lon="1.71241">
        <ele>123</ele>
        <time>2011-03-27T13:11:54Z</time>
      </trkpt>
      <trkpt lat="44.07049" lon="1.71228">
        <ele>123</ele>
        <time>2011-03-27T13:11:56Z</time>
      </trkpt>
      <trkpt lat="44.07054" lon="1.71208">
        <ele>123</ele>
        <time>2011-03-27T13:11:59Z</time>
      </trkpt>
      <trkpt lat="44.0706" lon="1.7119">
        <ele>122</ele>
        <time>2011-03-27T13:12:02Z</time>
      </trkpt>
      <trkpt lat="44.07066" lon="1.71172">
        <ele>120</ele>
        <time>2011-03-27T13:12:05Z</time>
      </trkpt>
      <trkpt lat="44.07071" lon="1.71159">
        <ele>123</ele>
        <time>2011-03-27T13:12:07Z</time>
      </trkpt>
      <trkpt lat="44.0708" lon="1.7114">
        <ele>127</ele>
        <time>2011-03-27T13:12:10Z</time>
      </trkpt>
      <trkpt lat="44.0709" lon="1.7112">
        <ele>114</ele>
        <time>2011-03-27T13:12:13Z</time>
      </trkpt>
      <trkpt lat="44.07096" lon="1.71107">
        <ele>115</ele>
        <time>2011-03-27T13:12:15Z</time>
      </trkpt>
      <trkpt lat="44.07106" lon="1.71086">
        <ele>115</ele>
        <time>2011-03-27T13:12:18Z</time>
      </trkpt>
      <trkpt lat="44.07116" lon="1.71063">
        <ele>121</ele>
        <time>2011-03-27T13:12:21Z</time>
      </trkpt>
      <trkpt lat="44.07122" lon="1.7105">
        <ele>122</ele>
        <time>2011-03-27T13:12:23Z</time>
      </trkpt>
      <trkpt lat="44.07132" lon="1.71029">
        <ele>122</ele>
        <time>2011-03-27T13:12:26Z</time>
      </trkpt>
      <trkpt lat="44.07141" lon="1.7101">
        <ele>121</ele>
        <time>2011-03-27T13:12:29Z</time>
      </trkpt>
      <trkpt lat="44.0715" lon="1.7099">
        <ele>131</ele>
        <time>2011-03-27T13:12:32Z</time>
      </trkpt>
      <trkpt lat="44.07159" lon="1.70969">
        <ele>136</ele>
        <time>2011-03-27T13:12:35Z</time>
      </trkpt>
      <trkpt lat="44.07167" lon="1.7095">
        <ele>119</ele>
        <time>2011-03-27T13:12:38Z</time>
      </trkpt>
      <trkpt lat="44.07176" lon="1.70934">
        <ele>123</ele>
        <time>2011-03-27T13:12:41Z</time>
      </trkpt>
      <trkpt lat="44.07185" lon="1.70916">
        <ele>130</ele>
        <time>2011-03-27T13:12:44Z</time>
      </trkpt>
      <trkpt lat="44.07193" lon="1.70898">
        <ele>130</ele>
        <time>2011-03-27T13:12:47Z</time>
      </trkpt>
      <trkpt lat="44.07202" lon="1.70879">
        <ele>130</ele>
        <time>2011-03-27T13:12:50Z</time>
      </trkpt>
      <trkpt lat="44.07208" lon="1.70866">
        <ele>130</ele>
        <time>2011-03-27T13:12:52Z</time>
      </trkpt>
      <trkpt lat="44.07217" lon="1.70848">
        <ele>129</ele>
        <time>2011-03-27T13:12:55Z</time>
      </trkpt>
      <trkpt lat="44.07226" lon="1.70828">
        <ele>136</ele>
        <time>2011-03-27T13:12:58Z</time>
      </trkpt>
      <trkpt lat="44.07231" lon="1.70816">
        <ele>136</ele>
        <time>2011-03-27T13:13:00Z</time>
      </trkpt>
      <trkpt lat="44.07239" lon="1.70798">
        <ele>139</ele>
        <time>2011-03-27T13:13:03Z</time>
      </trkpt>
      <trkpt lat="44.07244" lon="1.70785">
        <ele>140</ele>
        <time>2011-03-27T13:13:05Z</time>
      </trkpt>
      <trkpt lat="44.07249" lon="1.70773">
        <ele>139</ele>
        <time>2011-03-27T13:13:07Z</time>
      </trkpt>
      <trkpt lat="44.07256" lon="1.70755">
        <ele>127</ele>
        <time>2011-03-27T13:13:10Z</time>
      </trkpt>
      <trkpt lat="44.07261" lon="1.70743">
        <ele>128</ele>
        <time>2011-03-27T13:13:12Z</time>
      </trkpt>
      <trkpt lat="44.07267" lon="1.70725">
        <ele>126</ele>
        <time>2011-03-27T13:13:15Z</time>
      </trkpt>
      <trkpt lat="44.07271" lon="1.70712">
        <ele>126</ele>
        <time>2011-03-27T13:13:17Z</time>
      </trkpt>
      <trkpt lat="44.07275" lon="1.70698">
        <ele>126</ele>
        <time>2011-03-27T13:13:19Z</time>
      </trkpt>
      <trkpt lat="44.0728" lon="1.70675">
        <ele>127</ele>
        <time>2011-03-27T13:13:22Z</time>
      </trkpt>
      <trkpt lat="44.07285" lon="1.70651">
        <ele>129</ele>
        <time>2011-03-27T13:13:25Z</time>
      </trkpt>
      <trkpt lat="44.07288" lon="1.70626">
        <ele>129</ele>
        <time>2011-03-27T13:13:28Z</time>
      </trkpt>
      <trkpt lat="44.07291" lon="1.70608">
        <ele>129</ele>
        <time>2011-03-27T13:13:30Z</time>
      </trkpt>
      <trkpt lat="44.07296" lon="1.70584">
        <ele>129</ele>
        <time>2011-03-27T13:13:33Z</time>
      </trkpt>
      <trkpt lat="44.07299" lon="1.70561">
        <ele>130</ele>
        <time>2011-03-27T13:13:36Z</time>
      </trkpt>
      <trkpt lat="44.07302" lon="1.70538">
        <ele>130</ele>
        <time>2011-03-27T13:13:39Z</time>
      </trkpt>
      <trkpt lat="44.07303" lon="1.70522">
        <ele>130</ele>
        <time>2011-03-27T13:13:41Z</time>
      </trkpt>
      <trkpt lat="44.07304" lon="1.70507">
        <ele>129</ele>
        <time>2011-03-27T13:13:43Z</time>
      </trkpt>
      <trkpt lat="44.07306" lon="1.70486">
        <ele>129</ele>
        <time>2011-03-27T13:13:46Z</time>
      </trkpt>
      <trkpt lat="44.07305" lon="1.70464">
        <ele>130</ele>
        <time>2011-03-27T13:13:49Z</time>
      </trkpt>
      <trkpt lat="44.07304" lon="1.7045">
        <ele>130</ele>
        <time>2011-03-27T13:13:51Z</time>
      </trkpt>
      <trkpt lat="44.07303" lon="1.70429">
        <ele>129</ele>
        <time>2011-03-27T13:13:54Z</time>
      </trkpt>
      <trkpt lat="44.07301" lon="1.70407">
        <ele>129</ele>
        <time>2011-03-27T13:13:57Z</time>
      </trkpt>
      <trkpt lat="44.07298" lon="1.70392">
        <ele>130</ele>
        <time>2011-03-27T13:13:59Z</time>
      </trkpt>
      <trkpt lat="44.07296" lon="1.70377">
        <ele>130</ele>
        <time>2011-03-27T13:14:01Z</time>
      </trkpt>
      <trkpt lat="44.07294" lon="1.70354">
        <ele>130</ele>
        <time>2011-03-27T13:14:04Z</time>
      </trkpt>
      <trkpt lat="44.07292" lon="1.70339">
        <ele>130</ele>
        <time>2011-03-27T13:14:06Z</time>
      </trkpt>
      <trkpt lat="44.0729" lon="1.70317">
        <ele>129</ele>
        <time>2011-03-27T13:14:09Z</time>
      </trkpt>
      <trkpt lat="44.07287" lon="1.70302">
        <ele>129</ele>
        <time>2011-03-27T13:14:11Z</time>
      </trkpt>
      <trkpt lat="44.07283" lon="1.70279">
        <ele>129</ele>
        <time>2011-03-27T13:14:14Z</time>
      </trkpt>
      <trkpt lat="44.0728" lon="1.70257">
        <ele>130</ele>
        <time>2011-03-27T13:14:17Z</time>
      </trkpt>
      <trkpt lat="44.07277" lon="1.70239">
        <ele>127</ele>
        <time>2011-03-27T13:14:20Z</time>
      </trkpt>
      <trkpt lat="44.07273" lon="1.70221">
        <ele>126</ele>
        <time>2011-03-27T13:14:23Z</time>
      </trkpt>
      <trkpt lat="44.07268" lon="1.702">
        <ele>126</ele>
        <time>2011-03-27T13:14:26Z</time>
      </trkpt>
      <trkpt lat="44.07263" lon="1.70186">
        <ele>126</ele>
        <time>2011-03-27T13:14:28Z</time>
      </trkpt>
      <trkpt lat="44.07256" lon="1.70167">
        <ele>127</ele>
        <time>2011-03-27T13:14:31Z</time>
      </trkpt>
      <trkpt lat="44.07249" lon="1.70148">
        <ele>129</ele>
        <time>2011-03-27T13:14:34Z</time>
      </trkpt>
      <trkpt lat="44.07245" lon="1.70135">
        <ele>128</ele>
        <time>2011-03-27T13:14:36Z</time>
      </trkpt>
      <trkpt lat="44.07236" lon="1.70117">
        <ele>127</ele>
        <time>2011-03-27T13:14:39Z</time>
      </trkpt>
      <trkpt lat="44.07226" lon="1.70101">
        <ele>126</ele>
        <time>2011-03-27T13:14:42Z</time>
      </trkpt>
      <trkpt lat="44.07218" lon="1.70092">
        <ele>127</ele>
        <time>2011-03-27T13:14:44Z</time>
      </trkpt>
      <trkpt lat="44.07207" lon="1.70078">
        <ele>120</ele>
        <time>2011-03-27T13:14:47Z</time>
      </trkpt>
      <trkpt lat="44.07198" lon="1.7007">
        <ele>121</ele>
        <time>2011-03-27T13:14:49Z</time>
      </trkpt>
      <trkpt lat="44.07189" lon="1.70061">
        <ele>121</ele>
        <time>2011-03-27T13:14:51Z</time>
      </trkpt>
      <trkpt lat="44.07175" lon="1.70049">
        <ele>121</ele>
        <time>2011-03-27T13:14:54Z</time>
      </trkpt>
      <trkpt lat="44.07165" lon="1.7004">
        <ele>123</ele>
        <time>2011-03-27T13:14:56Z</time>
      </trkpt>
      <trkpt lat="44.07152" lon="1.70024">
        <ele>121</ele>
        <time>2011-03-27T13:14:59Z</time>
      </trkpt>
      <trkpt lat="44.07143" lon="1.70017">
        <ele>121</ele>
        <time>2011-03-27T13:15:01Z</time>
      </trkpt>
      <trkpt lat="44.07129" lon="1.70006">
        <ele>121</ele>
        <time>2011-03-27T13:15:04Z</time>
      </trkpt>
      <trkpt lat="44.07113" lon="1.7">
        <ele>114</ele>
        <time>2011-03-27T13:15:07Z</time>
      </trkpt>
      <trkpt lat="44.07102" lon="1.69997">
        <ele>115</ele>
        <time>2011-03-27T13:15:09Z</time>
      </trkpt>
      <trkpt lat="44.07091" lon="1.69994">
        <ele>116</ele>
        <time>2011-03-27T13:15:11Z</time>
      </trkpt>
      <trkpt lat="44.0708" lon="1.69991">
        <ele>116</ele>
        <time>2011-03-27T13:15:13Z</time>
      </trkpt>
      <trkpt lat="44.0707" lon="1.69989">
        <ele>115</ele>
        <time>2011-03-27T13:15:15Z</time>
      </trkpt>
      <trkpt lat="44.07054" lon="1.69988">
        <ele>115</ele>
        <time>2011-03-27T13:15:18Z</time>
      </trkpt>
      <trkpt lat="44.07037" lon="1.69987">
        <ele>114</ele>
        <time>2011-03-27T13:15:21Z</time>
      </trkpt>
      <trkpt lat="44.0702" lon="1.69987">
        <ele>115</ele>
        <time>2011-03-27T13:15:24Z</time>
      </trkpt>
      <trkpt lat="44.07009" lon="1.69986">
        <ele>115</ele>
        <time>2011-03-27T13:15:26Z</time>
      </trkpt>
      <trkpt lat="44.06998" lon="1.69987">
        <ele>114</ele>
        <time>2011-03-27T13:15:28Z</time>
      </trkpt>
      <trkpt lat="44.06982" lon="1.69989">
        <ele>114</ele>
        <time>2011-03-27T13:15:31Z</time>
      </trkpt>
      <trkpt lat="44.06972" lon="1.69991">
        <ele>113</ele>
        <time>2011-03-27T13:15:33Z</time>
      </trkpt>
      <trkpt lat="44.06961" lon="1.69994">
        <ele>113</ele>
        <time>2011-03-27T13:15:35Z</time>
      </trkpt>
      <trkpt lat="44.06945" lon="1.69997">
        <ele>113</ele>
        <time>2011-03-27T13:15:38Z</time>
      </trkpt>
      <trkpt lat="44.06935" lon="1.7">
        <ele>117</ele>
        <time>2011-03-27T13:15:40Z</time>
      </trkpt>
      <trkpt lat="44.06919" lon="1.70004">
        <ele>115</ele>
        <time>2011-03-27T13:15:43Z</time>
      </trkpt>
      <trkpt lat="44.06902" lon="1.7001">
        <ele>117</ele>
        <time>2011-03-27T13:15:46Z</time>
      </trkpt>
      <trkpt lat="44.06885" lon="1.70016">
        <ele>118</ele>
        <time>2011-03-27T13:15:49Z</time>
      </trkpt>
      <trkpt lat="44.06875" lon="1.70019">
        <ele>118</ele>
        <time>2011-03-27T13:15:51Z</time>
      </trkpt>
      <trkpt lat="44.0686" lon="1.70021">
        <ele>118</ele>
        <time>2011-03-27T13:15:54Z</time>
      </trkpt>
      <trkpt lat="44.06844" lon="1.70025">
        <ele>118</ele>
        <time>2011-03-27T13:15:57Z</time>
      </trkpt>
      <trkpt lat="44.06827" lon="1.70026">
        <ele>118</ele>
        <time>2011-03-27T13:16:00Z</time>
      </trkpt>
      <trkpt lat="44.06815" lon="1.70027">
        <ele>119</ele>
        <time>2011-03-27T13:16:02Z</time>
      </trkpt>
      <trkpt lat="44.06796" lon="1.70028">
        <ele>119</ele>
        <time>2011-03-27T13:16:05Z</time>
      </trkpt>
      <trkpt lat="44.06778" lon="1.7003">
        <ele>119</ele>
        <time>2011-03-27T13:16:08Z</time>
      </trkpt>
      <trkpt lat="44.06767" lon="1.70031">
        <ele>119</ele>
        <time>2011-03-27T13:16:10Z</time>
      </trkpt>
      <trkpt lat="44.0675" lon="1.7003">
        <ele>119</ele>
        <time>2011-03-27T13:16:13Z</time>
      </trkpt>
      <trkpt lat="44.06733" lon="1.70029">
        <ele>122</ele>
        <time>2011-03-27T13:16:16Z</time>
      </trkpt>
      <trkpt lat="44.06716" lon="1.70026">
        <ele>122</ele>
        <time>2011-03-27T13:16:19Z</time>
      </trkpt>
      <trkpt lat="44.06699" lon="1.70021">
        <ele>122</ele>
        <time>2011-03-27T13:16:22Z</time>
      </trkpt>
      <trkpt lat="44.06682" lon="1.70014">
        <ele>121</ele>
        <time>2011-03-27T13:16:25Z</time>
      </trkpt>
      <trkpt lat="44.06672" lon="1.70009">
        <ele>119</ele>
        <time>2011-03-27T13:16:27Z</time>
      </trkpt>
      <trkpt lat="44.06656" lon="1.70002">
        <ele>121</ele>
        <time>2011-03-27T13:16:30Z</time>
      </trkpt>
      <trkpt lat="44.06641" lon="1.69991">
        <ele>116</ele>
        <time>2011-03-27T13:16:33Z</time>
      </trkpt>
      <trkpt lat="44.06631" lon="1.69984">
        <ele>116</ele>
        <time>2011-03-27T13:16:35Z</time>
      </trkpt>
      <trkpt lat="44.06621" lon="1.69975">
        <ele>117</ele>
        <time>2011-03-27T13:16:37Z</time>
      </trkpt>
      <trkpt lat="44.06612" lon="1.69967">
        <ele>117</ele>
        <time>2011-03-27T13:16:39Z</time>
      </trkpt>
      <trkpt lat="44.06602" lon="1.69958">
        <ele>116</ele>
        <time>2011-03-27T13:16:41Z</time>
      </trkpt>
      <trkpt lat="44.06589" lon="1.69944">
        <ele>116</ele>
        <time>2011-03-27T13:16:44Z</time>
      </trkpt>
      <trkpt lat="44.0658" lon="1.69934">
        <ele>125</ele>
        <time>2011-03-27T13:16:46Z</time>
      </trkpt>
      <trkpt lat="44.06567" lon="1.69919">
        <ele>125</ele>
        <time>2011-03-27T13:16:49Z</time>
      </trkpt>
      <trkpt lat="44.06558" lon="1.69906">
        <ele>122</ele>
        <time>2011-03-27T13:16:51Z</time>
      </trkpt>
      <trkpt lat="44.06549" lon="1.69892">
        <ele>123</ele>
        <time>2011-03-27T13:16:53Z</time>
      </trkpt>
      <trkpt lat="44.06536" lon="1.6987">
        <ele>124</ele>
        <time>2011-03-27T13:16:56Z</time>
      </trkpt>
      <trkpt lat="44.06524" lon="1.69851">
        <ele>124</ele>
        <time>2011-03-27T13:16:59Z</time>
      </trkpt>
      <trkpt lat="44.06516" lon="1.69839">
        <ele>124</ele>
        <time>2011-03-27T13:17:01Z</time>
      </trkpt>
      <trkpt lat="44.06509" lon="1.69826">
        <ele>121</ele>
        <time>2011-03-27T13:17:03Z</time>
      </trkpt>
      <trkpt lat="44.06496" lon="1.69811">
        <ele>126</ele>
        <time>2011-03-27T13:17:06Z</time>
      </trkpt>
      <trkpt lat="44.06488" lon="1.698">
        <ele>126</ele>
        <time>2011-03-27T13:17:08Z</time>
      </trkpt>
      <trkpt lat="44.06479" lon="1.6979">
        <ele>126</ele>
        <time>2011-03-27T13:17:10Z</time>
      </trkpt>
      <trkpt lat="44.06465" lon="1.69773">
        <ele>126</ele>
        <time>2011-03-27T13:17:13Z</time>
      </trkpt>
      <trkpt lat="44.06458" lon="1.69761">
        <ele>126</ele>
        <time>2011-03-27T13:17:15Z</time>
      </trkpt>
      <trkpt lat="44.06447" lon="1.69742">
        <ele>119</ele>
        <time>2011-03-27T13:17:18Z</time>
      </trkpt>
      <trkpt lat="44.06437" lon="1.69722">
        <ele>119</ele>
        <time>2011-03-27T13:17:21Z</time>
      </trkpt>
      <trkpt lat="44.06426" lon="1.69704">
        <ele>118</ele>
        <time>2011-03-27T13:17:24Z</time>
      </trkpt>
      <trkpt lat="44.06416" lon="1.69684">
        <ele>120</ele>
        <time>2011-03-27T13:17:27Z</time>
      </trkpt>
      <trkpt lat="44.06411" lon="1.69669">
        <ele>117</ele>
        <time>2011-03-27T13:17:29Z</time>
      </trkpt>
      <trkpt lat="44.06406" lon="1.69655">
        <ele>116</ele>
        <time>2011-03-27T13:17:31Z</time>
      </trkpt>
      <trkpt lat="44.06398" lon="1.69632">
        <ele>116</ele>
        <time>2011-03-27T13:17:34Z</time>
      </trkpt>
      <trkpt lat="44.06391" lon="1.69609">
        <ele>116</ele>
        <time>2011-03-27T13:17:37Z</time>
      </trkpt>
      <trkpt lat="44.06387" lon="1.69594">
        <ele>115</ele>
        <time>2011-03-27T13:17:39Z</time>
      </trkpt>
      <trkpt lat="44.06383" lon="1.69578">
        <ele>113</ele>
        <time>2011-03-27T13:17:41Z</time>
      </trkpt>
      <trkpt lat="44.06377" lon="1.69555">
        <ele>114</ele>
        <time>2011-03-27T13:17:44Z</time>
      </trkpt>
      <trkpt lat="44.06374" lon="1.69539">
        <ele>114</ele>
        <time>2011-03-27T13:17:46Z</time>
      </trkpt>
      <trkpt lat="44.06368" lon="1.69517">
        <ele>114</ele>
        <time>2011-03-27T13:17:49Z</time>
      </trkpt>
      <trkpt lat="44.06364" lon="1.69503">
        <ele>114</ele>
        <time>2011-03-27T13:17:51Z</time>
      </trkpt>
      <trkpt lat="44.06358" lon="1.69481">
        <ele>113</ele>
        <time>2011-03-27T13:17:54Z</time>
      </trkpt>
      <trkpt lat="44.06353" lon="1.69466">
        <ele>113</ele>
        <time>2011-03-27T13:17:56Z</time>
      </trkpt>
      <trkpt lat="44.06349" lon="1.69451">
        <ele>113</ele>
        <time>2011-03-27T13:17:58Z</time>
      </trkpt>
      <trkpt lat="44.06341" lon="1.69429">
        <ele>114</ele>
        <time>2011-03-27T13:18:01Z</time>
      </trkpt>
      <trkpt lat="44.06335" lon="1.69416">
        <ele>115</ele>
        <time>2011-03-27T13:18:03Z</time>
      </trkpt>
      <trkpt lat="44.06326" lon="1.69395">
        <ele>117</ele>
        <time>2011-03-27T13:18:06Z</time>
      </trkpt>
      <trkpt lat="44.0632" lon="1.69381">
        <ele>117</ele>
        <time>2011-03-27T13:18:08Z</time>
      </trkpt>
      <trkpt lat="44.06311" lon="1.69359">
        <ele>117</ele>
        <time>2011-03-27T13:18:11Z</time>
      </trkpt>
      <trkpt lat="44.06302" lon="1.69339">
        <ele>117</ele>
        <time>2011-03-27T13:18:14Z</time>
      </trkpt>
      <trkpt lat="44.06296" lon="1.69326">
        <ele>114</ele>
        <time>2011-03-27T13:18:16Z</time>
      </trkpt>
      <trkpt lat="44.06287" lon="1.69306">
        <ele>114</ele>
        <time>2011-03-27T13:18:19Z</time>
      </trkpt>
      <trkpt lat="44.0628" lon="1.69292">
        <ele>114</ele>
        <time>2011-03-27T13:18:21Z</time>
      </trkpt>
      <trkpt lat="44.0627" lon="1.69269">
        <ele>114</ele>
        <time>2011-03-27T13:18:24Z</time>
      </trkpt>
      <trkpt lat="44.06261" lon="1.69246">
        <ele>113</ele>
        <time>2011-03-27T13:18:27Z</time>
      </trkpt>
      <trkpt lat="44.06255" lon="1.69232">
        <ele>112</ele>
        <time>2011-03-27T13:18:29Z</time>
      </trkpt>
      <trkpt lat="44.06248" lon="1.69212">
        <ele>127</ele>
        <time>2011-03-27T13:18:32Z</time>
      </trkpt>
      <trkpt lat="44.06241" lon="1.69192">
        <ele>126</ele>
        <time>2011-03-27T13:18:35Z</time>
      </trkpt>
      <trkpt lat="44.06236" lon="1.69177">
        <ele>124</ele>
        <time>2011-03-27T13:18:37Z</time>
      </trkpt>
      <trkpt lat="44.06231" lon="1.69161">
        <ele>124</ele>
        <time>2011-03-27T13:18:39Z</time>
      </trkpt>
      <trkpt lat="44.06224" lon="1.69136">
        <ele>128</ele>
        <time>2011-03-27T13:18:42Z</time>
      </trkpt>
      <trkpt lat="44.06218" lon="1.69113">
        <ele>129</ele>
        <time>2011-03-27T13:18:45Z</time>
      </trkpt>
      <trkpt lat="44.06214" lon="1.69096">
        <ele>129</ele>
        <time>2011-03-27T13:18:47Z</time>
      </trkpt>
      <trkpt lat="44.06209" lon="1.69072">
        <ele>127</ele>
        <time>2011-03-27T13:18:50Z</time>
      </trkpt>
      <trkpt lat="44.06203" lon="1.69049">
        <ele>128</ele>
        <time>2011-03-27T13:18:53Z</time>
      </trkpt>
      <trkpt lat="44.062" lon="1.69033">
        <ele>128</ele>
        <time>2011-03-27T13:18:55Z</time>
      </trkpt>
      <trkpt lat="44.06195" lon="1.6901">
        <ele>130</ele>
        <time>2011-03-27T13:18:58Z</time>
      </trkpt>
      <trkpt lat="44.06192" lon="1.68995">
        <ele>129</ele>
        <time>2011-03-27T13:19:00Z</time>
      </trkpt>
      <trkpt lat="44.06189" lon="1.68972">
        <ele>128</ele>
        <time>2011-03-27T13:19:03Z</time>
      </trkpt>
      <trkpt lat="44.06187" lon="1.68957">
        <ele>127</ele>
        <time>2011-03-27T13:19:05Z</time>
      </trkpt>
      <trkpt lat="44.06184" lon="1.68933">
        <ele>129</ele>
        <time>2011-03-27T13:19:08Z</time>
      </trkpt>
      <trkpt lat="44.06181" lon="1.6891">
        <ele>131</ele>
        <time>2011-03-27T13:19:11Z</time>
      </trkpt>
      <trkpt lat="44.0618" lon="1.68887">
        <ele>127</ele>
        <time>2011-03-27T13:19:14Z</time>
      </trkpt>
      <trkpt lat="44.06179" lon="1.68863">
        <ele>127</ele>
        <time>2011-03-27T13:19:17Z</time>
      </trkpt>
      <trkpt lat="44.06178" lon="1.68838">
        <ele>131</ele>
        <time>2011-03-27T13:19:20Z</time>
      </trkpt>
      <trkpt lat="44.06178" lon="1.68821">
        <ele>129</ele>
        <time>2011-03-27T13:19:22Z</time>
      </trkpt>
      <trkpt lat="44.06178" lon="1.68796">
        <ele>127</ele>
        <time>2011-03-27T13:19:25Z</time>
      </trkpt>
      <trkpt lat="44.06177" lon="1.68773">
        <ele>128</ele>
        <time>2011-03-27T13:19:28Z</time>
      </trkpt>
      <trkpt lat="44.06179" lon="1.68749">
        <ele>131</ele>
        <time>2011-03-27T13:19:31Z</time>
      </trkpt>
      <trkpt lat="44.06179" lon="1.68733">
        <ele>129</ele>
        <time>2011-03-27T13:19:33Z</time>
      </trkpt>
      <trkpt lat="44.06181" lon="1.6871">
        <ele>127</ele>
        <time>2011-03-27T13:19:36Z</time>
      </trkpt>
      <trkpt lat="44.06184" lon="1.68685">
        <ele>129</ele>
        <time>2011-03-27T13:19:39Z</time>
      </trkpt>
      <trkpt lat="44.06187" lon="1.68669">
        <ele>130</ele>
        <time>2011-03-27T13:19:41Z</time>
      </trkpt>
      <trkpt lat="44.06189" lon="1.68653">
        <ele>130</ele>
        <time>2011-03-27T13:19:43Z</time>
      </trkpt>
      <trkpt lat="44.06194" lon="1.68629">
        <ele>128</ele>
        <time>2011-03-27T13:19:46Z</time>
      </trkpt>
      <trkpt lat="44.06198" lon="1.68606">
        <ele>129</ele>
        <time>2011-03-27T13:19:49Z</time>
      </trkpt>
      <trkpt lat="44.06202" lon="1.68591">
        <ele>128</ele>
        <time>2011-03-27T13:19:51Z</time>
      </trkpt>
      <trkpt lat="44.06208" lon="1.68567">
        <ele>132</ele>
        <time>2011-03-27T13:19:54Z</time>
      </trkpt>
      <trkpt lat="44.06212" lon="1.68552">
        <ele>132</ele>
        <time>2011-03-27T13:19:56Z</time>
      </trkpt>
      <trkpt lat="44.06219" lon="1.68529">
        <ele>132</ele>
        <time>2011-03-27T13:19:59Z</time>
      </trkpt>
      <trkpt lat="44.06224" lon="1.68515">
        <ele>131</ele>
        <time>2011-03-27T13:20:01Z</time>
      </trkpt>
      <trkpt lat="44.06232" lon="1.68493">
        <ele>135</ele>
        <time>2011-03-27T13:20:04Z</time>
      </trkpt>
      <trkpt lat="44.0624" lon="1.68474">
        <ele>137</ele>
        <time>2011-03-27T13:20:07Z</time>
      </trkpt>
      <trkpt lat="44.06249" lon="1.68455">
        <ele>140</ele>
        <time>2011-03-27T13:20:10Z</time>
      </trkpt>
      <trkpt lat="44.06255" lon="1.68442">
        <ele>123</ele>
        <time>2011-03-27T13:20:12Z</time>
      </trkpt>
      <trkpt lat="44.06264" lon="1.68421">
        <ele>127</ele>
        <time>2011-03-27T13:20:15Z</time>
      </trkpt>
      <trkpt lat="44.06273" lon="1.68402">
        <ele>130</ele>
        <time>2011-03-27T13:20:18Z</time>
      </trkpt>
      <trkpt lat="44.0628" lon="1.6839">
        <ele>130</ele>
        <time>2011-03-27T13:20:20Z</time>
      </trkpt>
      <trkpt lat="44.0629" lon="1.68374">
        <ele>129</ele>
        <time>2011-03-27T13:20:23Z</time>
      </trkpt>
      <trkpt lat="44.06299" lon="1.68356">
        <ele>128</ele>
        <time>2011-03-27T13:20:26Z</time>
      </trkpt>
      <trkpt lat="44.06311" lon="1.68335">
        <ele>124</ele>
        <time>2011-03-27T13:20:29Z</time>
      </trkpt>
      <trkpt lat="44.06323" lon="1.68315">
        <ele>131</ele>
        <time>2011-03-27T13:20:32Z</time>
      </trkpt>
      <trkpt lat="44.06335" lon="1.68293">
        <ele>115</ele>
        <time>2011-03-27T13:20:35Z</time>
      </trkpt>
      <trkpt lat="44.06343" lon="1.68279">
        <ele>116</ele>
        <time>2011-03-27T13:20:37Z</time>
      </trkpt>
      <trkpt lat="44.06354" lon="1.68256">
        <ele>118</ele>
        <time>2011-03-27T13:20:40Z</time>
      </trkpt>
      <trkpt lat="44.06366" lon="1.68232">
        <ele>121</ele>
        <time>2011-03-27T13:20:43Z</time>
      </trkpt>
      <trkpt lat="44.0638" lon="1.68206">
        <ele>121</ele>
        <time>2011-03-27T13:20:46Z</time>
      </trkpt>
      <trkpt lat="44.06394" lon="1.68183">
        <ele>118</ele>
        <time>2011-03-27T13:20:49Z</time>
      </trkpt>
      <trkpt lat="44.06408" lon="1.68159">
        <ele>118</ele>
        <time>2011-03-27T13:20:52Z</time>
      </trkpt>
      <trkpt lat="44.06422" lon="1.68137">
        <ele>111</ele>
        <time>2011-03-27T13:20:55Z</time>
      </trkpt>
      <trkpt lat="44.0643" lon="1.68122">
        <ele>111</ele>
        <time>2011-03-27T13:20:57Z</time>
      </trkpt>
      <trkpt lat="44.06438" lon="1.68108">
        <ele>112</ele>
        <time>2011-03-27T13:20:59Z</time>
      </trkpt>
      <trkpt lat="44.06444" lon="1.68093">
        <ele>112</ele>
        <time>2011-03-27T13:21:01Z</time>
      </trkpt>
      <trkpt lat="44.06452" lon="1.68073">
        <ele>114</ele>
        <time>2011-03-27T13:21:04Z</time>
      </trkpt>
      <trkpt lat="44.06457" lon="1.68058">
        <ele>114</ele>
        <time>2011-03-27T13:21:06Z</time>
      </trkpt>
      <trkpt lat="44.06464" lon="1.68036">
        <ele>114</ele>
        <time>2011-03-27T13:21:09Z</time>
      </trkpt>
      <trkpt lat="44.06469" lon="1.68014">
        <ele>114</ele>
        <time>2011-03-27T13:21:12Z</time>
      </trkpt>
      <trkpt lat="44.06471" lon="1.67998">
        <ele>117</ele>
        <time>2011-03-27T13:21:14Z</time>
      </trkpt>
      <trkpt lat="44.06473" lon="1.67983">
        <ele>118</ele>
        <time>2011-03-27T13:21:16Z</time>
      </trkpt>
      <trkpt lat="44.06476" lon="1.67968">
        <ele>118</ele>
        <time>2011-03-27T13:21:18Z</time>
      </trkpt>
      <trkpt lat="44.06478" lon="1.67942">
        <ele>119</ele>
        <time>2011-03-27T13:21:21Z</time>
      </trkpt>
      <trkpt lat="44.06479" lon="1.67926">
        <ele>118</ele>
        <time>2011-03-27T13:21:23Z</time>
      </trkpt>
      <trkpt lat="44.0648" lon="1.6791">
        <ele>121</ele>
        <time>2011-03-27T13:21:25Z</time>
      </trkpt>
      <trkpt lat="44.0648" lon="1.67885">
        <ele>124</ele>
        <time>2011-03-27T13:21:28Z</time>
      </trkpt>
      <trkpt lat="44.06479" lon="1.67859">
        <ele>124</ele>
        <time>2011-03-27T13:21:31Z</time>
      </trkpt>
      <trkpt lat="44.06477" lon="1.67834">
        <ele>124</ele>
        <time>2011-03-27T13:21:34Z</time>
      </trkpt>
      <trkpt lat="44.06474" lon="1.67809">
        <ele>129</ele>
        <time>2011-03-27T13:21:37Z</time>
      </trkpt>
      <trkpt lat="44.0647" lon="1.67785">
        <ele>130</ele>
        <time>2011-03-27T13:21:40Z</time>
      </trkpt>
      <trkpt lat="44.06467" lon="1.6777">
        <ele>131</ele>
        <time>2011-03-27T13:21:42Z</time>
      </trkpt>
      <trkpt lat="44.06461" lon="1.67748">
        <ele>135</ele>
        <time>2011-03-27T13:21:45Z</time>
      </trkpt>
      <trkpt lat="44.06457" lon="1.67733">
        <ele>136</ele>
        <time>2011-03-27T13:21:47Z</time>
      </trkpt>
      <trkpt lat="44.06452" lon="1.67711">
        <ele>136</ele>
        <time>2011-03-27T13:21:50Z</time>
      </trkpt>
      <trkpt lat="44.06448" lon="1.67696">
        <ele>137</ele>
        <time>2011-03-27T13:21:52Z</time>
      </trkpt>
      <trkpt lat="44.06443" lon="1.67674">
        <ele>137</ele>
        <time>2011-03-27T13:21:55Z</time>
      </trkpt>
      <trkpt lat="44.064" lon="1.676">
        <ele>128</ele>
        <time>2011-03-27T13:22:08Z</time>
      </trkpt>
      <trkpt lat="44.06385" lon="1.67573">
        <ele>121</ele>
        <time>2011-03-27T13:22:11Z</time>
      </trkpt>
      <trkpt lat="44.06376" lon="1.67554">
        <ele>120</ele>
        <time>2011-03-27T13:22:14Z</time>
      </trkpt>
      <trkpt lat="44.06365" lon="1.67538">
        <ele>120</ele>
        <time>2011-03-27T13:22:17Z</time>
      </trkpt>
      <trkpt lat="44.06352" lon="1.67525">
        <ele>119</ele>
        <time>2011-03-27T13:22:20Z</time>
      </trkpt>
      <trkpt lat="44.06339" lon="1.67513">
        <ele>117</ele>
        <time>2011-03-27T13:22:23Z</time>
      </trkpt>
      <trkpt lat="44.06331" lon="1.67505">
        <ele>117</ele>
        <time>2011-03-27T13:22:25Z</time>
      </trkpt>
      <trkpt lat="44.06323" lon="1.67497">
        <ele>115</ele>
        <time>2011-03-27T13:22:27Z</time>
      </trkpt>
      <trkpt lat="44.06311" lon="1.67487">
        <ele>114</ele>
        <time>2011-03-27T13:22:30Z</time>
      </trkpt>
      <trkpt lat="44.06297" lon="1.67477">
        <ele>114</ele>
        <time>2011-03-27T13:22:33Z</time>
      </trkpt>
      <trkpt lat="44.06287" lon="1.67472">
        <ele>114</ele>
        <time>2011-03-27T13:22:35Z</time>
      </trkpt>
      <trkpt lat="44.06277" lon="1.67466">
        <ele>114</ele>
        <time>2011-03-27T13:22:37Z</time>
      </trkpt>
      <trkpt lat="44.06263" lon="1.6746">
        <ele>114</ele>
        <time>2011-03-27T13:22:40Z</time>
      </trkpt>
      <trkpt lat="44.06248" lon="1.67455">
        <ele>117</ele>
        <time>2011-03-27T13:22:43Z</time>
      </trkpt>
      <trkpt lat="44.06239" lon="1.67452">
        <ele>117</ele>
        <time>2011-03-27T13:22:45Z</time>
      </trkpt>
      <trkpt lat="44.06224" lon="1.67448">
        <ele>118</ele>
        <time>2011-03-27T13:22:48Z</time>
      </trkpt>
      <trkpt lat="44.06209" lon="1.67444">
        <ele>118</ele>
        <time>2011-03-27T13:22:51Z</time>
      </trkpt>
      <trkpt lat="44.06194" lon="1.67439">
        <ele>118</ele>
        <time>2011-03-27T13:22:54Z</time>
      </trkpt>
      <trkpt lat="44.06179" lon="1.67433">
        <ele>117</ele>
        <time>2011-03-27T13:22:57Z</time>
      </trkpt>
      <trkpt lat="44.06169" lon="1.67429">
        <ele>117</ele>
        <time>2011-03-27T13:22:59Z</time>
      </trkpt>
      <trkpt lat="44.06154" lon="1.67423">
        <ele>120</ele>
        <time>2011-03-27T13:23:02Z</time>
      </trkpt>
      <trkpt lat="44.06143" lon="1.6742">
        <ele>122</ele>
        <time>2011-03-27T13:23:04Z</time>
      </trkpt>
      <trkpt lat="44.06133" lon="1.67418">
        <ele>123</ele>
        <time>2011-03-27T13:23:06Z</time>
      </trkpt>
      <trkpt lat="44.06116" lon="1.67413">
        <ele>112</ele>
        <time>2011-03-27T13:23:09Z</time>
      </trkpt>
      <trkpt lat="44.06099" lon="1.6741">
        <ele>113</ele>
        <time>2011-03-27T13:23:12Z</time>
      </trkpt>
      <trkpt lat="44.06088" lon="1.67407">
        <ele>114</ele>
        <time>2011-03-27T13:23:14Z</time>
      </trkpt>
      <trkpt lat="44.06077" lon="1.67404">
        <ele>114</ele>
        <time>2011-03-27T13:23:16Z</time>
      </trkpt>
      <trkpt lat="44.06061" lon="1.674">
        <ele>113</ele>
        <time>2011-03-27T13:23:19Z</time>
      </trkpt>
      <trkpt lat="44.06045" lon="1.67396">
        <ele>113</ele>
        <time>2011-03-27T13:23:22Z</time>
      </trkpt>
      <trkpt lat="44.0603" lon="1.67391">
        <ele>113</ele>
        <time>2011-03-27T13:23:25Z</time>
      </trkpt>
      <trkpt lat="44.06014" lon="1.67386">
        <ele>113</ele>
        <time>2011-03-27T13:23:28Z</time>
      </trkpt>
      <trkpt lat="44.06003" lon="1.67382">
        <ele>113</ele>
        <time>2011-03-27T13:23:30Z</time>
      </trkpt>
      <trkpt lat="44.05993" lon="1.67378">
        <ele>116</ele>
        <time>2011-03-27T13:23:32Z</time>
      </trkpt>
      <trkpt lat="44.05978" lon="1.67373">
        <ele>116</ele>
        <time>2011-03-27T13:23:35Z</time>
      </trkpt>
      <trkpt lat="44.05968" lon="1.6737">
        <ele>116</ele>
        <time>2011-03-27T13:23:37Z</time>
      </trkpt>
      <trkpt lat="44.05952" lon="1.67365">
        <ele>115</ele>
        <time>2011-03-27T13:23:40Z</time>
      </trkpt>
      <trkpt lat="44.05935" lon="1.6736">
        <ele>115</ele>
        <time>2011-03-27T13:23:43Z</time>
      </trkpt>
      <trkpt lat="44.05924" lon="1.67357">
        <ele>114</ele>
        <time>2011-03-27T13:23:45Z</time>
      </trkpt>
      <trkpt lat="44.05907" lon="1.67353">
        <ele>118</ele>
        <time>2011-03-27T13:23:48Z</time>
      </trkpt>
      <trkpt lat="44.05896" lon="1.6735">
        <ele>119</ele>
        <time>2011-03-27T13:23:50Z</time>
      </trkpt>
      <trkpt lat="44.0588" lon="1.67346">
        <ele>121</ele>
        <time>2011-03-27T13:23:53Z</time>
      </trkpt>
      <trkpt lat="44.05864" lon="1.6734">
        <ele>122</ele>
        <time>2011-03-27T13:23:56Z</time>
      </trkpt>
      <trkpt lat="44.05848" lon="1.67334">
        <ele>121</ele>
        <time>2011-03-27T13:23:59Z</time>
      </trkpt>
      <trkpt lat="44.05837" lon="1.6733">
        <ele>116</ele>
        <time>2011-03-27T13:24:01Z</time>
      </trkpt>
      <trkpt lat="44.05822" lon="1.67323">
        <ele>122</ele>
        <time>2011-03-27T13:24:04Z</time>
      </trkpt>
      <trkpt lat="44.05813" lon="1.67317">
        <ele>124</ele>
        <time>2011-03-27T13:24:06Z</time>
      </trkpt>
      <trkpt lat="44.05799" lon="1.67309">
        <ele>127</ele>
        <time>2011-03-27T13:24:09Z</time>
      </trkpt>
      <trkpt lat="44.05789" lon="1.67303">
        <ele>128</ele>
        <time>2011-03-27T13:24:11Z</time>
      </trkpt>
      <trkpt lat="44.05775" lon="1.67293">
        <ele>129</ele>
        <time>2011-03-27T13:24:14Z</time>
      </trkpt>
      <trkpt lat="44.05766" lon="1.67285">
        <ele>128</ele>
        <time>2011-03-27T13:24:16Z</time>
      </trkpt>
      <trkpt lat="44.05752" lon="1.67274">
        <ele>126</ele>
        <time>2011-03-27T13:24:19Z</time>
      </trkpt>
      <trkpt lat="44.05738" lon="1.67261">
        <ele>139</ele>
        <time>2011-03-27T13:24:22Z</time>
      </trkpt>
      <trkpt lat="44.05726" lon="1.67246">
        <ele>126</ele>
        <time>2011-03-27T13:24:25Z</time>
      </trkpt>
      <trkpt lat="44.05718" lon="1.67236">
        <ele>128</ele>
        <time>2011-03-27T13:24:27Z</time>
      </trkpt>
      <trkpt lat="44.0571" lon="1.67226">
        <ele>128</ele>
        <time>2011-03-27T13:24:29Z</time>
      </trkpt>
      <trkpt lat="44.05703" lon="1.67215">
        <ele>128</ele>
        <time>2011-03-27T13:24:31Z</time>
      </trkpt>
      <trkpt lat="44.05693" lon="1.67199">
        <ele>126</ele>
        <time>2011-03-27T13:24:34Z</time>
      </trkpt>
      <trkpt lat="44.05683" lon="1.67181">
        <ele>124</ele>
        <time>2011-03-27T13:24:37Z</time>
      </trkpt>
      <trkpt lat="44.05673" lon="1.67163">
        <ele>117</ele>
        <time>2011-03-27T13:24:40Z</time>
      </trkpt>
      <trkpt lat="44.05668" lon="1.6715">
        <ele>115</ele>
        <time>2011-03-27T13:24:42Z</time>
      </trkpt>
      <trkpt lat="44.0566" lon="1.6713">
        <ele>116</ele>
        <time>2011-03-27T13:24:45Z</time>
      </trkpt>
      <trkpt lat="44.05653" lon="1.67111">
        <ele>114</ele>
        <time>2011-03-27T13:24:48Z</time>
      </trkpt>
      <trkpt lat="44.05649" lon="1.67098">
        <ele>113</ele>
        <time>2011-03-27T13:24:50Z</time>
      </trkpt>
      <trkpt lat="44.05642" lon="1.6708">
        <ele>107</ele>
        <time>2011-03-27T13:24:53Z</time>
      </trkpt>
      <trkpt lat="44.0563" lon="1.67072">
        <ele>106</ele>
        <time>2011-03-27T13:24:56Z</time>
      </trkpt>
      <trkpt lat="44.05616" lon="1.67077">
        <ele>106</ele>
        <time>2011-03-27T13:24:59Z</time>
      </trkpt>
      <trkpt lat="44.05602" lon="1.67085">
        <ele>112</ele>
        <time>2011-03-27T13:25:02Z</time>
      </trkpt>
      <trkpt lat="44.05593" lon="1.67091">
        <ele>111</ele>
        <time>2011-03-27T13:25:04Z</time>
      </trkpt>
      <trkpt lat="44.05583" lon="1.67097">
        <ele>110</ele>
        <time>2011-03-27T13:25:06Z</time>
      </trkpt>
      <trkpt lat="44.05573" lon="1.67103">
        <ele>112</ele>
        <time>2011-03-27T13:25:08Z</time>
      </trkpt>
      <trkpt lat="44.05563" lon="1.67109">
        <ele>113</ele>
        <time>2011-03-27T13:25:10Z</time>
      </trkpt>
      <trkpt lat="44.05548" lon="1.67119">
        <ele>113</ele>
        <time>2011-03-27T13:25:13Z</time>
      </trkpt>
      <trkpt lat="44.05538" lon="1.67126">
        <ele>114</ele>
        <time>2011-03-27T13:25:15Z</time>
      </trkpt>
      <trkpt lat="44.05523" lon="1.67136">
        <ele>114</ele>
        <time>2011-03-27T13:25:18Z</time>
      </trkpt>
      <trkpt lat="44.05508" lon="1.67146">
        <ele>114</ele>
        <time>2011-03-27T13:25:21Z</time>
      </trkpt>
      <trkpt lat="44.05498" lon="1.67152">
        <ele>110</ele>
        <time>2011-03-27T13:25:23Z</time>
      </trkpt>
      <trkpt lat="44.05483" lon="1.67162">
        <ele>110</ele>
        <time>2011-03-27T13:25:26Z</time>
      </trkpt>
      <trkpt lat="44.05474" lon="1.67168">
        <ele>115</ele>
        <time>2011-03-27T13:25:28Z</time>
      </trkpt>
      <trkpt lat="44.05465" lon="1.67174">
        <ele>115</ele>
        <time>2011-03-27T13:25:30Z</time>
      </trkpt>
      <trkpt lat="44.05449" lon="1.67182">
        <ele>114</ele>
        <time>2011-03-27T13:25:33Z</time>
      </trkpt>
      <trkpt lat="44.05433" lon="1.67188">
        <ele>112</ele>
        <time>2011-03-27T13:25:36Z</time>
      </trkpt>
      <trkpt lat="44.05417" lon="1.67192">
        <ele>112</ele>
        <time>2011-03-27T13:25:39Z</time>
      </trkpt>
      <trkpt lat="44.05402" lon="1.67195">
        <ele>108</ele>
        <time>2011-03-27T13:25:42Z</time>
      </trkpt>
      <trkpt lat="44.05388" lon="1.67198">
        <ele>108</ele>
        <time>2011-03-27T13:25:45Z</time>
      </trkpt>
      <trkpt lat="44.05375" lon="1.67193">
        <ele>108</ele>
        <time>2011-03-27T13:25:48Z</time>
      </trkpt>
      <trkpt lat="44.05368" lon="1.67176">
        <ele>107</ele>
        <time>2011-03-27T13:25:51Z</time>
      </trkpt>
      <trkpt lat="44.05364" lon="1.67154">
        <ele>104</ele>
        <time>2011-03-27T13:25:54Z</time>
      </trkpt>
      <trkpt lat="44.05361" lon="1.67139">
        <ele>104</ele>
        <time>2011-03-27T13:25:56Z</time>
      </trkpt>
      <trkpt lat="44.05357" lon="1.67123">
        <ele>104</ele>
        <time>2011-03-27T13:25:58Z</time>
      </trkpt>
      <trkpt lat="44.05349" lon="1.67102">
        <ele>104</ele>
        <time>2011-03-27T13:26:01Z</time>
      </trkpt>
      <trkpt lat="44.0534" lon="1.67086">
        <ele>105</ele>
        <time>2011-03-27T13:26:04Z</time>
      </trkpt>
      <trkpt lat="44.0533" lon="1.67076">
        <ele>106</ele>
        <time>2011-03-27T13:26:07Z</time>
      </trkpt>
      <trkpt lat="44.05321" lon="1.67067">
        <ele>108</ele>
        <time>2011-03-27T13:26:10Z</time>
      </trkpt>
      <trkpt lat="44.05312" lon="1.67055">
        <ele>109</ele>
        <time>2011-03-27T13:26:13Z</time>
      </trkpt>
      <trkpt lat="44.05308" lon="1.67043">
        <ele>109</ele>
        <time>2011-03-27T13:26:15Z</time>
      </trkpt>
      <trkpt lat="44.05307" lon="1.67024">
        <ele>110</ele>
        <time>2011-03-27T13:26:18Z</time>
      </trkpt>
      <trkpt lat="44.0531" lon="1.67011">
        <ele>110</ele>
        <time>2011-03-27T13:26:21Z</time>
      </trkpt>
      <trkpt lat="44.05316" lon="1.67">
        <ele>117</ele>
        <time>2011-03-27T13:26:25Z</time>
      </trkpt>
      <trkpt lat="44.05322" lon="1.6699">
        <ele>117</ele>
        <time>2011-03-27T13:26:29Z</time>
      </trkpt>
      <trkpt lat="44.05329" lon="1.6698">
        <ele>119</ele>
        <time>2011-03-27T13:26:34Z</time>
      </trkpt>
      <trkpt lat="44.05336" lon="1.6697">
        <ele>111</ele>
        <time>2011-03-27T13:26:39Z</time>
      </trkpt>
      <trkpt lat="44.05343" lon="1.66959">
        <ele>112</ele>
        <time>2011-03-27T13:26:44Z</time>
      </trkpt>
      <trkpt lat="44.05351" lon="1.66949">
        <ele>113</ele>
        <time>2011-03-27T13:26:49Z</time>
      </trkpt>
      <trkpt lat="44.05358" lon="1.6694">
        <ele>114</ele>
        <time>2011-03-27T13:26:54Z</time>
      </trkpt>
      <trkpt lat="44.05366" lon="1.66929">
        <ele>114</ele>
        <time>2011-03-27T13:26:59Z</time>
      </trkpt>
      <trkpt lat="44.05372" lon="1.6692">
        <ele>113</ele>
        <time>2011-03-27T13:27:04Z</time>
      </trkpt>
      <trkpt lat="44.0538" lon="1.6691">
        <ele>120</ele>
        <time>2011-03-27T13:27:10Z</time>
      </trkpt>
      <trkpt lat="44.05386" lon="1.66901">
        <ele>120</ele>
        <time>2011-03-27T13:27:14Z</time>
      </trkpt>
      <trkpt lat="44.05392" lon="1.66892">
        <ele>120</ele>
        <time>2011-03-27T13:27:18Z</time>
      </trkpt>
      <trkpt lat="44.054" lon="1.66882">
        <ele>120</ele>
        <time>2011-03-27T13:27:24Z</time>
      </trkpt>
      <trkpt lat="44.05406" lon="1.66873">
        <ele>121</ele>
        <time>2011-03-27T13:27:31Z</time>
      </trkpt>
      <trkpt lat="44.05411" lon="1.6686">
        <ele>121</ele>
        <time>2011-03-27T13:27:38Z</time>
      </trkpt>
      <trkpt lat="44.05413" lon="1.66848">
        <ele>122</ele>
        <time>2011-03-27T13:27:43Z</time>
      </trkpt>
      <trkpt lat="44.05413" lon="1.66834">
        <ele>121</ele>
        <time>2011-03-27T13:27:49Z</time>
      </trkpt>
      <trkpt lat="44.05411" lon="1.66821">
        <ele>127</ele>
        <time>2011-03-27T13:27:55Z</time>
      </trkpt>
      <trkpt lat="44.05409" lon="1.66808">
        <ele>130</ele>
        <time>2011-03-27T13:28:01Z</time>
      </trkpt>
      <trkpt lat="44.05405" lon="1.66795">
        <ele>132</ele>
        <time>2011-03-27T13:28:07Z</time>
      </trkpt>
      <trkpt lat="44.05401" lon="1.66784">
        <ele>134</ele>
        <time>2011-03-27T13:28:12Z</time>
      </trkpt>
      <trkpt lat="44.05398" lon="1.66772">
        <ele>134</ele>
        <time>2011-03-27T13:28:17Z</time>
      </trkpt>
      <trkpt lat="44.05395" lon="1.6676">
        <ele>134</ele>
        <time>2011-03-27T13:28:22Z</time>
      </trkpt>
      <trkpt lat="44.05392" lon="1.66748">
        <ele>138</ele>
        <time>2011-03-27T13:28:27Z</time>
      </trkpt>
      <trkpt lat="44.05389" lon="1.66734">
        <ele>139</ele>
        <time>2011-03-27T13:28:33Z</time>
      </trkpt>
      <trkpt lat="44.05384" lon="1.66721">
        <ele>140</ele>
        <time>2011-03-27T13:28:38Z</time>
      </trkpt>
      <trkpt lat="44.05381" lon="1.66707">
        <ele>140</ele>
        <time>2011-03-27T13:28:43Z</time>
      </trkpt>
      <trkpt lat="44.05378" lon="1.66694">
        <ele>141</ele>
        <time>2011-03-27T13:28:48Z</time>
      </trkpt>
      <trkpt lat="44.05376" lon="1.66681">
        <ele>141</ele>
        <time>2011-03-27T13:28:53Z</time>
      </trkpt>
      <trkpt lat="44.05374" lon="1.66667">
        <ele>141</ele>
        <time>2011-03-27T13:28:59Z</time>
      </trkpt>
      <trkpt lat="44.05371" lon="1.66655">
        <ele>142</ele>
        <time>2011-03-27T13:29:04Z</time>
      </trkpt>
      <trkpt lat="44.05369" lon="1.6664">
        <ele>142</ele>
        <time>2011-03-27T13:29:11Z</time>
      </trkpt>
      <trkpt lat="44.05365" lon="1.66627">
        <ele>142</ele>
        <time>2011-03-27T13:29:17Z</time>
      </trkpt>
      <trkpt lat="44.05361" lon="1.66613">
        <ele>142</ele>
        <time>2011-03-27T13:29:23Z</time>
      </trkpt>
      <trkpt lat="44.05358" lon="1.666">
        <ele>142</ele>
        <time>2011-03-27T13:29:29Z</time>
      </trkpt>
      <trkpt lat="44.05356" lon="1.66587">
        <ele>142</ele>
        <time>2011-03-27T13:29:35Z</time>
      </trkpt>
      <trkpt lat="44.05357" lon="1.66573">
        <ele>142</ele>
        <time>2011-03-27T13:29:41Z</time>
      </trkpt>
      <trkpt lat="44.05358" lon="1.66558">
        <ele>142</ele>
        <time>2011-03-27T13:29:47Z</time>
      </trkpt>
      <trkpt lat="44.05358" lon="1.66546">
        <ele>142</ele>
        <time>2011-03-27T13:29:52Z</time>
      </trkpt>
      <trkpt lat="44.05358" lon="1.66532">
        <ele>142</ele>
        <time>2011-03-27T13:29:58Z</time>
      </trkpt>
      <trkpt lat="44.05358" lon="1.66519">
        <ele>142</ele>
        <time>2011-03-27T13:30:04Z</time>
      </trkpt>
      <trkpt lat="44.05359" lon="1.66505">
        <ele>142</ele>
        <time>2011-03-27T13:30:10Z</time>
      </trkpt>
      <trkpt lat="44.05358" lon="1.66492">
        <ele>141</ele>
        <time>2011-03-27T13:30:15Z</time>
      </trkpt>
      <trkpt lat="44.05358" lon="1.66477">
        <ele>141</ele>
        <time>2011-03-27T13:30:21Z</time>
      </trkpt>
      <trkpt lat="44.05359" lon="1.66464">
        <ele>141</ele>
        <time>2011-03-27T13:30:26Z</time>
      </trkpt>
      <trkpt lat="44.05359" lon="1.6645">
        <ele>140</ele>
        <time>2011-03-27T13:30:31Z</time>
      </trkpt>
      <trkpt lat="44.05359" lon="1.66434">
        <ele>140</ele>
        <time>2011-03-27T13:30:35Z</time>
      </trkpt>
      <trkpt lat="44.05359" lon="1.66419">
        <ele>140</ele>
        <time>2011-03-27T13:30:38Z</time>
      </trkpt>
      <trkpt lat="44.05359" lon="1.66402">
        <ele>139</ele>
        <time>2011-03-27T13:30:41Z</time>
      </trkpt>
      <trkpt lat="44.05359" lon="1.66389">
        <ele>139</ele>
        <time>2011-03-27T13:30:43Z</time>
      </trkpt>
      <trkpt lat="44.0536" lon="1.66369">
        <ele>139</ele>
        <time>2011-03-27T13:30:46Z</time>
      </trkpt>
      <trkpt lat="44.05359" lon="1.66348">
        <ele>139</ele>
        <time>2011-03-27T13:30:49Z</time>
      </trkpt>
      <trkpt lat="44.05362" lon="1.66326">
        <ele>138</ele>
        <time>2011-03-27T13:30:52Z</time>
      </trkpt>
      <trkpt lat="44.05364" lon="1.66311">
        <ele>137</ele>
        <time>2011-03-27T13:30:54Z</time>
      </trkpt>
      <trkpt lat="44.05368" lon="1.66291">
        <ele>137</ele>
        <time>2011-03-27T13:30:57Z</time>
      </trkpt>
      <trkpt lat="44.05374" lon="1.66267">
        <ele>137</ele>
        <time>2011-03-27T13:31:00Z</time>
      </trkpt>
      <trkpt lat="44.05377" lon="1.66251">
        <ele>137</ele>
        <time>2011-03-27T13:31:02Z</time>
      </trkpt>
      <trkpt lat="44.05382" lon="1.66228">
        <ele>137</ele>
        <time>2011-03-27T13:31:05Z</time>
      </trkpt>
      <trkpt lat="44.0539" lon="1.66208">
        <ele>136</ele>
        <time>2011-03-27T13:31:08Z</time>
      </trkpt>
      <trkpt lat="44.05396" lon="1.66192">
        <ele>136</ele>
        <time>2011-03-27T13:31:11Z</time>
      </trkpt>
      <trkpt lat="44.05407" lon="1.66191">
        <ele>136</ele>
        <time>2011-03-27T13:31:14Z</time>
      </trkpt>
      <trkpt lat="44.05415" lon="1.66195">
        <ele>136</ele>
        <time>2011-03-27T13:31:19Z</time>
      </trkpt>
      <trkpt lat="44.05415" lon="1.66195">
        <ele>136</ele>
        <time>2011-03-27T13:31:20Z</time>
      </trkpt>
      <trkpt lat="44.05429" lon="1.66187">
        <ele>136</ele>
        <time>2011-03-27T13:31:42Z</time>
      </trkpt>
      <trkpt lat="44.05438" lon="1.66187">
        <ele>137</ele>
        <time>2011-03-27T13:31:47Z</time>
      </trkpt>
      <trkpt lat="44.05438" lon="1.66187">
        <ele>137</ele>
        <time>2011-03-27T13:31:51Z</time>
      </trkpt>
      <trkpt lat="44.05438" lon="1.66187">
        <ele>137</ele>
        <time>2011-03-27T13:32:14Z</time>
      </trkpt>
    </trkseg>
  </trk>
</gpx>